<?xml version="1.0" encoding="utf-8"?>
<gpx xmlns:tc2="http://www.garmin.com/xmlschemas/TrainingCenterDatabase/v2" xmlns:xsi="http://www.w3.org/2001/XMLSchema-instance" xmlns:tp1="http://www.garmin.com/xmlschemas/TrackPointExtension/v1" xmlns="http://www.topografix.com/GPX/1/1" version="1.1" creator="TC2 to GPX11 XSLT stylesheet" xsi:schemaLocation="http://www.topografix.com/GPX/1/1 http://www.topografix.com/GPX/1/1/gpx.xsd http://www.garmin.com/xmlschemas/TrackPointExtension/v1 http://www.garmin.com/xmlschemas/TrackPointExtensionv1.xsd">
<trk>
<name>2010-06-27T06:18:28Z</name>
<trkseg>
<trkpt lat="51.8685350" lon="13.9611110">
<ele>-0.0000000</ele>
<time>2010-06-27T06:18:30Z</time>
<extensions>
<tp1:TrackPointExtension>
<tp1:hr>107</tp1:hr>
<tp1:cad>24</tp1:cad>
</tp1:TrackPointExtension>
</extensions>
</trkpt>
<trkpt lat="51.8684530" lon="13.9606090">
<ele>0.1340000</ele>
<time>2010-06-27T06:18:36Z</time>
<extensions>
<tp1:TrackPointExtension>
<tp1:hr>107</tp1:hr>
<tp1:cad>66</tp1:cad>
</tp1:TrackPointExtension>
</extensions>
</trkpt>
<trkpt lat="51.8683460" lon="13.9598390">
<ele>0.4760000</ele>
<time>2010-06-27T06:18:45Z</time>
<extensions>
<tp1:TrackPointExtension>
<tp1:hr>107</tp1:hr>
<tp1:cad>70</tp1:cad>
</tp1:TrackPointExtension>
</extensions>
</trkpt>
<trkpt lat="51.8682510" lon="13.9590830">
<ele>-0.3440000</ele>
<time>2010-06-27T06:18:53Z</time>
<extensions>
<tp1:TrackPointExtension>
<tp1:hr>109</tp1:hr>
<tp1:cad>74</tp1:cad>
</tp1:TrackPointExtension>
</extensions>
</trkpt>
<trkpt lat="51.8681780" lon="13.9586140">
<ele>-0.3160000</ele>
<time>2010-06-27T06:18:58Z</time>
<extensions>
<tp1:TrackPointExtension>
<tp1:hr>111</tp1:hr>
<tp1:cad>72</tp1:cad>
</tp1:TrackPointExtension>
</extensions>
</trkpt>
<trkpt lat="51.8681050" lon="13.9582420">
<ele>0.1540000</ele>
<time>2010-06-27T06:19:02Z</time>
<extensions>
<tp1:TrackPointExtension>
<tp1:hr>111</tp1:hr>
<tp1:cad>72</tp1:cad>
</tp1:TrackPointExtension>
</extensions>
</trkpt>
<trkpt lat="51.8678560" lon="13.9574610">
<ele>-0.4170000</ele>
<time>2010-06-27T06:19:11Z</time>
<extensions>
<tp1:TrackPointExtension>
<tp1:hr>111</tp1:hr>
<tp1:cad>71</tp1:cad>
</tp1:TrackPointExtension>
</extensions>
</trkpt>
<trkpt lat="51.8678290" lon="13.9573790">
<ele>-0.4310000</ele>
<time>2010-06-27T06:19:13Z</time>
<extensions>
<tp1:TrackPointExtension>
<tp1:hr>112</tp1:hr>
<tp1:cad>71</tp1:cad>
</tp1:TrackPointExtension>
</extensions>
</trkpt>
<trkpt lat="51.8677170" lon="13.9569470">
<ele>0.0620000</ele>
<time>2010-06-27T06:19:17Z</time>
<extensions>
<tp1:TrackPointExtension>
<tp1:hr>113</tp1:hr>
<tp1:cad>70</tp1:cad>
</tp1:TrackPointExtension>
</extensions>
</trkpt>
<trkpt lat="51.8676290" lon="13.9566030">
<ele>0.0510000</ele>
<time>2010-06-27T06:19:21Z</time>
<extensions>
<tp1:TrackPointExtension>
<tp1:hr>112</tp1:hr>
<tp1:cad>72</tp1:cad>
</tp1:TrackPointExtension>
</extensions>
</trkpt>
<trkpt lat="51.8675140" lon="13.9561580">
<ele>-0.0130000</ele>
<time>2010-06-27T06:19:26Z</time>
<extensions>
<tp1:TrackPointExtension>
<tp1:hr>112</tp1:hr>
<tp1:cad>74</tp1:cad>
</tp1:TrackPointExtension>
</extensions>
</trkpt>
<trkpt lat="51.8673410" lon="13.9557940">
<ele>0.0040000</ele>
<time>2010-06-27T06:19:31Z</time>
<extensions>
<tp1:TrackPointExtension>
<tp1:hr>111</tp1:hr>
<tp1:cad>74</tp1:cad>
</tp1:TrackPointExtension>
</extensions>
</trkpt>
<trkpt lat="51.8673010" lon="13.9557210">
<ele>-0.1030000</ele>
<time>2010-06-27T06:19:32Z</time>
<extensions>
<tp1:TrackPointExtension>
<tp1:hr>111</tp1:hr>
<tp1:cad>74</tp1:cad>
</tp1:TrackPointExtension>
</extensions>
</trkpt>
<trkpt lat="51.8667850" lon="13.9553770">
<ele>-0.0750000</ele>
<time>2010-06-27T06:19:41Z</time>
<extensions>
<tp1:TrackPointExtension>
<tp1:hr>109</tp1:hr>
<tp1:cad>74</tp1:cad>
</tp1:TrackPointExtension>
</extensions>
</trkpt>
<trkpt lat="51.8665300" lon="13.9549570">
<ele>0.2300000</ele>
<time>2010-06-27T06:19:47Z</time>
<extensions>
<tp1:TrackPointExtension>
<tp1:hr>107</tp1:hr>
<tp1:cad>72</tp1:cad>
</tp1:TrackPointExtension>
</extensions>
</trkpt>
<trkpt lat="51.8662390" lon="13.9545030">
<ele>0.2360000</ele>
<time>2010-06-27T06:19:54Z</time>
<extensions>
<tp1:TrackPointExtension>
<tp1:hr>107</tp1:hr>
<tp1:cad>73</tp1:cad>
</tp1:TrackPointExtension>
</extensions>
</trkpt>
<trkpt lat="51.8659260" lon="13.9542380">
<ele>0.4170000</ele>
<time>2010-06-27T06:20:00Z</time>
<extensions>
<tp1:TrackPointExtension>
<tp1:hr>106</tp1:hr>
<tp1:cad>69</tp1:cad>
</tp1:TrackPointExtension>
</extensions>
</trkpt>
<trkpt lat="51.8657680" lon="13.9541310">
<ele>0.7540000</ele>
<time>2010-06-27T06:20:03Z</time>
<extensions>
<tp1:TrackPointExtension>
<tp1:hr>106</tp1:hr>
<tp1:cad>69</tp1:cad>
</tp1:TrackPointExtension>
</extensions>
</trkpt>
<trkpt lat="51.8655380" lon="13.9540020">
<ele>0.2200000</ele>
<time>2010-06-27T06:20:08Z</time>
<extensions>
<tp1:TrackPointExtension>
<tp1:hr>109</tp1:hr>
<tp1:cad>63</tp1:cad>
</tp1:TrackPointExtension>
</extensions>
</trkpt>
<trkpt lat="51.8655560" lon="13.9537460">
<ele>0.2200000</ele>
<time>2010-06-27T06:20:09Z</time>
<extensions>
<tp1:TrackPointExtension>
<tp1:hr>109</tp1:hr>
<tp1:cad>64</tp1:cad>
</tp1:TrackPointExtension>
</extensions>
</trkpt>
<trkpt lat="51.8656620" lon="13.9532160">
<ele>0.0320000</ele>
<time>2010-06-27T06:20:16Z</time>
<extensions>
<tp1:TrackPointExtension>
<tp1:hr>109</tp1:hr>
<tp1:cad>72</tp1:cad>
</tp1:TrackPointExtension>
</extensions>
</trkpt>
<trkpt lat="51.8656400" lon="13.9522560">
<ele>0.1040000</ele>
<time>2010-06-27T06:20:25Z</time>
<extensions>
<tp1:TrackPointExtension>
<tp1:hr>107</tp1:hr>
<tp1:cad>73</tp1:cad>
</tp1:TrackPointExtension>
</extensions>
</trkpt>
<trkpt lat="51.8656220" lon="13.9513790">
<ele>0.1910000</ele>
<time>2010-06-27T06:20:34Z</time>
<extensions>
<tp1:TrackPointExtension>
<tp1:hr>108</tp1:hr>
<tp1:cad>73</tp1:cad>
</tp1:TrackPointExtension>
</extensions>
</trkpt>
<trkpt lat="51.8655990" lon="13.9506810">
<ele>0.0450000</ele>
<time>2010-06-27T06:20:41Z</time>
<extensions>
<tp1:TrackPointExtension>
<tp1:hr>110</tp1:hr>
<tp1:cad>76</tp1:cad>
</tp1:TrackPointExtension>
</extensions>
</trkpt>
<trkpt lat="51.8655530" lon="13.9494810">
<ele>0.2360000</ele>
<time>2010-06-27T06:20:53Z</time>
<extensions>
<tp1:TrackPointExtension>
<tp1:hr>109</tp1:hr>
<tp1:cad>75</tp1:cad>
</tp1:TrackPointExtension>
</extensions>
</trkpt>
<trkpt lat="51.8655060" lon="13.9482710">
<ele>0.2250000</ele>
<time>2010-06-27T06:21:05Z</time>
<extensions>
<tp1:TrackPointExtension>
<tp1:hr>108</tp1:hr>
<tp1:cad>76</tp1:cad>
</tp1:TrackPointExtension>
</extensions>
</trkpt>
<trkpt lat="51.8654680" lon="13.9472850">
<ele>0.5280000</ele>
<time>2010-06-27T06:21:15Z</time>
<extensions>
<tp1:TrackPointExtension>
<tp1:hr>109</tp1:hr>
<tp1:cad>75</tp1:cad>
</tp1:TrackPointExtension>
</extensions>
</trkpt>
<trkpt lat="51.8654170" lon="13.9463000">
<ele>-0.0230000</ele>
<time>2010-06-27T06:21:25Z</time>
<extensions>
<tp1:TrackPointExtension>
<tp1:hr>108</tp1:hr>
<tp1:cad>75</tp1:cad>
</tp1:TrackPointExtension>
</extensions>
</trkpt>
<trkpt lat="51.8653900" lon="13.9456040">
<ele>0.0130000</ele>
<time>2010-06-27T06:21:32Z</time>
<extensions>
<tp1:TrackPointExtension>
<tp1:hr>108</tp1:hr>
<tp1:cad>77</tp1:cad>
</tp1:TrackPointExtension>
</extensions>
</trkpt>
<trkpt lat="51.8653510" lon="13.9445870">
<ele>-0.3220000</ele>
<time>2010-06-27T06:21:42Z</time>
<extensions>
<tp1:TrackPointExtension>
<tp1:hr>109</tp1:hr>
<tp1:cad>76</tp1:cad>
</tp1:TrackPointExtension>
</extensions>
</trkpt>
<trkpt lat="51.8653120" lon="13.9435730">
<ele>-0.8790000</ele>
<time>2010-06-27T06:21:52Z</time>
<extensions>
<tp1:TrackPointExtension>
<tp1:hr>111</tp1:hr>
<tp1:cad>77</tp1:cad>
</tp1:TrackPointExtension>
</extensions>
</trkpt>
<trkpt lat="51.8652730" lon="13.9425640">
<ele>-0.4500000</ele>
<time>2010-06-27T06:22:02Z</time>
<extensions>
<tp1:TrackPointExtension>
<tp1:hr>111</tp1:hr>
<tp1:cad>0</tp1:cad>
</tp1:TrackPointExtension>
</extensions>
</trkpt>
<trkpt lat="51.8652510" lon="13.9420070">
<ele>-0.5900000</ele>
<time>2010-06-27T06:22:08Z</time>
<extensions>
<tp1:TrackPointExtension>
<tp1:hr>107</tp1:hr>
<tp1:cad>36</tp1:cad>
</tp1:TrackPointExtension>
</extensions>
</trkpt>
<trkpt lat="51.8652440" lon="13.9418270">
<ele>-0.4380000</ele>
<time>2010-06-27T06:22:10Z</time>
<extensions>
<tp1:TrackPointExtension>
<tp1:hr>107</tp1:hr>
<tp1:cad>0</tp1:cad>
</tp1:TrackPointExtension>
</extensions>
</trkpt>
<trkpt lat="51.8652100" lon="13.9410260">
<ele>-0.5400000</ele>
<time>2010-06-27T06:22:19Z</time>
<extensions>
<tp1:TrackPointExtension>
<tp1:hr>107</tp1:hr>
<tp1:cad>72</tp1:cad>
</tp1:TrackPointExtension>
</extensions>
</trkpt>
<trkpt lat="51.8651900" lon="13.9405780">
<ele>-0.7370000</ele>
<time>2010-06-27T06:22:26Z</time>
<extensions>
<tp1:TrackPointExtension>
<tp1:hr>104</tp1:hr>
<tp1:cad>74</tp1:cad>
</tp1:TrackPointExtension>
</extensions>
</trkpt>
<trkpt lat="51.8651680" lon="13.9399980">
<ele>-0.6240000</ele>
<time>2010-06-27T06:22:35Z</time>
<extensions>
<tp1:TrackPointExtension>
<tp1:hr>106</tp1:hr>
<tp1:cad>73</tp1:cad>
</tp1:TrackPointExtension>
</extensions>
</trkpt>
<trkpt lat="51.8651680" lon="13.9399980">
<ele>-0.7320000</ele>
<time>2010-06-27T06:22:37Z</time>
<extensions>
<tp1:TrackPointExtension>
<tp1:hr>107</tp1:hr>
<tp1:cad>73</tp1:cad>
</tp1:TrackPointExtension>
</extensions>
</trkpt>
<trkpt lat="51.8653610" lon="13.9389900">
<ele>-1.0680000</ele>
<time>2010-06-27T06:22:41Z</time>
<extensions>
<tp1:TrackPointExtension>
<tp1:hr>108</tp1:hr>
<tp1:cad>0</tp1:cad>
</tp1:TrackPointExtension>
</extensions>
</trkpt>
<trkpt lat="51.8648710" lon="13.9386170">
<ele>-1.1980000</ele>
<time>2010-06-27T06:22:44Z</time>
<extensions>
<tp1:TrackPointExtension>
<tp1:hr>106</tp1:hr>
<tp1:cad>68</tp1:cad>
</tp1:TrackPointExtension>
</extensions>
</trkpt>
<trkpt lat="51.8649710" lon="13.9382740">
<ele>-1.2310000</ele>
<time>2010-06-27T06:22:48Z</time>
<extensions>
<tp1:TrackPointExtension>
<tp1:hr>104</tp1:hr>
<tp1:cad>72</tp1:cad>
</tp1:TrackPointExtension>
</extensions>
</trkpt>
<trkpt lat="51.8649970" lon="13.9381950">
<ele>-1.2300000</ele>
<time>2010-06-27T06:22:49Z</time>
<extensions>
<tp1:TrackPointExtension>
<tp1:hr>104</tp1:hr>
<tp1:cad>73</tp1:cad>
</tp1:TrackPointExtension>
</extensions>
</trkpt>
<trkpt lat="51.8651040" lon="13.9375100">
<ele>-1.1770000</ele>
<time>2010-06-27T06:22:57Z</time>
<extensions>
<tp1:TrackPointExtension>
<tp1:hr>103</tp1:hr>
<tp1:cad>76</tp1:cad>
</tp1:TrackPointExtension>
</extensions>
</trkpt>
<trkpt lat="51.8650650" lon="13.9365000">
<ele>-1.4340000</ele>
<time>2010-06-27T06:23:07Z</time>
<extensions>
<tp1:TrackPointExtension>
<tp1:hr>103</tp1:hr>
<tp1:cad>78</tp1:cad>
</tp1:TrackPointExtension>
</extensions>
</trkpt>
<trkpt lat="51.8650280" lon="13.9357880">
<ele>-1.0070000</ele>
<time>2010-06-27T06:23:14Z</time>
<extensions>
<tp1:TrackPointExtension>
<tp1:hr>102</tp1:hr>
<tp1:cad>78</tp1:cad>
</tp1:TrackPointExtension>
</extensions>
</trkpt>
<trkpt lat="51.8649860" lon="13.9347720">
<ele>-0.5850000</ele>
<time>2010-06-27T06:23:24Z</time>
<extensions>
<tp1:TrackPointExtension>
<tp1:hr>101</tp1:hr>
<tp1:cad>78</tp1:cad>
</tp1:TrackPointExtension>
</extensions>
</trkpt>
<trkpt lat="51.8649540" lon="13.9339260">
<ele>-0.9390000</ele>
<time>2010-06-27T06:23:34Z</time>
<extensions>
<tp1:TrackPointExtension>
<tp1:hr>101</tp1:hr>
<tp1:cad>78</tp1:cad>
</tp1:TrackPointExtension>
</extensions>
</trkpt>
<trkpt lat="51.8649230" lon="13.9329210">
<ele>-0.6240000</ele>
<time>2010-06-27T06:23:42Z</time>
<extensions>
<tp1:TrackPointExtension>
<tp1:hr>106</tp1:hr>
<tp1:cad>76</tp1:cad>
</tp1:TrackPointExtension>
</extensions>
</trkpt>
<trkpt lat="51.8648980" lon="13.9321210">
<ele>-0.0240000</ele>
<time>2010-06-27T06:23:50Z</time>
<extensions>
<tp1:TrackPointExtension>
<tp1:hr>108</tp1:hr>
<tp1:cad>75</tp1:cad>
</tp1:TrackPointExtension>
</extensions>
</trkpt>
<trkpt lat="51.8648670" lon="13.9311290">
<ele>0.1520000</ele>
<time>2010-06-27T06:24:00Z</time>
<extensions>
<tp1:TrackPointExtension>
<tp1:hr>109</tp1:hr>
<tp1:cad>75</tp1:cad>
</tp1:TrackPointExtension>
</extensions>
</trkpt>
<trkpt lat="51.8648400" lon="13.9304440">
<ele>-0.6540000</ele>
<time>2010-06-27T06:24:07Z</time>
<extensions>
<tp1:TrackPointExtension>
<tp1:hr>110</tp1:hr>
<tp1:cad>75</tp1:cad>
</tp1:TrackPointExtension>
</extensions>
</trkpt>
<trkpt lat="51.8648170" lon="13.9298080">
<ele>-0.4930000</ele>
<time>2010-06-27T06:24:14Z</time>
<extensions>
<tp1:TrackPointExtension>
<tp1:hr>109</tp1:hr>
<tp1:cad>0</tp1:cad>
</tp1:TrackPointExtension>
</extensions>
</trkpt>
<trkpt lat="51.8648090" lon="13.9295590">
<ele>-0.4410000</ele>
<time>2010-06-27T06:24:17Z</time>
<extensions>
<tp1:TrackPointExtension>
<tp1:hr>108</tp1:hr>
<tp1:cad>0</tp1:cad>
</tp1:TrackPointExtension>
</extensions>
</trkpt>
<trkpt lat="51.8648000" lon="13.9292770">
<ele>-0.7760000</ele>
<time>2010-06-27T06:24:21Z</time>
<extensions>
<tp1:TrackPointExtension>
<tp1:hr>106</tp1:hr>
<tp1:cad>0</tp1:cad>
</tp1:TrackPointExtension>
</extensions>
</trkpt>
<trkpt lat="51.8647950" lon="13.9291220">
<ele>-1.1920000</ele>
<time>2010-06-27T06:24:25Z</time>
<extensions>
<tp1:TrackPointExtension>
<tp1:hr>103</tp1:hr>
<tp1:cad>0</tp1:cad>
</tp1:TrackPointExtension>
</extensions>
</trkpt>
<trkpt lat="51.8647880" lon="13.9289190">
<ele>-2.1120000</ele>
<time>2010-06-27T06:24:29Z</time>
<extensions>
<tp1:TrackPointExtension>
<tp1:hr>98</tp1:hr>
<tp1:cad>0</tp1:cad>
</tp1:TrackPointExtension>
</extensions>
</trkpt>
<trkpt lat="51.8647810" lon="13.9286990">
<ele>-1.9230000</ele>
<time>2010-06-27T06:24:34Z</time>
<extensions>
<tp1:TrackPointExtension>
<tp1:hr>96</tp1:hr>
<tp1:cad>0</tp1:cad>
</tp1:TrackPointExtension>
</extensions>
</trkpt>
<trkpt lat="51.8641450" lon="13.9286630">
<ele>-1.5530000</ele>
<time>2010-06-27T06:24:39Z</time>
<extensions>
<tp1:TrackPointExtension>
<tp1:hr>96</tp1:hr>
<tp1:cad>0</tp1:cad>
</tp1:TrackPointExtension>
</extensions>
</trkpt>
<trkpt lat="51.8641520" lon="13.9287010">
<ele>-1.4320000</ele>
<time>2010-06-27T06:24:44Z</time>
<extensions>
<tp1:TrackPointExtension>
<tp1:hr>97</tp1:hr>
<tp1:cad>0</tp1:cad>
</tp1:TrackPointExtension>
</extensions>
</trkpt>
<trkpt lat="51.8641550" lon="13.9287000">
<ele>-1.4570000</ele>
<time>2010-06-27T06:24:46Z</time>
<extensions>
<tp1:TrackPointExtension>
<tp1:hr>97</tp1:hr>
<tp1:cad>0</tp1:cad>
</tp1:TrackPointExtension>
</extensions>
</trkpt>
</trkseg>
<trkseg>
<trkpt lat="51.8641960" lon="13.9287590">
<ele>-0.7590000</ele>
<time>2010-06-27T06:28:32Z</time>
<extensions>
<tp1:TrackPointExtension>
<tp1:hr>89</tp1:hr>
</tp1:TrackPointExtension>
</extensions>
</trkpt>
<trkpt lat="51.8642360" lon="13.9287920">
<ele>-0.8860000</ele>
<time>2010-06-27T06:28:39Z</time>
<extensions>
<tp1:TrackPointExtension>
<tp1:hr>90</tp1:hr>
</tp1:TrackPointExtension>
</extensions>
</trkpt>
<trkpt lat="51.8647870" lon="13.9288610">
<ele>-1.1090000</ele>
<time>2010-06-27T06:28:45Z</time>
<extensions>
<tp1:TrackPointExtension>
<tp1:hr>91</tp1:hr>
</tp1:TrackPointExtension>
</extensions>
</trkpt>
<trkpt lat="51.8647940" lon="13.9291040">
<ele>-1.2060000</ele>
<time>2010-06-27T06:28:52Z</time>
<extensions>
<tp1:TrackPointExtension>
<tp1:hr>93</tp1:hr>
<tp1:cad>22</tp1:cad>
</tp1:TrackPointExtension>
</extensions>
</trkpt>
<trkpt lat="51.8648000" lon="13.9292590">
<ele>-0.9280000</ele>
<time>2010-06-27T06:28:57Z</time>
<extensions>
<tp1:TrackPointExtension>
<tp1:hr>94</tp1:hr>
<tp1:cad>42</tp1:cad>
</tp1:TrackPointExtension>
</extensions>
</trkpt>
<trkpt lat="51.8647140" lon="13.9299430">
<ele>-0.4770000</ele>
<time>2010-06-27T06:29:01Z</time>
<extensions>
<tp1:TrackPointExtension>
<tp1:hr>95</tp1:hr>
<tp1:cad>27</tp1:cad>
</tp1:TrackPointExtension>
</extensions>
</trkpt>
<trkpt lat="51.8648010" lon="13.9292960">
<ele>-0.5770000</ele>
<time>2010-06-27T06:29:05Z</time>
<extensions>
<tp1:TrackPointExtension>
<tp1:hr>96</tp1:hr>
<tp1:cad>45</tp1:cad>
</tp1:TrackPointExtension>
</extensions>
</trkpt>
<trkpt lat="51.8647790" lon="13.9286240">
<ele>-0.1740000</ele>
<time>2010-06-27T06:29:14Z</time>
<extensions>
<tp1:TrackPointExtension>
<tp1:hr>99</tp1:hr>
<tp1:cad>57</tp1:cad>
</tp1:TrackPointExtension>
</extensions>
</trkpt>
<trkpt lat="51.8647490" lon="13.9277180">
<ele>0.0500000</ele>
<time>2010-06-27T06:29:25Z</time>
<extensions>
<tp1:TrackPointExtension>
<tp1:hr>103</tp1:hr>
<tp1:cad>38</tp1:cad>
</tp1:TrackPointExtension>
</extensions>
</trkpt>
<trkpt lat="51.8647440" lon="13.9273060">
<ele>0.0670000</ele>
<time>2010-06-27T06:29:30Z</time>
<extensions>
<tp1:TrackPointExtension>
<tp1:hr>105</tp1:hr>
<tp1:cad>60</tp1:cad>
</tp1:TrackPointExtension>
</extensions>
</trkpt>
<trkpt lat="51.8647610" lon="13.9267330">
<ele>0.4890000</ele>
<time>2010-06-27T06:29:37Z</time>
<extensions>
<tp1:TrackPointExtension>
<tp1:hr>109</tp1:hr>
<tp1:cad>66</tp1:cad>
</tp1:TrackPointExtension>
</extensions>
</trkpt>
<trkpt lat="51.8648620" lon="13.9258840">
<ele>1.0050000</ele>
<time>2010-06-27T06:29:46Z</time>
<extensions>
<tp1:TrackPointExtension>
<tp1:hr>112</tp1:hr>
<tp1:cad>68</tp1:cad>
</tp1:TrackPointExtension>
</extensions>
</trkpt>
<trkpt lat="51.8649140" lon="13.9255670">
<ele>0.8430000</ele>
<time>2010-06-27T06:29:50Z</time>
<extensions>
<tp1:TrackPointExtension>
<tp1:hr>112</tp1:hr>
<tp1:cad>59</tp1:cad>
</tp1:TrackPointExtension>
</extensions>
</trkpt>
<trkpt lat="51.8650220" lon="13.9248560">
<ele>1.1010000</ele>
<time>2010-06-27T06:29:59Z</time>
<extensions>
<tp1:TrackPointExtension>
<tp1:hr>113</tp1:hr>
<tp1:cad>63</tp1:cad>
</tp1:TrackPointExtension>
</extensions>
</trkpt>
<trkpt lat="51.8651750" lon="13.9242250">
<ele>1.5810000</ele>
<time>2010-06-27T06:30:07Z</time>
<extensions>
<tp1:TrackPointExtension>
<tp1:hr>116</tp1:hr>
<tp1:cad>0</tp1:cad>
</tp1:TrackPointExtension>
</extensions>
</trkpt>
<trkpt lat="51.8653170" lon="13.9236810">
<ele>2.5100000</ele>
<time>2010-06-27T06:30:14Z</time>
<extensions>
<tp1:TrackPointExtension>
<tp1:hr>116</tp1:hr>
<tp1:cad>64</tp1:cad>
</tp1:TrackPointExtension>
</extensions>
</trkpt>
<trkpt lat="51.8653370" lon="13.9236060">
<ele>2.5850000</ele>
<time>2010-06-27T06:30:15Z</time>
<extensions>
<tp1:TrackPointExtension>
<tp1:hr>116</tp1:hr>
<tp1:cad>64</tp1:cad>
</tp1:TrackPointExtension>
</extensions>
</trkpt>
<trkpt lat="51.8654360" lon="13.9232280">
<ele>2.8730000</ele>
<time>2010-06-27T06:30:20Z</time>
<extensions>
<tp1:TrackPointExtension>
<tp1:hr>115</tp1:hr>
<tp1:cad>0</tp1:cad>
</tp1:TrackPointExtension>
</extensions>
</trkpt>
<trkpt lat="51.8655920" lon="13.9227020">
<ele>2.6500000</ele>
<time>2010-06-27T06:30:28Z</time>
<extensions>
<tp1:TrackPointExtension>
<tp1:hr>115</tp1:hr>
<tp1:cad>20</tp1:cad>
</tp1:TrackPointExtension>
</extensions>
</trkpt>
<trkpt lat="51.8657880" lon="13.9221230">
<ele>2.6290000</ele>
<time>2010-06-27T06:30:37Z</time>
<extensions>
<tp1:TrackPointExtension>
<tp1:hr>114</tp1:hr>
<tp1:cad>31</tp1:cad>
</tp1:TrackPointExtension>
</extensions>
</trkpt>
<trkpt lat="51.8659690" lon="13.9216120">
<ele>2.7160000</ele>
<time>2010-06-27T06:30:45Z</time>
<extensions>
<tp1:TrackPointExtension>
<tp1:hr>112</tp1:hr>
<tp1:cad>0</tp1:cad>
</tp1:TrackPointExtension>
</extensions>
</trkpt>
<trkpt lat="51.8661600" lon="13.9211920">
<ele>2.3710000</ele>
<time>2010-06-27T06:30:52Z</time>
<extensions>
<tp1:TrackPointExtension>
<tp1:hr>112</tp1:hr>
<tp1:cad>0</tp1:cad>
</tp1:TrackPointExtension>
</extensions>
</trkpt>
<trkpt lat="51.8663480" lon="13.9207800">
<ele>2.3980000</ele>
<time>2010-06-27T06:30:59Z</time>
<extensions>
<tp1:TrackPointExtension>
<tp1:hr>106</tp1:hr>
<tp1:cad>0</tp1:cad>
</tp1:TrackPointExtension>
</extensions>
</trkpt>
<trkpt lat="51.8664990" lon="13.9204500">
<ele>2.1460000</ele>
<time>2010-06-27T06:31:07Z</time>
<extensions>
<tp1:TrackPointExtension>
<tp1:hr>102</tp1:hr>
<tp1:cad>61</tp1:cad>
</tp1:TrackPointExtension>
</extensions>
</trkpt>
<trkpt lat="51.8668100" lon="13.9198550">
<ele>2.3630000</ele>
<time>2010-06-27T06:31:14Z</time>
<extensions>
<tp1:TrackPointExtension>
<tp1:hr>104</tp1:hr>
<tp1:cad>64</tp1:cad>
</tp1:TrackPointExtension>
</extensions>
</trkpt>
<trkpt lat="51.8670030" lon="13.9195310">
<ele>2.1430000</ele>
<time>2010-06-27T06:31:19Z</time>
<extensions>
<tp1:TrackPointExtension>
<tp1:hr>100</tp1:hr>
<tp1:cad>64</tp1:cad>
</tp1:TrackPointExtension>
</extensions>
</trkpt>
<trkpt lat="51.8672260" lon="13.9192760">
<ele>1.9320000</ele>
<time>2010-06-27T06:31:24Z</time>
<extensions>
<tp1:TrackPointExtension>
<tp1:hr>96</tp1:hr>
<tp1:cad>69</tp1:cad>
</tp1:TrackPointExtension>
</extensions>
</trkpt>
<trkpt lat="51.8677280" lon="13.9187700">
<ele>1.1960000</ele>
<time>2010-06-27T06:31:34Z</time>
<extensions>
<tp1:TrackPointExtension>
<tp1:hr>92</tp1:hr>
<tp1:cad>64</tp1:cad>
</tp1:TrackPointExtension>
</extensions>
</trkpt>
<trkpt lat="51.8680450" lon="13.9184740">
<ele>1.7470000</ele>
<time>2010-06-27T06:31:41Z</time>
<extensions>
<tp1:TrackPointExtension>
<tp1:hr>99</tp1:hr>
<tp1:cad>63</tp1:cad>
</tp1:TrackPointExtension>
</extensions>
</trkpt>
<trkpt lat="51.8683780" lon="13.9181700">
<ele>2.1470000</ele>
<time>2010-06-27T06:31:49Z</time>
<extensions>
<tp1:TrackPointExtension>
<tp1:hr>99</tp1:hr>
<tp1:cad>59</tp1:cad>
</tp1:TrackPointExtension>
</extensions>
</trkpt>
<trkpt lat="51.8686340" lon="13.9179380">
<ele>2.6910000</ele>
<time>2010-06-27T06:31:55Z</time>
<extensions>
<tp1:TrackPointExtension>
<tp1:hr>106</tp1:hr>
<tp1:cad>33</tp1:cad>
</tp1:TrackPointExtension>
</extensions>
</trkpt>
<trkpt lat="51.8688090" lon="13.9177790">
<ele>2.9550000</ele>
<time>2010-06-27T06:31:59Z</time>
<extensions>
<tp1:TrackPointExtension>
<tp1:hr>107</tp1:hr>
<tp1:cad>63</tp1:cad>
</tp1:TrackPointExtension>
</extensions>
</trkpt>
<trkpt lat="51.8689000" lon="13.9176960">
<ele>3.0490000</ele>
<time>2010-06-27T06:32:01Z</time>
<extensions>
<tp1:TrackPointExtension>
<tp1:hr>107</tp1:hr>
<tp1:cad>44</tp1:cad>
</tp1:TrackPointExtension>
</extensions>
</trkpt>
<trkpt lat="51.8690740" lon="13.9175380">
<ele>3.4620000</ele>
<time>2010-06-27T06:32:05Z</time>
<extensions>
<tp1:TrackPointExtension>
<tp1:hr>108</tp1:hr>
<tp1:cad>58</tp1:cad>
</tp1:TrackPointExtension>
</extensions>
</trkpt>
<trkpt lat="51.8691580" lon="13.9174630">
<ele>3.5860000</ele>
<time>2010-06-27T06:32:07Z</time>
<extensions>
<tp1:TrackPointExtension>
<tp1:hr>109</tp1:hr>
<tp1:cad>60</tp1:cad>
</tp1:TrackPointExtension>
</extensions>
</trkpt>
<trkpt lat="51.8695460" lon="13.9171170">
<ele>3.4000000</ele>
<time>2010-06-27T06:32:16Z</time>
<extensions>
<tp1:TrackPointExtension>
<tp1:hr>113</tp1:hr>
<tp1:cad>64</tp1:cad>
</tp1:TrackPointExtension>
</extensions>
</trkpt>
<trkpt lat="51.8699710" lon="13.9167370">
<ele>3.3860000</ele>
<time>2010-06-27T06:32:25Z</time>
<extensions>
<tp1:TrackPointExtension>
<tp1:hr>113</tp1:hr>
<tp1:cad>67</tp1:cad>
</tp1:TrackPointExtension>
</extensions>
</trkpt>
<trkpt lat="51.8701980" lon="13.9165340">
<ele>3.6000000</ele>
<time>2010-06-27T06:32:30Z</time>
<extensions>
<tp1:TrackPointExtension>
<tp1:hr>108</tp1:hr>
<tp1:cad>59</tp1:cad>
</tp1:TrackPointExtension>
</extensions>
</trkpt>
<trkpt lat="51.8704600" lon="13.9163010">
<ele>3.7160000</ele>
<time>2010-06-27T06:32:36Z</time>
<extensions>
<tp1:TrackPointExtension>
<tp1:hr>104</tp1:hr>
<tp1:cad>62</tp1:cad>
</tp1:TrackPointExtension>
</extensions>
</trkpt>
<trkpt lat="51.8705480" lon="13.9162220">
<ele>3.6930000</ele>
<time>2010-06-27T06:32:38Z</time>
<extensions>
<tp1:TrackPointExtension>
<tp1:hr>103</tp1:hr>
<tp1:cad>62</tp1:cad>
</tp1:TrackPointExtension>
</extensions>
</trkpt>
<trkpt lat="51.8708540" lon="13.9159410">
<ele>3.9230000</ele>
<time>2010-06-27T06:32:45Z</time>
<extensions>
<tp1:TrackPointExtension>
<tp1:hr>101</tp1:hr>
<tp1:cad>61</tp1:cad>
</tp1:TrackPointExtension>
</extensions>
</trkpt>
<trkpt lat="51.8712190" lon="13.9156010">
<ele>3.7370000</ele>
<time>2010-06-27T06:32:54Z</time>
<extensions>
<tp1:TrackPointExtension>
<tp1:hr>97</tp1:hr>
<tp1:cad>0</tp1:cad>
</tp1:TrackPointExtension>
</extensions>
</trkpt>
<trkpt lat="51.8716890" lon="13.9151710">
<ele>3.3330000</ele>
<time>2010-06-27T06:33:03Z</time>
<extensions>
<tp1:TrackPointExtension>
<tp1:hr>93</tp1:hr>
<tp1:cad>66</tp1:cad>
</tp1:TrackPointExtension>
</extensions>
</trkpt>
<trkpt lat="51.8721430" lon="13.9147550">
<ele>3.8760000</ele>
<time>2010-06-27T06:33:13Z</time>
<extensions>
<tp1:TrackPointExtension>
<tp1:hr>97</tp1:hr>
<tp1:cad>62</tp1:cad>
</tp1:TrackPointExtension>
</extensions>
</trkpt>
<trkpt lat="51.8725470" lon="13.9143850">
<ele>3.5400000</ele>
<time>2010-06-27T06:33:22Z</time>
<extensions>
<tp1:TrackPointExtension>
<tp1:hr>99</tp1:hr>
<tp1:cad>64</tp1:cad>
</tp1:TrackPointExtension>
</extensions>
</trkpt>
<trkpt lat="51.8730940" lon="13.9138840">
<ele>2.3790000</ele>
<time>2010-06-27T06:33:33Z</time>
<extensions>
<tp1:TrackPointExtension>
<tp1:hr>96</tp1:hr>
<tp1:cad>0</tp1:cad>
</tp1:TrackPointExtension>
</extensions>
</trkpt>
<trkpt lat="51.8735480" lon="13.9134680">
<ele>2.6160000</ele>
<time>2010-06-27T06:33:42Z</time>
<extensions>
<tp1:TrackPointExtension>
<tp1:hr>94</tp1:hr>
<tp1:cad>67</tp1:cad>
</tp1:TrackPointExtension>
</extensions>
</trkpt>
<trkpt lat="51.8739150" lon="13.9131320">
<ele>2.9850000</ele>
<time>2010-06-27T06:33:50Z</time>
<extensions>
<tp1:TrackPointExtension>
<tp1:hr>99</tp1:hr>
<tp1:cad>27</tp1:cad>
</tp1:TrackPointExtension>
</extensions>
</trkpt>
<trkpt lat="51.8742690" lon="13.9128070">
<ele>3.0650000</ele>
<time>2010-06-27T06:33:58Z</time>
<extensions>
<tp1:TrackPointExtension>
<tp1:hr>104</tp1:hr>
<tp1:cad>62</tp1:cad>
</tp1:TrackPointExtension>
</extensions>
</trkpt>
<trkpt lat="51.8746820" lon="13.9124290">
<ele>3.0970000</ele>
<time>2010-06-27T06:34:07Z</time>
<extensions>
<tp1:TrackPointExtension>
<tp1:hr>106</tp1:hr>
<tp1:cad>33</tp1:cad>
</tp1:TrackPointExtension>
</extensions>
</trkpt>
<trkpt lat="51.8751170" lon="13.9120310">
<ele>2.7190000</ele>
<time>2010-06-27T06:34:16Z</time>
<extensions>
<tp1:TrackPointExtension>
<tp1:hr>108</tp1:hr>
<tp1:cad>0</tp1:cad>
</tp1:TrackPointExtension>
</extensions>
</trkpt>
<trkpt lat="51.8753620" lon="13.9118060">
<ele>2.0840000</ele>
<time>2010-06-27T06:34:21Z</time>
<extensions>
<tp1:TrackPointExtension>
<tp1:hr>102</tp1:hr>
<tp1:cad>0</tp1:cad>
</tp1:TrackPointExtension>
</extensions>
</trkpt>
<trkpt lat="51.8756430" lon="13.9115490">
<ele>1.7050000</ele>
<time>2010-06-27T06:34:27Z</time>
<extensions>
<tp1:TrackPointExtension>
<tp1:hr>97</tp1:hr>
<tp1:cad>0</tp1:cad>
</tp1:TrackPointExtension>
</extensions>
</trkpt>
<trkpt lat="51.8760540" lon="13.9111720">
<ele>1.1470000</ele>
<time>2010-06-27T06:34:36Z</time>
<extensions>
<tp1:TrackPointExtension>
<tp1:hr>99</tp1:hr>
<tp1:cad>0</tp1:cad>
</tp1:TrackPointExtension>
</extensions>
</trkpt>
<trkpt lat="51.8764760" lon="13.9107840">
<ele>0.7460000</ele>
<time>2010-06-27T06:34:45Z</time>
<extensions>
<tp1:TrackPointExtension>
<tp1:hr>102</tp1:hr>
<tp1:cad>0</tp1:cad>
</tp1:TrackPointExtension>
</extensions>
</trkpt>
<trkpt lat="51.8767600" lon="13.9105210">
<ele>0.4920000</ele>
<time>2010-06-27T06:34:51Z</time>
<extensions>
<tp1:TrackPointExtension>
<tp1:hr>97</tp1:hr>
<tp1:cad>0</tp1:cad>
</tp1:TrackPointExtension>
</extensions>
</trkpt>
<trkpt lat="51.8770880" lon="13.9102190">
<ele>0.3420000</ele>
<time>2010-06-27T06:34:58Z</time>
<extensions>
<tp1:TrackPointExtension>
<tp1:hr>95</tp1:hr>
<tp1:cad>66</tp1:cad>
</tp1:TrackPointExtension>
</extensions>
</trkpt>
<trkpt lat="51.8776150" lon="13.9097320">
<ele>-0.0610000</ele>
<time>2010-06-27T06:35:09Z</time>
<extensions>
<tp1:TrackPointExtension>
<tp1:hr>91</tp1:hr>
<tp1:cad>0</tp1:cad>
</tp1:TrackPointExtension>
</extensions>
</trkpt>
<trkpt lat="51.8780840" lon="13.9093000">
<ele>-0.8660000</ele>
<time>2010-06-27T06:35:19Z</time>
<extensions>
<tp1:TrackPointExtension>
<tp1:hr>90</tp1:hr>
<tp1:cad>66</tp1:cad>
</tp1:TrackPointExtension>
</extensions>
</trkpt>
<trkpt lat="51.8786480" lon="13.9087790">
<ele>-1.0590000</ele>
<time>2010-06-27T06:35:31Z</time>
<extensions>
<tp1:TrackPointExtension>
<tp1:hr>94</tp1:hr>
<tp1:cad>68</tp1:cad>
</tp1:TrackPointExtension>
</extensions>
</trkpt>
<trkpt lat="51.8793310" lon="13.9081490">
<ele>-1.2950000</ele>
<time>2010-06-27T06:35:45Z</time>
<extensions>
<tp1:TrackPointExtension>
<tp1:hr>95</tp1:hr>
<tp1:cad>68</tp1:cad>
</tp1:TrackPointExtension>
</extensions>
</trkpt>
<trkpt lat="51.8796120" lon="13.9078900">
<ele>-1.1730000</ele>
<time>2010-06-27T06:35:51Z</time>
<extensions>
<tp1:TrackPointExtension>
<tp1:hr>95</tp1:hr>
<tp1:cad>66</tp1:cad>
</tp1:TrackPointExtension>
</extensions>
</trkpt>
<trkpt lat="51.8800430" lon="13.9074920">
<ele>-0.7630000</ele>
<time>2010-06-27T06:36:00Z</time>
<extensions>
<tp1:TrackPointExtension>
<tp1:hr>98</tp1:hr>
<tp1:cad>69</tp1:cad>
</tp1:TrackPointExtension>
</extensions>
</trkpt>
<trkpt lat="51.8806220" lon="13.9069570">
<ele>-0.7240000</ele>
<time>2010-06-27T06:36:12Z</time>
<extensions>
<tp1:TrackPointExtension>
<tp1:hr>102</tp1:hr>
<tp1:cad>67</tp1:cad>
</tp1:TrackPointExtension>
</extensions>
</trkpt>
<trkpt lat="51.8810980" lon="13.9065170">
<ele>-0.4950000</ele>
<time>2010-06-27T06:36:22Z</time>
<extensions>
<tp1:TrackPointExtension>
<tp1:hr>102</tp1:hr>
<tp1:cad>0</tp1:cad>
</tp1:TrackPointExtension>
</extensions>
</trkpt>
<trkpt lat="51.8812420" lon="13.9063830">
<ele>-0.9040000</ele>
<time>2010-06-27T06:36:25Z</time>
<extensions>
<tp1:TrackPointExtension>
<tp1:hr>101</tp1:hr>
<tp1:cad>63</tp1:cad>
</tp1:TrackPointExtension>
</extensions>
</trkpt>
<trkpt lat="51.8813780" lon="13.9062580">
<ele>-1.1020000</ele>
<time>2010-06-27T06:36:28Z</time>
<extensions>
<tp1:TrackPointExtension>
<tp1:hr>100</tp1:hr>
<tp1:cad>64</tp1:cad>
</tp1:TrackPointExtension>
</extensions>
</trkpt>
<trkpt lat="51.8815610" lon="13.9060890">
<ele>-0.9520000</ele>
<time>2010-06-27T06:36:32Z</time>
<extensions>
<tp1:TrackPointExtension>
<tp1:hr>101</tp1:hr>
<tp1:cad>67</tp1:cad>
</tp1:TrackPointExtension>
</extensions>
</trkpt>
<trkpt lat="51.8819320" lon="13.9057460">
<ele>-1.0270000</ele>
<time>2010-06-27T06:36:40Z</time>
<extensions>
<tp1:TrackPointExtension>
<tp1:hr>101</tp1:hr>
<tp1:cad>67</tp1:cad>
</tp1:TrackPointExtension>
</extensions>
</trkpt>
<trkpt lat="51.8823270" lon="13.9053810">
<ele>-0.9850000</ele>
<time>2010-06-27T06:36:49Z</time>
<extensions>
<tp1:TrackPointExtension>
<tp1:hr>102</tp1:hr>
<tp1:cad>28</tp1:cad>
</tp1:TrackPointExtension>
</extensions>
</trkpt>
<trkpt lat="51.8827310" lon="13.9050070">
<ele>-0.6560000</ele>
<time>2010-06-27T06:36:58Z</time>
<extensions>
<tp1:TrackPointExtension>
<tp1:hr>104</tp1:hr>
<tp1:cad>0</tp1:cad>
</tp1:TrackPointExtension>
</extensions>
</trkpt>
<trkpt lat="51.8827740" lon="13.9049680">
<ele>-0.8090000</ele>
<time>2010-06-27T06:36:59Z</time>
<extensions>
<tp1:TrackPointExtension>
<tp1:hr>104</tp1:hr>
<tp1:cad>60</tp1:cad>
</tp1:TrackPointExtension>
</extensions>
</trkpt>
<trkpt lat="51.8831680" lon="13.9046110">
<ele>-0.2880000</ele>
<time>2010-06-27T06:37:08Z</time>
<extensions>
<tp1:TrackPointExtension>
<tp1:hr>104</tp1:hr>
<tp1:cad>64</tp1:cad>
</tp1:TrackPointExtension>
</extensions>
</trkpt>
<trkpt lat="51.8834000" lon="13.9044010">
<ele>-0.0780000</ele>
<time>2010-06-27T06:37:13Z</time>
<extensions>
<tp1:TrackPointExtension>
<tp1:hr>104</tp1:hr>
<tp1:cad>34</tp1:cad>
</tp1:TrackPointExtension>
</extensions>
</trkpt>
<trkpt lat="51.8836200" lon="13.9041940">
<ele>-0.1100000</ele>
<time>2010-06-27T06:37:18Z</time>
<extensions>
<tp1:TrackPointExtension>
<tp1:hr>107</tp1:hr>
<tp1:cad>68</tp1:cad>
</tp1:TrackPointExtension>
</extensions>
</trkpt>
<trkpt lat="51.8839020" lon="13.9039230">
<ele>0.4670000</ele>
<time>2010-06-27T06:37:24Z</time>
<extensions>
<tp1:TrackPointExtension>
<tp1:hr>112</tp1:hr>
<tp1:cad>69</tp1:cad>
</tp1:TrackPointExtension>
</extensions>
</trkpt>
<trkpt lat="51.8841480" lon="13.9036960">
<ele>0.7630000</ele>
<time>2010-06-27T06:37:29Z</time>
<extensions>
<tp1:TrackPointExtension>
<tp1:hr>117</tp1:hr>
<tp1:cad>69</tp1:cad>
</tp1:TrackPointExtension>
</extensions>
</trkpt>
<trkpt lat="51.8846990" lon="13.9031900">
<ele>0.1200000</ele>
<time>2010-06-27T06:37:40Z</time>
<extensions>
<tp1:TrackPointExtension>
<tp1:hr>117</tp1:hr>
<tp1:cad>73</tp1:cad>
</tp1:TrackPointExtension>
</extensions>
</trkpt>
<trkpt lat="51.8851750" lon="13.9027480">
<ele>0.2230000</ele>
<time>2010-06-27T06:37:49Z</time>
<extensions>
<tp1:TrackPointExtension>
<tp1:hr>116</tp1:hr>
<tp1:cad>76</tp1:cad>
</tp1:TrackPointExtension>
</extensions>
</trkpt>
<trkpt lat="51.8855450" lon="13.9024060">
<ele>-0.7500000</ele>
<time>2010-06-27T06:37:56Z</time>
<extensions>
<tp1:TrackPointExtension>
<tp1:hr>112</tp1:hr>
<tp1:cad>0</tp1:cad>
</tp1:TrackPointExtension>
</extensions>
</trkpt>
<trkpt lat="51.8859570" lon="13.9020360">
<ele>-0.3060000</ele>
<time>2010-06-27T06:38:04Z</time>
<extensions>
<tp1:TrackPointExtension>
<tp1:hr>112</tp1:hr>
<tp1:cad>74</tp1:cad>
</tp1:TrackPointExtension>
</extensions>
</trkpt>
<trkpt lat="51.8864040" lon="13.9017170">
<ele>-0.7270000</ele>
<time>2010-06-27T06:38:12Z</time>
<extensions>
<tp1:TrackPointExtension>
<tp1:hr>106</tp1:hr>
<tp1:cad>75</tp1:cad>
</tp1:TrackPointExtension>
</extensions>
</trkpt>
<trkpt lat="51.8867020" lon="13.9016070">
<ele>-0.5680000</ele>
<time>2010-06-27T06:38:17Z</time>
<extensions>
<tp1:TrackPointExtension>
<tp1:hr>101</tp1:hr>
<tp1:cad>72</tp1:cad>
</tp1:TrackPointExtension>
</extensions>
</trkpt>
<trkpt lat="51.8872270" lon="13.9014530">
<ele>-1.0100000</ele>
<time>2010-06-27T06:38:26Z</time>
<extensions>
<tp1:TrackPointExtension>
<tp1:hr>100</tp1:hr>
<tp1:cad>71</tp1:cad>
</tp1:TrackPointExtension>
</extensions>
</trkpt>
<trkpt lat="51.8879120" lon="13.9012330">
<ele>-1.7380000</ele>
<time>2010-06-27T06:38:38Z</time>
<extensions>
<tp1:TrackPointExtension>
<tp1:hr>102</tp1:hr>
<tp1:cad>72</tp1:cad>
</tp1:TrackPointExtension>
</extensions>
</trkpt>
<trkpt lat="51.8885480" lon="13.9010430">
<ele>-0.9330000</ele>
<time>2010-06-27T06:38:49Z</time>
<extensions>
<tp1:TrackPointExtension>
<tp1:hr>102</tp1:hr>
<tp1:cad>72</tp1:cad>
</tp1:TrackPointExtension>
</extensions>
</trkpt>
<trkpt lat="51.8890160" lon="13.9009020">
<ele>-1.3440000</ele>
<time>2010-06-27T06:38:57Z</time>
<extensions>
<tp1:TrackPointExtension>
<tp1:hr>104</tp1:hr>
<tp1:cad>73</tp1:cad>
</tp1:TrackPointExtension>
</extensions>
</trkpt>
<trkpt lat="51.8896020" lon="13.9007210">
<ele>-1.3680000</ele>
<time>2010-06-27T06:39:07Z</time>
<extensions>
<tp1:TrackPointExtension>
<tp1:hr>104</tp1:hr>
<tp1:cad>73</tp1:cad>
</tp1:TrackPointExtension>
</extensions>
</trkpt>
<trkpt lat="51.8901320" lon="13.9005560">
<ele>-1.2540000</ele>
<time>2010-06-27T06:39:16Z</time>
<extensions>
<tp1:TrackPointExtension>
<tp1:hr>104</tp1:hr>
<tp1:cad>74</tp1:cad>
</tp1:TrackPointExtension>
</extensions>
</trkpt>
<trkpt lat="51.8907200" lon="13.9003720">
<ele>-1.3900000</ele>
<time>2010-06-27T06:39:26Z</time>
<extensions>
<tp1:TrackPointExtension>
<tp1:hr>105</tp1:hr>
<tp1:cad>73</tp1:cad>
</tp1:TrackPointExtension>
</extensions>
</trkpt>
<trkpt lat="51.8911530" lon="13.9002370">
<ele>-0.8270000</ele>
<time>2010-06-27T06:39:36Z</time>
<extensions>
<tp1:TrackPointExtension>
<tp1:hr>106</tp1:hr>
<tp1:cad>74</tp1:cad>
</tp1:TrackPointExtension>
</extensions>
</trkpt>
<trkpt lat="51.8916890" lon="13.8999200">
<ele>-1.2470000</ele>
<time>2010-06-27T06:39:43Z</time>
<extensions>
<tp1:TrackPointExtension>
<tp1:hr>108</tp1:hr>
<tp1:cad>75</tp1:cad>
</tp1:TrackPointExtension>
</extensions>
</trkpt>
<trkpt lat="51.8920820" lon="13.8996230">
<ele>-1.5450000</ele>
<time>2010-06-27T06:39:50Z</time>
<extensions>
<tp1:TrackPointExtension>
<tp1:hr>112</tp1:hr>
<tp1:cad>76</tp1:cad>
</tp1:TrackPointExtension>
</extensions>
</trkpt>
<trkpt lat="51.8924390" lon="13.8993520">
<ele>-1.4390000</ele>
<time>2010-06-27T06:39:56Z</time>
<extensions>
<tp1:TrackPointExtension>
<tp1:hr>112</tp1:hr>
<tp1:cad>77</tp1:cad>
</tp1:TrackPointExtension>
</extensions>
</trkpt>
<trkpt lat="51.8928310" lon="13.8990560">
<ele>-1.6400000</ele>
<time>2010-06-27T06:40:03Z</time>
<extensions>
<tp1:TrackPointExtension>
<tp1:hr>113</tp1:hr>
<tp1:cad>78</tp1:cad>
</tp1:TrackPointExtension>
</extensions>
</trkpt>
<trkpt lat="51.8932350" lon="13.8987500">
<ele>-1.4580000</ele>
<time>2010-06-27T06:40:10Z</time>
<extensions>
<tp1:TrackPointExtension>
<tp1:hr>114</tp1:hr>
<tp1:cad>75</tp1:cad>
</tp1:TrackPointExtension>
</extensions>
</trkpt>
<trkpt lat="51.8936250" lon="13.8984550">
<ele>-1.0160000</ele>
<time>2010-06-27T06:40:17Z</time>
<extensions>
<tp1:TrackPointExtension>
<tp1:hr>114</tp1:hr>
<tp1:cad>77</tp1:cad>
</tp1:TrackPointExtension>
</extensions>
</trkpt>
<trkpt lat="51.8939660" lon="13.8981970">
<ele>-0.9630000</ele>
<time>2010-06-27T06:40:23Z</time>
<extensions>
<tp1:TrackPointExtension>
<tp1:hr>115</tp1:hr>
<tp1:cad>76</tp1:cad>
</tp1:TrackPointExtension>
</extensions>
</trkpt>
<trkpt lat="51.8942970" lon="13.8979460">
<ele>-0.4150000</ele>
<time>2010-06-27T06:40:29Z</time>
<extensions>
<tp1:TrackPointExtension>
<tp1:hr>116</tp1:hr>
<tp1:cad>76</tp1:cad>
</tp1:TrackPointExtension>
</extensions>
</trkpt>
<trkpt lat="51.8947610" lon="13.8975950">
<ele>0.0020000</ele>
<time>2010-06-27T06:40:37Z</time>
<extensions>
<tp1:TrackPointExtension>
<tp1:hr>118</tp1:hr>
<tp1:cad>76</tp1:cad>
</tp1:TrackPointExtension>
</extensions>
</trkpt>
<trkpt lat="51.8950950" lon="13.8973420">
<ele>0.2270000</ele>
<time>2010-06-27T06:40:43Z</time>
<extensions>
<tp1:TrackPointExtension>
<tp1:hr>119</tp1:hr>
<tp1:cad>74</tp1:cad>
</tp1:TrackPointExtension>
</extensions>
</trkpt>
<trkpt lat="51.8954140" lon="13.8971010">
<ele>-0.0550000</ele>
<time>2010-06-27T06:40:49Z</time>
<extensions>
<tp1:TrackPointExtension>
<tp1:hr>119</tp1:hr>
<tp1:cad>74</tp1:cad>
</tp1:TrackPointExtension>
</extensions>
</trkpt>
<trkpt lat="51.8956830" lon="13.8968970">
<ele>-0.1370000</ele>
<time>2010-06-27T06:40:54Z</time>
<extensions>
<tp1:TrackPointExtension>
<tp1:hr>118</tp1:hr>
<tp1:cad>75</tp1:cad>
</tp1:TrackPointExtension>
</extensions>
</trkpt>
<trkpt lat="51.8961400" lon="13.8965510">
<ele>-0.0490000</ele>
<time>2010-06-27T06:41:02Z</time>
<extensions>
<tp1:TrackPointExtension>
<tp1:hr>120</tp1:hr>
<tp1:cad>76</tp1:cad>
</tp1:TrackPointExtension>
</extensions>
</trkpt>
<trkpt lat="51.8966490" lon="13.8961660">
<ele>-0.5340000</ele>
<time>2010-06-27T06:41:11Z</time>
<extensions>
<tp1:TrackPointExtension>
<tp1:hr>122</tp1:hr>
<tp1:cad>78</tp1:cad>
</tp1:TrackPointExtension>
</extensions>
</trkpt>
<trkpt lat="51.8971770" lon="13.8957660">
<ele>-0.6340000</ele>
<time>2010-06-27T06:41:20Z</time>
<extensions>
<tp1:TrackPointExtension>
<tp1:hr>121</tp1:hr>
<tp1:cad>79</tp1:cad>
</tp1:TrackPointExtension>
</extensions>
</trkpt>
<trkpt lat="51.8975760" lon="13.8954640">
<ele>-1.2180000</ele>
<time>2010-06-27T06:41:27Z</time>
<extensions>
<tp1:TrackPointExtension>
<tp1:hr>119</tp1:hr>
<tp1:cad>79</tp1:cad>
</tp1:TrackPointExtension>
</extensions>
</trkpt>
<trkpt lat="51.8979790" lon="13.8951590">
<ele>-1.2430000</ele>
<time>2010-06-27T06:41:34Z</time>
<extensions>
<tp1:TrackPointExtension>
<tp1:hr>116</tp1:hr>
<tp1:cad>80</tp1:cad>
</tp1:TrackPointExtension>
</extensions>
</trkpt>
<trkpt lat="51.8984130" lon="13.8948310">
<ele>-1.4820000</ele>
<time>2010-06-27T06:41:41Z</time>
<extensions>
<tp1:TrackPointExtension>
<tp1:hr>113</tp1:hr>
<tp1:cad>80</tp1:cad>
</tp1:TrackPointExtension>
</extensions>
</trkpt>
<trkpt lat="51.8988500" lon="13.8944990">
<ele>-1.4360000</ele>
<time>2010-06-27T06:41:48Z</time>
<extensions>
<tp1:TrackPointExtension>
<tp1:hr>115</tp1:hr>
<tp1:cad>81</tp1:cad>
</tp1:TrackPointExtension>
</extensions>
</trkpt>
<trkpt lat="51.8991780" lon="13.8942510">
<ele>-1.9250000</ele>
<time>2010-06-27T06:41:54Z</time>
<extensions>
<tp1:TrackPointExtension>
<tp1:hr>110</tp1:hr>
<tp1:cad>76</tp1:cad>
</tp1:TrackPointExtension>
</extensions>
</trkpt>
<trkpt lat="51.8996180" lon="13.8940770">
<ele>-2.0550000</ele>
<time>2010-06-27T06:42:01Z</time>
<extensions>
<tp1:TrackPointExtension>
<tp1:hr>106</tp1:hr>
<tp1:cad>81</tp1:cad>
</tp1:TrackPointExtension>
</extensions>
</trkpt>
<trkpt lat="51.8999830" lon="13.8939650">
<ele>-2.0430000</ele>
<time>2010-06-27T06:42:07Z</time>
<extensions>
<tp1:TrackPointExtension>
<tp1:hr>104</tp1:hr>
<tp1:cad>0</tp1:cad>
</tp1:TrackPointExtension>
</extensions>
</trkpt>
<trkpt lat="51.9004450" lon="13.8938220">
<ele>-2.2700000</ele>
<time>2010-06-27T06:42:14Z</time>
<extensions>
<tp1:TrackPointExtension>
<tp1:hr>105</tp1:hr>
<tp1:cad>80</tp1:cad>
</tp1:TrackPointExtension>
</extensions>
</trkpt>
<trkpt lat="51.9008070" lon="13.8937100">
<ele>-2.5240000</ele>
<time>2010-06-27T06:42:20Z</time>
<extensions>
<tp1:TrackPointExtension>
<tp1:hr>104</tp1:hr>
<tp1:cad>78</tp1:cad>
</tp1:TrackPointExtension>
</extensions>
</trkpt>
<trkpt lat="51.9013430" lon="13.8936810">
<ele>-2.3220000</ele>
<time>2010-06-27T06:42:28Z</time>
<extensions>
<tp1:TrackPointExtension>
<tp1:hr>101</tp1:hr>
<tp1:cad>76</tp1:cad>
</tp1:TrackPointExtension>
</extensions>
</trkpt>
<trkpt lat="51.9018060" lon="13.8937240">
<ele>-2.5240000</ele>
<time>2010-06-27T06:42:35Z</time>
<extensions>
<tp1:TrackPointExtension>
<tp1:hr>103</tp1:hr>
<tp1:cad>75</tp1:cad>
</tp1:TrackPointExtension>
</extensions>
</trkpt>
<trkpt lat="51.9021550" lon="13.8937560">
<ele>-3.2400000</ele>
<time>2010-06-27T06:42:41Z</time>
<extensions>
<tp1:TrackPointExtension>
<tp1:hr>103</tp1:hr>
<tp1:cad>71</tp1:cad>
</tp1:TrackPointExtension>
</extensions>
</trkpt>
<trkpt lat="51.9024990" lon="13.8937870">
<ele>-3.4110000</ele>
<time>2010-06-27T06:42:47Z</time>
<extensions>
<tp1:TrackPointExtension>
<tp1:hr>104</tp1:hr>
<tp1:cad>75</tp1:cad>
</tp1:TrackPointExtension>
</extensions>
</trkpt>
<trkpt lat="51.9031230" lon="13.8938450">
<ele>-2.9890000</ele>
<time>2010-06-27T06:42:57Z</time>
<extensions>
<tp1:TrackPointExtension>
<tp1:hr>108</tp1:hr>
<tp1:cad>73</tp1:cad>
</tp1:TrackPointExtension>
</extensions>
</trkpt>
<trkpt lat="51.9036750" lon="13.8938960">
<ele>-3.3460000</ele>
<time>2010-06-27T06:43:06Z</time>
<extensions>
<tp1:TrackPointExtension>
<tp1:hr>106</tp1:hr>
<tp1:cad>73</tp1:cad>
</tp1:TrackPointExtension>
</extensions>
</trkpt>
<trkpt lat="51.9041160" lon="13.8939360">
<ele>-3.2130000</ele>
<time>2010-06-27T06:43:13Z</time>
<extensions>
<tp1:TrackPointExtension>
<tp1:hr>104</tp1:hr>
<tp1:cad>73</tp1:cad>
</tp1:TrackPointExtension>
</extensions>
</trkpt>
<trkpt lat="51.9047680" lon="13.8939960">
<ele>-3.2530000</ele>
<time>2010-06-27T06:43:24Z</time>
<extensions>
<tp1:TrackPointExtension>
<tp1:hr>105</tp1:hr>
<tp1:cad>73</tp1:cad>
</tp1:TrackPointExtension>
</extensions>
</trkpt>
<trkpt lat="51.9053190" lon="13.8940470">
<ele>-3.1780000</ele>
<time>2010-06-27T06:43:33Z</time>
<extensions>
<tp1:TrackPointExtension>
<tp1:hr>105</tp1:hr>
<tp1:cad>74</tp1:cad>
</tp1:TrackPointExtension>
</extensions>
</trkpt>
<trkpt lat="51.9056300" lon="13.8940760">
<ele>-2.7220000</ele>
<time>2010-06-27T06:43:38Z</time>
<extensions>
<tp1:TrackPointExtension>
<tp1:hr>106</tp1:hr>
<tp1:cad>74</tp1:cad>
</tp1:TrackPointExtension>
</extensions>
</trkpt>
<trkpt lat="51.9060110" lon="13.8941110">
<ele>-2.2510000</ele>
<time>2010-06-27T06:43:45Z</time>
<extensions>
<tp1:TrackPointExtension>
<tp1:hr>108</tp1:hr>
<tp1:cad>72</tp1:cad>
</tp1:TrackPointExtension>
</extensions>
</trkpt>
<trkpt lat="51.9063990" lon="13.8941470">
<ele>-2.7510000</ele>
<time>2010-06-27T06:43:52Z</time>
<extensions>
<tp1:TrackPointExtension>
<tp1:hr>109</tp1:hr>
<tp1:cad>71</tp1:cad>
</tp1:TrackPointExtension>
</extensions>
</trkpt>
<trkpt lat="51.9068160" lon="13.8941850">
<ele>-3.2100000</ele>
<time>2010-06-27T06:43:59Z</time>
<extensions>
<tp1:TrackPointExtension>
<tp1:hr>111</tp1:hr>
<tp1:cad>75</tp1:cad>
</tp1:TrackPointExtension>
</extensions>
</trkpt>
<trkpt lat="51.9072280" lon="13.8942230">
<ele>-2.8540000</ele>
<time>2010-06-27T06:44:06Z</time>
<extensions>
<tp1:TrackPointExtension>
<tp1:hr>112</tp1:hr>
<tp1:cad>75</tp1:cad>
</tp1:TrackPointExtension>
</extensions>
</trkpt>
<trkpt lat="51.9077200" lon="13.8942680">
<ele>-2.6910000</ele>
<time>2010-06-27T06:44:14Z</time>
<extensions>
<tp1:TrackPointExtension>
<tp1:hr>110</tp1:hr>
<tp1:cad>74</tp1:cad>
</tp1:TrackPointExtension>
</extensions>
</trkpt>
<trkpt lat="51.9083850" lon="13.8943300">
<ele>-2.8260000</ele>
<time>2010-06-27T06:44:25Z</time>
<extensions>
<tp1:TrackPointExtension>
<tp1:hr>109</tp1:hr>
<tp1:cad>73</tp1:cad>
</tp1:TrackPointExtension>
</extensions>
</trkpt>
<trkpt lat="51.9088680" lon="13.8943740">
<ele>-3.2160000</ele>
<time>2010-06-27T06:44:33Z</time>
<extensions>
<tp1:TrackPointExtension>
<tp1:hr>110</tp1:hr>
<tp1:cad>76</tp1:cad>
</tp1:TrackPointExtension>
</extensions>
</trkpt>
<trkpt lat="51.9093440" lon="13.8944220">
<ele>-2.5430000</ele>
<time>2010-06-27T06:44:41Z</time>
<extensions>
<tp1:TrackPointExtension>
<tp1:hr>111</tp1:hr>
<tp1:cad>71</tp1:cad>
</tp1:TrackPointExtension>
</extensions>
</trkpt>
<trkpt lat="51.9097970" lon="13.8944610">
<ele>-2.4660000</ele>
<time>2010-06-27T06:44:49Z</time>
<extensions>
<tp1:TrackPointExtension>
<tp1:hr>112</tp1:hr>
<tp1:cad>73</tp1:cad>
</tp1:TrackPointExtension>
</extensions>
</trkpt>
<trkpt lat="51.9102790" lon="13.8945010">
<ele>-2.4190000</ele>
<time>2010-06-27T06:44:57Z</time>
<extensions>
<tp1:TrackPointExtension>
<tp1:hr>111</tp1:hr>
<tp1:cad>75</tp1:cad>
</tp1:TrackPointExtension>
</extensions>
</trkpt>
<trkpt lat="51.9105990" lon="13.8945280">
<ele>-2.1730000</ele>
<time>2010-06-27T06:45:02Z</time>
<extensions>
<tp1:TrackPointExtension>
<tp1:hr>110</tp1:hr>
<tp1:cad>77</tp1:cad>
</tp1:TrackPointExtension>
</extensions>
</trkpt>
<trkpt lat="51.9109730" lon="13.8945600">
<ele>-2.1980000</ele>
<time>2010-06-27T06:45:08Z</time>
<extensions>
<tp1:TrackPointExtension>
<tp1:hr>110</tp1:hr>
<tp1:cad>78</tp1:cad>
</tp1:TrackPointExtension>
</extensions>
</trkpt>
<trkpt lat="51.9116070" lon="13.8946140">
<ele>-1.6230000</ele>
<time>2010-06-27T06:45:18Z</time>
<extensions>
<tp1:TrackPointExtension>
<tp1:hr>111</tp1:hr>
<tp1:cad>76</tp1:cad>
</tp1:TrackPointExtension>
</extensions>
</trkpt>
<trkpt lat="51.9121030" lon="13.8946560">
<ele>-0.9020000</ele>
<time>2010-06-27T06:45:26Z</time>
<extensions>
<tp1:TrackPointExtension>
<tp1:hr>113</tp1:hr>
<tp1:cad>75</tp1:cad>
</tp1:TrackPointExtension>
</extensions>
</trkpt>
<trkpt lat="51.9128380" lon="13.8947180">
<ele>-1.1310000</ele>
<time>2010-06-27T06:45:38Z</time>
<extensions>
<tp1:TrackPointExtension>
<tp1:hr>117</tp1:hr>
<tp1:cad>74</tp1:cad>
</tp1:TrackPointExtension>
</extensions>
</trkpt>
<trkpt lat="51.9134890" lon="13.8947740">
<ele>-0.3420000</ele>
<time>2010-06-27T06:45:49Z</time>
<extensions>
<tp1:TrackPointExtension>
<tp1:hr>117</tp1:hr>
<tp1:cad>72</tp1:cad>
</tp1:TrackPointExtension>
</extensions>
</trkpt>
<trkpt lat="51.9140220" lon="13.8948190">
<ele>0.1670000</ele>
<time>2010-06-27T06:45:58Z</time>
<extensions>
<tp1:TrackPointExtension>
<tp1:hr>119</tp1:hr>
<tp1:cad>72</tp1:cad>
</tp1:TrackPointExtension>
</extensions>
</trkpt>
<trkpt lat="51.9145530" lon="13.8948640">
<ele>0.9190000</ele>
<time>2010-06-27T06:46:07Z</time>
<extensions>
<tp1:TrackPointExtension>
<tp1:hr>120</tp1:hr>
<tp1:cad>70</tp1:cad>
</tp1:TrackPointExtension>
</extensions>
</trkpt>
<trkpt lat="51.9149560" lon="13.8948980">
<ele>0.8710000</ele>
<time>2010-06-27T06:46:14Z</time>
<extensions>
<tp1:TrackPointExtension>
<tp1:hr>120</tp1:hr>
<tp1:cad>72</tp1:cad>
</tp1:TrackPointExtension>
</extensions>
</trkpt>
<trkpt lat="51.9154930" lon="13.8949440">
<ele>1.3550000</ele>
<time>2010-06-27T06:46:23Z</time>
<extensions>
<tp1:TrackPointExtension>
<tp1:hr>120</tp1:hr>
<tp1:cad>73</tp1:cad>
</tp1:TrackPointExtension>
</extensions>
</trkpt>
<trkpt lat="51.9161880" lon="13.8950030">
<ele>0.8010000</ele>
<time>2010-06-27T06:46:35Z</time>
<extensions>
<tp1:TrackPointExtension>
<tp1:hr>118</tp1:hr>
<tp1:cad>74</tp1:cad>
</tp1:TrackPointExtension>
</extensions>
</trkpt>
<trkpt lat="51.9167910" lon="13.8950540">
<ele>0.5950000</ele>
<time>2010-06-27T06:46:45Z</time>
<extensions>
<tp1:TrackPointExtension>
<tp1:hr>115</tp1:hr>
<tp1:cad>73</tp1:cad>
</tp1:TrackPointExtension>
</extensions>
</trkpt>
<trkpt lat="51.9172160" lon="13.8950900">
<ele>-0.0400000</ele>
<time>2010-06-27T06:46:52Z</time>
<extensions>
<tp1:TrackPointExtension>
<tp1:hr>110</tp1:hr>
<tp1:cad>76</tp1:cad>
</tp1:TrackPointExtension>
</extensions>
</trkpt>
<trkpt lat="51.9177180" lon="13.8951340">
<ele>-0.6930000</ele>
<time>2010-06-27T06:47:00Z</time>
<extensions>
<tp1:TrackPointExtension>
<tp1:hr>104</tp1:hr>
<tp1:cad>78</tp1:cad>
</tp1:TrackPointExtension>
</extensions>
</trkpt>
<trkpt lat="51.9183970" lon="13.8951940">
<ele>-0.5070000</ele>
<time>2010-06-27T06:47:11Z</time>
<extensions>
<tp1:TrackPointExtension>
<tp1:hr>100</tp1:hr>
<tp1:cad>0</tp1:cad>
</tp1:TrackPointExtension>
</extensions>
</trkpt>
<trkpt lat="51.9186190" lon="13.8952140">
<ele>-0.6390000</ele>
<time>2010-06-27T06:47:15Z</time>
<extensions>
<tp1:TrackPointExtension>
<tp1:hr>94</tp1:hr>
<tp1:cad>0</tp1:cad>
</tp1:TrackPointExtension>
</extensions>
</trkpt>
<trkpt lat="51.9189680" lon="13.8952450">
<ele>-1.1930000</ele>
<time>2010-06-27T06:47:22Z</time>
<extensions>
<tp1:TrackPointExtension>
<tp1:hr>95</tp1:hr>
<tp1:cad>0</tp1:cad>
</tp1:TrackPointExtension>
</extensions>
</trkpt>
<trkpt lat="51.9192020" lon="13.8952650">
<ele>-1.1570000</ele>
<time>2010-06-27T06:47:27Z</time>
<extensions>
<tp1:TrackPointExtension>
<tp1:hr>96</tp1:hr>
<tp1:cad>69</tp1:cad>
</tp1:TrackPointExtension>
</extensions>
</trkpt>
<trkpt lat="51.9194840" lon="13.8953310">
<ele>-0.7630000</ele>
<time>2010-06-27T06:47:32Z</time>
<extensions>
<tp1:TrackPointExtension>
<tp1:hr>101</tp1:hr>
<tp1:cad>70</tp1:cad>
</tp1:TrackPointExtension>
</extensions>
</trkpt>
<trkpt lat="51.9196590" lon="13.8953870">
<ele>-0.4040000</ele>
<time>2010-06-27T06:47:35Z</time>
<extensions>
<tp1:TrackPointExtension>
<tp1:hr>101</tp1:hr>
<tp1:cad>73</tp1:cad>
</tp1:TrackPointExtension>
</extensions>
</trkpt>
<trkpt lat="51.9200160" lon="13.8953620">
<ele>-0.6850000</ele>
<time>2010-06-27T06:47:41Z</time>
<extensions>
<tp1:TrackPointExtension>
<tp1:hr>106</tp1:hr>
<tp1:cad>76</tp1:cad>
</tp1:TrackPointExtension>
</extensions>
</trkpt>
<trkpt lat="51.9205280" lon="13.8953720">
<ele>-0.6610000</ele>
<time>2010-06-27T06:47:49Z</time>
<extensions>
<tp1:TrackPointExtension>
<tp1:hr>111</tp1:hr>
<tp1:cad>79</tp1:cad>
</tp1:TrackPointExtension>
</extensions>
</trkpt>
<trkpt lat="51.9212410" lon="13.8954340">
<ele>-1.6760000</ele>
<time>2010-06-27T06:48:00Z</time>
<extensions>
<tp1:TrackPointExtension>
<tp1:hr>109</tp1:hr>
<tp1:cad>79</tp1:cad>
</tp1:TrackPointExtension>
</extensions>
</trkpt>
<trkpt lat="51.9217600" lon="13.8954790">
<ele>-2.0250000</ele>
<time>2010-06-27T06:48:08Z</time>
<extensions>
<tp1:TrackPointExtension>
<tp1:hr>109</tp1:hr>
<tp1:cad>77</tp1:cad>
</tp1:TrackPointExtension>
</extensions>
</trkpt>
<trkpt lat="51.9222630" lon="13.8955220">
<ele>-2.1360000</ele>
<time>2010-06-27T06:48:16Z</time>
<extensions>
<tp1:TrackPointExtension>
<tp1:hr>108</tp1:hr>
<tp1:cad>77</tp1:cad>
</tp1:TrackPointExtension>
</extensions>
</trkpt>
<trkpt lat="51.9228290" lon="13.8955700">
<ele>-2.3340000</ele>
<time>2010-06-27T06:48:25Z</time>
<extensions>
<tp1:TrackPointExtension>
<tp1:hr>108</tp1:hr>
<tp1:cad>74</tp1:cad>
</tp1:TrackPointExtension>
</extensions>
</trkpt>
<trkpt lat="51.9233210" lon="13.8956090">
<ele>-1.8390000</ele>
<time>2010-06-27T06:48:33Z</time>
<extensions>
<tp1:TrackPointExtension>
<tp1:hr>108</tp1:hr>
<tp1:cad>77</tp1:cad>
</tp1:TrackPointExtension>
</extensions>
</trkpt>
<trkpt lat="51.9239980" lon="13.8956630">
<ele>-1.9880000</ele>
<time>2010-06-27T06:48:44Z</time>
<extensions>
<tp1:TrackPointExtension>
<tp1:hr>108</tp1:hr>
<tp1:cad>76</tp1:cad>
</tp1:TrackPointExtension>
</extensions>
</trkpt>
<trkpt lat="51.9245480" lon="13.8957100">
<ele>-2.3370000</ele>
<time>2010-06-27T06:48:53Z</time>
<extensions>
<tp1:TrackPointExtension>
<tp1:hr>107</tp1:hr>
<tp1:cad>75</tp1:cad>
</tp1:TrackPointExtension>
</extensions>
</trkpt>
<trkpt lat="51.9250470" lon="13.8957530">
<ele>-2.1910000</ele>
<time>2010-06-27T06:49:01Z</time>
<extensions>
<tp1:TrackPointExtension>
<tp1:hr>108</tp1:hr>
<tp1:cad>38</tp1:cad>
</tp1:TrackPointExtension>
</extensions>
</trkpt>
<trkpt lat="51.9255940" lon="13.8957940">
<ele>-2.3600000</ele>
<time>2010-06-27T06:49:10Z</time>
<extensions>
<tp1:TrackPointExtension>
<tp1:hr>110</tp1:hr>
<tp1:cad>75</tp1:cad>
</tp1:TrackPointExtension>
</extensions>
</trkpt>
<trkpt lat="51.9261950" lon="13.8958350">
<ele>-2.3020000</ele>
<time>2010-06-27T06:49:20Z</time>
<extensions>
<tp1:TrackPointExtension>
<tp1:hr>105</tp1:hr>
<tp1:cad>73</tp1:cad>
</tp1:TrackPointExtension>
</extensions>
</trkpt>
<trkpt lat="51.9266730" lon="13.8957330">
<ele>-2.4750000</ele>
<time>2010-06-27T06:49:28Z</time>
<extensions>
<tp1:TrackPointExtension>
<tp1:hr>103</tp1:hr>
<tp1:cad>75</tp1:cad>
</tp1:TrackPointExtension>
</extensions>
</trkpt>
<trkpt lat="51.9272060" lon="13.8955310">
<ele>-2.0710000</ele>
<time>2010-06-27T06:49:37Z</time>
<extensions>
<tp1:TrackPointExtension>
<tp1:hr>101</tp1:hr>
<tp1:cad>74</tp1:cad>
</tp1:TrackPointExtension>
</extensions>
</trkpt>
<trkpt lat="51.9277110" lon="13.8952030">
<ele>-2.2690000</ele>
<time>2010-06-27T06:49:46Z</time>
<extensions>
<tp1:TrackPointExtension>
<tp1:hr>101</tp1:hr>
<tp1:cad>74</tp1:cad>
</tp1:TrackPointExtension>
</extensions>
</trkpt>
<trkpt lat="51.9283130" lon="13.8947830">
<ele>-2.7370000</ele>
<time>2010-06-27T06:49:57Z</time>
<extensions>
<tp1:TrackPointExtension>
<tp1:hr>102</tp1:hr>
<tp1:cad>73</tp1:cad>
</tp1:TrackPointExtension>
</extensions>
</trkpt>
<trkpt lat="51.9287510" lon="13.8944800">
<ele>-2.5220000</ele>
<time>2010-06-27T06:50:05Z</time>
<extensions>
<tp1:TrackPointExtension>
<tp1:hr>101</tp1:hr>
<tp1:cad>74</tp1:cad>
</tp1:TrackPointExtension>
</extensions>
</trkpt>
<trkpt lat="51.9293050" lon="13.8940970">
<ele>-2.8010000</ele>
<time>2010-06-27T06:50:15Z</time>
<extensions>
<tp1:TrackPointExtension>
<tp1:hr>101</tp1:hr>
<tp1:cad>71</tp1:cad>
</tp1:TrackPointExtension>
</extensions>
</trkpt>
<trkpt lat="51.9297270" lon="13.8938040">
<ele>-2.9160000</ele>
<time>2010-06-27T06:50:23Z</time>
<extensions>
<tp1:TrackPointExtension>
<tp1:hr>98</tp1:hr>
<tp1:cad>70</tp1:cad>
</tp1:TrackPointExtension>
</extensions>
</trkpt>
<trkpt lat="51.9302670" lon="13.8934440">
<ele>-2.6490000</ele>
<time>2010-06-27T06:50:33Z</time>
<extensions>
<tp1:TrackPointExtension>
<tp1:hr>98</tp1:hr>
<tp1:cad>73</tp1:cad>
</tp1:TrackPointExtension>
</extensions>
</trkpt>
<trkpt lat="51.9309360" lon="13.8930200">
<ele>-2.9060000</ele>
<time>2010-06-27T06:50:45Z</time>
<extensions>
<tp1:TrackPointExtension>
<tp1:hr>100</tp1:hr>
<tp1:cad>72</tp1:cad>
</tp1:TrackPointExtension>
</extensions>
</trkpt>
<trkpt lat="51.9313110" lon="13.8927720">
<ele>-3.1490000</ele>
<time>2010-06-27T06:50:52Z</time>
<extensions>
<tp1:TrackPointExtension>
<tp1:hr>100</tp1:hr>
<tp1:cad>0</tp1:cad>
</tp1:TrackPointExtension>
</extensions>
</trkpt>
<trkpt lat="51.9317560" lon="13.8924790">
<ele>-2.8860000</ele>
<time>2010-06-27T06:51:00Z</time>
<extensions>
<tp1:TrackPointExtension>
<tp1:hr>101</tp1:hr>
<tp1:cad>72</tp1:cad>
</tp1:TrackPointExtension>
</extensions>
</trkpt>
<trkpt lat="51.9322000" lon="13.8921860">
<ele>-2.6690000</ele>
<time>2010-06-27T06:51:08Z</time>
<extensions>
<tp1:TrackPointExtension>
<tp1:hr>103</tp1:hr>
<tp1:cad>74</tp1:cad>
</tp1:TrackPointExtension>
</extensions>
</trkpt>
<trkpt lat="51.9326920" lon="13.8918630">
<ele>-2.7970000</ele>
<time>2010-06-27T06:51:17Z</time>
<extensions>
<tp1:TrackPointExtension>
<tp1:hr>103</tp1:hr>
<tp1:cad>70</tp1:cad>
</tp1:TrackPointExtension>
</extensions>
</trkpt>
<trkpt lat="51.9331080" lon="13.8915720">
<ele>-2.5030000</ele>
<time>2010-06-27T06:51:25Z</time>
<extensions>
<tp1:TrackPointExtension>
<tp1:hr>103</tp1:hr>
<tp1:cad>70</tp1:cad>
</tp1:TrackPointExtension>
</extensions>
</trkpt>
<trkpt lat="51.9335390" lon="13.8913310">
<ele>-2.3090000</ele>
<time>2010-06-27T06:51:33Z</time>
<extensions>
<tp1:TrackPointExtension>
<tp1:hr>105</tp1:hr>
<tp1:cad>68</tp1:cad>
</tp1:TrackPointExtension>
</extensions>
</trkpt>
<trkpt lat="51.9339670" lon="13.8912000">
<ele>-2.5510000</ele>
<time>2010-06-27T06:51:41Z</time>
<extensions>
<tp1:TrackPointExtension>
<tp1:hr>109</tp1:hr>
<tp1:cad>69</tp1:cad>
</tp1:TrackPointExtension>
</extensions>
</trkpt>
<trkpt lat="51.9343330" lon="13.8911000">
<ele>-3.0310000</ele>
<time>2010-06-27T06:51:48Z</time>
<extensions>
<tp1:TrackPointExtension>
<tp1:hr>109</tp1:hr>
<tp1:cad>64</tp1:cad>
</tp1:TrackPointExtension>
</extensions>
</trkpt>
<trkpt lat="51.9347460" lon="13.8909950">
<ele>-3.2490000</ele>
<time>2010-06-27T06:51:56Z</time>
<extensions>
<tp1:TrackPointExtension>
<tp1:hr>111</tp1:hr>
<tp1:cad>66</tp1:cad>
</tp1:TrackPointExtension>
</extensions>
</trkpt>
<trkpt lat="51.9353360" lon="13.8908610">
<ele>-3.0870000</ele>
<time>2010-06-27T06:52:07Z</time>
<extensions>
<tp1:TrackPointExtension>
<tp1:hr>113</tp1:hr>
<tp1:cad>0</tp1:cad>
</tp1:TrackPointExtension>
</extensions>
</trkpt>
<trkpt lat="51.9357760" lon="13.8907480">
<ele>-3.1650000</ele>
<time>2010-06-27T06:52:15Z</time>
<extensions>
<tp1:TrackPointExtension>
<tp1:hr>112</tp1:hr>
<tp1:cad>24</tp1:cad>
</tp1:TrackPointExtension>
</extensions>
</trkpt>
<trkpt lat="51.9358710" lon="13.8907100">
<ele>-3.3250000</ele>
<time>2010-06-27T06:52:18Z</time>
<extensions>
<tp1:TrackPointExtension>
<tp1:hr>112</tp1:hr>
<tp1:cad>0</tp1:cad>
</tp1:TrackPointExtension>
</extensions>
</trkpt>
<trkpt lat="51.9361140" lon="13.8906470">
<ele>-3.3190000</ele>
<time>2010-06-27T06:52:22Z</time>
<extensions>
<tp1:TrackPointExtension>
<tp1:hr>112</tp1:hr>
<tp1:cad>0</tp1:cad>
</tp1:TrackPointExtension>
</extensions>
</trkpt>
<trkpt lat="51.9365360" lon="13.8905370">
<ele>-3.3890000</ele>
<time>2010-06-27T06:52:31Z</time>
<extensions>
<tp1:TrackPointExtension>
<tp1:hr>113</tp1:hr>
<tp1:cad>62</tp1:cad>
</tp1:TrackPointExtension>
</extensions>
</trkpt>
<trkpt lat="51.9370380" lon="13.8904060">
<ele>-3.0470000</ele>
<time>2010-06-27T06:52:41Z</time>
<extensions>
<tp1:TrackPointExtension>
<tp1:hr>112</tp1:hr>
<tp1:cad>66</tp1:cad>
</tp1:TrackPointExtension>
</extensions>
</trkpt>
<trkpt lat="51.9371960" lon="13.8903640">
<ele>-3.2700000</ele>
<time>2010-06-27T06:52:44Z</time>
<extensions>
<tp1:TrackPointExtension>
<tp1:hr>111</tp1:hr>
<tp1:cad>66</tp1:cad>
</tp1:TrackPointExtension>
</extensions>
</trkpt>
<trkpt lat="51.9375620" lon="13.8902820">
<ele>-3.9030000</ele>
<time>2010-06-27T06:52:51Z</time>
<extensions>
<tp1:TrackPointExtension>
<tp1:hr>107</tp1:hr>
<tp1:cad>66</tp1:cad>
</tp1:TrackPointExtension>
</extensions>
</trkpt>
<trkpt lat="51.9380040" lon="13.8902170">
<ele>-3.7710000</ele>
<time>2010-06-27T06:52:59Z</time>
<extensions>
<tp1:TrackPointExtension>
<tp1:hr>106</tp1:hr>
<tp1:cad>65</tp1:cad>
</tp1:TrackPointExtension>
</extensions>
</trkpt>
<trkpt lat="51.9381690" lon="13.8902450">
<ele>-3.6340000</ele>
<time>2010-06-27T06:53:02Z</time>
<extensions>
<tp1:TrackPointExtension>
<tp1:hr>105</tp1:hr>
<tp1:cad>0</tp1:cad>
</tp1:TrackPointExtension>
</extensions>
</trkpt>
<trkpt lat="51.9384760" lon="13.8904150">
<ele>-3.5800000</ele>
<time>2010-06-27T06:53:08Z</time>
<extensions>
<tp1:TrackPointExtension>
<tp1:hr>105</tp1:hr>
<tp1:cad>61</tp1:cad>
</tp1:TrackPointExtension>
</extensions>
</trkpt>
<trkpt lat="51.9386390" lon="13.8905380">
<ele>-3.6130000</ele>
<time>2010-06-27T06:53:14Z</time>
<extensions>
<tp1:TrackPointExtension>
<tp1:hr>106</tp1:hr>
<tp1:cad>58</tp1:cad>
</tp1:TrackPointExtension>
</extensions>
</trkpt>
<trkpt lat="51.9388110" lon="13.8907530">
<ele>-3.0430000</ele>
<time>2010-06-27T06:53:20Z</time>
<extensions>
<tp1:TrackPointExtension>
<tp1:hr>109</tp1:hr>
<tp1:cad>57</tp1:cad>
</tp1:TrackPointExtension>
</extensions>
</trkpt>
<trkpt lat="51.9389830" lon="13.8909460">
<ele>-3.1180000</ele>
<time>2010-06-27T06:53:24Z</time>
<extensions>
<tp1:TrackPointExtension>
<tp1:hr>111</tp1:hr>
<tp1:cad>63</tp1:cad>
</tp1:TrackPointExtension>
</extensions>
</trkpt>
<trkpt lat="51.9393030" lon="13.8915910">
<ele>-2.9490000</ele>
<time>2010-06-27T06:53:30Z</time>
<extensions>
<tp1:TrackPointExtension>
<tp1:hr>110</tp1:hr>
<tp1:cad>62</tp1:cad>
</tp1:TrackPointExtension>
</extensions>
</trkpt>
<trkpt lat="51.9393290" lon="13.8919130">
<ele>-2.9990000</ele>
<time>2010-06-27T06:53:34Z</time>
<extensions>
<tp1:TrackPointExtension>
<tp1:hr>107</tp1:hr>
<tp1:cad>0</tp1:cad>
</tp1:TrackPointExtension>
</extensions>
</trkpt>
<trkpt lat="51.9393470" lon="13.8921430">
<ele>-3.3780000</ele>
<time>2010-06-27T06:53:38Z</time>
<extensions>
<tp1:TrackPointExtension>
<tp1:hr>107</tp1:hr>
<tp1:cad>0</tp1:cad>
</tp1:TrackPointExtension>
</extensions>
</trkpt>
<trkpt lat="51.9393620" lon="13.8921140">
<ele>-4.0210000</ele>
<time>2010-06-27T06:53:42Z</time>
<extensions>
<tp1:TrackPointExtension>
<tp1:hr>107</tp1:hr>
<tp1:cad>0</tp1:cad>
</tp1:TrackPointExtension>
</extensions>
</trkpt>
<trkpt lat="51.9394120" lon="13.8918890">
<ele>-3.8310000</ele>
<time>2010-06-27T06:53:48Z</time>
<extensions>
<tp1:TrackPointExtension>
<tp1:hr>109</tp1:hr>
<tp1:cad>43</tp1:cad>
</tp1:TrackPointExtension>
</extensions>
</trkpt>
<trkpt lat="51.9394060" lon="13.8915670">
<ele>-3.7050000</ele>
<time>2010-06-27T06:53:53Z</time>
<extensions>
<tp1:TrackPointExtension>
<tp1:hr>110</tp1:hr>
<tp1:cad>0</tp1:cad>
</tp1:TrackPointExtension>
</extensions>
</trkpt>
<trkpt lat="51.9393740" lon="13.8912110">
<ele>-3.7490000</ele>
<time>2010-06-27T06:53:59Z</time>
<extensions>
<tp1:TrackPointExtension>
<tp1:hr>108</tp1:hr>
<tp1:cad>0</tp1:cad>
</tp1:TrackPointExtension>
</extensions>
</trkpt>
<trkpt lat="51.9393690" lon="13.8911820">
<ele>-3.8290000</ele>
<time>2010-06-27T06:54:01Z</time>
<extensions>
<tp1:TrackPointExtension>
<tp1:hr>106</tp1:hr>
</tp1:TrackPointExtension>
</extensions>
</trkpt>
</trkseg>
<trkseg>
<trkpt lat="51.9393690" lon="13.8911820">
<ele>-4.0350000</ele>
<time>2010-06-27T06:54:14Z</time>
<extensions>
<tp1:TrackPointExtension>
<tp1:hr>108</tp1:hr>
</tp1:TrackPointExtension>
</extensions>
</trkpt>
<trkpt lat="51.9393690" lon="13.8911820">
<ele>-4.0330000</ele>
<time>2010-06-27T06:54:19Z</time>
<extensions>
<tp1:TrackPointExtension>
<tp1:hr>103</tp1:hr>
</tp1:TrackPointExtension>
</extensions>
</trkpt>
</trkseg>
<trkseg>
<trkpt lat="51.9393690" lon="13.8911820">
<ele>-2.6750000</ele>
<time>2010-06-27T06:59:50Z</time>
<extensions>
<tp1:TrackPointExtension>
<tp1:hr>87</tp1:hr>
</tp1:TrackPointExtension>
</extensions>
</trkpt>
<trkpt lat="51.9393690" lon="13.8911820">
<ele>-2.7000000</ele>
<time>2010-06-27T07:05:08Z</time>
<extensions>
<tp1:TrackPointExtension>
<tp1:hr>84</tp1:hr>
</tp1:TrackPointExtension>
</extensions>
</trkpt>
</trkseg>
<trkseg>
<trkpt lat="51.9393690" lon="13.8911820">
<ele>-2.7000000</ele>
<time>2010-06-27T07:05:09Z</time>
<extensions>
<tp1:TrackPointExtension>
<tp1:hr>84</tp1:hr>
</tp1:TrackPointExtension>
</extensions>
</trkpt>
<trkpt lat="51.9393690" lon="13.8911820">
<ele>-2.7840000</ele>
<time>2010-06-27T07:05:10Z</time>
<extensions>
<tp1:TrackPointExtension>
<tp1:hr>84</tp1:hr>
</tp1:TrackPointExtension>
</extensions>
</trkpt>
</trkseg>
<trkseg>
<trkpt lat="51.9393690" lon="13.8911820">
<ele>-2.7460000</ele>
<time>2010-06-27T07:05:18Z</time>
<extensions>
<tp1:TrackPointExtension>
<tp1:hr>86</tp1:hr>
</tp1:TrackPointExtension>
</extensions>
</trkpt>
</trkseg>
<trkseg>
<trkpt lat="51.9393690" lon="13.8911820">
<ele>-2.7170000</ele>
<time>2010-06-27T07:05:46Z</time>
<extensions>
<tp1:TrackPointExtension>
<tp1:hr>86</tp1:hr>
<tp1:cad>0</tp1:cad>
</tp1:TrackPointExtension>
</extensions>
</trkpt>
<trkpt lat="51.9393690" lon="13.8911820">
<ele>-2.8520000</ele>
<time>2010-06-27T07:05:49Z</time>
<extensions>
<tp1:TrackPointExtension>
<tp1:hr>86</tp1:hr>
<tp1:cad>0</tp1:cad>
</tp1:TrackPointExtension>
</extensions>
</trkpt>
</trkseg>
<trkseg>
<trkpt lat="51.9393690" lon="13.8911820">
<ele>-2.9690000</ele>
<time>2010-06-27T07:05:55Z</time>
<extensions>
<tp1:TrackPointExtension>
<tp1:hr>85</tp1:hr>
<tp1:cad>27</tp1:cad>
</tp1:TrackPointExtension>
</extensions>
</trkpt>
<trkpt lat="51.9393690" lon="13.8911820">
<ele>-2.9350000</ele>
<time>2010-06-27T07:05:59Z</time>
<extensions>
<tp1:TrackPointExtension>
<tp1:hr>85</tp1:hr>
<tp1:cad>0</tp1:cad>
</tp1:TrackPointExtension>
</extensions>
</trkpt>
</trkseg>
<trkseg>
<trkpt lat="51.9393690" lon="13.8911820">
<ele>-2.9920000</ele>
<time>2010-06-27T07:06:22Z</time>
<extensions>
<tp1:TrackPointExtension>
<tp1:hr>86</tp1:hr>
<tp1:cad>94</tp1:cad>
</tp1:TrackPointExtension>
</extensions>
</trkpt>
<trkpt lat="51.9393690" lon="13.8911820">
<ele>-2.7560000</ele>
<time>2010-06-27T07:06:27Z</time>
<extensions>
<tp1:TrackPointExtension>
<tp1:hr>93</tp1:hr>
<tp1:cad>0</tp1:cad>
</tp1:TrackPointExtension>
</extensions>
</trkpt>
<trkpt lat="51.9391670" lon="13.8910370">
<ele>-2.6590000</ele>
<time>2010-06-27T07:06:31Z</time>
<extensions>
<tp1:TrackPointExtension>
<tp1:hr>100</tp1:hr>
<tp1:cad>0</tp1:cad>
</tp1:TrackPointExtension>
</extensions>
</trkpt>
<trkpt lat="51.9390680" lon="13.8910530">
<ele>-2.4070000</ele>
<time>2010-06-27T07:06:36Z</time>
<extensions>
<tp1:TrackPointExtension>
<tp1:hr>102</tp1:hr>
<tp1:cad>26</tp1:cad>
</tp1:TrackPointExtension>
</extensions>
</trkpt>
<trkpt lat="51.9389830" lon="13.8909460">
<ele>-1.8600000</ele>
<time>2010-06-27T07:06:39Z</time>
<extensions>
<tp1:TrackPointExtension>
<tp1:hr>105</tp1:hr>
<tp1:cad>0</tp1:cad>
</tp1:TrackPointExtension>
</extensions>
</trkpt>
<trkpt lat="51.9386480" lon="13.8905500">
<ele>-2.0010000</ele>
<time>2010-06-27T07:06:45Z</time>
<extensions>
<tp1:TrackPointExtension>
<tp1:hr>109</tp1:hr>
<tp1:cad>39</tp1:cad>
</tp1:TrackPointExtension>
</extensions>
</trkpt>
<trkpt lat="51.9384630" lon="13.8904060">
<ele>-2.6460000</ele>
<time>2010-06-27T07:06:50Z</time>
<extensions>
<tp1:TrackPointExtension>
<tp1:hr>112</tp1:hr>
<tp1:cad>0</tp1:cad>
</tp1:TrackPointExtension>
</extensions>
</trkpt>
<trkpt lat="51.9384000" lon="13.8903590">
<ele>-3.0220000</ele>
<time>2010-06-27T07:06:53Z</time>
<extensions>
<tp1:TrackPointExtension>
<tp1:hr>112</tp1:hr>
<tp1:cad>0</tp1:cad>
</tp1:TrackPointExtension>
</extensions>
</trkpt>
<trkpt lat="51.9383790" lon="13.8903430">
<ele>-3.0500000</ele>
<time>2010-06-27T07:06:56Z</time>
<extensions>
<tp1:TrackPointExtension>
<tp1:hr>113</tp1:hr>
</tp1:TrackPointExtension>
</extensions>
</trkpt>
</trkseg>
<trkseg>
<trkpt lat="51.9383620" lon="13.8903300">
<ele>-3.2750000</ele>
<time>2010-06-27T07:07:26Z</time>
<extensions>
<tp1:TrackPointExtension>
<tp1:hr>100</tp1:hr>
<tp1:cad>37</tp1:cad>
</tp1:TrackPointExtension>
</extensions>
</trkpt>
<trkpt lat="51.9382960" lon="13.8902810">
<ele>-2.6710000</ele>
<time>2010-06-27T07:07:28Z</time>
<extensions>
<tp1:TrackPointExtension>
<tp1:hr>100</tp1:hr>
<tp1:cad>38</tp1:cad>
</tp1:TrackPointExtension>
</extensions>
</trkpt>
<trkpt lat="51.9380430" lon="13.8902170">
<ele>-2.3790000</ele>
<time>2010-06-27T07:07:33Z</time>
<extensions>
<tp1:TrackPointExtension>
<tp1:hr>105</tp1:hr>
<tp1:cad>60</tp1:cad>
</tp1:TrackPointExtension>
</extensions>
</trkpt>
<trkpt lat="51.9377810" lon="13.8902380">
<ele>-2.7950000</ele>
<time>2010-06-27T07:07:38Z</time>
<extensions>
<tp1:TrackPointExtension>
<tp1:hr>106</tp1:hr>
<tp1:cad>68</tp1:cad>
</tp1:TrackPointExtension>
</extensions>
</trkpt>
<trkpt lat="51.9373520" lon="13.8903240">
<ele>-2.7700000</ele>
<time>2010-06-27T07:07:47Z</time>
<extensions>
<tp1:TrackPointExtension>
<tp1:hr>108</tp1:hr>
<tp1:cad>71</tp1:cad>
</tp1:TrackPointExtension>
</extensions>
</trkpt>
<trkpt lat="51.9367500" lon="13.8904810">
<ele>-2.4630000</ele>
<time>2010-06-27T07:07:56Z</time>
<extensions>
<tp1:TrackPointExtension>
<tp1:hr>109</tp1:hr>
<tp1:cad>73</tp1:cad>
</tp1:TrackPointExtension>
</extensions>
</trkpt>
<trkpt lat="51.9364500" lon="13.8905590">
<ele>-2.9120000</ele>
<time>2010-06-27T07:08:01Z</time>
<extensions>
<tp1:TrackPointExtension>
<tp1:hr>110</tp1:hr>
<tp1:cad>78</tp1:cad>
</tp1:TrackPointExtension>
</extensions>
</trkpt>
<trkpt lat="51.9360170" lon="13.8906720">
<ele>-3.3490000</ele>
<time>2010-06-27T07:08:08Z</time>
<extensions>
<tp1:TrackPointExtension>
<tp1:hr>108</tp1:hr>
<tp1:cad>79</tp1:cad>
</tp1:TrackPointExtension>
</extensions>
</trkpt>
<trkpt lat="51.9354870" lon="13.8908270">
<ele>-2.9210000</ele>
<time>2010-06-27T07:08:16Z</time>
<extensions>
<tp1:TrackPointExtension>
<tp1:hr>110</tp1:hr>
<tp1:cad>81</tp1:cad>
</tp1:TrackPointExtension>
</extensions>
</trkpt>
<trkpt lat="51.9349450" lon="13.8909500">
<ele>-2.9100000</ele>
<time>2010-06-27T07:08:24Z</time>
<extensions>
<tp1:TrackPointExtension>
<tp1:hr>115</tp1:hr>
<tp1:cad>81</tp1:cad>
</tp1:TrackPointExtension>
</extensions>
</trkpt>
<trkpt lat="51.9344020" lon="13.8910820">
<ele>-2.5650000</ele>
<time>2010-06-27T07:08:32Z</time>
<extensions>
<tp1:TrackPointExtension>
<tp1:hr>118</tp1:hr>
<tp1:cad>79</tp1:cad>
</tp1:TrackPointExtension>
</extensions>
</trkpt>
<trkpt lat="51.9340780" lon="13.8911700">
<ele>-3.0410000</ele>
<time>2010-06-27T07:08:37Z</time>
<extensions>
<tp1:TrackPointExtension>
<tp1:hr>120</tp1:hr>
<tp1:cad>81</tp1:cad>
</tp1:TrackPointExtension>
</extensions>
</trkpt>
<trkpt lat="51.9336340" lon="13.8913010">
<ele>-2.9430000</ele>
<time>2010-06-27T07:08:44Z</time>
<extensions>
<tp1:TrackPointExtension>
<tp1:hr>122</tp1:hr>
<tp1:cad>81</tp1:cad>
</tp1:TrackPointExtension>
</extensions>
</trkpt>
<trkpt lat="51.9331830" lon="13.8915180">
<ele>-2.8670000</ele>
<time>2010-06-27T07:08:51Z</time>
<extensions>
<tp1:TrackPointExtension>
<tp1:hr>126</tp1:hr>
<tp1:cad>82</tp1:cad>
</tp1:TrackPointExtension>
</extensions>
</trkpt>
<trkpt lat="51.9325600" lon="13.8919500">
<ele>-2.7480000</ele>
<time>2010-06-27T07:09:01Z</time>
<extensions>
<tp1:TrackPointExtension>
<tp1:hr>128</tp1:hr>
<tp1:cad>82</tp1:cad>
</tp1:TrackPointExtension>
</extensions>
</trkpt>
<trkpt lat="51.9319970" lon="13.8923200">
<ele>-2.9330000</ele>
<time>2010-06-27T07:09:10Z</time>
<extensions>
<tp1:TrackPointExtension>
<tp1:hr>129</tp1:hr>
<tp1:cad>81</tp1:cad>
</tp1:TrackPointExtension>
</extensions>
</trkpt>
<trkpt lat="51.9315690" lon="13.8926010">
<ele>-3.1720000</ele>
<time>2010-06-27T07:09:17Z</time>
<extensions>
<tp1:TrackPointExtension>
<tp1:hr>127</tp1:hr>
<tp1:cad>83</tp1:cad>
</tp1:TrackPointExtension>
</extensions>
</trkpt>
<trkpt lat="51.9310730" lon="13.8929290">
<ele>-3.2390000</ele>
<time>2010-06-27T07:09:25Z</time>
<extensions>
<tp1:TrackPointExtension>
<tp1:hr>124</tp1:hr>
<tp1:cad>84</tp1:cad>
</tp1:TrackPointExtension>
</extensions>
</trkpt>
<trkpt lat="51.9305010" lon="13.8932940">
<ele>-3.0260000</ele>
<time>2010-06-27T07:09:34Z</time>
<extensions>
<tp1:TrackPointExtension>
<tp1:hr>121</tp1:hr>
<tp1:cad>83</tp1:cad>
</tp1:TrackPointExtension>
</extensions>
</trkpt>
<trkpt lat="51.9299410" lon="13.8936550">
<ele>-3.2090000</ele>
<time>2010-06-27T07:09:43Z</time>
<extensions>
<tp1:TrackPointExtension>
<tp1:hr>117</tp1:hr>
<tp1:cad>84</tp1:cad>
</tp1:TrackPointExtension>
</extensions>
</trkpt>
<trkpt lat="51.9295010" lon="13.8939610">
<ele>-2.9730000</ele>
<time>2010-06-27T07:09:50Z</time>
<extensions>
<tp1:TrackPointExtension>
<tp1:hr>118</tp1:hr>
<tp1:cad>84</tp1:cad>
</tp1:TrackPointExtension>
</extensions>
</trkpt>
<trkpt lat="51.9290640" lon="13.8942640">
<ele>-2.9250000</ele>
<time>2010-06-27T07:09:57Z</time>
<extensions>
<tp1:TrackPointExtension>
<tp1:hr>118</tp1:hr>
<tp1:cad>84</tp1:cad>
</tp1:TrackPointExtension>
</extensions>
</trkpt>
<trkpt lat="51.9284920" lon="13.8946590">
<ele>-3.0150000</ele>
<time>2010-06-27T07:10:06Z</time>
<extensions>
<tp1:TrackPointExtension>
<tp1:hr>118</tp1:hr>
<tp1:cad>83</tp1:cad>
</tp1:TrackPointExtension>
</extensions>
</trkpt>
<trkpt lat="51.9279170" lon="13.8950590">
<ele>-3.4160000</ele>
<time>2010-06-27T07:10:15Z</time>
<extensions>
<tp1:TrackPointExtension>
<tp1:hr>118</tp1:hr>
<tp1:cad>86</tp1:cad>
</tp1:TrackPointExtension>
</extensions>
</trkpt>
<trkpt lat="51.9273380" lon="13.8954680">
<ele>-3.1340000</ele>
<time>2010-06-27T07:10:24Z</time>
<extensions>
<tp1:TrackPointExtension>
<tp1:hr>118</tp1:hr>
<tp1:cad>87</tp1:cad>
</tp1:TrackPointExtension>
</extensions>
</trkpt>
<trkpt lat="51.9268470" lon="13.8956910">
<ele>-3.2390000</ele>
<time>2010-06-27T07:10:31Z</time>
<extensions>
<tp1:TrackPointExtension>
<tp1:hr>116</tp1:hr>
<tp1:cad>86</tp1:cad>
</tp1:TrackPointExtension>
</extensions>
</trkpt>
<trkpt lat="51.9263630" lon="13.8958080">
<ele>-3.1050000</ele>
<time>2010-06-27T07:10:38Z</time>
<extensions>
<tp1:TrackPointExtension>
<tp1:hr>116</tp1:hr>
<tp1:cad>84</tp1:cad>
</tp1:TrackPointExtension>
</extensions>
</trkpt>
<trkpt lat="51.9257290" lon="13.8958040">
<ele>-3.4700000</ele>
<time>2010-06-27T07:10:47Z</time>
<extensions>
<tp1:TrackPointExtension>
<tp1:hr>114</tp1:hr>
<tp1:cad>86</tp1:cad>
</tp1:TrackPointExtension>
</extensions>
</trkpt>
<trkpt lat="51.9251520" lon="13.8957620">
<ele>-3.4840000</ele>
<time>2010-06-27T07:10:55Z</time>
<extensions>
<tp1:TrackPointExtension>
<tp1:hr>117</tp1:hr>
<tp1:cad>87</tp1:cad>
</tp1:TrackPointExtension>
</extensions>
</trkpt>
<trkpt lat="51.9243660" lon="13.8956940">
<ele>-3.3790000</ele>
<time>2010-06-27T07:11:06Z</time>
<extensions>
<tp1:TrackPointExtension>
<tp1:hr>119</tp1:hr>
<tp1:cad>87</tp1:cad>
</tp1:TrackPointExtension>
</extensions>
</trkpt>
<trkpt lat="51.9237310" lon="13.8956410">
<ele>-3.2660000</ele>
<time>2010-06-27T07:11:15Z</time>
<extensions>
<tp1:TrackPointExtension>
<tp1:hr>119</tp1:hr>
<tp1:cad>87</tp1:cad>
</tp1:TrackPointExtension>
</extensions>
</trkpt>
<trkpt lat="51.9228700" lon="13.8955730">
<ele>-3.4540000</ele>
<time>2010-06-27T07:11:27Z</time>
<extensions>
<tp1:TrackPointExtension>
<tp1:hr>117</tp1:hr>
<tp1:cad>89</tp1:cad>
</tp1:TrackPointExtension>
</extensions>
</trkpt>
<trkpt lat="51.9220600" lon="13.8955040">
<ele>-4.0470000</ele>
<time>2010-06-27T07:11:38Z</time>
<extensions>
<tp1:TrackPointExtension>
<tp1:hr>117</tp1:hr>
<tp1:cad>91</tp1:cad>
</tp1:TrackPointExtension>
</extensions>
</trkpt>
<trkpt lat="51.9210220" lon="13.8954150">
<ele>-3.7960000</ele>
<time>2010-06-27T07:11:52Z</time>
<extensions>
<tp1:TrackPointExtension>
<tp1:hr>113</tp1:hr>
<tp1:cad>89</tp1:cad>
</tp1:TrackPointExtension>
</extensions>
</trkpt>
<trkpt lat="51.9202280" lon="13.8953470">
<ele>-2.6320000</ele>
<time>2010-06-27T07:12:03Z</time>
<extensions>
<tp1:TrackPointExtension>
<tp1:hr>115</tp1:hr>
<tp1:cad>85</tp1:cad>
</tp1:TrackPointExtension>
</extensions>
</trkpt>
<trkpt lat="51.9198120" lon="13.8953980">
<ele>-1.9950000</ele>
<time>2010-06-27T07:12:09Z</time>
<extensions>
<tp1:TrackPointExtension>
<tp1:hr>118</tp1:hr>
<tp1:cad>85</tp1:cad>
</tp1:TrackPointExtension>
</extensions>
</trkpt>
<trkpt lat="51.9194030" lon="13.8952950">
<ele>-1.7330000</ele>
<time>2010-06-27T07:12:15Z</time>
<extensions>
<tp1:TrackPointExtension>
<tp1:hr>120</tp1:hr>
<tp1:cad>87</tp1:cad>
</tp1:TrackPointExtension>
</extensions>
</trkpt>
<trkpt lat="51.9189790" lon="13.8952460">
<ele>-1.5440000</ele>
<time>2010-06-27T07:12:21Z</time>
<extensions>
<tp1:TrackPointExtension>
<tp1:hr>123</tp1:hr>
<tp1:cad>87</tp1:cad>
</tp1:TrackPointExtension>
</extensions>
</trkpt>
<trkpt lat="51.9182200" lon="13.8951780">
<ele>-1.2890000</ele>
<time>2010-06-27T07:12:32Z</time>
<extensions>
<tp1:TrackPointExtension>
<tp1:hr>126</tp1:hr>
<tp1:cad>84</tp1:cad>
</tp1:TrackPointExtension>
</extensions>
</trkpt>
<trkpt lat="51.9173780" lon="13.8951040">
<ele>-1.0760000</ele>
<time>2010-06-27T07:12:44Z</time>
<extensions>
<tp1:TrackPointExtension>
<tp1:hr>128</tp1:hr>
<tp1:cad>87</tp1:cad>
</tp1:TrackPointExtension>
</extensions>
</trkpt>
<trkpt lat="51.9168070" lon="13.8950550">
<ele>-0.8600000</ele>
<time>2010-06-27T07:12:52Z</time>
<extensions>
<tp1:TrackPointExtension>
<tp1:hr>129</tp1:hr>
<tp1:cad>89</tp1:cad>
</tp1:TrackPointExtension>
</extensions>
</trkpt>
<trkpt lat="51.9161600" lon="13.8950000">
<ele>-0.3570000</ele>
<time>2010-06-27T07:13:01Z</time>
<extensions>
<tp1:TrackPointExtension>
<tp1:hr>128</tp1:hr>
<tp1:cad>89</tp1:cad>
</tp1:TrackPointExtension>
</extensions>
</trkpt>
<trkpt lat="51.9152120" lon="13.8949200">
<ele>-0.2880000</ele>
<time>2010-06-27T07:13:14Z</time>
<extensions>
<tp1:TrackPointExtension>
<tp1:hr>125</tp1:hr>
<tp1:cad>90</tp1:cad>
</tp1:TrackPointExtension>
</extensions>
</trkpt>
<trkpt lat="51.9145580" lon="13.8948640">
<ele>0.1980000</ele>
<time>2010-06-27T07:13:23Z</time>
<extensions>
<tp1:TrackPointExtension>
<tp1:hr>124</tp1:hr>
<tp1:cad>90</tp1:cad>
</tp1:TrackPointExtension>
</extensions>
</trkpt>
<trkpt lat="51.9137260" lon="13.8947940">
<ele>-0.4050000</ele>
<time>2010-06-27T07:13:34Z</time>
<extensions>
<tp1:TrackPointExtension>
<tp1:hr>120</tp1:hr>
<tp1:cad>0</tp1:cad>
</tp1:TrackPointExtension>
</extensions>
</trkpt>
<trkpt lat="51.9130390" lon="13.8947360">
<ele>-1.1260000</ele>
<time>2010-06-27T07:13:43Z</time>
<extensions>
<tp1:TrackPointExtension>
<tp1:hr>117</tp1:hr>
<tp1:cad>94</tp1:cad>
</tp1:TrackPointExtension>
</extensions>
</trkpt>
<trkpt lat="51.9121960" lon="13.8946640">
<ele>-2.3090000</ele>
<time>2010-06-27T07:13:54Z</time>
<extensions>
<tp1:TrackPointExtension>
<tp1:hr>113</tp1:hr>
<tp1:cad>89</tp1:cad>
</tp1:TrackPointExtension>
</extensions>
</trkpt>
<trkpt lat="51.9115020" lon="13.8946050">
<ele>-2.7200000</ele>
<time>2010-06-27T07:14:03Z</time>
<extensions>
<tp1:TrackPointExtension>
<tp1:hr>113</tp1:hr>
<tp1:cad>51</tp1:cad>
</tp1:TrackPointExtension>
</extensions>
</trkpt>
<trkpt lat="51.9108830" lon="13.8945520">
<ele>-2.9370000</ele>
<time>2010-06-27T07:14:11Z</time>
<extensions>
<tp1:TrackPointExtension>
<tp1:hr>113</tp1:hr>
<tp1:cad>89</tp1:cad>
</tp1:TrackPointExtension>
</extensions>
</trkpt>
<trkpt lat="51.9103490" lon="13.8945070">
<ele>-2.3960000</ele>
<time>2010-06-27T07:14:18Z</time>
<extensions>
<tp1:TrackPointExtension>
<tp1:hr>113</tp1:hr>
<tp1:cad>86</tp1:cad>
</tp1:TrackPointExtension>
</extensions>
</trkpt>
<trkpt lat="51.9095920" lon="13.8944430">
<ele>-2.7480000</ele>
<time>2010-06-27T07:14:28Z</time>
<extensions>
<tp1:TrackPointExtension>
<tp1:hr>115</tp1:hr>
<tp1:cad>86</tp1:cad>
</tp1:TrackPointExtension>
</extensions>
</trkpt>
<trkpt lat="51.9092130" lon="13.8944110">
<ele>-3.0980000</ele>
<time>2010-06-27T07:14:33Z</time>
<extensions>
<tp1:TrackPointExtension>
<tp1:hr>118</tp1:hr>
<tp1:cad>87</tp1:cad>
</tp1:TrackPointExtension>
</extensions>
</trkpt>
<trkpt lat="51.9085220" lon="13.8943420">
<ele>-3.4170000</ele>
<time>2010-06-27T07:14:42Z</time>
<extensions>
<tp1:TrackPointExtension>
<tp1:hr>121</tp1:hr>
<tp1:cad>87</tp1:cad>
</tp1:TrackPointExtension>
</extensions>
</trkpt>
<trkpt lat="51.9073730" lon="13.8942370">
<ele>-3.6690000</ele>
<time>2010-06-27T07:14:57Z</time>
<extensions>
<tp1:TrackPointExtension>
<tp1:hr>122</tp1:hr>
<tp1:cad>87</tp1:cad>
</tp1:TrackPointExtension>
</extensions>
</trkpt>
<trkpt lat="51.9067750" lon="13.8941810">
<ele>-3.5300000</ele>
<time>2010-06-27T07:15:05Z</time>
<extensions>
<tp1:TrackPointExtension>
<tp1:hr>124</tp1:hr>
<tp1:cad>88</tp1:cad>
</tp1:TrackPointExtension>
</extensions>
</trkpt>
<trkpt lat="51.9060920" lon="13.8941180">
<ele>-3.5400000</ele>
<time>2010-06-27T07:15:14Z</time>
<extensions>
<tp1:TrackPointExtension>
<tp1:hr>127</tp1:hr>
<tp1:cad>87</tp1:cad>
</tp1:TrackPointExtension>
</extensions>
</trkpt>
<trkpt lat="51.9057130" lon="13.8940840">
<ele>-3.6930000</ele>
<time>2010-06-27T07:15:19Z</time>
<extensions>
<tp1:TrackPointExtension>
<tp1:hr>128</tp1:hr>
<tp1:cad>87</tp1:cad>
</tp1:TrackPointExtension>
</extensions>
</trkpt>
<trkpt lat="51.9051820" lon="13.8940350">
<ele>-3.1190000</ele>
<time>2010-06-27T07:15:26Z</time>
<extensions>
<tp1:TrackPointExtension>
<tp1:hr>129</tp1:hr>
<tp1:cad>85</tp1:cad>
</tp1:TrackPointExtension>
</extensions>
</trkpt>
<trkpt lat="51.9045170" lon="13.8939730">
<ele>-3.3850000</ele>
<time>2010-06-27T07:15:35Z</time>
<extensions>
<tp1:TrackPointExtension>
<tp1:hr>131</tp1:hr>
<tp1:cad>84</tp1:cad>
</tp1:TrackPointExtension>
</extensions>
</trkpt>
<trkpt lat="51.9038590" lon="13.8939130">
<ele>-3.8740000</ele>
<time>2010-06-27T07:15:44Z</time>
<extensions>
<tp1:TrackPointExtension>
<tp1:hr>132</tp1:hr>
<tp1:cad>84</tp1:cad>
</tp1:TrackPointExtension>
</extensions>
</trkpt>
<trkpt lat="51.9033410" lon="13.8938650">
<ele>-3.8200000</ele>
<time>2010-06-27T07:15:51Z</time>
<extensions>
<tp1:TrackPointExtension>
<tp1:hr>130</tp1:hr>
<tp1:cad>84</tp1:cad>
</tp1:TrackPointExtension>
</extensions>
</trkpt>
<trkpt lat="51.9025450" lon="13.8937920">
<ele>-3.9570000</ele>
<time>2010-06-27T07:16:02Z</time>
<extensions>
<tp1:TrackPointExtension>
<tp1:hr>128</tp1:hr>
<tp1:cad>82</tp1:cad>
</tp1:TrackPointExtension>
</extensions>
</trkpt>
<trkpt lat="51.9019770" lon="13.8937390">
<ele>-3.6650000</ele>
<time>2010-06-27T07:16:10Z</time>
<extensions>
<tp1:TrackPointExtension>
<tp1:hr>128</tp1:hr>
<tp1:cad>81</tp1:cad>
</tp1:TrackPointExtension>
</extensions>
</trkpt>
<trkpt lat="51.9014910" lon="13.8936950">
<ele>-3.4990000</ele>
<time>2010-06-27T07:16:17Z</time>
<extensions>
<tp1:TrackPointExtension>
<tp1:hr>130</tp1:hr>
<tp1:cad>81</tp1:cad>
</tp1:TrackPointExtension>
</extensions>
</trkpt>
<trkpt lat="51.9011370" lon="13.8936620">
<ele>-3.4750000</ele>
<time>2010-06-27T07:16:22Z</time>
<extensions>
<tp1:TrackPointExtension>
<tp1:hr>132</tp1:hr>
<tp1:cad>83</tp1:cad>
</tp1:TrackPointExtension>
</extensions>
</trkpt>
<trkpt lat="51.9007020" lon="13.8937420">
<ele>-3.4590000</ele>
<time>2010-06-27T07:16:28Z</time>
<extensions>
<tp1:TrackPointExtension>
<tp1:hr>132</tp1:hr>
<tp1:cad>83</tp1:cad>
</tp1:TrackPointExtension>
</extensions>
</trkpt>
<trkpt lat="51.9003520" lon="13.8938510">
<ele>-3.0960000</ele>
<time>2010-06-27T07:16:33Z</time>
<extensions>
<tp1:TrackPointExtension>
<tp1:hr>134</tp1:hr>
<tp1:cad>82</tp1:cad>
</tp1:TrackPointExtension>
</extensions>
</trkpt>
<trkpt lat="51.8998630" lon="13.8940010">
<ele>-2.9520000</ele>
<time>2010-06-27T07:16:40Z</time>
<extensions>
<tp1:TrackPointExtension>
<tp1:hr>134</tp1:hr>
<tp1:cad>84</tp1:cad>
</tp1:TrackPointExtension>
</extensions>
</trkpt>
<trkpt lat="51.8994270" lon="13.8941360">
<ele>-2.7990000</ele>
<time>2010-06-27T07:16:46Z</time>
<extensions>
<tp1:TrackPointExtension>
<tp1:hr>137</tp1:hr>
<tp1:cad>83</tp1:cad>
</tp1:TrackPointExtension>
</extensions>
</trkpt>
<trkpt lat="51.8988040" lon="13.8945350">
<ele>-2.8510000</ele>
<time>2010-06-27T07:16:55Z</time>
<extensions>
<tp1:TrackPointExtension>
<tp1:hr>140</tp1:hr>
<tp1:cad>85</tp1:cad>
</tp1:TrackPointExtension>
</extensions>
</trkpt>
<trkpt lat="51.8984040" lon="13.8948380">
<ele>-2.5190000</ele>
<time>2010-06-27T07:17:01Z</time>
<extensions>
<tp1:TrackPointExtension>
<tp1:hr>142</tp1:hr>
<tp1:cad>85</tp1:cad>
</tp1:TrackPointExtension>
</extensions>
</trkpt>
<trkpt lat="51.8980010" lon="13.8951420">
<ele>-2.5510000</ele>
<time>2010-06-27T07:17:07Z</time>
<extensions>
<tp1:TrackPointExtension>
<tp1:hr>142</tp1:hr>
<tp1:cad>86</tp1:cad>
</tp1:TrackPointExtension>
</extensions>
</trkpt>
<trkpt lat="51.8975370" lon="13.8954940">
<ele>-2.7300000</ele>
<time>2010-06-27T07:17:14Z</time>
<extensions>
<tp1:TrackPointExtension>
<tp1:hr>141</tp1:hr>
<tp1:cad>88</tp1:cad>
</tp1:TrackPointExtension>
</extensions>
</trkpt>
<trkpt lat="51.8971260" lon="13.8958040">
<ele>-2.2660000</ele>
<time>2010-06-27T07:17:20Z</time>
<extensions>
<tp1:TrackPointExtension>
<tp1:hr>142</tp1:hr>
<tp1:cad>88</tp1:cad>
</tp1:TrackPointExtension>
</extensions>
</trkpt>
<trkpt lat="51.8967740" lon="13.8960720">
<ele>-1.8800000</ele>
<time>2010-06-27T07:17:25Z</time>
<extensions>
<tp1:TrackPointExtension>
<tp1:hr>142</tp1:hr>
<tp1:cad>86</tp1:cad>
</tp1:TrackPointExtension>
</extensions>
</trkpt>
<trkpt lat="51.8962260" lon="13.8964860">
<ele>-1.8130000</ele>
<time>2010-06-27T07:17:33Z</time>
<extensions>
<tp1:TrackPointExtension>
<tp1:hr>140</tp1:hr>
<tp1:cad>85</tp1:cad>
</tp1:TrackPointExtension>
</extensions>
</trkpt>
<trkpt lat="51.8957460" lon="13.8968490">
<ele>-1.9390000</ele>
<time>2010-06-27T07:17:40Z</time>
<extensions>
<tp1:TrackPointExtension>
<tp1:hr>140</tp1:hr>
<tp1:cad>87</tp1:cad>
</tp1:TrackPointExtension>
</extensions>
</trkpt>
<trkpt lat="51.8953430" lon="13.8971550">
<ele>-1.6960000</ele>
<time>2010-06-27T07:17:46Z</time>
<extensions>
<tp1:TrackPointExtension>
<tp1:hr>139</tp1:hr>
<tp1:cad>86</tp1:cad>
</tp1:TrackPointExtension>
</extensions>
</trkpt>
<trkpt lat="51.8949230" lon="13.8974720">
<ele>-2.0060000</ele>
<time>2010-06-27T07:17:52Z</time>
<extensions>
<tp1:TrackPointExtension>
<tp1:hr>139</tp1:hr>
<tp1:cad>87</tp1:cad>
</tp1:TrackPointExtension>
</extensions>
</trkpt>
<trkpt lat="51.8944160" lon="13.8978560">
<ele>-2.2230000</ele>
<time>2010-06-27T07:17:59Z</time>
<extensions>
<tp1:TrackPointExtension>
<tp1:hr>138</tp1:hr>
<tp1:cad>88</tp1:cad>
</tp1:TrackPointExtension>
</extensions>
</trkpt>
<trkpt lat="51.8939860" lon="13.8981820">
<ele>-3.1720000</ele>
<time>2010-06-27T07:18:05Z</time>
<extensions>
<tp1:TrackPointExtension>
<tp1:hr>138</tp1:hr>
<tp1:cad>89</tp1:cad>
</tp1:TrackPointExtension>
</extensions>
</trkpt>
<trkpt lat="51.8934260" lon="13.8986060">
<ele>-4.0550000</ele>
<time>2010-06-27T07:18:13Z</time>
<extensions>
<tp1:TrackPointExtension>
<tp1:hr>136</tp1:hr>
<tp1:cad>89</tp1:cad>
</tp1:TrackPointExtension>
</extensions>
</trkpt>
<trkpt lat="51.8930050" lon="13.8989240">
<ele>-3.9090000</ele>
<time>2010-06-27T07:18:19Z</time>
<extensions>
<tp1:TrackPointExtension>
<tp1:hr>133</tp1:hr>
<tp1:cad>88</tp1:cad>
</tp1:TrackPointExtension>
</extensions>
</trkpt>
<trkpt lat="51.8923850" lon="13.8993930">
<ele>-4.6650000</ele>
<time>2010-06-27T07:18:28Z</time>
<extensions>
<tp1:TrackPointExtension>
<tp1:hr>132</tp1:hr>
<tp1:cad>88</tp1:cad>
</tp1:TrackPointExtension>
</extensions>
</trkpt>
<trkpt lat="51.8919930" lon="13.8996900">
<ele>-4.7660000</ele>
<time>2010-06-27T07:18:34Z</time>
<extensions>
<tp1:TrackPointExtension>
<tp1:hr>132</tp1:hr>
<tp1:cad>88</tp1:cad>
</tp1:TrackPointExtension>
</extensions>
</trkpt>
<trkpt lat="51.8913290" lon="13.9001500">
<ele>-4.8850000</ele>
<time>2010-06-27T07:18:43Z</time>
<extensions>
<tp1:TrackPointExtension>
<tp1:hr>132</tp1:hr>
<tp1:cad>88</tp1:cad>
</tp1:TrackPointExtension>
</extensions>
</trkpt>
<trkpt lat="51.8907130" lon="13.9003750">
<ele>-4.9180000</ele>
<time>2010-06-27T07:18:51Z</time>
<extensions>
<tp1:TrackPointExtension>
<tp1:hr>133</tp1:hr>
<tp1:cad>89</tp1:cad>
</tp1:TrackPointExtension>
</extensions>
</trkpt>
<trkpt lat="51.8899510" lon="13.9006120">
<ele>-4.6470000</ele>
<time>2010-06-27T07:19:01Z</time>
<extensions>
<tp1:TrackPointExtension>
<tp1:hr>133</tp1:hr>
<tp1:cad>86</tp1:cad>
</tp1:TrackPointExtension>
</extensions>
</trkpt>
<trkpt lat="51.8894240" lon="13.9007770">
<ele>-4.9880000</ele>
<time>2010-06-27T07:19:08Z</time>
<extensions>
<tp1:TrackPointExtension>
<tp1:hr>134</tp1:hr>
<tp1:cad>86</tp1:cad>
</tp1:TrackPointExtension>
</extensions>
</trkpt>
<trkpt lat="51.8888140" lon="13.9009630">
<ele>-5.2780000</ele>
<time>2010-06-27T07:19:16Z</time>
<extensions>
<tp1:TrackPointExtension>
<tp1:hr>134</tp1:hr>
<tp1:cad>87</tp1:cad>
</tp1:TrackPointExtension>
</extensions>
</trkpt>
<trkpt lat="51.8880040" lon="13.9012060">
<ele>-4.8550000</ele>
<time>2010-06-27T07:19:27Z</time>
<extensions>
<tp1:TrackPointExtension>
<tp1:hr>136</tp1:hr>
<tp1:cad>86</tp1:cad>
</tp1:TrackPointExtension>
</extensions>
</trkpt>
<trkpt lat="51.8871810" lon="13.9014670">
<ele>-4.6510000</ele>
<time>2010-06-27T07:19:38Z</time>
<extensions>
<tp1:TrackPointExtension>
<tp1:hr>136</tp1:hr>
<tp1:cad>88</tp1:cad>
</tp1:TrackPointExtension>
</extensions>
</trkpt>
<trkpt lat="51.8866540" lon="13.9016200">
<ele>-4.8420000</ele>
<time>2010-06-27T07:19:45Z</time>
<extensions>
<tp1:TrackPointExtension>
<tp1:hr>136</tp1:hr>
<tp1:cad>86</tp1:cad>
</tp1:TrackPointExtension>
</extensions>
</trkpt>
<trkpt lat="51.8862160" lon="13.9018060">
<ele>-4.0700000</ele>
<time>2010-06-27T07:19:51Z</time>
<extensions>
<tp1:TrackPointExtension>
<tp1:hr>137</tp1:hr>
<tp1:cad>86</tp1:cad>
</tp1:TrackPointExtension>
</extensions>
</trkpt>
<trkpt lat="51.8856300" lon="13.9023270">
<ele>-3.9760000</ele>
<time>2010-06-27T07:20:00Z</time>
<extensions>
<tp1:TrackPointExtension>
<tp1:hr>137</tp1:hr>
<tp1:cad>85</tp1:cad>
</tp1:TrackPointExtension>
</extensions>
</trkpt>
<trkpt lat="51.8851900" lon="13.9027350">
<ele>-2.7730000</ele>
<time>2010-06-27T07:20:07Z</time>
<extensions>
<tp1:TrackPointExtension>
<tp1:hr>137</tp1:hr>
<tp1:cad>85</tp1:cad>
</tp1:TrackPointExtension>
</extensions>
</trkpt>
<trkpt lat="51.8846720" lon="13.9032150">
<ele>-3.5570000</ele>
<time>2010-06-27T07:20:15Z</time>
<extensions>
<tp1:TrackPointExtension>
<tp1:hr>138</tp1:hr>
<tp1:cad>86</tp1:cad>
</tp1:TrackPointExtension>
</extensions>
</trkpt>
<trkpt lat="51.8840830" lon="13.9037550">
<ele>-3.2090000</ele>
<time>2010-06-27T07:20:24Z</time>
<extensions>
<tp1:TrackPointExtension>
<tp1:hr>142</tp1:hr>
<tp1:cad>86</tp1:cad>
</tp1:TrackPointExtension>
</extensions>
</trkpt>
<trkpt lat="51.8836220" lon="13.9041910">
<ele>-2.7710000</ele>
<time>2010-06-27T07:20:31Z</time>
<extensions>
<tp1:TrackPointExtension>
<tp1:hr>142</tp1:hr>
<tp1:cad>87</tp1:cad>
</tp1:TrackPointExtension>
</extensions>
</trkpt>
<trkpt lat="51.8828810" lon="13.9048710">
<ele>-3.2650000</ele>
<time>2010-06-27T07:20:42Z</time>
<extensions>
<tp1:TrackPointExtension>
<tp1:hr>144</tp1:hr>
<tp1:cad>88</tp1:cad>
</tp1:TrackPointExtension>
</extensions>
</trkpt>
<trkpt lat="51.8822720" lon="13.9054320">
<ele>-3.6590000</ele>
<time>2010-06-27T07:20:51Z</time>
<extensions>
<tp1:TrackPointExtension>
<tp1:hr>141</tp1:hr>
<tp1:cad>89</tp1:cad>
</tp1:TrackPointExtension>
</extensions>
</trkpt>
<trkpt lat="51.8814600" lon="13.9061830">
<ele>-4.0050000</ele>
<time>2010-06-27T07:21:03Z</time>
<extensions>
<tp1:TrackPointExtension>
<tp1:hr>139</tp1:hr>
<tp1:cad>89</tp1:cad>
</tp1:TrackPointExtension>
</extensions>
</trkpt>
<trkpt lat="51.8808580" lon="13.9067390">
<ele>-4.0720000</ele>
<time>2010-06-27T07:21:12Z</time>
<extensions>
<tp1:TrackPointExtension>
<tp1:hr>139</tp1:hr>
<tp1:cad>86</tp1:cad>
</tp1:TrackPointExtension>
</extensions>
</trkpt>
<trkpt lat="51.8803320" lon="13.9072240">
<ele>-4.0870000</ele>
<time>2010-06-27T07:21:20Z</time>
<extensions>
<tp1:TrackPointExtension>
<tp1:hr>139</tp1:hr>
<tp1:cad>86</tp1:cad>
</tp1:TrackPointExtension>
</extensions>
</trkpt>
<trkpt lat="51.8796150" lon="13.9078870">
<ele>-3.9050000</ele>
<time>2010-06-27T07:21:31Z</time>
<extensions>
<tp1:TrackPointExtension>
<tp1:hr>142</tp1:hr>
<tp1:cad>87</tp1:cad>
</tp1:TrackPointExtension>
</extensions>
</trkpt>
<trkpt lat="51.8790060" lon="13.9084490">
<ele>-4.1520000</ele>
<time>2010-06-27T07:21:40Z</time>
<extensions>
<tp1:TrackPointExtension>
<tp1:hr>143</tp1:hr>
<tp1:cad>88</tp1:cad>
</tp1:TrackPointExtension>
</extensions>
</trkpt>
<trkpt lat="51.8783320" lon="13.9090710">
<ele>-4.2190000</ele>
<time>2010-06-27T07:21:50Z</time>
<extensions>
<tp1:TrackPointExtension>
<tp1:hr>145</tp1:hr>
<tp1:cad>87</tp1:cad>
</tp1:TrackPointExtension>
</extensions>
</trkpt>
<trkpt lat="51.8775410" lon="13.9098010">
<ele>-4.0720000</ele>
<time>2010-06-27T07:22:02Z</time>
<extensions>
<tp1:TrackPointExtension>
<tp1:hr>147</tp1:hr>
<tp1:cad>87</tp1:cad>
</tp1:TrackPointExtension>
</extensions>
</trkpt>
<trkpt lat="51.8768800" lon="13.9104110">
<ele>-3.7320000</ele>
<time>2010-06-27T07:22:12Z</time>
<extensions>
<tp1:TrackPointExtension>
<tp1:hr>146</tp1:hr>
<tp1:cad>87</tp1:cad>
</tp1:TrackPointExtension>
</extensions>
</trkpt>
<trkpt lat="51.8763490" lon="13.9109020">
<ele>-3.3710000</ele>
<time>2010-06-27T07:22:20Z</time>
<extensions>
<tp1:TrackPointExtension>
<tp1:hr>146</tp1:hr>
<tp1:cad>89</tp1:cad>
</tp1:TrackPointExtension>
</extensions>
</trkpt>
<trkpt lat="51.8756750" lon="13.9115200">
<ele>-2.7090000</ele>
<time>2010-06-27T07:22:30Z</time>
<extensions>
<tp1:TrackPointExtension>
<tp1:hr>148</tp1:hr>
<tp1:cad>88</tp1:cad>
</tp1:TrackPointExtension>
</extensions>
</trkpt>
<trkpt lat="51.8752010" lon="13.9119540">
<ele>-2.0990000</ele>
<time>2010-06-27T07:22:37Z</time>
<extensions>
<tp1:TrackPointExtension>
<tp1:hr>149</tp1:hr>
<tp1:cad>89</tp1:cad>
</tp1:TrackPointExtension>
</extensions>
</trkpt>
<trkpt lat="51.8744650" lon="13.9126280">
<ele>-1.4860000</ele>
<time>2010-06-27T07:22:48Z</time>
<extensions>
<tp1:TrackPointExtension>
<tp1:hr>149</tp1:hr>
<tp1:cad>87</tp1:cad>
</tp1:TrackPointExtension>
</extensions>
</trkpt>
<trkpt lat="51.8737970" lon="13.9132400">
<ele>-1.1950000</ele>
<time>2010-06-27T07:22:58Z</time>
<extensions>
<tp1:TrackPointExtension>
<tp1:hr>148</tp1:hr>
<tp1:cad>88</tp1:cad>
</tp1:TrackPointExtension>
</extensions>
</trkpt>
<trkpt lat="51.8731270" lon="13.9138540">
<ele>-1.1430000</ele>
<time>2010-06-27T07:23:08Z</time>
<extensions>
<tp1:TrackPointExtension>
<tp1:hr>148</tp1:hr>
<tp1:cad>88</tp1:cad>
</tp1:TrackPointExtension>
</extensions>
</trkpt>
<trkpt lat="51.8723240" lon="13.9145890">
<ele>-0.8030000</ele>
<time>2010-06-27T07:23:20Z</time>
<extensions>
<tp1:TrackPointExtension>
<tp1:hr>146</tp1:hr>
<tp1:cad>88</tp1:cad>
</tp1:TrackPointExtension>
</extensions>
</trkpt>
<trkpt lat="51.8715120" lon="13.9153330">
<ele>-0.4450000</ele>
<time>2010-06-27T07:23:32Z</time>
<extensions>
<tp1:TrackPointExtension>
<tp1:hr>144</tp1:hr>
<tp1:cad>88</tp1:cad>
</tp1:TrackPointExtension>
</extensions>
</trkpt>
<trkpt lat="51.8707820" lon="13.9160070">
<ele>0.4060000</ele>
<time>2010-06-27T07:23:43Z</time>
<extensions>
<tp1:TrackPointExtension>
<tp1:hr>142</tp1:hr>
<tp1:cad>87</tp1:cad>
</tp1:TrackPointExtension>
</extensions>
</trkpt>
<trkpt lat="51.8702430" lon="13.9164940">
<ele>-0.2670000</ele>
<time>2010-06-27T07:23:51Z</time>
<extensions>
<tp1:TrackPointExtension>
<tp1:hr>143</tp1:hr>
<tp1:cad>90</tp1:cad>
</tp1:TrackPointExtension>
</extensions>
</trkpt>
<trkpt lat="51.8696850" lon="13.9169930">
<ele>0.0330000</ele>
<time>2010-06-27T07:23:59Z</time>
<extensions>
<tp1:TrackPointExtension>
<tp1:hr>144</tp1:hr>
<tp1:cad>89</tp1:cad>
</tp1:TrackPointExtension>
</extensions>
</trkpt>
<trkpt lat="51.8692330" lon="13.9173970">
<ele>0.2660000</ele>
<time>2010-06-27T07:24:06Z</time>
<extensions>
<tp1:TrackPointExtension>
<tp1:hr>145</tp1:hr>
<tp1:cad>0</tp1:cad>
</tp1:TrackPointExtension>
</extensions>
</trkpt>
<trkpt lat="51.8691750" lon="13.9174480">
<ele>0.2840000</ele>
<time>2010-06-27T07:24:07Z</time>
<extensions>
<tp1:TrackPointExtension>
<tp1:hr>145</tp1:hr>
<tp1:cad>0</tp1:cad>
</tp1:TrackPointExtension>
</extensions>
</trkpt>
<trkpt lat="51.8690350" lon="13.9175740">
<ele>-0.4110000</ele>
<time>2010-06-27T07:24:10Z</time>
<extensions>
<tp1:TrackPointExtension>
<tp1:hr>146</tp1:hr>
<tp1:cad>0</tp1:cad>
</tp1:TrackPointExtension>
</extensions>
</trkpt>
<trkpt lat="51.8689570" lon="13.9174370">
<ele>-1.0440000</ele>
<time>2010-06-27T07:24:12Z</time>
<extensions>
<tp1:TrackPointExtension>
<tp1:hr>145</tp1:hr>
<tp1:cad>62</tp1:cad>
</tp1:TrackPointExtension>
</extensions>
</trkpt>
<trkpt lat="51.8687690" lon="13.9168590">
<ele>-1.2710000</ele>
<time>2010-06-27T07:24:19Z</time>
<extensions>
<tp1:TrackPointExtension>
<tp1:hr>141</tp1:hr>
<tp1:cad>0</tp1:cad>
</tp1:TrackPointExtension>
</extensions>
</trkpt>
<trkpt lat="51.8686870" lon="13.9166090">
<ele>-1.3660000</ele>
<time>2010-06-27T07:24:23Z</time>
<extensions>
<tp1:TrackPointExtension>
<tp1:hr>139</tp1:hr>
<tp1:cad>0</tp1:cad>
</tp1:TrackPointExtension>
</extensions>
</trkpt>
<trkpt lat="51.8685800" lon="13.9165610">
<ele>-1.5740000</ele>
<time>2010-06-27T07:24:24Z</time>
<extensions>
<tp1:TrackPointExtension>
<tp1:hr>138</tp1:hr>
<tp1:cad>0</tp1:cad>
</tp1:TrackPointExtension>
</extensions>
</trkpt>
<trkpt lat="51.8680150" lon="13.9164070">
<ele>-2.8080000</ele>
<time>2010-06-27T07:24:33Z</time>
<extensions>
<tp1:TrackPointExtension>
<tp1:hr>133</tp1:hr>
<tp1:cad>74</tp1:cad>
</tp1:TrackPointExtension>
</extensions>
</trkpt>
<trkpt lat="51.8674160" lon="13.9162440">
<ele>-4.1490000</ele>
<time>2010-06-27T07:24:42Z</time>
<extensions>
<tp1:TrackPointExtension>
<tp1:hr>129</tp1:hr>
<tp1:cad>0</tp1:cad>
</tp1:TrackPointExtension>
</extensions>
</trkpt>
<trkpt lat="51.8668020" lon="13.9160780">
<ele>-4.8570000</ele>
<time>2010-06-27T07:24:51Z</time>
<extensions>
<tp1:TrackPointExtension>
<tp1:hr>128</tp1:hr>
<tp1:cad>83</tp1:cad>
</tp1:TrackPointExtension>
</extensions>
</trkpt>
<trkpt lat="51.8662150" lon="13.9159660">
<ele>-5.1640000</ele>
<time>2010-06-27T07:24:59Z</time>
<extensions>
<tp1:TrackPointExtension>
<tp1:hr>125</tp1:hr>
<tp1:cad>19</tp1:cad>
</tp1:TrackPointExtension>
</extensions>
</trkpt>
<trkpt lat="51.8657950" lon="13.9159620">
<ele>-5.0140000</ele>
<time>2010-06-27T07:25:05Z</time>
<extensions>
<tp1:TrackPointExtension>
<tp1:hr>125</tp1:hr>
<tp1:cad>77</tp1:cad>
</tp1:TrackPointExtension>
</extensions>
</trkpt>
<trkpt lat="51.8650820" lon="13.9159520">
<ele>-4.8120000</ele>
<time>2010-06-27T07:25:15Z</time>
<extensions>
<tp1:TrackPointExtension>
<tp1:hr>125</tp1:hr>
<tp1:cad>83</tp1:cad>
</tp1:TrackPointExtension>
</extensions>
</trkpt>
<trkpt lat="51.8645060" lon="13.9159440">
<ele>-4.3120000</ele>
<time>2010-06-27T07:25:23Z</time>
<extensions>
<tp1:TrackPointExtension>
<tp1:hr>123</tp1:hr>
<tp1:cad>87</tp1:cad>
</tp1:TrackPointExtension>
</extensions>
</trkpt>
<trkpt lat="51.8638860" lon="13.9159360">
<ele>-4.3430000</ele>
<time>2010-06-27T07:25:31Z</time>
<extensions>
<tp1:TrackPointExtension>
<tp1:hr>124</tp1:hr>
<tp1:cad>93</tp1:cad>
</tp1:TrackPointExtension>
</extensions>
</trkpt>
<trkpt lat="51.8633850" lon="13.9159290">
<ele>-4.1740000</ele>
<time>2010-06-27T07:25:37Z</time>
<extensions>
<tp1:TrackPointExtension>
<tp1:hr>126</tp1:hr>
<tp1:cad>0</tp1:cad>
</tp1:TrackPointExtension>
</extensions>
</trkpt>
<trkpt lat="51.8627720" lon="13.9159330">
<ele>-3.4580000</ele>
<time>2010-06-27T07:25:45Z</time>
<extensions>
<tp1:TrackPointExtension>
<tp1:hr>128</tp1:hr>
<tp1:cad>83</tp1:cad>
</tp1:TrackPointExtension>
</extensions>
</trkpt>
<trkpt lat="51.8621150" lon="13.9159630">
<ele>-2.6100000</ele>
<time>2010-06-27T07:25:54Z</time>
<extensions>
<tp1:TrackPointExtension>
<tp1:hr>131</tp1:hr>
<tp1:cad>84</tp1:cad>
</tp1:TrackPointExtension>
</extensions>
</trkpt>
<trkpt lat="51.8613720" lon="13.9159440">
<ele>-2.0340000</ele>
<time>2010-06-27T07:26:04Z</time>
<extensions>
<tp1:TrackPointExtension>
<tp1:hr>130</tp1:hr>
<tp1:cad>0</tp1:cad>
</tp1:TrackPointExtension>
</extensions>
</trkpt>
<trkpt lat="51.8605500" lon="13.9159240">
<ele>-1.9870000</ele>
<time>2010-06-27T07:26:15Z</time>
<extensions>
<tp1:TrackPointExtension>
<tp1:hr>129</tp1:hr>
<tp1:cad>84</tp1:cad>
</tp1:TrackPointExtension>
</extensions>
</trkpt>
<trkpt lat="51.8601230" lon="13.9158960">
<ele>-1.6430000</ele>
<time>2010-06-27T07:26:21Z</time>
<extensions>
<tp1:TrackPointExtension>
<tp1:hr>124</tp1:hr>
<tp1:cad>30</tp1:cad>
</tp1:TrackPointExtension>
</extensions>
</trkpt>
<trkpt lat="51.8595240" lon="13.9158560">
<ele>-1.7060000</ele>
<time>2010-06-27T07:26:29Z</time>
<extensions>
<tp1:TrackPointExtension>
<tp1:hr>123</tp1:hr>
<tp1:cad>0</tp1:cad>
</tp1:TrackPointExtension>
</extensions>
</trkpt>
<trkpt lat="51.8589640" lon="13.9158700">
<ele>-2.3760000</ele>
<time>2010-06-27T07:26:36Z</time>
<extensions>
<tp1:TrackPointExtension>
<tp1:hr>122</tp1:hr>
<tp1:cad>0</tp1:cad>
</tp1:TrackPointExtension>
</extensions>
</trkpt>
<trkpt lat="51.8584900" lon="13.9157400">
<ele>-2.4790000</ele>
<time>2010-06-27T07:26:42Z</time>
<extensions>
<tp1:TrackPointExtension>
<tp1:hr>121</tp1:hr>
<tp1:cad>91</tp1:cad>
</tp1:TrackPointExtension>
</extensions>
</trkpt>
<trkpt lat="51.8577370" lon="13.9154700">
<ele>-3.1270000</ele>
<time>2010-06-27T07:26:52Z</time>
<extensions>
<tp1:TrackPointExtension>
<tp1:hr>118</tp1:hr>
<tp1:cad>90</tp1:cad>
</tp1:TrackPointExtension>
</extensions>
</trkpt>
<trkpt lat="51.8573490" lon="13.9153320">
<ele>-3.1100000</ele>
<time>2010-06-27T07:26:57Z</time>
<extensions>
<tp1:TrackPointExtension>
<tp1:hr>113</tp1:hr>
<tp1:cad>0</tp1:cad>
</tp1:TrackPointExtension>
</extensions>
</trkpt>
<trkpt lat="51.8566610" lon="13.9150750">
<ele>-3.2720000</ele>
<time>2010-06-27T07:27:06Z</time>
<extensions>
<tp1:TrackPointExtension>
<tp1:hr>110</tp1:hr>
<tp1:cad>92</tp1:cad>
</tp1:TrackPointExtension>
</extensions>
</trkpt>
<trkpt lat="51.8565840" lon="13.9150430">
<ele>-3.3280000</ele>
<time>2010-06-27T07:27:07Z</time>
<extensions>
<tp1:TrackPointExtension>
<tp1:hr>110</tp1:hr>
<tp1:cad>92</tp1:cad>
</tp1:TrackPointExtension>
</extensions>
</trkpt>
<trkpt lat="51.8559390" lon="13.9150520">
<ele>-3.1930000</ele>
<time>2010-06-27T07:27:15Z</time>
<extensions>
<tp1:TrackPointExtension>
<tp1:hr>111</tp1:hr>
<tp1:cad>88</tp1:cad>
</tp1:TrackPointExtension>
</extensions>
</trkpt>
<trkpt lat="51.8554820" lon="13.9150860">
<ele>-2.6110000</ele>
<time>2010-06-27T07:27:21Z</time>
<extensions>
<tp1:TrackPointExtension>
<tp1:hr>113</tp1:hr>
<tp1:cad>86</tp1:cad>
</tp1:TrackPointExtension>
</extensions>
</trkpt>
<trkpt lat="51.8549760" lon="13.9150860">
<ele>-2.6050000</ele>
<time>2010-06-27T07:27:28Z</time>
<extensions>
<tp1:TrackPointExtension>
<tp1:hr>113</tp1:hr>
<tp1:cad>82</tp1:cad>
</tp1:TrackPointExtension>
</extensions>
</trkpt>
<trkpt lat="51.8543250" lon="13.9151020">
<ele>-2.4340000</ele>
<time>2010-06-27T07:27:37Z</time>
<extensions>
<tp1:TrackPointExtension>
<tp1:hr>113</tp1:hr>
<tp1:cad>0</tp1:cad>
</tp1:TrackPointExtension>
</extensions>
</trkpt>
<trkpt lat="51.8538380" lon="13.9151810">
<ele>-2.4870000</ele>
<time>2010-06-27T07:27:44Z</time>
<extensions>
<tp1:TrackPointExtension>
<tp1:hr>112</tp1:hr>
<tp1:cad>78</tp1:cad>
</tp1:TrackPointExtension>
</extensions>
</trkpt>
<trkpt lat="51.8533520" lon="13.9154260">
<ele>-2.7490000</ele>
<time>2010-06-27T07:27:51Z</time>
<extensions>
<tp1:TrackPointExtension>
<tp1:hr>110</tp1:hr>
<tp1:cad>0</tp1:cad>
</tp1:TrackPointExtension>
</extensions>
</trkpt>
<trkpt lat="51.8530240" lon="13.9154930">
<ele>-2.2830000</ele>
<time>2010-06-27T07:27:56Z</time>
<extensions>
<tp1:TrackPointExtension>
<tp1:hr>110</tp1:hr>
<tp1:cad>79</tp1:cad>
</tp1:TrackPointExtension>
</extensions>
</trkpt>
<trkpt lat="51.8528960" lon="13.9155040">
<ele>-1.9310000</ele>
<time>2010-06-27T07:27:58Z</time>
<extensions>
<tp1:TrackPointExtension>
<tp1:hr>110</tp1:hr>
<tp1:cad>0</tp1:cad>
</tp1:TrackPointExtension>
</extensions>
</trkpt>
<trkpt lat="51.8526740" lon="13.9155380">
<ele>-1.1460000</ele>
<time>2010-06-27T07:28:02Z</time>
<extensions>
<tp1:TrackPointExtension>
<tp1:hr>111</tp1:hr>
<tp1:cad>69</tp1:cad>
</tp1:TrackPointExtension>
</extensions>
</trkpt>
<trkpt lat="51.8526090" lon="13.9158110">
<ele>-0.9530000</ele>
<time>2010-06-27T07:28:04Z</time>
<extensions>
<tp1:TrackPointExtension>
<tp1:hr>112</tp1:hr>
<tp1:cad>0</tp1:cad>
</tp1:TrackPointExtension>
</extensions>
</trkpt>
<trkpt lat="51.8526110" lon="13.9159830">
<ele>-0.9980000</ele>
<time>2010-06-27T07:28:06Z</time>
<extensions>
<tp1:TrackPointExtension>
<tp1:hr>112</tp1:hr>
<tp1:cad>0</tp1:cad>
</tp1:TrackPointExtension>
</extensions>
</trkpt>
<trkpt lat="51.8525770" lon="13.9164780">
<ele>-1.5050000</ele>
<time>2010-06-27T07:28:13Z</time>
<extensions>
<tp1:TrackPointExtension>
<tp1:hr>111</tp1:hr>
<tp1:cad>0</tp1:cad>
</tp1:TrackPointExtension>
</extensions>
</trkpt>
<trkpt lat="51.8525720" lon="13.9165500">
<ele>-1.5510000</ele>
<time>2010-06-27T07:28:15Z</time>
<extensions>
<tp1:TrackPointExtension>
<tp1:hr>111</tp1:hr>
</tp1:TrackPointExtension>
</extensions>
</trkpt>
</trkseg>
<trkseg>
<trkpt lat="51.8525720" lon="13.9165500">
<ele>-1.7580000</ele>
<time>2010-06-27T07:28:18Z</time>
<extensions>
<tp1:TrackPointExtension>
<tp1:hr>110</tp1:hr>
</tp1:TrackPointExtension>
</extensions>
</trkpt>
<trkpt lat="51.8525590" lon="13.9167330">
<ele>-1.6140000</ele>
<time>2010-06-27T07:28:24Z</time>
<extensions>
<tp1:TrackPointExtension>
<tp1:hr>107</tp1:hr>
<tp1:cad>22</tp1:cad>
</tp1:TrackPointExtension>
</extensions>
</trkpt>
<trkpt lat="51.8523730" lon="13.9169440">
<ele>-1.5400000</ele>
<time>2010-06-27T07:28:29Z</time>
<extensions>
<tp1:TrackPointExtension>
<tp1:hr>108</tp1:hr>
<tp1:cad>61</tp1:cad>
</tp1:TrackPointExtension>
</extensions>
</trkpt>
<trkpt lat="51.8521790" lon="13.9174950">
<ele>-1.5780000</ele>
<time>2010-06-27T07:28:36Z</time>
<extensions>
<tp1:TrackPointExtension>
<tp1:hr>110</tp1:hr>
<tp1:cad>72</tp1:cad>
</tp1:TrackPointExtension>
</extensions>
</trkpt>
<trkpt lat="51.8519270" lon="13.9179520">
<ele>-1.2800000</ele>
<time>2010-06-27T07:28:42Z</time>
<extensions>
<tp1:TrackPointExtension>
<tp1:hr>112</tp1:hr>
<tp1:cad>73</tp1:cad>
</tp1:TrackPointExtension>
</extensions>
</trkpt>
<trkpt lat="51.8516130" lon="13.9182980">
<ele>-1.6130000</ele>
<time>2010-06-27T07:28:48Z</time>
<extensions>
<tp1:TrackPointExtension>
<tp1:hr>114</tp1:hr>
<tp1:cad>73</tp1:cad>
</tp1:TrackPointExtension>
</extensions>
</trkpt>
<trkpt lat="51.8513760" lon="13.9186800">
<ele>-1.6630000</ele>
<time>2010-06-27T07:28:55Z</time>
<extensions>
<tp1:TrackPointExtension>
<tp1:hr>117</tp1:hr>
<tp1:cad>0</tp1:cad>
</tp1:TrackPointExtension>
</extensions>
</trkpt>
<trkpt lat="51.8511720" lon="13.9191050">
<ele>-2.1710000</ele>
<time>2010-06-27T07:29:02Z</time>
<extensions>
<tp1:TrackPointExtension>
<tp1:hr>119</tp1:hr>
<tp1:cad>60</tp1:cad>
</tp1:TrackPointExtension>
</extensions>
</trkpt>
<trkpt lat="51.8509650" lon="13.9196290">
<ele>-2.2880000</ele>
<time>2010-06-27T07:29:09Z</time>
<extensions>
<tp1:TrackPointExtension>
<tp1:hr>117</tp1:hr>
<tp1:cad>0</tp1:cad>
</tp1:TrackPointExtension>
</extensions>
</trkpt>
<trkpt lat="51.8507970" lon="13.9199270">
<ele>-2.4460000</ele>
<time>2010-06-27T07:29:14Z</time>
<extensions>
<tp1:TrackPointExtension>
<tp1:hr>112</tp1:hr>
<tp1:cad>64</tp1:cad>
</tp1:TrackPointExtension>
</extensions>
</trkpt>
<trkpt lat="51.8504790" lon="13.9203900">
<ele>-1.8420000</ele>
<time>2010-06-27T07:29:21Z</time>
<extensions>
<tp1:TrackPointExtension>
<tp1:hr>112</tp1:hr>
<tp1:cad>78</tp1:cad>
</tp1:TrackPointExtension>
</extensions>
</trkpt>
<trkpt lat="51.8500710" lon="13.9209000">
<ele>-1.9790000</ele>
<time>2010-06-27T07:29:28Z</time>
<extensions>
<tp1:TrackPointExtension>
<tp1:hr>113</tp1:hr>
<tp1:cad>0</tp1:cad>
</tp1:TrackPointExtension>
</extensions>
</trkpt>
<trkpt lat="51.8498260" lon="13.9212660">
<ele>-2.0550000</ele>
<time>2010-06-27T07:29:34Z</time>
<extensions>
<tp1:TrackPointExtension>
<tp1:hr>115</tp1:hr>
<tp1:cad>88</tp1:cad>
</tp1:TrackPointExtension>
</extensions>
</trkpt>
<trkpt lat="51.8495260" lon="13.9220460">
<ele>-1.9970000</ele>
<time>2010-06-27T07:29:40Z</time>
<extensions>
<tp1:TrackPointExtension>
<tp1:hr>115</tp1:hr>
<tp1:cad>48</tp1:cad>
</tp1:TrackPointExtension>
</extensions>
</trkpt>
<trkpt lat="51.8493220" lon="13.9229040">
<ele>-2.3010000</ele>
<time>2010-06-27T07:29:47Z</time>
<extensions>
<tp1:TrackPointExtension>
<tp1:hr>118</tp1:hr>
<tp1:cad>0</tp1:cad>
</tp1:TrackPointExtension>
</extensions>
</trkpt>
<trkpt lat="51.8490720" lon="13.9240690">
<ele>-2.2710000</ele>
<time>2010-06-27T07:29:57Z</time>
<extensions>
<tp1:TrackPointExtension>
<tp1:hr>118</tp1:hr>
<tp1:cad>87</tp1:cad>
</tp1:TrackPointExtension>
</extensions>
</trkpt>
<trkpt lat="51.8487820" lon="13.9252260">
<ele>-2.6590000</ele>
<time>2010-06-27T07:30:07Z</time>
<extensions>
<tp1:TrackPointExtension>
<tp1:hr>116</tp1:hr>
<tp1:cad>87</tp1:cad>
</tp1:TrackPointExtension>
</extensions>
</trkpt>
<trkpt lat="51.8485010" lon="13.9262470">
<ele>-2.5830000</ele>
<time>2010-06-27T07:30:16Z</time>
<extensions>
<tp1:TrackPointExtension>
<tp1:hr>116</tp1:hr>
<tp1:cad>87</tp1:cad>
</tp1:TrackPointExtension>
</extensions>
</trkpt>
<trkpt lat="51.8483130" lon="13.9269240">
<ele>-2.5740000</ele>
<time>2010-06-27T07:30:22Z</time>
<extensions>
<tp1:TrackPointExtension>
<tp1:hr>115</tp1:hr>
<tp1:cad>91</tp1:cad>
</tp1:TrackPointExtension>
</extensions>
</trkpt>
<trkpt lat="51.8481660" lon="13.9274510">
<ele>-2.8240000</ele>
<time>2010-06-27T07:30:27Z</time>
<extensions>
<tp1:TrackPointExtension>
<tp1:hr>113</tp1:hr>
<tp1:cad>24</tp1:cad>
</tp1:TrackPointExtension>
</extensions>
</trkpt>
<trkpt lat="51.8479380" lon="13.9282620">
<ele>-2.8700000</ele>
<time>2010-06-27T07:30:34Z</time>
<extensions>
<tp1:TrackPointExtension>
<tp1:hr>112</tp1:hr>
<tp1:cad>88</tp1:cad>
</tp1:TrackPointExtension>
</extensions>
</trkpt>
<trkpt lat="51.8477130" lon="13.9290560">
<ele>-3.0750000</ele>
<time>2010-06-27T07:30:41Z</time>
<extensions>
<tp1:TrackPointExtension>
<tp1:hr>110</tp1:hr>
<tp1:cad>88</tp1:cad>
</tp1:TrackPointExtension>
</extensions>
</trkpt>
<trkpt lat="51.8474470" lon="13.9298410">
<ele>-3.6470000</ele>
<time>2010-06-27T07:30:48Z</time>
<extensions>
<tp1:TrackPointExtension>
<tp1:hr>108</tp1:hr>
<tp1:cad>30</tp1:cad>
</tp1:TrackPointExtension>
</extensions>
</trkpt>
<trkpt lat="51.8470090" lon="13.9310670">
<ele>-4.2040000</ele>
<time>2010-06-27T07:30:59Z</time>
<extensions>
<tp1:TrackPointExtension>
<tp1:hr>111</tp1:hr>
<tp1:cad>92</tp1:cad>
</tp1:TrackPointExtension>
</extensions>
</trkpt>
<trkpt lat="51.8466410" lon="13.9321010">
<ele>-4.5590000</ele>
<time>2010-06-27T07:31:08Z</time>
<extensions>
<tp1:TrackPointExtension>
<tp1:hr>110</tp1:hr>
<tp1:cad>0</tp1:cad>
</tp1:TrackPointExtension>
</extensions>
</trkpt>
<trkpt lat="51.8463650" lon="13.9328740">
<ele>-5.0850000</ele>
<time>2010-06-27T07:31:15Z</time>
<extensions>
<tp1:TrackPointExtension>
<tp1:hr>109</tp1:hr>
<tp1:cad>88</tp1:cad>
</tp1:TrackPointExtension>
</extensions>
</trkpt>
<trkpt lat="51.8459370" lon="13.9340720">
<ele>-5.1850000</ele>
<time>2010-06-27T07:31:26Z</time>
<extensions>
<tp1:TrackPointExtension>
<tp1:hr>110</tp1:hr>
<tp1:cad>88</tp1:cad>
</tp1:TrackPointExtension>
</extensions>
</trkpt>
<trkpt lat="51.8455600" lon="13.9351300">
<ele>-4.8080000</ele>
<time>2010-06-27T07:31:36Z</time>
<extensions>
<tp1:TrackPointExtension>
<tp1:hr>109</tp1:hr>
<tp1:cad>86</tp1:cad>
</tp1:TrackPointExtension>
</extensions>
</trkpt>
<trkpt lat="51.8453740" lon="13.9358010">
<ele>-5.0740000</ele>
<time>2010-06-27T07:31:42Z</time>
<extensions>
<tp1:TrackPointExtension>
<tp1:hr>109</tp1:hr>
<tp1:cad>88</tp1:cad>
</tp1:TrackPointExtension>
</extensions>
</trkpt>
<trkpt lat="51.8450640" lon="13.9370680">
<ele>-5.1230000</ele>
<time>2010-06-27T07:31:53Z</time>
<extensions>
<tp1:TrackPointExtension>
<tp1:hr>113</tp1:hr>
<tp1:cad>87</tp1:cad>
</tp1:TrackPointExtension>
</extensions>
</trkpt>
<trkpt lat="51.8448480" lon="13.9379500">
<ele>-4.8410000</ele>
<time>2010-06-27T07:32:01Z</time>
<extensions>
<tp1:TrackPointExtension>
<tp1:hr>116</tp1:hr>
<tp1:cad>86</tp1:cad>
</tp1:TrackPointExtension>
</extensions>
</trkpt>
<trkpt lat="51.8445500" lon="13.9391830">
<ele>-4.0350000</ele>
<time>2010-06-27T07:32:12Z</time>
<extensions>
<tp1:TrackPointExtension>
<tp1:hr>116</tp1:hr>
<tp1:cad>85</tp1:cad>
</tp1:TrackPointExtension>
</extensions>
</trkpt>
<trkpt lat="51.8444190" lon="13.9396820">
<ele>-3.9450000</ele>
<time>2010-06-27T07:32:17Z</time>
<extensions>
<tp1:TrackPointExtension>
<tp1:hr>114</tp1:hr>
<tp1:cad>0</tp1:cad>
</tp1:TrackPointExtension>
</extensions>
</trkpt>
<trkpt lat="51.8443450" lon="13.9399890">
<ele>-3.9620000</ele>
<time>2010-06-27T07:32:22Z</time>
<extensions>
<tp1:TrackPointExtension>
<tp1:hr>111</tp1:hr>
<tp1:cad>37</tp1:cad>
</tp1:TrackPointExtension>
</extensions>
</trkpt>
<trkpt lat="51.8443230" lon="13.9400800">
<ele>-3.8580000</ele>
<time>2010-06-27T07:32:24Z</time>
<extensions>
<tp1:TrackPointExtension>
<tp1:hr>112</tp1:hr>
<tp1:cad>37</tp1:cad>
</tp1:TrackPointExtension>
</extensions>
</trkpt>
<trkpt lat="51.8442270" lon="13.9400610">
<ele>-3.7670000</ele>
<time>2010-06-27T07:32:28Z</time>
<extensions>
<tp1:TrackPointExtension>
<tp1:hr>113</tp1:hr>
<tp1:cad>61</tp1:cad>
</tp1:TrackPointExtension>
</extensions>
</trkpt>
<trkpt lat="51.8441820" lon="13.9400260">
<ele>-3.7380000</ele>
<time>2010-06-27T07:32:29Z</time>
<extensions>
<tp1:TrackPointExtension>
<tp1:hr>113</tp1:hr>
<tp1:cad>67</tp1:cad>
</tp1:TrackPointExtension>
</extensions>
</trkpt>
<trkpt lat="51.8437630" lon="13.9396970">
<ele>-3.0180000</ele>
<time>2010-06-27T07:32:36Z</time>
<extensions>
<tp1:TrackPointExtension>
<tp1:hr>116</tp1:hr>
<tp1:cad>89</tp1:cad>
</tp1:TrackPointExtension>
</extensions>
</trkpt>
<trkpt lat="51.8433940" lon="13.9394080">
<ele>-2.8070000</ele>
<time>2010-06-27T07:32:41Z</time>
<extensions>
<tp1:TrackPointExtension>
<tp1:hr>121</tp1:hr>
<tp1:cad>93</tp1:cad>
</tp1:TrackPointExtension>
</extensions>
</trkpt>
<trkpt lat="51.8429520" lon="13.9390610">
<ele>-2.6640000</ele>
<time>2010-06-27T07:32:47Z</time>
<extensions>
<tp1:TrackPointExtension>
<tp1:hr>126</tp1:hr>
<tp1:cad>0</tp1:cad>
</tp1:TrackPointExtension>
</extensions>
</trkpt>
<trkpt lat="51.8423730" lon="13.9386060">
<ele>-1.8810000</ele>
<time>2010-06-27T07:32:56Z</time>
<extensions>
<tp1:TrackPointExtension>
<tp1:hr>131</tp1:hr>
<tp1:cad>82</tp1:cad>
</tp1:TrackPointExtension>
</extensions>
</trkpt>
<trkpt lat="51.8416690" lon="13.9380750">
<ele>-0.0300000</ele>
<time>2010-06-27T07:33:07Z</time>
<extensions>
<tp1:TrackPointExtension>
<tp1:hr>131</tp1:hr>
<tp1:cad>79</tp1:cad>
</tp1:TrackPointExtension>
</extensions>
</trkpt>
<trkpt lat="51.8411030" lon="13.9377150">
<ele>1.9510000</ele>
<time>2010-06-27T07:33:16Z</time>
<extensions>
<tp1:TrackPointExtension>
<tp1:hr>134</tp1:hr>
<tp1:cad>78</tp1:cad>
</tp1:TrackPointExtension>
</extensions>
</trkpt>
<trkpt lat="51.8405010" lon="13.9375550">
<ele>3.4580000</ele>
<time>2010-06-27T07:33:25Z</time>
<extensions>
<tp1:TrackPointExtension>
<tp1:hr>139</tp1:hr>
<tp1:cad>33</tp1:cad>
</tp1:TrackPointExtension>
</extensions>
</trkpt>
<trkpt lat="51.8398480" lon="13.9374020">
<ele>4.0550000</ele>
<time>2010-06-27T07:33:36Z</time>
<extensions>
<tp1:TrackPointExtension>
<tp1:hr>140</tp1:hr>
<tp1:cad>0</tp1:cad>
</tp1:TrackPointExtension>
</extensions>
</trkpt>
<trkpt lat="51.8393130" lon="13.9371410">
<ele>2.6710000</ele>
<time>2010-06-27T07:33:43Z</time>
<extensions>
<tp1:TrackPointExtension>
<tp1:hr>138</tp1:hr>
<tp1:cad>0</tp1:cad>
</tp1:TrackPointExtension>
</extensions>
</trkpt>
<trkpt lat="51.8389630" lon="13.9368910">
<ele>1.8120000</ele>
<time>2010-06-27T07:33:48Z</time>
<extensions>
<tp1:TrackPointExtension>
<tp1:hr>133</tp1:hr>
<tp1:cad>0</tp1:cad>
</tp1:TrackPointExtension>
</extensions>
</trkpt>
<trkpt lat="51.8386980" lon="13.9366520">
<ele>0.7490000</ele>
<time>2010-06-27T07:33:52Z</time>
<extensions>
<tp1:TrackPointExtension>
<tp1:hr>127</tp1:hr>
<tp1:cad>0</tp1:cad>
</tp1:TrackPointExtension>
</extensions>
</trkpt>
<trkpt lat="51.8384620" lon="13.9363270">
<ele>0.1410000</ele>
<time>2010-06-27T07:33:56Z</time>
<extensions>
<tp1:TrackPointExtension>
<tp1:hr>122</tp1:hr>
<tp1:cad>0</tp1:cad>
</tp1:TrackPointExtension>
</extensions>
</trkpt>
<trkpt lat="51.8381880" lon="13.9356820">
<ele>-1.3780000</ele>
<time>2010-06-27T07:34:02Z</time>
<extensions>
<tp1:TrackPointExtension>
<tp1:hr>119</tp1:hr>
<tp1:cad>0</tp1:cad>
</tp1:TrackPointExtension>
</extensions>
</trkpt>
<trkpt lat="51.8378890" lon="13.9347150">
<ele>-1.6290000</ele>
<time>2010-06-27T07:34:10Z</time>
<extensions>
<tp1:TrackPointExtension>
<tp1:hr>116</tp1:hr>
<tp1:cad>97</tp1:cad>
</tp1:TrackPointExtension>
</extensions>
</trkpt>
<trkpt lat="51.8376000" lon="13.9336170">
<ele>-1.1780000</ele>
<time>2010-06-27T07:34:19Z</time>
<extensions>
<tp1:TrackPointExtension>
<tp1:hr>116</tp1:hr>
<tp1:cad>0</tp1:cad>
</tp1:TrackPointExtension>
</extensions>
</trkpt>
<trkpt lat="51.8373120" lon="13.9324450">
<ele>-1.1830000</ele>
<time>2010-06-27T07:34:29Z</time>
<extensions>
<tp1:TrackPointExtension>
<tp1:hr>117</tp1:hr>
<tp1:cad>82</tp1:cad>
</tp1:TrackPointExtension>
</extensions>
</trkpt>
<trkpt lat="51.8370320" lon="13.9313680">
<ele>-1.8160000</ele>
<time>2010-06-27T07:34:38Z</time>
<extensions>
<tp1:TrackPointExtension>
<tp1:hr>121</tp1:hr>
<tp1:cad>0</tp1:cad>
</tp1:TrackPointExtension>
</extensions>
</trkpt>
<trkpt lat="51.8367410" lon="13.9306210">
<ele>-2.5010000</ele>
<time>2010-06-27T07:34:45Z</time>
<extensions>
<tp1:TrackPointExtension>
<tp1:hr>117</tp1:hr>
<tp1:cad>0</tp1:cad>
</tp1:TrackPointExtension>
</extensions>
</trkpt>
<trkpt lat="51.8364160" lon="13.9300590">
<ele>-3.0340000</ele>
<time>2010-06-27T07:34:51Z</time>
<extensions>
<tp1:TrackPointExtension>
<tp1:hr>113</tp1:hr>
<tp1:cad>0</tp1:cad>
</tp1:TrackPointExtension>
</extensions>
</trkpt>
<trkpt lat="51.8360780" lon="13.9295940">
<ele>-3.4920000</ele>
<time>2010-06-27T07:34:57Z</time>
<extensions>
<tp1:TrackPointExtension>
<tp1:hr>109</tp1:hr>
<tp1:cad>0</tp1:cad>
</tp1:TrackPointExtension>
</extensions>
</trkpt>
<trkpt lat="51.8357710" lon="13.9292910">
<ele>-2.9510000</ele>
<time>2010-06-27T07:35:03Z</time>
<extensions>
<tp1:TrackPointExtension>
<tp1:hr>109</tp1:hr>
<tp1:cad>0</tp1:cad>
</tp1:TrackPointExtension>
</extensions>
</trkpt>
<trkpt lat="51.8354800" lon="13.9290960">
<ele>-2.2450000</ele>
<time>2010-06-27T07:35:10Z</time>
<extensions>
<tp1:TrackPointExtension>
<tp1:hr>110</tp1:hr>
<tp1:cad>64</tp1:cad>
</tp1:TrackPointExtension>
</extensions>
</trkpt>
<trkpt lat="51.8351360" lon="13.9288510">
<ele>-1.6120000</ele>
<time>2010-06-27T07:35:16Z</time>
<extensions>
<tp1:TrackPointExtension>
<tp1:hr>111</tp1:hr>
<tp1:cad>90</tp1:cad>
</tp1:TrackPointExtension>
</extensions>
</trkpt>
<trkpt lat="51.8347780" lon="13.9285730">
<ele>-1.8700000</ele>
<time>2010-06-27T07:35:21Z</time>
<extensions>
<tp1:TrackPointExtension>
<tp1:hr>116</tp1:hr>
<tp1:cad>94</tp1:cad>
</tp1:TrackPointExtension>
</extensions>
</trkpt>
<trkpt lat="51.8344200" lon="13.9282580">
<ele>-1.8030000</ele>
<time>2010-06-27T07:35:26Z</time>
<extensions>
<tp1:TrackPointExtension>
<tp1:hr>119</tp1:hr>
<tp1:cad>96</tp1:cad>
</tp1:TrackPointExtension>
</extensions>
</trkpt>
<trkpt lat="51.8341160" lon="13.9277750">
<ele>-2.1390000</ele>
<time>2010-06-27T07:35:31Z</time>
<extensions>
<tp1:TrackPointExtension>
<tp1:hr>121</tp1:hr>
<tp1:cad>21</tp1:cad>
</tp1:TrackPointExtension>
</extensions>
</trkpt>
<trkpt lat="51.8337530" lon="13.9270600">
<ele>-2.5050000</ele>
<time>2010-06-27T07:35:38Z</time>
<extensions>
<tp1:TrackPointExtension>
<tp1:hr>123</tp1:hr>
<tp1:cad>91</tp1:cad>
</tp1:TrackPointExtension>
</extensions>
</trkpt>
<trkpt lat="51.8333330" lon="13.9261530">
<ele>-2.2450000</ele>
<time>2010-06-27T07:35:47Z</time>
<extensions>
<tp1:TrackPointExtension>
<tp1:hr>123</tp1:hr>
<tp1:cad>84</tp1:cad>
</tp1:TrackPointExtension>
</extensions>
</trkpt>
<trkpt lat="51.8329410" lon="13.9253050">
<ele>-1.8780000</ele>
<time>2010-06-27T07:35:56Z</time>
<extensions>
<tp1:TrackPointExtension>
<tp1:hr>120</tp1:hr>
<tp1:cad>83</tp1:cad>
</tp1:TrackPointExtension>
</extensions>
</trkpt>
<trkpt lat="51.8326900" lon="13.9246890">
<ele>-1.6190000</ele>
<time>2010-06-27T07:36:02Z</time>
<extensions>
<tp1:TrackPointExtension>
<tp1:hr>120</tp1:hr>
<tp1:cad>89</tp1:cad>
</tp1:TrackPointExtension>
</extensions>
</trkpt>
<trkpt lat="51.8325230" lon="13.9240030">
<ele>-1.7130000</ele>
<time>2010-06-27T07:36:08Z</time>
<extensions>
<tp1:TrackPointExtension>
<tp1:hr>118</tp1:hr>
<tp1:cad>54</tp1:cad>
</tp1:TrackPointExtension>
</extensions>
</trkpt>
<trkpt lat="51.8324690" lon="13.9232450">
<ele>-1.2320000</ele>
<time>2010-06-27T07:36:15Z</time>
<extensions>
<tp1:TrackPointExtension>
<tp1:hr>116</tp1:hr>
<tp1:cad>77</tp1:cad>
</tp1:TrackPointExtension>
</extensions>
</trkpt>
<trkpt lat="51.8324020" lon="13.9224610">
<ele>-0.8370000</ele>
<time>2010-06-27T07:36:22Z</time>
<extensions>
<tp1:TrackPointExtension>
<tp1:hr>117</tp1:hr>
<tp1:cad>84</tp1:cad>
</tp1:TrackPointExtension>
</extensions>
</trkpt>
<trkpt lat="51.8322870" lon="13.9217820">
<ele>-0.5530000</ele>
<time>2010-06-27T07:36:28Z</time>
<extensions>
<tp1:TrackPointExtension>
<tp1:hr>118</tp1:hr>
<tp1:cad>83</tp1:cad>
</tp1:TrackPointExtension>
</extensions>
</trkpt>
<trkpt lat="51.8319350" lon="13.9204460">
<ele>-0.0230000</ele>
<time>2010-06-27T07:36:40Z</time>
<extensions>
<tp1:TrackPointExtension>
<tp1:hr>120</tp1:hr>
<tp1:cad>87</tp1:cad>
</tp1:TrackPointExtension>
</extensions>
</trkpt>
<trkpt lat="51.8316130" lon="13.9192200">
<ele>0.2790000</ele>
<time>2010-06-27T07:36:51Z</time>
<extensions>
<tp1:TrackPointExtension>
<tp1:hr>120</tp1:hr>
<tp1:cad>0</tp1:cad>
</tp1:TrackPointExtension>
</extensions>
</trkpt>
<trkpt lat="51.8313490" lon="13.9183330">
<ele>0.0170000</ele>
<time>2010-06-27T07:36:59Z</time>
<extensions>
<tp1:TrackPointExtension>
<tp1:hr>119</tp1:hr>
<tp1:cad>82</tp1:cad>
</tp1:TrackPointExtension>
</extensions>
</trkpt>
<trkpt lat="51.8310760" lon="13.9173470">
<ele>-0.1640000</ele>
<time>2010-06-27T07:37:08Z</time>
<extensions>
<tp1:TrackPointExtension>
<tp1:hr>119</tp1:hr>
<tp1:cad>80</tp1:cad>
</tp1:TrackPointExtension>
</extensions>
</trkpt>
<trkpt lat="51.8308440" lon="13.9165090">
<ele>0.2510000</ele>
<time>2010-06-27T07:37:16Z</time>
<extensions>
<tp1:TrackPointExtension>
<tp1:hr>117</tp1:hr>
<tp1:cad>0</tp1:cad>
</tp1:TrackPointExtension>
</extensions>
</trkpt>
<trkpt lat="51.8308160" lon="13.9164110">
<ele>0.2500000</ele>
<time>2010-06-27T07:37:17Z</time>
<extensions>
<tp1:TrackPointExtension>
<tp1:hr>117</tp1:hr>
<tp1:cad>0</tp1:cad>
</tp1:TrackPointExtension>
</extensions>
</trkpt>
<trkpt lat="51.8306950" lon="13.9160860">
<ele>0.5240000</ele>
<time>2010-06-27T07:37:21Z</time>
<extensions>
<tp1:TrackPointExtension>
<tp1:hr>117</tp1:hr>
<tp1:cad>78</tp1:cad>
</tp1:TrackPointExtension>
</extensions>
</trkpt>
<trkpt lat="51.8305050" lon="13.9160640">
<ele>0.4530000</ele>
<time>2010-06-27T07:37:24Z</time>
<extensions>
<tp1:TrackPointExtension>
<tp1:hr>118</tp1:hr>
<tp1:cad>80</tp1:cad>
</tp1:TrackPointExtension>
</extensions>
</trkpt>
<trkpt lat="51.8299270" lon="13.9161990">
<ele>-0.4720000</ele>
<time>2010-06-27T07:37:32Z</time>
<extensions>
<tp1:TrackPointExtension>
<tp1:hr>118</tp1:hr>
<tp1:cad>0</tp1:cad>
</tp1:TrackPointExtension>
</extensions>
</trkpt>
<trkpt lat="51.8295570" lon="13.9162850">
<ele>-1.0300000</ele>
<time>2010-06-27T07:37:37Z</time>
<extensions>
<tp1:TrackPointExtension>
<tp1:hr>118</tp1:hr>
<tp1:cad>91</tp1:cad>
</tp1:TrackPointExtension>
</extensions>
</trkpt>
<trkpt lat="51.8295480" lon="13.9162880">
<ele>-1.1750000</ele>
<time>2010-06-27T07:37:42Z</time>
<extensions>
<tp1:TrackPointExtension>
<tp1:hr>118</tp1:hr>
<tp1:cad>0</tp1:cad>
</tp1:TrackPointExtension>
</extensions>
</trkpt>
<trkpt lat="51.8288000" lon="13.9171350">
<ele>-1.6130000</ele>
<time>2010-06-27T07:37:48Z</time>
<extensions>
<tp1:TrackPointExtension>
<tp1:hr>113</tp1:hr>
<tp1:cad>0</tp1:cad>
</tp1:TrackPointExtension>
</extensions>
</trkpt>
<trkpt lat="51.8283600" lon="13.9177780">
<ele>-2.2850000</ele>
<time>2010-06-27T07:37:56Z</time>
<extensions>
<tp1:TrackPointExtension>
<tp1:hr>114</tp1:hr>
<tp1:cad>0</tp1:cad>
</tp1:TrackPointExtension>
</extensions>
</trkpt>
<trkpt lat="51.8280550" lon="13.9182030">
<ele>-1.9940000</ele>
<time>2010-06-27T07:38:02Z</time>
<extensions>
<tp1:TrackPointExtension>
<tp1:hr>113</tp1:hr>
<tp1:cad>77</tp1:cad>
</tp1:TrackPointExtension>
</extensions>
</trkpt>
<trkpt lat="51.8277410" lon="13.9186620">
<ele>-1.6940000</ele>
<time>2010-06-27T07:38:08Z</time>
<extensions>
<tp1:TrackPointExtension>
<tp1:hr>111</tp1:hr>
<tp1:cad>81</tp1:cad>
</tp1:TrackPointExtension>
</extensions>
</trkpt>
<trkpt lat="51.8274570" lon="13.9189710">
<ele>-1.2360000</ele>
<time>2010-06-27T07:38:13Z</time>
<extensions>
<tp1:TrackPointExtension>
<tp1:hr>110</tp1:hr>
<tp1:cad>83</tp1:cad>
</tp1:TrackPointExtension>
</extensions>
</trkpt>
<trkpt lat="51.8274000" lon="13.9190180">
<ele>-1.2170000</ele>
<time>2010-06-27T07:38:14Z</time>
<extensions>
<tp1:TrackPointExtension>
<tp1:hr>110</tp1:hr>
<tp1:cad>0</tp1:cad>
</tp1:TrackPointExtension>
</extensions>
</trkpt>
<trkpt lat="51.8272850" lon="13.9190450">
<ele>-1.1470000</ele>
<time>2010-06-27T07:38:16Z</time>
<extensions>
<tp1:TrackPointExtension>
<tp1:hr>110</tp1:hr>
<tp1:cad>0</tp1:cad>
</tp1:TrackPointExtension>
</extensions>
</trkpt>
<trkpt lat="51.8272460" lon="13.9190500">
<ele>-1.1080000</ele>
<time>2010-06-27T07:38:17Z</time>
<extensions>
<tp1:TrackPointExtension>
<tp1:hr>110</tp1:hr>
<tp1:cad>0</tp1:cad>
</tp1:TrackPointExtension>
</extensions>
</trkpt>
<trkpt lat="51.8272080" lon="13.9190550">
<ele>-1.0950000</ele>
<time>2010-06-27T07:38:18Z</time>
<extensions>
<tp1:TrackPointExtension>
<tp1:hr>110</tp1:hr>
<tp1:cad>49</tp1:cad>
</tp1:TrackPointExtension>
</extensions>
</trkpt>
<trkpt lat="51.8270600" lon="13.9190720">
<ele>-0.9400000</ele>
<time>2010-06-27T07:38:22Z</time>
<extensions>
<tp1:TrackPointExtension>
<tp1:hr>111</tp1:hr>
<tp1:cad>64</tp1:cad>
</tp1:TrackPointExtension>
</extensions>
</trkpt>
<trkpt lat="51.8270890" lon="13.9193600">
<ele>-0.4320000</ele>
<time>2010-06-27T07:38:24Z</time>
<extensions>
<tp1:TrackPointExtension>
<tp1:hr>112</tp1:hr>
<tp1:cad>72</tp1:cad>
</tp1:TrackPointExtension>
</extensions>
</trkpt>
<trkpt lat="51.8271620" lon="13.9196430">
<ele>0.5600000</ele>
<time>2010-06-27T07:38:27Z</time>
<extensions>
<tp1:TrackPointExtension>
<tp1:hr>114</tp1:hr>
<tp1:cad>71</tp1:cad>
</tp1:TrackPointExtension>
</extensions>
</trkpt>
<trkpt lat="51.8273490" lon="13.9199080">
<ele>0.9340000</ele>
<time>2010-06-27T07:38:31Z</time>
<extensions>
<tp1:TrackPointExtension>
<tp1:hr>117</tp1:hr>
<tp1:cad>76</tp1:cad>
</tp1:TrackPointExtension>
</extensions>
</trkpt>
<trkpt lat="51.8274130" lon="13.9199210">
<ele>0.9310000</ele>
<time>2010-06-27T07:38:32Z</time>
<extensions>
<tp1:TrackPointExtension>
<tp1:hr>118</tp1:hr>
<tp1:cad>76</tp1:cad>
</tp1:TrackPointExtension>
</extensions>
</trkpt>
<trkpt lat="51.8278150" lon="13.9199740">
<ele>0.7230000</ele>
<time>2010-06-27T07:38:38Z</time>
<extensions>
<tp1:TrackPointExtension>
<tp1:hr>121</tp1:hr>
<tp1:cad>0</tp1:cad>
</tp1:TrackPointExtension>
</extensions>
</trkpt>
<trkpt lat="51.8281130" lon="13.9200910">
<ele>-0.3190000</ele>
<time>2010-06-27T07:38:42Z</time>
<extensions>
<tp1:TrackPointExtension>
<tp1:hr>122</tp1:hr>
<tp1:cad>0</tp1:cad>
</tp1:TrackPointExtension>
</extensions>
</trkpt>
<trkpt lat="51.8282480" lon="13.9202610">
<ele>-1.0680000</ele>
<time>2010-06-27T07:38:44Z</time>
<extensions>
<tp1:TrackPointExtension>
<tp1:hr>122</tp1:hr>
<tp1:cad>95</tp1:cad>
</tp1:TrackPointExtension>
</extensions>
</trkpt>
<trkpt lat="51.8286170" lon="13.9209660">
<ele>-1.6100000</ele>
<time>2010-06-27T07:38:51Z</time>
<extensions>
<tp1:TrackPointExtension>
<tp1:hr>123</tp1:hr>
<tp1:cad>84</tp1:cad>
</tp1:TrackPointExtension>
</extensions>
</trkpt>
<trkpt lat="51.8289420" lon="13.9215930">
<ele>-1.3800000</ele>
<time>2010-06-27T07:38:58Z</time>
<extensions>
<tp1:TrackPointExtension>
<tp1:hr>121</tp1:hr>
<tp1:cad>81</tp1:cad>
</tp1:TrackPointExtension>
</extensions>
</trkpt>
<trkpt lat="51.8294120" lon="13.9224990">
<ele>-1.8070000</ele>
<time>2010-06-27T07:39:08Z</time>
<extensions>
<tp1:TrackPointExtension>
<tp1:hr>117</tp1:hr>
<tp1:cad>0</tp1:cad>
</tp1:TrackPointExtension>
</extensions>
</trkpt>
<trkpt lat="51.8295220" lon="13.9229030">
<ele>-1.8080000</ele>
<time>2010-06-27T07:39:12Z</time>
<extensions>
<tp1:TrackPointExtension>
<tp1:hr>115</tp1:hr>
<tp1:cad>0</tp1:cad>
</tp1:TrackPointExtension>
</extensions>
</trkpt>
<trkpt lat="51.8295060" lon="13.9231970">
<ele>-1.9850000</ele>
<time>2010-06-27T07:39:15Z</time>
<extensions>
<tp1:TrackPointExtension>
<tp1:hr>113</tp1:hr>
<tp1:cad>28</tp1:cad>
</tp1:TrackPointExtension>
</extensions>
</trkpt>
<trkpt lat="51.8294500" lon="13.9234360">
<ele>-2.0020000</ele>
<time>2010-06-27T07:39:18Z</time>
<extensions>
<tp1:TrackPointExtension>
<tp1:hr>111</tp1:hr>
<tp1:cad>73</tp1:cad>
</tp1:TrackPointExtension>
</extensions>
</trkpt>
<trkpt lat="51.8288190" lon="13.9237640">
<ele>-1.2310000</ele>
<time>2010-06-27T07:39:26Z</time>
<extensions>
<tp1:TrackPointExtension>
<tp1:hr>111</tp1:hr>
<tp1:cad>0</tp1:cad>
</tp1:TrackPointExtension>
</extensions>
</trkpt>
<trkpt lat="51.8287070" lon="13.9238730">
<ele>-1.1080000</ele>
<time>2010-06-27T07:39:29Z</time>
<extensions>
<tp1:TrackPointExtension>
<tp1:hr>111</tp1:hr>
<tp1:cad>52</tp1:cad>
</tp1:TrackPointExtension>
</extensions>
</trkpt>
<trkpt lat="51.8286230" lon="13.9241050">
<ele>-0.6360000</ele>
<time>2010-06-27T07:39:33Z</time>
<extensions>
<tp1:TrackPointExtension>
<tp1:hr>112</tp1:hr>
<tp1:cad>68</tp1:cad>
</tp1:TrackPointExtension>
</extensions>
</trkpt>
<trkpt lat="51.8286810" lon="13.9242530">
<ele>-0.5290000</ele>
<time>2010-06-27T07:39:35Z</time>
<extensions>
<tp1:TrackPointExtension>
<tp1:hr>113</tp1:hr>
<tp1:cad>72</tp1:cad>
</tp1:TrackPointExtension>
</extensions>
</trkpt>
<trkpt lat="51.8289770" lon="13.9249520">
<ele>-0.6780000</ele>
<time>2010-06-27T07:39:43Z</time>
<extensions>
<tp1:TrackPointExtension>
<tp1:hr>116</tp1:hr>
<tp1:cad>0</tp1:cad>
</tp1:TrackPointExtension>
</extensions>
</trkpt>
<trkpt lat="51.8292530" lon="13.9256210">
<ele>-1.2350000</ele>
<time>2010-06-27T07:39:50Z</time>
<extensions>
<tp1:TrackPointExtension>
<tp1:hr>116</tp1:hr>
<tp1:cad>0</tp1:cad>
</tp1:TrackPointExtension>
</extensions>
</trkpt>
<trkpt lat="51.8295510" lon="13.9263060">
<ele>-2.0480000</ele>
<time>2010-06-27T07:39:57Z</time>
<extensions>
<tp1:TrackPointExtension>
<tp1:hr>115</tp1:hr>
<tp1:cad>0</tp1:cad>
</tp1:TrackPointExtension>
</extensions>
</trkpt>
<trkpt lat="51.8297800" lon="13.9266010">
<ele>-2.7130000</ele>
<time>2010-06-27T07:40:01Z</time>
<extensions>
<tp1:TrackPointExtension>
<tp1:hr>113</tp1:hr>
<tp1:cad>0</tp1:cad>
</tp1:TrackPointExtension>
</extensions>
</trkpt>
<trkpt lat="51.8299760" lon="13.9268430">
<ele>-2.8670000</ele>
<time>2010-06-27T07:40:05Z</time>
<extensions>
<tp1:TrackPointExtension>
<tp1:hr>109</tp1:hr>
<tp1:cad>71</tp1:cad>
</tp1:TrackPointExtension>
</extensions>
</trkpt>
<trkpt lat="51.8300800" lon="13.9266280">
<ele>-2.6680000</ele>
<time>2010-06-27T07:40:07Z</time>
<extensions>
<tp1:TrackPointExtension>
<tp1:hr>109</tp1:hr>
<tp1:cad>73</tp1:cad>
</tp1:TrackPointExtension>
</extensions>
</trkpt>
<trkpt lat="51.8303020" lon="13.9263000">
<ele>-2.5300000</ele>
<time>2010-06-27T07:40:12Z</time>
<extensions>
<tp1:TrackPointExtension>
<tp1:hr>110</tp1:hr>
<tp1:cad>0</tp1:cad>
</tp1:TrackPointExtension>
</extensions>
</trkpt>
<trkpt lat="51.8304750" lon="13.9260450">
<ele>-2.8710000</ele>
<time>2010-06-27T07:40:19Z</time>
<extensions>
<tp1:TrackPointExtension>
<tp1:hr>112</tp1:hr>
<tp1:cad>0</tp1:cad>
</tp1:TrackPointExtension>
</extensions>
</trkpt>
<trkpt lat="51.8305540" lon="13.9259270">
<ele>-3.0140000</ele>
<time>2010-06-27T07:40:23Z</time>
<extensions>
<tp1:TrackPointExtension>
<tp1:hr>110</tp1:hr>
<tp1:cad>0</tp1:cad>
</tp1:TrackPointExtension>
</extensions>
</trkpt>
<trkpt lat="51.8306650" lon="13.9260410">
<ele>-3.4550000</ele>
<time>2010-06-27T07:40:26Z</time>
<extensions>
<tp1:TrackPointExtension>
<tp1:hr>110</tp1:hr>
<tp1:cad>75</tp1:cad>
</tp1:TrackPointExtension>
</extensions>
</trkpt>
<trkpt lat="51.8307500" lon="13.9261330">
<ele>-3.5300000</ele>
<time>2010-06-27T07:40:32Z</time>
<extensions>
<tp1:TrackPointExtension>
<tp1:hr>110</tp1:hr>
<tp1:cad>0</tp1:cad>
</tp1:TrackPointExtension>
</extensions>
</trkpt>
<trkpt lat="51.8308380" lon="13.9262300">
<ele>-3.4250000</ele>
<time>2010-06-27T07:40:39Z</time>
<extensions>
<tp1:TrackPointExtension>
<tp1:hr>108</tp1:hr>
<tp1:cad>0</tp1:cad>
</tp1:TrackPointExtension>
</extensions>
</trkpt>
<trkpt lat="51.8308730" lon="13.9262690">
<ele>-3.7210000</ele>
<time>2010-06-27T07:40:45Z</time>
<extensions>
<tp1:TrackPointExtension>
<tp1:hr>110</tp1:hr>
<tp1:cad>0</tp1:cad>
</tp1:TrackPointExtension>
</extensions>
</trkpt>
<trkpt lat="51.8306160" lon="13.9258380">
<ele>-3.6060000</ele>
<time>2010-06-27T07:40:48Z</time>
<extensions>
<tp1:TrackPointExtension>
<tp1:hr>112</tp1:hr>
<tp1:cad>0</tp1:cad>
</tp1:TrackPointExtension>
</extensions>
</trkpt>
<trkpt lat="51.8308120" lon="13.9262010">
<ele>-3.4580000</ele>
<time>2010-06-27T07:40:54Z</time>
<extensions>
<tp1:TrackPointExtension>
<tp1:hr>116</tp1:hr>
<tp1:cad>37</tp1:cad>
</tp1:TrackPointExtension>
</extensions>
</trkpt>
<trkpt lat="51.8306580" lon="13.9260330">
<ele>-3.3110000</ele>
<time>2010-06-27T07:40:59Z</time>
<extensions>
<tp1:TrackPointExtension>
<tp1:hr>116</tp1:hr>
<tp1:cad>25</tp1:cad>
</tp1:TrackPointExtension>
</extensions>
</trkpt>
<trkpt lat="51.8304590" lon="13.9260680">
<ele>-2.7170000</ele>
<time>2010-06-27T07:41:03Z</time>
<extensions>
<tp1:TrackPointExtension>
<tp1:hr>116</tp1:hr>
<tp1:cad>53</tp1:cad>
</tp1:TrackPointExtension>
</extensions>
</trkpt>
<trkpt lat="51.8301380" lon="13.9265420">
<ele>-2.5490000</ele>
<time>2010-06-27T07:41:12Z</time>
<extensions>
<tp1:TrackPointExtension>
<tp1:hr>119</tp1:hr>
<tp1:cad>64</tp1:cad>
</tp1:TrackPointExtension>
</extensions>
</trkpt>
<trkpt lat="51.8299780" lon="13.9268450">
<ele>-2.4370000</ele>
<time>2010-06-27T07:41:17Z</time>
<extensions>
<tp1:TrackPointExtension>
<tp1:hr>120</tp1:hr>
<tp1:cad>68</tp1:cad>
</tp1:TrackPointExtension>
</extensions>
</trkpt>
<trkpt lat="51.8299780" lon="13.9268450">
<ele>-2.5240000</ele>
<time>2010-06-27T07:41:19Z</time>
<extensions>
<tp1:TrackPointExtension>
<tp1:hr>120</tp1:hr>
<tp1:cad>66</tp1:cad>
</tp1:TrackPointExtension>
</extensions>
</trkpt>
<trkpt lat="51.8296570" lon="13.9276670">
<ele>-2.7360000</ele>
<time>2010-06-27T07:41:26Z</time>
<extensions>
<tp1:TrackPointExtension>
<tp1:hr>123</tp1:hr>
<tp1:cad>0</tp1:cad>
</tp1:TrackPointExtension>
</extensions>
</trkpt>
<trkpt lat="51.8293180" lon="13.9282870">
<ele>-4.2120000</ele>
<time>2010-06-27T07:41:34Z</time>
<extensions>
<tp1:TrackPointExtension>
<tp1:hr>123</tp1:hr>
<tp1:cad>67</tp1:cad>
</tp1:TrackPointExtension>
</extensions>
</trkpt>
<trkpt lat="51.8290190" lon="13.9288740">
<ele>-3.4860000</ele>
<time>2010-06-27T07:41:42Z</time>
<extensions>
<tp1:TrackPointExtension>
<tp1:hr>123</tp1:hr>
<tp1:cad>71</tp1:cad>
</tp1:TrackPointExtension>
</extensions>
</trkpt>
<trkpt lat="51.8289430" lon="13.9290230">
<ele>-3.2240000</ele>
<time>2010-06-27T07:41:44Z</time>
<extensions>
<tp1:TrackPointExtension>
<tp1:hr>123</tp1:hr>
<tp1:cad>65</tp1:cad>
</tp1:TrackPointExtension>
</extensions>
</trkpt>
<trkpt lat="51.8288970" lon="13.9293150">
<ele>-1.9090000</ele>
<time>2010-06-27T07:41:48Z</time>
<extensions>
<tp1:TrackPointExtension>
<tp1:hr>124</tp1:hr>
<tp1:cad>57</tp1:cad>
</tp1:TrackPointExtension>
</extensions>
</trkpt>
<trkpt lat="51.8289380" lon="13.9293500">
<ele>-1.5970000</ele>
<time>2010-06-27T07:41:49Z</time>
<extensions>
<tp1:TrackPointExtension>
<tp1:hr>124</tp1:hr>
<tp1:cad>61</tp1:cad>
</tp1:TrackPointExtension>
</extensions>
</trkpt>
<trkpt lat="51.8293340" lon="13.9296890">
<ele>-0.8010000</ele>
<time>2010-06-27T07:41:57Z</time>
<extensions>
<tp1:TrackPointExtension>
<tp1:hr>127</tp1:hr>
<tp1:cad>74</tp1:cad>
</tp1:TrackPointExtension>
</extensions>
</trkpt>
<trkpt lat="51.8296070" lon="13.9299240">
<ele>-1.2730000</ele>
<time>2010-06-27T07:42:02Z</time>
<extensions>
<tp1:TrackPointExtension>
<tp1:hr>128</tp1:hr>
<tp1:cad>0</tp1:cad>
</tp1:TrackPointExtension>
</extensions>
</trkpt>
<trkpt lat="51.8298760" lon="13.9301560">
<ele>-1.6650000</ele>
<time>2010-06-27T07:42:07Z</time>
<extensions>
<tp1:TrackPointExtension>
<tp1:hr>128</tp1:hr>
<tp1:cad>0</tp1:cad>
</tp1:TrackPointExtension>
</extensions>
</trkpt>
<trkpt lat="51.8300110" lon="13.9303340">
<ele>-2.0580000</ele>
<time>2010-06-27T07:42:10Z</time>
<extensions>
<tp1:TrackPointExtension>
<tp1:hr>128</tp1:hr>
<tp1:cad>71</tp1:cad>
</tp1:TrackPointExtension>
</extensions>
</trkpt>
<trkpt lat="51.8302210" lon="13.9306130">
<ele>-2.3830000</ele>
<time>2010-06-27T07:42:14Z</time>
<extensions>
<tp1:TrackPointExtension>
<tp1:hr>128</tp1:hr>
<tp1:cad>72</tp1:cad>
</tp1:TrackPointExtension>
</extensions>
</trkpt>
<trkpt lat="51.8303920" lon="13.9309130">
<ele>-2.3810000</ele>
<time>2010-06-27T07:42:18Z</time>
<extensions>
<tp1:TrackPointExtension>
<tp1:hr>126</tp1:hr>
<tp1:cad>71</tp1:cad>
</tp1:TrackPointExtension>
</extensions>
</trkpt>
<trkpt lat="51.8305940" lon="13.9312690">
<ele>-2.8380000</ele>
<time>2010-06-27T07:42:23Z</time>
<extensions>
<tp1:TrackPointExtension>
<tp1:hr>122</tp1:hr>
<tp1:cad>74</tp1:cad>
</tp1:TrackPointExtension>
</extensions>
</trkpt>
<trkpt lat="51.8306780" lon="13.9314160">
<ele>-2.9550000</ele>
<time>2010-06-27T07:42:25Z</time>
<extensions>
<tp1:TrackPointExtension>
<tp1:hr>122</tp1:hr>
<tp1:cad>74</tp1:cad>
</tp1:TrackPointExtension>
</extensions>
</trkpt>
<trkpt lat="51.8307240" lon="13.9314910">
<ele>-3.0420000</ele>
<time>2010-06-27T07:42:26Z</time>
<extensions>
<tp1:TrackPointExtension>
<tp1:hr>122</tp1:hr>
<tp1:cad>74</tp1:cad>
</tp1:TrackPointExtension>
</extensions>
</trkpt>
<trkpt lat="51.8309270" lon="13.9318220">
<ele>-3.5170000</ele>
<time>2010-06-27T07:42:31Z</time>
<extensions>
<tp1:TrackPointExtension>
<tp1:hr>120</tp1:hr>
<tp1:cad>74</tp1:cad>
</tp1:TrackPointExtension>
</extensions>
</trkpt>
<trkpt lat="51.8312030" lon="13.9322710">
<ele>-4.1070000</ele>
<time>2010-06-27T07:42:37Z</time>
<extensions>
<tp1:TrackPointExtension>
<tp1:hr>116</tp1:hr>
<tp1:cad>0</tp1:cad>
</tp1:TrackPointExtension>
</extensions>
</trkpt>
<trkpt lat="51.8313860" lon="13.9327110">
<ele>-3.9560000</ele>
<time>2010-06-27T07:42:42Z</time>
<extensions>
<tp1:TrackPointExtension>
<tp1:hr>117</tp1:hr>
<tp1:cad>73</tp1:cad>
</tp1:TrackPointExtension>
</extensions>
</trkpt>
<trkpt lat="51.8314680" lon="13.9328880">
<ele>-3.8670000</ele>
<time>2010-06-27T07:42:44Z</time>
<extensions>
<tp1:TrackPointExtension>
<tp1:hr>117</tp1:hr>
<tp1:cad>74</tp1:cad>
</tp1:TrackPointExtension>
</extensions>
</trkpt>
<trkpt lat="51.8316000" lon="13.9333990">
<ele>-4.1430000</ele>
<time>2010-06-27T07:42:49Z</time>
<extensions>
<tp1:TrackPointExtension>
<tp1:hr>115</tp1:hr>
<tp1:cad>78</tp1:cad>
</tp1:TrackPointExtension>
</extensions>
</trkpt>
<trkpt lat="51.8316300" lon="13.9343900">
<ele>-4.1070000</ele>
<time>2010-06-27T07:42:58Z</time>
<extensions>
<tp1:TrackPointExtension>
<tp1:hr>117</tp1:hr>
<tp1:cad>73</tp1:cad>
</tp1:TrackPointExtension>
</extensions>
</trkpt>
<trkpt lat="51.8315220" lon="13.9351300">
<ele>-4.1230000</ele>
<time>2010-06-27T07:43:05Z</time>
<extensions>
<tp1:TrackPointExtension>
<tp1:hr>118</tp1:hr>
<tp1:cad>77</tp1:cad>
</tp1:TrackPointExtension>
</extensions>
</trkpt>
<trkpt lat="51.8313490" lon="13.9362010">
<ele>-4.1230000</ele>
<time>2010-06-27T07:43:15Z</time>
<extensions>
<tp1:TrackPointExtension>
<tp1:hr>119</tp1:hr>
<tp1:cad>78</tp1:cad>
</tp1:TrackPointExtension>
</extensions>
</trkpt>
<trkpt lat="51.8312100" lon="13.9370680">
<ele>-4.1680000</ele>
<time>2010-06-27T07:43:23Z</time>
<extensions>
<tp1:TrackPointExtension>
<tp1:hr>121</tp1:hr>
<tp1:cad>79</tp1:cad>
</tp1:TrackPointExtension>
</extensions>
</trkpt>
<trkpt lat="51.8310400" lon="13.9380300">
<ele>-4.3490000</ele>
<time>2010-06-27T07:43:32Z</time>
<extensions>
<tp1:TrackPointExtension>
<tp1:hr>123</tp1:hr>
<tp1:cad>80</tp1:cad>
</tp1:TrackPointExtension>
</extensions>
</trkpt>
<trkpt lat="51.8309920" lon="13.9382430">
<ele>-4.4510000</ele>
<time>2010-06-27T07:43:34Z</time>
<extensions>
<tp1:TrackPointExtension>
<tp1:hr>123</tp1:hr>
<tp1:cad>80</tp1:cad>
</tp1:TrackPointExtension>
</extensions>
</trkpt>
<trkpt lat="51.8309670" lon="13.9387060">
<ele>-4.3610000</ele>
<time>2010-06-27T07:43:38Z</time>
<extensions>
<tp1:TrackPointExtension>
<tp1:hr>125</tp1:hr>
<tp1:cad>39</tp1:cad>
</tp1:TrackPointExtension>
</extensions>
</trkpt>
<trkpt lat="51.8310030" lon="13.9387950">
<ele>-4.3220000</ele>
<time>2010-06-27T07:43:39Z</time>
<extensions>
<tp1:TrackPointExtension>
<tp1:hr>126</tp1:hr>
<tp1:cad>82</tp1:cad>
</tp1:TrackPointExtension>
</extensions>
</trkpt>
<trkpt lat="51.8310290" lon="13.9390460">
<ele>-4.1250000</ele>
<time>2010-06-27T07:43:41Z</time>
<extensions>
<tp1:TrackPointExtension>
<tp1:hr>126</tp1:hr>
<tp1:cad>26</tp1:cad>
</tp1:TrackPointExtension>
</extensions>
</trkpt>
<trkpt lat="51.8310510" lon="13.9395850">
<ele>-4.7400000</ele>
<time>2010-06-27T07:43:46Z</time>
<extensions>
<tp1:TrackPointExtension>
<tp1:hr>129</tp1:hr>
<tp1:cad>0</tp1:cad>
</tp1:TrackPointExtension>
</extensions>
</trkpt>
<trkpt lat="51.8309850" lon="13.9397350">
<ele>-5.0610000</ele>
<time>2010-06-27T07:43:48Z</time>
<extensions>
<tp1:TrackPointExtension>
<tp1:hr>129</tp1:hr>
<tp1:cad>35</tp1:cad>
</tp1:TrackPointExtension>
</extensions>
</trkpt>
<trkpt lat="51.8309310" lon="13.9402390">
<ele>-5.2450000</ele>
<time>2010-06-27T07:43:53Z</time>
<extensions>
<tp1:TrackPointExtension>
<tp1:hr>130</tp1:hr>
<tp1:cad>79</tp1:cad>
</tp1:TrackPointExtension>
</extensions>
</trkpt>
<trkpt lat="51.8307780" lon="13.9411150">
<ele>-5.8380000</ele>
<time>2010-06-27T07:44:01Z</time>
<extensions>
<tp1:TrackPointExtension>
<tp1:hr>129</tp1:hr>
<tp1:cad>84</tp1:cad>
</tp1:TrackPointExtension>
</extensions>
</trkpt>
<trkpt lat="51.8305800" lon="13.9421490">
<ele>-6.1450000</ele>
<time>2010-06-27T07:44:10Z</time>
<extensions>
<tp1:TrackPointExtension>
<tp1:hr>128</tp1:hr>
<tp1:cad>85</tp1:cad>
</tp1:TrackPointExtension>
</extensions>
</trkpt>
<trkpt lat="51.8303600" lon="13.9432970">
<ele>-6.1660000</ele>
<time>2010-06-27T07:44:20Z</time>
<extensions>
<tp1:TrackPointExtension>
<tp1:hr>125</tp1:hr>
<tp1:cad>84</tp1:cad>
</tp1:TrackPointExtension>
</extensions>
</trkpt>
<trkpt lat="51.8301400" lon="13.9443170">
<ele>-6.1170000</ele>
<time>2010-06-27T07:44:29Z</time>
<extensions>
<tp1:TrackPointExtension>
<tp1:hr>123</tp1:hr>
<tp1:cad>87</tp1:cad>
</tp1:TrackPointExtension>
</extensions>
</trkpt>
<trkpt lat="51.8301100" lon="13.9445600">
<ele>-6.0750000</ele>
<time>2010-06-27T07:44:31Z</time>
<extensions>
<tp1:TrackPointExtension>
<tp1:hr>123</tp1:hr>
<tp1:cad>87</tp1:cad>
</tp1:TrackPointExtension>
</extensions>
</trkpt>
<trkpt lat="51.8301500" lon="13.9450480">
<ele>-6.3330000</ele>
<time>2010-06-27T07:44:35Z</time>
<extensions>
<tp1:TrackPointExtension>
<tp1:hr>123</tp1:hr>
<tp1:cad>88</tp1:cad>
</tp1:TrackPointExtension>
</extensions>
</trkpt>
<trkpt lat="51.8303810" lon="13.9462240">
<ele>-6.2110000</ele>
<time>2010-06-27T07:44:45Z</time>
<extensions>
<tp1:TrackPointExtension>
<tp1:hr>124</tp1:hr>
<tp1:cad>85</tp1:cad>
</tp1:TrackPointExtension>
</extensions>
</trkpt>
<trkpt lat="51.8305630" lon="13.9471480">
<ele>-6.7030000</ele>
<time>2010-06-27T07:44:53Z</time>
<extensions>
<tp1:TrackPointExtension>
<tp1:hr>124</tp1:hr>
<tp1:cad>85</tp1:cad>
</tp1:TrackPointExtension>
</extensions>
</trkpt>
<trkpt lat="51.8307890" lon="13.9482980">
<ele>-6.4770000</ele>
<time>2010-06-27T07:45:03Z</time>
<extensions>
<tp1:TrackPointExtension>
<tp1:hr>123</tp1:hr>
<tp1:cad>85</tp1:cad>
</tp1:TrackPointExtension>
</extensions>
</trkpt>
<trkpt lat="51.8308570" lon="13.9486430">
<ele>-6.6760000</ele>
<time>2010-06-27T07:45:06Z</time>
<extensions>
<tp1:TrackPointExtension>
<tp1:hr>124</tp1:hr>
<tp1:cad>84</tp1:cad>
</tp1:TrackPointExtension>
</extensions>
</trkpt>
<trkpt lat="51.8308590" lon="13.9492160">
<ele>-6.3980000</ele>
<time>2010-06-27T07:45:11Z</time>
<extensions>
<tp1:TrackPointExtension>
<tp1:hr>123</tp1:hr>
<tp1:cad>88</tp1:cad>
</tp1:TrackPointExtension>
</extensions>
</trkpt>
<trkpt lat="51.8309400" lon="13.9494360">
<ele>-6.1750000</ele>
<time>2010-06-27T07:45:13Z</time>
<extensions>
<tp1:TrackPointExtension>
<tp1:hr>123</tp1:hr>
<tp1:cad>89</tp1:cad>
</tp1:TrackPointExtension>
</extensions>
</trkpt>
<trkpt lat="51.8311460" lon="13.9502490">
<ele>-6.1690000</ele>
<time>2010-06-27T07:45:20Z</time>
<extensions>
<tp1:TrackPointExtension>
<tp1:hr>121</tp1:hr>
<tp1:cad>27</tp1:cad>
</tp1:TrackPointExtension>
</extensions>
</trkpt>
<trkpt lat="51.8313490" lon="13.9511680">
<ele>-6.3580000</ele>
<time>2010-06-27T07:45:28Z</time>
<extensions>
<tp1:TrackPointExtension>
<tp1:hr>121</tp1:hr>
<tp1:cad>87</tp1:cad>
</tp1:TrackPointExtension>
</extensions>
</trkpt>
<trkpt lat="51.8314780" lon="13.9518470">
<ele>-6.7530000</ele>
<time>2010-06-27T07:45:34Z</time>
<extensions>
<tp1:TrackPointExtension>
<tp1:hr>120</tp1:hr>
<tp1:cad>0</tp1:cad>
</tp1:TrackPointExtension>
</extensions>
</trkpt>
<trkpt lat="51.8315430" lon="13.9524820">
<ele>-6.7370000</ele>
<time>2010-06-27T07:45:40Z</time>
<extensions>
<tp1:TrackPointExtension>
<tp1:hr>117</tp1:hr>
<tp1:cad>0</tp1:cad>
</tp1:TrackPointExtension>
</extensions>
</trkpt>
<trkpt lat="51.8315530" lon="13.9525770">
<ele>-6.6630000</ele>
<time>2010-06-27T07:45:41Z</time>
<extensions>
<tp1:TrackPointExtension>
<tp1:hr>117</tp1:hr>
<tp1:cad>0</tp1:cad>
</tp1:TrackPointExtension>
</extensions>
</trkpt>
<trkpt lat="51.8314600" lon="13.9528300">
<ele>-6.2940000</ele>
<time>2010-06-27T07:45:45Z</time>
<extensions>
<tp1:TrackPointExtension>
<tp1:hr>118</tp1:hr>
<tp1:cad>64</tp1:cad>
</tp1:TrackPointExtension>
</extensions>
</trkpt>
<trkpt lat="51.8314160" lon="13.9528840">
<ele>-6.1980000</ele>
<time>2010-06-27T07:45:46Z</time>
<extensions>
<tp1:TrackPointExtension>
<tp1:hr>119</tp1:hr>
<tp1:cad>68</tp1:cad>
</tp1:TrackPointExtension>
</extensions>
</trkpt>
<trkpt lat="51.8312670" lon="13.9530670">
<ele>-6.0260000</ele>
<time>2010-06-27T07:45:49Z</time>
<extensions>
<tp1:TrackPointExtension>
<tp1:hr>120</tp1:hr>
<tp1:cad>76</tp1:cad>
</tp1:TrackPointExtension>
</extensions>
</trkpt>
<trkpt lat="51.8309830" lon="13.9532570">
<ele>-6.0490000</ele>
<time>2010-06-27T07:45:54Z</time>
<extensions>
<tp1:TrackPointExtension>
<tp1:hr>122</tp1:hr>
<tp1:cad>73</tp1:cad>
</tp1:TrackPointExtension>
</extensions>
</trkpt>
<trkpt lat="51.8309220" lon="13.9532740">
<ele>-5.9450000</ele>
<time>2010-06-27T07:45:55Z</time>
<extensions>
<tp1:TrackPointExtension>
<tp1:hr>123</tp1:hr>
<tp1:cad>74</tp1:cad>
</tp1:TrackPointExtension>
</extensions>
</trkpt>
<trkpt lat="51.8303940" lon="13.9531270">
<ele>-5.5510000</ele>
<time>2010-06-27T07:46:03Z</time>
<extensions>
<tp1:TrackPointExtension>
<tp1:hr>124</tp1:hr>
<tp1:cad>78</tp1:cad>
</tp1:TrackPointExtension>
</extensions>
</trkpt>
<trkpt lat="51.8299950" lon="13.9530060">
<ele>-5.7510000</ele>
<time>2010-06-27T07:46:09Z</time>
<extensions>
<tp1:TrackPointExtension>
<tp1:hr>122</tp1:hr>
<tp1:cad>80</tp1:cad>
</tp1:TrackPointExtension>
</extensions>
</trkpt>
<trkpt lat="51.8298550" lon="13.9529630">
<ele>-5.5630000</ele>
<time>2010-06-27T07:46:11Z</time>
<extensions>
<tp1:TrackPointExtension>
<tp1:hr>122</tp1:hr>
<tp1:cad>80</tp1:cad>
</tp1:TrackPointExtension>
</extensions>
</trkpt>
<trkpt lat="51.8295730" lon="13.9529520">
<ele>-5.2090000</ele>
<time>2010-06-27T07:46:15Z</time>
<extensions>
<tp1:TrackPointExtension>
<tp1:hr>123</tp1:hr>
<tp1:cad>80</tp1:cad>
</tp1:TrackPointExtension>
</extensions>
</trkpt>
<trkpt lat="51.8294380" lon="13.9530380">
<ele>-4.7860000</ele>
<time>2010-06-27T07:46:17Z</time>
<extensions>
<tp1:TrackPointExtension>
<tp1:hr>124</tp1:hr>
<tp1:cad>79</tp1:cad>
</tp1:TrackPointExtension>
</extensions>
</trkpt>
<trkpt lat="51.8291680" lon="13.9531510">
<ele>-4.9670000</ele>
<time>2010-06-27T07:46:21Z</time>
<extensions>
<tp1:TrackPointExtension>
<tp1:hr>125</tp1:hr>
<tp1:cad>81</tp1:cad>
</tp1:TrackPointExtension>
</extensions>
</trkpt>
<trkpt lat="51.8283830" lon="13.9529250">
<ele>-4.6870000</ele>
<time>2010-06-27T07:46:32Z</time>
<extensions>
<tp1:TrackPointExtension>
<tp1:hr>126</tp1:hr>
<tp1:cad>81</tp1:cad>
</tp1:TrackPointExtension>
</extensions>
</trkpt>
<trkpt lat="51.8279620" lon="13.9527920">
<ele>-4.6570000</ele>
<time>2010-06-27T07:46:38Z</time>
<extensions>
<tp1:TrackPointExtension>
<tp1:hr>126</tp1:hr>
<tp1:cad>82</tp1:cad>
</tp1:TrackPointExtension>
</extensions>
</trkpt>
<trkpt lat="51.8276980" lon="13.9526310">
<ele>-4.0370000</ele>
<time>2010-06-27T07:46:42Z</time>
<extensions>
<tp1:TrackPointExtension>
<tp1:hr>127</tp1:hr>
<tp1:cad>78</tp1:cad>
</tp1:TrackPointExtension>
</extensions>
</trkpt>
<trkpt lat="51.8276270" lon="13.9524380">
<ele>-3.2030000</ele>
<time>2010-06-27T07:46:44Z</time>
<extensions>
<tp1:TrackPointExtension>
<tp1:hr>128</tp1:hr>
<tp1:cad>79</tp1:cad>
</tp1:TrackPointExtension>
</extensions>
</trkpt>
<trkpt lat="51.8275070" lon="13.9520450">
<ele>-1.5620000</ele>
<time>2010-06-27T07:46:48Z</time>
<extensions>
<tp1:TrackPointExtension>
<tp1:hr>132</tp1:hr>
<tp1:cad>77</tp1:cad>
</tp1:TrackPointExtension>
</extensions>
</trkpt>
<trkpt lat="51.8273380" lon="13.9514970">
<ele>0.4720000</ele>
<time>2010-06-27T07:46:54Z</time>
<extensions>
<tp1:TrackPointExtension>
<tp1:hr>138</tp1:hr>
<tp1:cad>72</tp1:cad>
</tp1:TrackPointExtension>
</extensions>
</trkpt>
<trkpt lat="51.8272060" lon="13.9510650">
<ele>1.6740000</ele>
<time>2010-06-27T07:46:59Z</time>
<extensions>
<tp1:TrackPointExtension>
<tp1:hr>144</tp1:hr>
<tp1:cad>72</tp1:cad>
</tp1:TrackPointExtension>
</extensions>
</trkpt>
<trkpt lat="51.8270800" lon="13.9507050">
<ele>2.2050000</ele>
<time>2010-06-27T07:47:03Z</time>
<extensions>
<tp1:TrackPointExtension>
<tp1:hr>146</tp1:hr>
<tp1:cad>69</tp1:cad>
</tp1:TrackPointExtension>
</extensions>
</trkpt>
<trkpt lat="51.8269170" lon="13.9507750">
<ele>2.9370000</ele>
<time>2010-06-27T07:47:06Z</time>
<extensions>
<tp1:TrackPointExtension>
<tp1:hr>149</tp1:hr>
<tp1:cad>63</tp1:cad>
</tp1:TrackPointExtension>
</extensions>
</trkpt>
<trkpt lat="51.8269230" lon="13.9508610">
<ele>3.2650000</ele>
<time>2010-06-27T07:47:07Z</time>
<extensions>
<tp1:TrackPointExtension>
<tp1:hr>149</tp1:hr>
<tp1:cad>64</tp1:cad>
</tp1:TrackPointExtension>
</extensions>
</trkpt>
<trkpt lat="51.8269710" lon="13.9515510">
<ele>4.6440000</ele>
<time>2010-06-27T07:47:14Z</time>
<extensions>
<tp1:TrackPointExtension>
<tp1:hr>151</tp1:hr>
<tp1:cad>67</tp1:cad>
</tp1:TrackPointExtension>
</extensions>
</trkpt>
<trkpt lat="51.8269380" lon="13.9517480">
<ele>5.2110000</ele>
<time>2010-06-27T07:47:16Z</time>
<extensions>
<tp1:TrackPointExtension>
<tp1:hr>151</tp1:hr>
<tp1:cad>66</tp1:cad>
</tp1:TrackPointExtension>
</extensions>
</trkpt>
<trkpt lat="51.8268000" lon="13.9521520">
<ele>5.9610000</ele>
<time>2010-06-27T07:47:21Z</time>
<extensions>
<tp1:TrackPointExtension>
<tp1:hr>152</tp1:hr>
<tp1:cad>73</tp1:cad>
</tp1:TrackPointExtension>
</extensions>
</trkpt>
<trkpt lat="51.8265970" lon="13.9525710">
<ele>6.1660000</ele>
<time>2010-06-27T07:47:26Z</time>
<extensions>
<tp1:TrackPointExtension>
<tp1:hr>153</tp1:hr>
<tp1:cad>0</tp1:cad>
</tp1:TrackPointExtension>
</extensions>
</trkpt>
<trkpt lat="51.8263960" lon="13.9527470">
<ele>5.8980000</ele>
<time>2010-06-27T07:47:30Z</time>
<extensions>
<tp1:TrackPointExtension>
<tp1:hr>153</tp1:hr>
<tp1:cad>78</tp1:cad>
</tp1:TrackPointExtension>
</extensions>
</trkpt>
<trkpt lat="51.8260720" lon="13.9527870">
<ele>5.6460000</ele>
<time>2010-06-27T07:47:35Z</time>
<extensions>
<tp1:TrackPointExtension>
<tp1:hr>153</tp1:hr>
<tp1:cad>54</tp1:cad>
</tp1:TrackPointExtension>
</extensions>
</trkpt>
<trkpt lat="51.8258600" lon="13.9525900">
<ele>5.5320000</ele>
<time>2010-06-27T07:47:39Z</time>
<extensions>
<tp1:TrackPointExtension>
<tp1:hr>153</tp1:hr>
<tp1:cad>80</tp1:cad>
</tp1:TrackPointExtension>
</extensions>
</trkpt>
<trkpt lat="51.8252570" lon="13.9517770">
<ele>5.0140000</ele>
<time>2010-06-27T07:47:50Z</time>
<extensions>
<tp1:TrackPointExtension>
<tp1:hr>148</tp1:hr>
<tp1:cad>41</tp1:cad>
</tp1:TrackPointExtension>
</extensions>
</trkpt>
<trkpt lat="51.8247230" lon="13.9510060">
<ele>5.0990000</ele>
<time>2010-06-27T07:48:00Z</time>
<extensions>
<tp1:TrackPointExtension>
<tp1:hr>146</tp1:hr>
<tp1:cad>81</tp1:cad>
</tp1:TrackPointExtension>
</extensions>
</trkpt>
<trkpt lat="51.8242770" lon="13.9504380">
<ele>5.8900000</ele>
<time>2010-06-27T07:48:08Z</time>
<extensions>
<tp1:TrackPointExtension>
<tp1:hr>145</tp1:hr>
<tp1:cad>80</tp1:cad>
</tp1:TrackPointExtension>
</extensions>
</trkpt>
<trkpt lat="51.8238560" lon="13.9500290">
<ele>6.5210000</ele>
<time>2010-06-27T07:48:15Z</time>
<extensions>
<tp1:TrackPointExtension>
<tp1:hr>146</tp1:hr>
<tp1:cad>82</tp1:cad>
</tp1:TrackPointExtension>
</extensions>
</trkpt>
<trkpt lat="51.8232460" lon="13.9494360">
<ele>6.8240000</ele>
<time>2010-06-27T07:48:25Z</time>
<extensions>
<tp1:TrackPointExtension>
<tp1:hr>148</tp1:hr>
<tp1:cad>82</tp1:cad>
</tp1:TrackPointExtension>
</extensions>
</trkpt>
<trkpt lat="51.8225690" lon="13.9487770">
<ele>6.8740000</ele>
<time>2010-06-27T07:48:36Z</time>
<extensions>
<tp1:TrackPointExtension>
<tp1:hr>146</tp1:hr>
<tp1:cad>82</tp1:cad>
</tp1:TrackPointExtension>
</extensions>
</trkpt>
<trkpt lat="51.8218750" lon="13.9481020">
<ele>6.6430000</ele>
<time>2010-06-27T07:48:47Z</time>
<extensions>
<tp1:TrackPointExtension>
<tp1:hr>141</tp1:hr>
<tp1:cad>84</tp1:cad>
</tp1:TrackPointExtension>
</extensions>
</trkpt>
<trkpt lat="51.8211040" lon="13.9473520">
<ele>6.3810000</ele>
<time>2010-06-27T07:48:59Z</time>
<extensions>
<tp1:TrackPointExtension>
<tp1:hr>138</tp1:hr>
<tp1:cad>84</tp1:cad>
</tp1:TrackPointExtension>
</extensions>
</trkpt>
<trkpt lat="51.8205960" lon="13.9468570">
<ele>6.2890000</ele>
<time>2010-06-27T07:49:07Z</time>
<extensions>
<tp1:TrackPointExtension>
<tp1:hr>137</tp1:hr>
<tp1:cad>0</tp1:cad>
</tp1:TrackPointExtension>
</extensions>
</trkpt>
<trkpt lat="51.8203570" lon="13.9467070">
<ele>6.1480000</ele>
<time>2010-06-27T07:49:11Z</time>
<extensions>
<tp1:TrackPointExtension>
<tp1:hr>137</tp1:hr>
<tp1:cad>0</tp1:cad>
</tp1:TrackPointExtension>
</extensions>
</trkpt>
<trkpt lat="51.8202620" lon="13.9468700">
<ele>5.9480000</ele>
<time>2010-06-27T07:49:14Z</time>
<extensions>
<tp1:TrackPointExtension>
<tp1:hr>137</tp1:hr>
<tp1:cad>81</tp1:cad>
</tp1:TrackPointExtension>
</extensions>
</trkpt>
<trkpt lat="51.8200780" lon="13.9478880">
<ele>6.0840000</ele>
<time>2010-06-27T07:49:23Z</time>
<extensions>
<tp1:TrackPointExtension>
<tp1:hr>138</tp1:hr>
<tp1:cad>79</tp1:cad>
</tp1:TrackPointExtension>
</extensions>
</trkpt>
<trkpt lat="51.8198880" lon="13.9489400">
<ele>7.4810000</ele>
<time>2010-06-27T07:49:33Z</time>
<extensions>
<tp1:TrackPointExtension>
<tp1:hr>136</tp1:hr>
<tp1:cad>75</tp1:cad>
</tp1:TrackPointExtension>
</extensions>
</trkpt>
<trkpt lat="51.8197300" lon="13.9498130">
<ele>7.4070000</ele>
<time>2010-06-27T07:49:41Z</time>
<extensions>
<tp1:TrackPointExtension>
<tp1:hr>134</tp1:hr>
<tp1:cad>80</tp1:cad>
</tp1:TrackPointExtension>
</extensions>
</trkpt>
<trkpt lat="51.8195730" lon="13.9506870">
<ele>7.8220000</ele>
<time>2010-06-27T07:49:49Z</time>
<extensions>
<tp1:TrackPointExtension>
<tp1:hr>134</tp1:hr>
<tp1:cad>79</tp1:cad>
</tp1:TrackPointExtension>
</extensions>
</trkpt>
<trkpt lat="51.8193500" lon="13.9519200">
<ele>8.3710000</ele>
<time>2010-06-27T07:50:00Z</time>
<extensions>
<tp1:TrackPointExtension>
<tp1:hr>134</tp1:hr>
<tp1:cad>81</tp1:cad>
</tp1:TrackPointExtension>
</extensions>
</trkpt>
<trkpt lat="51.8191710" lon="13.9529100">
<ele>8.9090000</ele>
<time>2010-06-27T07:50:09Z</time>
<extensions>
<tp1:TrackPointExtension>
<tp1:hr>135</tp1:hr>
<tp1:cad>77</tp1:cad>
</tp1:TrackPointExtension>
</extensions>
</trkpt>
<trkpt lat="51.8190260" lon="13.9537130">
<ele>8.9370000</ele>
<time>2010-06-27T07:50:17Z</time>
<extensions>
<tp1:TrackPointExtension>
<tp1:hr>135</tp1:hr>
<tp1:cad>72</tp1:cad>
</tp1:TrackPointExtension>
</extensions>
</trkpt>
<trkpt lat="51.8188860" lon="13.9544850">
<ele>9.0420000</ele>
<time>2010-06-27T07:50:25Z</time>
<extensions>
<tp1:TrackPointExtension>
<tp1:hr>135</tp1:hr>
<tp1:cad>0</tp1:cad>
</tp1:TrackPointExtension>
</extensions>
</trkpt>
<trkpt lat="51.8187700" lon="13.9551280">
<ele>8.8780000</ele>
<time>2010-06-27T07:50:32Z</time>
<extensions>
<tp1:TrackPointExtension>
<tp1:hr>135</tp1:hr>
<tp1:cad>44</tp1:cad>
</tp1:TrackPointExtension>
</extensions>
</trkpt>
<trkpt lat="51.8186300" lon="13.9559020">
<ele>9.0220000</ele>
<time>2010-06-27T07:50:40Z</time>
<extensions>
<tp1:TrackPointExtension>
<tp1:hr>130</tp1:hr>
<tp1:cad>46</tp1:cad>
</tp1:TrackPointExtension>
</extensions>
</trkpt>
<trkpt lat="51.8184900" lon="13.9566780">
<ele>9.1420000</ele>
<time>2010-06-27T07:50:48Z</time>
<extensions>
<tp1:TrackPointExtension>
<tp1:hr>126</tp1:hr>
<tp1:cad>77</tp1:cad>
</tp1:TrackPointExtension>
</extensions>
</trkpt>
<trkpt lat="51.8183360" lon="13.9575280">
<ele>9.0890000</ele>
<time>2010-06-27T07:50:56Z</time>
<extensions>
<tp1:TrackPointExtension>
<tp1:hr>125</tp1:hr>
<tp1:cad>76</tp1:cad>
</tp1:TrackPointExtension>
</extensions>
</trkpt>
<trkpt lat="51.8181680" lon="13.9584670">
<ele>9.3410000</ele>
<time>2010-06-27T07:51:05Z</time>
<extensions>
<tp1:TrackPointExtension>
<tp1:hr>123</tp1:hr>
<tp1:cad>77</tp1:cad>
</tp1:TrackPointExtension>
</extensions>
</trkpt>
<trkpt lat="51.8179770" lon="13.9595310">
<ele>10.2500000</ele>
<time>2010-06-27T07:51:15Z</time>
<extensions>
<tp1:TrackPointExtension>
<tp1:hr>119</tp1:hr>
<tp1:cad>78</tp1:cad>
</tp1:TrackPointExtension>
</extensions>
</trkpt>
<trkpt lat="51.8178020" lon="13.9605110">
<ele>10.0380000</ele>
<time>2010-06-27T07:51:24Z</time>
<extensions>
<tp1:TrackPointExtension>
<tp1:hr>119</tp1:hr>
<tp1:cad>0</tp1:cad>
</tp1:TrackPointExtension>
</extensions>
</trkpt>
<trkpt lat="51.8176790" lon="13.9612300">
<ele>9.8130000</ele>
<time>2010-06-27T07:51:31Z</time>
<extensions>
<tp1:TrackPointExtension>
<tp1:hr>119</tp1:hr>
<tp1:cad>0</tp1:cad>
</tp1:TrackPointExtension>
</extensions>
</trkpt>
<trkpt lat="51.8176530" lon="13.9616310">
<ele>9.6080000</ele>
<time>2010-06-27T07:51:36Z</time>
<extensions>
<tp1:TrackPointExtension>
<tp1:hr>115</tp1:hr>
<tp1:cad>0</tp1:cad>
</tp1:TrackPointExtension>
</extensions>
</trkpt>
<trkpt lat="51.8176080" lon="13.9619930">
<ele>9.8870000</ele>
<time>2010-06-27T07:51:41Z</time>
<extensions>
<tp1:TrackPointExtension>
<tp1:hr>116</tp1:hr>
<tp1:cad>75</tp1:cad>
</tp1:TrackPointExtension>
</extensions>
</trkpt>
<trkpt lat="51.8175890" lon="13.9620870">
<ele>9.8880000</ele>
<time>2010-06-27T07:51:42Z</time>
<extensions>
<tp1:TrackPointExtension>
<tp1:hr>116</tp1:hr>
<tp1:cad>79</tp1:cad>
</tp1:TrackPointExtension>
</extensions>
</trkpt>
<trkpt lat="51.8174430" lon="13.9628020">
<ele>9.9930000</ele>
<time>2010-06-27T07:51:49Z</time>
<extensions>
<tp1:TrackPointExtension>
<tp1:hr>116</tp1:hr>
<tp1:cad>73</tp1:cad>
</tp1:TrackPointExtension>
</extensions>
</trkpt>
<trkpt lat="51.8173430" lon="13.9632880">
<ele>9.7450000</ele>
<time>2010-06-27T07:51:54Z</time>
<extensions>
<tp1:TrackPointExtension>
<tp1:hr>118</tp1:hr>
<tp1:cad>0</tp1:cad>
</tp1:TrackPointExtension>
</extensions>
</trkpt>
<trkpt lat="51.8173430" lon="13.9636560">
<ele>9.5310000</ele>
<time>2010-06-27T07:51:58Z</time>
<extensions>
<tp1:TrackPointExtension>
<tp1:hr>120</tp1:hr>
<tp1:cad>81</tp1:cad>
</tp1:TrackPointExtension>
</extensions>
</trkpt>
<trkpt lat="51.8174150" lon="13.9638210">
<ele>9.5630000</ele>
<time>2010-06-27T07:52:00Z</time>
<extensions>
<tp1:TrackPointExtension>
<tp1:hr>120</tp1:hr>
<tp1:cad>81</tp1:cad>
</tp1:TrackPointExtension>
</extensions>
</trkpt>
<trkpt lat="51.8177380" lon="13.9644820">
<ele>8.5180000</ele>
<time>2010-06-27T07:52:08Z</time>
<extensions>
<tp1:TrackPointExtension>
<tp1:hr>117</tp1:hr>
<tp1:cad>0</tp1:cad>
</tp1:TrackPointExtension>
</extensions>
</trkpt>
<trkpt lat="51.8179800" lon="13.9652010">
<ele>7.8280000</ele>
<time>2010-06-27T07:52:16Z</time>
<extensions>
<tp1:TrackPointExtension>
<tp1:hr>115</tp1:hr>
<tp1:cad>0</tp1:cad>
</tp1:TrackPointExtension>
</extensions>
</trkpt>
<trkpt lat="51.8180330" lon="13.9654450">
<ele>6.9310000</ele>
<time>2010-06-27T07:52:19Z</time>
<extensions>
<tp1:TrackPointExtension>
<tp1:hr>115</tp1:hr>
<tp1:cad>57</tp1:cad>
</tp1:TrackPointExtension>
</extensions>
</trkpt>
<trkpt lat="51.8180850" lon="13.9658440">
<ele>6.8320000</ele>
<time>2010-06-27T07:52:25Z</time>
<extensions>
<tp1:TrackPointExtension>
<tp1:hr>114</tp1:hr>
<tp1:cad>45</tp1:cad>
</tp1:TrackPointExtension>
</extensions>
</trkpt>
<trkpt lat="51.8180710" lon="13.9662670">
<ele>6.8940000</ele>
<time>2010-06-27T07:52:32Z</time>
<extensions>
<tp1:TrackPointExtension>
<tp1:hr>112</tp1:hr>
<tp1:cad>38</tp1:cad>
</tp1:TrackPointExtension>
</extensions>
</trkpt>
<trkpt lat="51.8180990" lon="13.9665420">
<ele>6.7550000</ele>
<time>2010-06-27T07:52:37Z</time>
<extensions>
<tp1:TrackPointExtension>
<tp1:hr>112</tp1:hr>
<tp1:cad>49</tp1:cad>
</tp1:TrackPointExtension>
</extensions>
</trkpt>
<trkpt lat="51.8181280" lon="13.9667430">
<ele>7.4170000</ele>
<time>2010-06-27T07:52:40Z</time>
<extensions>
<tp1:TrackPointExtension>
<tp1:hr>113</tp1:hr>
<tp1:cad>50</tp1:cad>
</tp1:TrackPointExtension>
</extensions>
</trkpt>
<trkpt lat="51.8181330" lon="13.9667770">
<ele>7.8020000</ele>
<time>2010-06-27T07:52:42Z</time>
<extensions>
<tp1:TrackPointExtension>
<tp1:hr>114</tp1:hr>
<tp1:cad>29</tp1:cad>
</tp1:TrackPointExtension>
</extensions>
</trkpt>
<trkpt lat="51.8182660" lon="13.9671000">
<ele>7.9210000</ele>
<time>2010-06-27T07:52:46Z</time>
<extensions>
<tp1:TrackPointExtension>
<tp1:hr>117</tp1:hr>
<tp1:cad>74</tp1:cad>
</tp1:TrackPointExtension>
</extensions>
</trkpt>
<trkpt lat="51.8183260" lon="13.9671040">
<ele>7.8570000</ele>
<time>2010-06-27T07:52:47Z</time>
<extensions>
<tp1:TrackPointExtension>
<tp1:hr>118</tp1:hr>
<tp1:cad>84</tp1:cad>
</tp1:TrackPointExtension>
</extensions>
</trkpt>
<trkpt lat="51.8188610" lon="13.9671480">
<ele>7.1560000</ele>
<time>2010-06-27T07:52:54Z</time>
<extensions>
<tp1:TrackPointExtension>
<tp1:hr>124</tp1:hr>
<tp1:cad>0</tp1:cad>
</tp1:TrackPointExtension>
</extensions>
</trkpt>
<trkpt lat="51.8195870" lon="13.9672070">
<ele>5.6920000</ele>
<time>2010-06-27T07:53:03Z</time>
<extensions>
<tp1:TrackPointExtension>
<tp1:hr>128</tp1:hr>
<tp1:cad>92</tp1:cad>
</tp1:TrackPointExtension>
</extensions>
</trkpt>
<trkpt lat="51.8203820" lon="13.9672710">
<ele>5.1050000</ele>
<time>2010-06-27T07:53:13Z</time>
<extensions>
<tp1:TrackPointExtension>
<tp1:hr>131</tp1:hr>
<tp1:cad>92</tp1:cad>
</tp1:TrackPointExtension>
</extensions>
</trkpt>
<trkpt lat="51.8208790" lon="13.9673110">
<ele>4.1380000</ele>
<time>2010-06-27T07:53:19Z</time>
<extensions>
<tp1:TrackPointExtension>
<tp1:hr>126</tp1:hr>
<tp1:cad>0</tp1:cad>
</tp1:TrackPointExtension>
</extensions>
</trkpt>
<trkpt lat="51.8211420" lon="13.9673330">
<ele>3.3360000</ele>
<time>2010-06-27T07:53:22Z</time>
<extensions>
<tp1:TrackPointExtension>
<tp1:hr>121</tp1:hr>
<tp1:cad>0</tp1:cad>
</tp1:TrackPointExtension>
</extensions>
</trkpt>
<trkpt lat="51.8216400" lon="13.9673730">
<ele>2.4420000</ele>
<time>2010-06-27T07:53:28Z</time>
<extensions>
<tp1:TrackPointExtension>
<tp1:hr>119</tp1:hr>
<tp1:cad>0</tp1:cad>
</tp1:TrackPointExtension>
</extensions>
</trkpt>
<trkpt lat="51.8218960" lon="13.9673940">
<ele>2.1400000</ele>
<time>2010-06-27T07:53:32Z</time>
<extensions>
<tp1:TrackPointExtension>
<tp1:hr>114</tp1:hr>
<tp1:cad>0</tp1:cad>
</tp1:TrackPointExtension>
</extensions>
</trkpt>
<trkpt lat="51.8221370" lon="13.9674130">
<ele>1.9130000</ele>
<time>2010-06-27T07:53:37Z</time>
<extensions>
<tp1:TrackPointExtension>
<tp1:hr>110</tp1:hr>
<tp1:cad>39</tp1:cad>
</tp1:TrackPointExtension>
</extensions>
</trkpt>
<trkpt lat="51.8222200" lon="13.9675650">
<ele>2.2180000</ele>
<time>2010-06-27T07:53:41Z</time>
<extensions>
<tp1:TrackPointExtension>
<tp1:hr>109</tp1:hr>
<tp1:cad>51</tp1:cad>
</tp1:TrackPointExtension>
</extensions>
</trkpt>
<trkpt lat="51.8222030" lon="13.9677190">
<ele>2.2190000</ele>
<time>2010-06-27T07:53:43Z</time>
<extensions>
<tp1:TrackPointExtension>
<tp1:hr>109</tp1:hr>
<tp1:cad>42</tp1:cad>
</tp1:TrackPointExtension>
</extensions>
</trkpt>
<trkpt lat="51.8219620" lon="13.9683070">
<ele>0.2280000</ele>
<time>2010-06-27T07:53:49Z</time>
<extensions>
<tp1:TrackPointExtension>
<tp1:hr>109</tp1:hr>
<tp1:cad>0</tp1:cad>
</tp1:TrackPointExtension>
</extensions>
</trkpt>
<trkpt lat="51.8216270" lon="13.9688970">
<ele>-1.4970000</ele>
<time>2010-06-27T07:53:55Z</time>
<extensions>
<tp1:TrackPointExtension>
<tp1:hr>109</tp1:hr>
<tp1:cad>0</tp1:cad>
</tp1:TrackPointExtension>
</extensions>
</trkpt>
<trkpt lat="51.8215720" lon="13.9689710">
<ele>-1.6320000</ele>
<time>2010-06-27T07:53:56Z</time>
<extensions>
<tp1:TrackPointExtension>
<tp1:hr>109</tp1:hr>
<tp1:cad>0</tp1:cad>
</tp1:TrackPointExtension>
</extensions>
</trkpt>
<trkpt lat="51.8214470" lon="13.9691330">
<ele>-1.8760000</ele>
<time>2010-06-27T07:53:59Z</time>
<extensions>
<tp1:TrackPointExtension>
<tp1:hr>109</tp1:hr>
<tp1:cad>63</tp1:cad>
</tp1:TrackPointExtension>
</extensions>
</trkpt>
<trkpt lat="51.8212810" lon="13.9689890">
<ele>-1.9520000</ele>
<time>2010-06-27T07:54:02Z</time>
<extensions>
<tp1:TrackPointExtension>
<tp1:hr>110</tp1:hr>
<tp1:cad>91</tp1:cad>
</tp1:TrackPointExtension>
</extensions>
</trkpt>
<trkpt lat="51.8207090" lon="13.9687690">
<ele>-2.5020000</ele>
<time>2010-06-27T07:54:09Z</time>
<extensions>
<tp1:TrackPointExtension>
<tp1:hr>115</tp1:hr>
<tp1:cad>93</tp1:cad>
</tp1:TrackPointExtension>
</extensions>
</trkpt>
<trkpt lat="51.8199120" lon="13.9686840">
<ele>-2.3960000</ele>
<time>2010-06-27T07:54:18Z</time>
<extensions>
<tp1:TrackPointExtension>
<tp1:hr>119</tp1:hr>
<tp1:cad>92</tp1:cad>
</tp1:TrackPointExtension>
</extensions>
</trkpt>
<trkpt lat="51.8192290" lon="13.9686110">
<ele>-1.7790000</ele>
<time>2010-06-27T07:54:26Z</time>
<extensions>
<tp1:TrackPointExtension>
<tp1:hr>121</tp1:hr>
<tp1:cad>0</tp1:cad>
</tp1:TrackPointExtension>
</extensions>
</trkpt>
<trkpt lat="51.8186920" lon="13.9685480">
<ele>-1.5750000</ele>
<time>2010-06-27T07:54:33Z</time>
<extensions>
<tp1:TrackPointExtension>
<tp1:hr>123</tp1:hr>
<tp1:cad>80</tp1:cad>
</tp1:TrackPointExtension>
</extensions>
</trkpt>
<trkpt lat="51.8183170" lon="13.9685100">
<ele>-2.0090000</ele>
<time>2010-06-27T07:54:38Z</time>
<extensions>
<tp1:TrackPointExtension>
<tp1:hr>124</tp1:hr>
<tp1:cad>0</tp1:cad>
</tp1:TrackPointExtension>
</extensions>
</trkpt>
<trkpt lat="51.8177480" lon="13.9685690">
<ele>-1.9230000</ele>
<time>2010-06-27T07:54:46Z</time>
<extensions>
<tp1:TrackPointExtension>
<tp1:hr>119</tp1:hr>
<tp1:cad>78</tp1:cad>
</tp1:TrackPointExtension>
</extensions>
</trkpt>
<trkpt lat="51.8172190" lon="13.9686230">
<ele>-2.3070000</ele>
<time>2010-06-27T07:54:53Z</time>
<extensions>
<tp1:TrackPointExtension>
<tp1:hr>118</tp1:hr>
<tp1:cad>83</tp1:cad>
</tp1:TrackPointExtension>
</extensions>
</trkpt>
<trkpt lat="51.8166050" lon="13.9686850">
<ele>-2.5830000</ele>
<time>2010-06-27T07:55:01Z</time>
<extensions>
<tp1:TrackPointExtension>
<tp1:hr>115</tp1:hr>
<tp1:cad>19</tp1:cad>
</tp1:TrackPointExtension>
</extensions>
</trkpt>
<trkpt lat="51.8161150" lon="13.9688550">
<ele>-2.7100000</ele>
<time>2010-06-27T07:55:08Z</time>
<extensions>
<tp1:TrackPointExtension>
<tp1:hr>112</tp1:hr>
<tp1:cad>67</tp1:cad>
</tp1:TrackPointExtension>
</extensions>
</trkpt>
<trkpt lat="51.8156260" lon="13.9690300">
<ele>-2.8600000</ele>
<time>2010-06-27T07:55:15Z</time>
<extensions>
<tp1:TrackPointExtension>
<tp1:hr>107</tp1:hr>
<tp1:cad>77</tp1:cad>
</tp1:TrackPointExtension>
</extensions>
</trkpt>
<trkpt lat="51.8151290" lon="13.9692290">
<ele>-2.2490000</ele>
<time>2010-06-27T07:55:22Z</time>
<extensions>
<tp1:TrackPointExtension>
<tp1:hr>108</tp1:hr>
<tp1:cad>0</tp1:cad>
</tp1:TrackPointExtension>
</extensions>
</trkpt>
<trkpt lat="51.8145420" lon="13.9694480">
<ele>-2.9980000</ele>
<time>2010-06-27T07:55:30Z</time>
<extensions>
<tp1:TrackPointExtension>
<tp1:hr>111</tp1:hr>
<tp1:cad>81</tp1:cad>
</tp1:TrackPointExtension>
</extensions>
</trkpt>
<trkpt lat="51.8140330" lon="13.9696160">
<ele>-2.5960000</ele>
<time>2010-06-27T07:55:37Z</time>
<extensions>
<tp1:TrackPointExtension>
<tp1:hr>112</tp1:hr>
<tp1:cad>74</tp1:cad>
</tp1:TrackPointExtension>
</extensions>
</trkpt>
<trkpt lat="51.8135690" lon="13.9697670">
<ele>-1.7440000</ele>
<time>2010-06-27T07:55:44Z</time>
<extensions>
<tp1:TrackPointExtension>
<tp1:hr>111</tp1:hr>
<tp1:cad>77</tp1:cad>
</tp1:TrackPointExtension>
</extensions>
</trkpt>
<trkpt lat="51.8130280" lon="13.9700380">
<ele>-1.4610000</ele>
<time>2010-06-27T07:55:52Z</time>
<extensions>
<tp1:TrackPointExtension>
<tp1:hr>112</tp1:hr>
<tp1:cad>73</tp1:cad>
</tp1:TrackPointExtension>
</extensions>
</trkpt>
<trkpt lat="51.8126290" lon="13.9703220">
<ele>-1.1040000</ele>
<time>2010-06-27T07:55:58Z</time>
<extensions>
<tp1:TrackPointExtension>
<tp1:hr>114</tp1:hr>
<tp1:cad>82</tp1:cad>
</tp1:TrackPointExtension>
</extensions>
</trkpt>
<trkpt lat="51.8120600" lon="13.9705450">
<ele>0.9500000</ele>
<time>2010-06-27T07:56:06Z</time>
<extensions>
<tp1:TrackPointExtension>
<tp1:hr>118</tp1:hr>
<tp1:cad>70</tp1:cad>
</tp1:TrackPointExtension>
</extensions>
</trkpt>
<trkpt lat="51.8116010" lon="13.9707250">
<ele>1.8010000</ele>
<time>2010-06-27T07:56:13Z</time>
<extensions>
<tp1:TrackPointExtension>
<tp1:hr>120</tp1:hr>
<tp1:cad>74</tp1:cad>
</tp1:TrackPointExtension>
</extensions>
</trkpt>
<trkpt lat="51.8109340" lon="13.9709990">
<ele>2.7400000</ele>
<time>2010-06-27T07:56:23Z</time>
<extensions>
<tp1:TrackPointExtension>
<tp1:hr>121</tp1:hr>
<tp1:cad>74</tp1:cad>
</tp1:TrackPointExtension>
</extensions>
</trkpt>
<trkpt lat="51.8103150" lon="13.9713090">
<ele>3.8140000</ele>
<time>2010-06-27T07:56:32Z</time>
<extensions>
<tp1:TrackPointExtension>
<tp1:hr>124</tp1:hr>
<tp1:cad>75</tp1:cad>
</tp1:TrackPointExtension>
</extensions>
</trkpt>
<trkpt lat="51.8097940" lon="13.9715690">
<ele>4.8730000</ele>
<time>2010-06-27T07:56:40Z</time>
<extensions>
<tp1:TrackPointExtension>
<tp1:hr>127</tp1:hr>
<tp1:cad>74</tp1:cad>
</tp1:TrackPointExtension>
</extensions>
</trkpt>
<trkpt lat="51.8091920" lon="13.9719190">
<ele>5.6570000</ele>
<time>2010-06-27T07:56:49Z</time>
<extensions>
<tp1:TrackPointExtension>
<tp1:hr>126</tp1:hr>
<tp1:cad>75</tp1:cad>
</tp1:TrackPointExtension>
</extensions>
</trkpt>
<trkpt lat="51.8085970" lon="13.9722880">
<ele>6.0570000</ele>
<time>2010-06-27T07:56:58Z</time>
<extensions>
<tp1:TrackPointExtension>
<tp1:hr>126</tp1:hr>
<tp1:cad>76</tp1:cad>
</tp1:TrackPointExtension>
</extensions>
</trkpt>
<trkpt lat="51.8079210" lon="13.9727090">
<ele>7.3460000</ele>
<time>2010-06-27T07:57:08Z</time>
<extensions>
<tp1:TrackPointExtension>
<tp1:hr>124</tp1:hr>
<tp1:cad>72</tp1:cad>
</tp1:TrackPointExtension>
</extensions>
</trkpt>
<trkpt lat="51.8073320" lon="13.9730730">
<ele>7.8840000</ele>
<time>2010-06-27T07:57:17Z</time>
<extensions>
<tp1:TrackPointExtension>
<tp1:hr>123</tp1:hr>
<tp1:cad>74</tp1:cad>
</tp1:TrackPointExtension>
</extensions>
</trkpt>
<trkpt lat="51.8067360" lon="13.9734330">
<ele>8.7190000</ele>
<time>2010-06-27T07:57:26Z</time>
<extensions>
<tp1:TrackPointExtension>
<tp1:hr>123</tp1:hr>
<tp1:cad>74</tp1:cad>
</tp1:TrackPointExtension>
</extensions>
</trkpt>
<trkpt lat="51.8061520" lon="13.9737850">
<ele>9.7960000</ele>
<time>2010-06-27T07:57:35Z</time>
<extensions>
<tp1:TrackPointExtension>
<tp1:hr>122</tp1:hr>
<tp1:cad>73</tp1:cad>
</tp1:TrackPointExtension>
</extensions>
</trkpt>
<trkpt lat="51.8055510" lon="13.9741340">
<ele>10.8020000</ele>
<time>2010-06-27T07:57:44Z</time>
<extensions>
<tp1:TrackPointExtension>
<tp1:hr>122</tp1:hr>
<tp1:cad>0</tp1:cad>
</tp1:TrackPointExtension>
</extensions>
</trkpt>
<trkpt lat="51.8051660" lon="13.9743420">
<ele>10.9660000</ele>
<time>2010-06-27T07:57:50Z</time>
<extensions>
<tp1:TrackPointExtension>
<tp1:hr>122</tp1:hr>
<tp1:cad>75</tp1:cad>
</tp1:TrackPointExtension>
</extensions>
</trkpt>
<trkpt lat="51.8047760" lon="13.9745300">
<ele>11.9310000</ele>
<time>2010-06-27T07:57:56Z</time>
<extensions>
<tp1:TrackPointExtension>
<tp1:hr>121</tp1:hr>
<tp1:cad>0</tp1:cad>
</tp1:TrackPointExtension>
</extensions>
</trkpt>
<trkpt lat="51.8046050" lon="13.9745800">
<ele>12.1070000</ele>
<time>2010-06-27T07:57:59Z</time>
<extensions>
<tp1:TrackPointExtension>
<tp1:hr>121</tp1:hr>
<tp1:cad>0</tp1:cad>
</tp1:TrackPointExtension>
</extensions>
</trkpt>
<trkpt lat="51.8044010" lon="13.9746290">
<ele>12.4820000</ele>
<time>2010-06-27T07:58:05Z</time>
<extensions>
<tp1:TrackPointExtension>
<tp1:hr>120</tp1:hr>
<tp1:cad>21</tp1:cad>
</tp1:TrackPointExtension>
</extensions>
</trkpt>
<trkpt lat="51.8043730" lon="13.9746360">
<ele>12.4950000</ele>
<time>2010-06-27T07:58:06Z</time>
<extensions>
<tp1:TrackPointExtension>
<tp1:hr>120</tp1:hr>
<tp1:cad>34</tp1:cad>
</tp1:TrackPointExtension>
</extensions>
</trkpt>
<trkpt lat="51.8043510" lon="13.9748360">
<ele>12.7860000</ele>
<time>2010-06-27T07:58:10Z</time>
<extensions>
<tp1:TrackPointExtension>
<tp1:hr>120</tp1:hr>
<tp1:cad>66</tp1:cad>
</tp1:TrackPointExtension>
</extensions>
</trkpt>
<trkpt lat="51.8044480" lon="13.9753990">
<ele>12.8410000</ele>
<time>2010-06-27T07:58:15Z</time>
<extensions>
<tp1:TrackPointExtension>
<tp1:hr>121</tp1:hr>
<tp1:cad>82</tp1:cad>
</tp1:TrackPointExtension>
</extensions>
</trkpt>
<trkpt lat="51.8043840" lon="13.9760250">
<ele>13.2180000</ele>
<time>2010-06-27T07:58:20Z</time>
<extensions>
<tp1:TrackPointExtension>
<tp1:hr>124</tp1:hr>
<tp1:cad>85</tp1:cad>
</tp1:TrackPointExtension>
</extensions>
</trkpt>
<trkpt lat="51.8041410" lon="13.9768690">
<ele>13.7380000</ele>
<time>2010-06-27T07:58:27Z</time>
<extensions>
<tp1:TrackPointExtension>
<tp1:hr>126</tp1:hr>
<tp1:cad>71</tp1:cad>
</tp1:TrackPointExtension>
</extensions>
</trkpt>
<trkpt lat="51.8038760" lon="13.9777860">
<ele>13.6670000</ele>
<time>2010-06-27T07:58:35Z</time>
<extensions>
<tp1:TrackPointExtension>
<tp1:hr>129</tp1:hr>
<tp1:cad>82</tp1:cad>
</tp1:TrackPointExtension>
</extensions>
</trkpt>
<trkpt lat="51.8036780" lon="13.9784470">
<ele>13.4250000</ele>
<time>2010-06-27T07:58:41Z</time>
<extensions>
<tp1:TrackPointExtension>
<tp1:hr>130</tp1:hr>
<tp1:cad>0</tp1:cad>
</tp1:TrackPointExtension>
</extensions>
</trkpt>
<trkpt lat="51.8036090" lon="13.9787660">
<ele>13.3330000</ele>
<time>2010-06-27T07:58:44Z</time>
<extensions>
<tp1:TrackPointExtension>
<tp1:hr>130</tp1:hr>
<tp1:cad>0</tp1:cad>
</tp1:TrackPointExtension>
</extensions>
</trkpt>
<trkpt lat="51.8034580" lon="13.9791120">
<ele>13.7060000</ele>
<time>2010-06-27T07:58:48Z</time>
<extensions>
<tp1:TrackPointExtension>
<tp1:hr>130</tp1:hr>
<tp1:cad>66</tp1:cad>
</tp1:TrackPointExtension>
</extensions>
</trkpt>
<trkpt lat="51.8032770" lon="13.9792950">
<ele>13.7920000</ele>
<time>2010-06-27T07:58:51Z</time>
<extensions>
<tp1:TrackPointExtension>
<tp1:hr>129</tp1:hr>
<tp1:cad>68</tp1:cad>
</tp1:TrackPointExtension>
</extensions>
</trkpt>
<trkpt lat="51.8030210" lon="13.9794050">
<ele>13.4560000</ele>
<time>2010-06-27T07:58:55Z</time>
<extensions>
<tp1:TrackPointExtension>
<tp1:hr>128</tp1:hr>
<tp1:cad>82</tp1:cad>
</tp1:TrackPointExtension>
</extensions>
</trkpt>
<trkpt lat="51.8025130" lon="13.9793610">
<ele>13.6940000</ele>
<time>2010-06-27T07:59:02Z</time>
<extensions>
<tp1:TrackPointExtension>
<tp1:hr>124</tp1:hr>
<tp1:cad>71</tp1:cad>
</tp1:TrackPointExtension>
</extensions>
</trkpt>
<trkpt lat="51.8022520" lon="13.9793970">
<ele>14.7810000</ele>
<time>2010-06-27T07:59:06Z</time>
<extensions>
<tp1:TrackPointExtension>
<tp1:hr>123</tp1:hr>
<tp1:cad>68</tp1:cad>
</tp1:TrackPointExtension>
</extensions>
</trkpt>
<trkpt lat="51.8022000" lon="13.9794590">
<ele>15.0250000</ele>
<time>2010-06-27T07:59:07Z</time>
<extensions>
<tp1:TrackPointExtension>
<tp1:hr>123</tp1:hr>
<tp1:cad>69</tp1:cad>
</tp1:TrackPointExtension>
</extensions>
</trkpt>
<trkpt lat="51.8015140" lon="13.9802710">
<ele>16.8470000</ele>
<time>2010-06-27T07:59:20Z</time>
<extensions>
<tp1:TrackPointExtension>
<tp1:hr>123</tp1:hr>
<tp1:cad>65</tp1:cad>
</tp1:TrackPointExtension>
</extensions>
</trkpt>
<trkpt lat="51.8013580" lon="13.9806620">
<ele>17.7950000</ele>
<time>2010-06-27T07:59:25Z</time>
<extensions>
<tp1:TrackPointExtension>
<tp1:hr>123</tp1:hr>
<tp1:cad>76</tp1:cad>
</tp1:TrackPointExtension>
</extensions>
</trkpt>
<trkpt lat="51.8011860" lon="13.9813050">
<ele>17.6600000</ele>
<time>2010-06-27T07:59:31Z</time>
<extensions>
<tp1:TrackPointExtension>
<tp1:hr>124</tp1:hr>
<tp1:cad>87</tp1:cad>
</tp1:TrackPointExtension>
</extensions>
</trkpt>
<trkpt lat="51.8011250" lon="13.9815330">
<ele>17.7470000</ele>
<time>2010-06-27T07:59:33Z</time>
<extensions>
<tp1:TrackPointExtension>
<tp1:hr>124</tp1:hr>
<tp1:cad>88</tp1:cad>
</tp1:TrackPointExtension>
</extensions>
</trkpt>
<trkpt lat="51.8010750" lon="13.9820190">
<ele>17.8760000</ele>
<time>2010-06-27T07:59:37Z</time>
<extensions>
<tp1:TrackPointExtension>
<tp1:hr>125</tp1:hr>
<tp1:cad>89</tp1:cad>
</tp1:TrackPointExtension>
</extensions>
</trkpt>
<trkpt lat="51.8011210" lon="13.9826010">
<ele>18.6050000</ele>
<time>2010-06-27T07:59:42Z</time>
<extensions>
<tp1:TrackPointExtension>
<tp1:hr>125</tp1:hr>
<tp1:cad>77</tp1:cad>
</tp1:TrackPointExtension>
</extensions>
</trkpt>
<trkpt lat="51.8010820" lon="13.9831480">
<ele>19.1850000</ele>
<time>2010-06-27T07:59:47Z</time>
<extensions>
<tp1:TrackPointExtension>
<tp1:hr>125</tp1:hr>
<tp1:cad>79</tp1:cad>
</tp1:TrackPointExtension>
</extensions>
</trkpt>
<trkpt lat="51.8009210" lon="13.9840680">
<ele>19.3190000</ele>
<time>2010-06-27T07:59:55Z</time>
<extensions>
<tp1:TrackPointExtension>
<tp1:hr>125</tp1:hr>
<tp1:cad>88</tp1:cad>
</tp1:TrackPointExtension>
</extensions>
</trkpt>
<trkpt lat="51.8007960" lon="13.9847420">
<ele>19.6470000</ele>
<time>2010-06-27T08:00:01Z</time>
<extensions>
<tp1:TrackPointExtension>
<tp1:hr>125</tp1:hr>
<tp1:cad>79</tp1:cad>
</tp1:TrackPointExtension>
</extensions>
</trkpt>
<trkpt lat="51.8006690" lon="13.9853990">
<ele>20.9240000</ele>
<time>2010-06-27T08:00:07Z</time>
<extensions>
<tp1:TrackPointExtension>
<tp1:hr>125</tp1:hr>
<tp1:cad>78</tp1:cad>
</tp1:TrackPointExtension>
</extensions>
</trkpt>
<trkpt lat="51.8004970" lon="13.9862410">
<ele>21.8570000</ele>
<time>2010-06-27T08:00:15Z</time>
<extensions>
<tp1:TrackPointExtension>
<tp1:hr>125</tp1:hr>
<tp1:cad>70</tp1:cad>
</tp1:TrackPointExtension>
</extensions>
</trkpt>
<trkpt lat="51.8003380" lon="13.9869920">
<ele>22.2470000</ele>
<time>2010-06-27T08:00:22Z</time>
<extensions>
<tp1:TrackPointExtension>
<tp1:hr>125</tp1:hr>
<tp1:cad>83</tp1:cad>
</tp1:TrackPointExtension>
</extensions>
</trkpt>
<trkpt lat="51.8001280" lon="13.9879860">
<ele>22.5170000</ele>
<time>2010-06-27T08:00:31Z</time>
<extensions>
<tp1:TrackPointExtension>
<tp1:hr>124</tp1:hr>
<tp1:cad>85</tp1:cad>
</tp1:TrackPointExtension>
</extensions>
</trkpt>
<trkpt lat="51.7999880" lon="13.9886470">
<ele>22.2890000</ele>
<time>2010-06-27T08:00:37Z</time>
<extensions>
<tp1:TrackPointExtension>
<tp1:hr>123</tp1:hr>
<tp1:cad>84</tp1:cad>
</tp1:TrackPointExtension>
</extensions>
</trkpt>
<trkpt lat="51.7997820" lon="13.9896360">
<ele>22.2950000</ele>
<time>2010-06-27T08:00:46Z</time>
<extensions>
<tp1:TrackPointExtension>
<tp1:hr>124</tp1:hr>
<tp1:cad>82</tp1:cad>
</tp1:TrackPointExtension>
</extensions>
</trkpt>
<trkpt lat="51.7995780" lon="13.9905870">
<ele>22.9430000</ele>
<time>2010-06-27T08:00:55Z</time>
<extensions>
<tp1:TrackPointExtension>
<tp1:hr>126</tp1:hr>
<tp1:cad>81</tp1:cad>
</tp1:TrackPointExtension>
</extensions>
</trkpt>
<trkpt lat="51.7993480" lon="13.9915580">
<ele>23.5970000</ele>
<time>2010-06-27T08:01:04Z</time>
<extensions>
<tp1:TrackPointExtension>
<tp1:hr>125</tp1:hr>
<tp1:cad>35</tp1:cad>
</tp1:TrackPointExtension>
</extensions>
</trkpt>
<trkpt lat="51.7991230" lon="13.9925060">
<ele>24.2150000</ele>
<time>2010-06-27T08:01:13Z</time>
<extensions>
<tp1:TrackPointExtension>
<tp1:hr>125</tp1:hr>
<tp1:cad>81</tp1:cad>
</tp1:TrackPointExtension>
</extensions>
</trkpt>
<trkpt lat="51.7988400" lon="13.9936880">
<ele>25.2700000</ele>
<time>2010-06-27T08:01:24Z</time>
<extensions>
<tp1:TrackPointExtension>
<tp1:hr>122</tp1:hr>
<tp1:cad>85</tp1:cad>
</tp1:TrackPointExtension>
</extensions>
</trkpt>
<trkpt lat="51.7986260" lon="13.9945630">
<ele>25.1130000</ele>
<time>2010-06-27T08:01:32Z</time>
<extensions>
<tp1:TrackPointExtension>
<tp1:hr>120</tp1:hr>
<tp1:cad>81</tp1:cad>
</tp1:TrackPointExtension>
</extensions>
</trkpt>
<trkpt lat="51.7984730" lon="13.9951860">
<ele>25.7670000</ele>
<time>2010-06-27T08:01:38Z</time>
<extensions>
<tp1:TrackPointExtension>
<tp1:hr>118</tp1:hr>
<tp1:cad>80</tp1:cad>
</tp1:TrackPointExtension>
</extensions>
</trkpt>
<trkpt lat="51.7982380" lon="13.9961480">
<ele>26.5010000</ele>
<time>2010-06-27T08:01:47Z</time>
<extensions>
<tp1:TrackPointExtension>
<tp1:hr>116</tp1:hr>
<tp1:cad>81</tp1:cad>
</tp1:TrackPointExtension>
</extensions>
</trkpt>
<trkpt lat="51.7979540" lon="13.9973110">
<ele>27.4530000</ele>
<time>2010-06-27T08:01:58Z</time>
<extensions>
<tp1:TrackPointExtension>
<tp1:hr>116</tp1:hr>
<tp1:cad>83</tp1:cad>
</tp1:TrackPointExtension>
</extensions>
</trkpt>
<trkpt lat="51.7976810" lon="13.9983960">
<ele>28.1110000</ele>
<time>2010-06-27T08:02:08Z</time>
<extensions>
<tp1:TrackPointExtension>
<tp1:hr>116</tp1:hr>
<tp1:cad>79</tp1:cad>
</tp1:TrackPointExtension>
</extensions>
</trkpt>
<trkpt lat="51.7974910" lon="13.9991170">
<ele>29.0340000</ele>
<time>2010-06-27T08:02:15Z</time>
<extensions>
<tp1:TrackPointExtension>
<tp1:hr>118</tp1:hr>
<tp1:cad>82</tp1:cad>
</tp1:TrackPointExtension>
</extensions>
</trkpt>
<trkpt lat="51.7971810" lon="14.0002940">
<ele>28.4580000</ele>
<time>2010-06-27T08:02:26Z</time>
<extensions>
<tp1:TrackPointExtension>
<tp1:hr>117</tp1:hr>
<tp1:cad>83</tp1:cad>
</tp1:TrackPointExtension>
</extensions>
</trkpt>
<trkpt lat="51.7968660" lon="14.0014920">
<ele>28.5340000</ele>
<time>2010-06-27T08:02:37Z</time>
<extensions>
<tp1:TrackPointExtension>
<tp1:hr>115</tp1:hr>
<tp1:cad>0</tp1:cad>
</tp1:TrackPointExtension>
</extensions>
</trkpt>
<trkpt lat="51.7967120" lon="14.0020790">
<ele>29.0550000</ele>
<time>2010-06-27T08:02:43Z</time>
<extensions>
<tp1:TrackPointExtension>
<tp1:hr>114</tp1:hr>
<tp1:cad>82</tp1:cad>
</tp1:TrackPointExtension>
</extensions>
</trkpt>
<trkpt lat="51.7964630" lon="14.0030430">
<ele>29.7880000</ele>
<time>2010-06-27T08:02:52Z</time>
<extensions>
<tp1:TrackPointExtension>
<tp1:hr>114</tp1:hr>
<tp1:cad>86</tp1:cad>
</tp1:TrackPointExtension>
</extensions>
</trkpt>
<trkpt lat="51.7961800" lon="14.0041600">
<ele>29.9690000</ele>
<time>2010-06-27T08:03:02Z</time>
<extensions>
<tp1:TrackPointExtension>
<tp1:hr>116</tp1:hr>
<tp1:cad>83</tp1:cad>
</tp1:TrackPointExtension>
</extensions>
</trkpt>
<trkpt lat="51.7958470" lon="14.0054740">
<ele>29.8480000</ele>
<time>2010-06-27T08:03:14Z</time>
<extensions>
<tp1:TrackPointExtension>
<tp1:hr>119</tp1:hr>
<tp1:cad>84</tp1:cad>
</tp1:TrackPointExtension>
</extensions>
</trkpt>
<trkpt lat="51.7955960" lon="14.0064610">
<ele>29.9830000</ele>
<time>2010-06-27T08:03:23Z</time>
<extensions>
<tp1:TrackPointExtension>
<tp1:hr>116</tp1:hr>
<tp1:cad>69</tp1:cad>
</tp1:TrackPointExtension>
</extensions>
</trkpt>
<trkpt lat="51.7953470" lon="14.0074430">
<ele>29.6430000</ele>
<time>2010-06-27T08:03:32Z</time>
<extensions>
<tp1:TrackPointExtension>
<tp1:hr>116</tp1:hr>
<tp1:cad>57</tp1:cad>
</tp1:TrackPointExtension>
</extensions>
</trkpt>
<trkpt lat="51.7950400" lon="14.0086530">
<ele>29.0960000</ele>
<time>2010-06-27T08:03:43Z</time>
<extensions>
<tp1:TrackPointExtension>
<tp1:hr>113</tp1:hr>
<tp1:cad>0</tp1:cad>
</tp1:TrackPointExtension>
</extensions>
</trkpt>
<trkpt lat="51.7948750" lon="14.0093070">
<ele>28.6930000</ele>
<time>2010-06-27T08:03:49Z</time>
<extensions>
<tp1:TrackPointExtension>
<tp1:hr>107</tp1:hr>
<tp1:cad>19</tp1:cad>
</tp1:TrackPointExtension>
</extensions>
</trkpt>
<trkpt lat="51.7947030" lon="14.0099810">
<ele>27.9840000</ele>
<time>2010-06-27T08:03:55Z</time>
<extensions>
<tp1:TrackPointExtension>
<tp1:hr>102</tp1:hr>
<tp1:cad>0</tp1:cad>
</tp1:TrackPointExtension>
</extensions>
</trkpt>
<trkpt lat="51.7945290" lon="14.0106700">
<ele>27.7270000</ele>
<time>2010-06-27T08:04:01Z</time>
<extensions>
<tp1:TrackPointExtension>
<tp1:hr>99</tp1:hr>
<tp1:cad>0</tp1:cad>
</tp1:TrackPointExtension>
</extensions>
</trkpt>
<trkpt lat="51.7942110" lon="14.0118240">
<ele>26.4640000</ele>
<time>2010-06-27T08:04:11Z</time>
<extensions>
<tp1:TrackPointExtension>
<tp1:hr>99</tp1:hr>
<tp1:cad>0</tp1:cad>
</tp1:TrackPointExtension>
</extensions>
</trkpt>
<trkpt lat="51.7939560" lon="14.0128310">
<ele>25.2370000</ele>
<time>2010-06-27T08:04:20Z</time>
<extensions>
<tp1:TrackPointExtension>
<tp1:hr>96</tp1:hr>
<tp1:cad>62</tp1:cad>
</tp1:TrackPointExtension>
</extensions>
</trkpt>
<trkpt lat="51.7936330" lon="14.0141300">
<ele>23.7960000</ele>
<time>2010-06-27T08:04:31Z</time>
<extensions>
<tp1:TrackPointExtension>
<tp1:hr>98</tp1:hr>
<tp1:cad>0</tp1:cad>
</tp1:TrackPointExtension>
</extensions>
</trkpt>
<trkpt lat="51.7933690" lon="14.0153070">
<ele>21.9040000</ele>
<time>2010-06-27T08:04:40Z</time>
<extensions>
<tp1:TrackPointExtension>
<tp1:hr>98</tp1:hr>
<tp1:cad>0</tp1:cad>
</tp1:TrackPointExtension>
</extensions>
</trkpt>
<trkpt lat="51.7932470" lon="14.0160160">
<ele>20.6660000</ele>
<time>2010-06-27T08:04:45Z</time>
<extensions>
<tp1:TrackPointExtension>
<tp1:hr>99</tp1:hr>
<tp1:cad>0</tp1:cad>
</tp1:TrackPointExtension>
</extensions>
</trkpt>
<trkpt lat="51.7931880" lon="14.0165660">
<ele>19.5770000</ele>
<time>2010-06-27T08:04:49Z</time>
<extensions>
<tp1:TrackPointExtension>
<tp1:hr>100</tp1:hr>
<tp1:cad>0</tp1:cad>
</tp1:TrackPointExtension>
</extensions>
</trkpt>
<trkpt lat="51.7932210" lon="14.0169860">
<ele>18.2110000</ele>
<time>2010-06-27T08:04:52Z</time>
<extensions>
<tp1:TrackPointExtension>
<tp1:hr>100</tp1:hr>
<tp1:cad>0</tp1:cad>
</tp1:TrackPointExtension>
</extensions>
</trkpt>
<trkpt lat="51.7932210" lon="14.0172780">
<ele>16.6320000</ele>
<time>2010-06-27T08:04:54Z</time>
<extensions>
<tp1:TrackPointExtension>
<tp1:hr>101</tp1:hr>
<tp1:cad>0</tp1:cad>
</tp1:TrackPointExtension>
</extensions>
</trkpt>
<trkpt lat="51.7931870" lon="14.0176640">
<ele>14.3080000</ele>
<time>2010-06-27T08:04:57Z</time>
<extensions>
<tp1:TrackPointExtension>
<tp1:hr>102</tp1:hr>
<tp1:cad>0</tp1:cad>
</tp1:TrackPointExtension>
</extensions>
</trkpt>
<trkpt lat="51.7930490" lon="14.0181330">
<ele>13.1670000</ele>
<time>2010-06-27T08:05:01Z</time>
<extensions>
<tp1:TrackPointExtension>
<tp1:hr>103</tp1:hr>
<tp1:cad>0</tp1:cad>
</tp1:TrackPointExtension>
</extensions>
</trkpt>
<trkpt lat="51.7929140" lon="14.0193700">
<ele>12.7780000</ele>
<time>2010-06-27T08:05:10Z</time>
<extensions>
<tp1:TrackPointExtension>
<tp1:hr>110</tp1:hr>
<tp1:cad>84</tp1:cad>
</tp1:TrackPointExtension>
</extensions>
</trkpt>
<trkpt lat="51.7927960" lon="14.0204850">
<ele>12.4390000</ele>
<time>2010-06-27T08:05:18Z</time>
<extensions>
<tp1:TrackPointExtension>
<tp1:hr>110</tp1:hr>
<tp1:cad>86</tp1:cad>
</tp1:TrackPointExtension>
</extensions>
</trkpt>
<trkpt lat="51.7927750" lon="14.0206200">
<ele>12.3830000</ele>
<time>2010-06-27T08:05:19Z</time>
<extensions>
<tp1:TrackPointExtension>
<tp1:hr>110</tp1:hr>
<tp1:cad>0</tp1:cad>
</tp1:TrackPointExtension>
</extensions>
</trkpt>
<trkpt lat="51.7927910" lon="14.0209580">
<ele>12.2260000</ele>
<time>2010-06-27T08:05:22Z</time>
<extensions>
<tp1:TrackPointExtension>
<tp1:hr>109</tp1:hr>
<tp1:cad>0</tp1:cad>
</tp1:TrackPointExtension>
</extensions>
</trkpt>
<trkpt lat="51.7928420" lon="14.0210020">
<ele>12.2040000</ele>
<time>2010-06-27T08:05:23Z</time>
<extensions>
<tp1:TrackPointExtension>
<tp1:hr>109</tp1:hr>
<tp1:cad>68</tp1:cad>
</tp1:TrackPointExtension>
</extensions>
</trkpt>
<trkpt lat="51.7933940" lon="14.0214730">
<ele>11.5580000</ele>
<time>2010-06-27T08:05:31Z</time>
<extensions>
<tp1:TrackPointExtension>
<tp1:hr>113</tp1:hr>
<tp1:cad>81</tp1:cad>
</tp1:TrackPointExtension>
</extensions>
</trkpt>
<trkpt lat="51.7937450" lon="14.0218360">
<ele>11.4550000</ele>
<time>2010-06-27T08:05:36Z</time>
<extensions>
<tp1:TrackPointExtension>
<tp1:hr>112</tp1:hr>
<tp1:cad>83</tp1:cad>
</tp1:TrackPointExtension>
</extensions>
</trkpt>
<trkpt lat="51.7941150" lon="14.0224020">
<ele>11.6910000</ele>
<time>2010-06-27T08:05:42Z</time>
<extensions>
<tp1:TrackPointExtension>
<tp1:hr>113</tp1:hr>
<tp1:cad>34</tp1:cad>
</tp1:TrackPointExtension>
</extensions>
</trkpt>
<trkpt lat="51.7945250" lon="14.0231090">
<ele>11.5130000</ele>
<time>2010-06-27T08:05:49Z</time>
<extensions>
<tp1:TrackPointExtension>
<tp1:hr>116</tp1:hr>
<tp1:cad>84</tp1:cad>
</tp1:TrackPointExtension>
</extensions>
</trkpt>
<trkpt lat="51.7947910" lon="14.0234080">
<ele>11.0990000</ele>
<time>2010-06-27T08:05:53Z</time>
<extensions>
<tp1:TrackPointExtension>
<tp1:hr>118</tp1:hr>
<tp1:cad>0</tp1:cad>
</tp1:TrackPointExtension>
</extensions>
</trkpt>
<trkpt lat="51.7949680" lon="14.0237640">
<ele>11.3230000</ele>
<time>2010-06-27T08:05:57Z</time>
<extensions>
<tp1:TrackPointExtension>
<tp1:hr>119</tp1:hr>
<tp1:cad>80</tp1:cad>
</tp1:TrackPointExtension>
</extensions>
</trkpt>
<trkpt lat="51.7951950" lon="14.0248420">
<ele>10.1680000</ele>
<time>2010-06-27T08:06:06Z</time>
<extensions>
<tp1:TrackPointExtension>
<tp1:hr>121</tp1:hr>
<tp1:cad>0</tp1:cad>
</tp1:TrackPointExtension>
</extensions>
</trkpt>
<trkpt lat="51.7954660" lon="14.0258420">
<ele>8.6380000</ele>
<time>2010-06-27T08:06:13Z</time>
<extensions>
<tp1:TrackPointExtension>
<tp1:hr>120</tp1:hr>
<tp1:cad>0</tp1:cad>
</tp1:TrackPointExtension>
</extensions>
</trkpt>
<trkpt lat="51.7956640" lon="14.0269050">
<ele>7.9370000</ele>
<time>2010-06-27T08:06:21Z</time>
<extensions>
<tp1:TrackPointExtension>
<tp1:hr>117</tp1:hr>
<tp1:cad>21</tp1:cad>
</tp1:TrackPointExtension>
</extensions>
</trkpt>
<trkpt lat="51.7957310" lon="14.0278700">
<ele>6.9310000</ele>
<time>2010-06-27T08:06:28Z</time>
<extensions>
<tp1:TrackPointExtension>
<tp1:hr>111</tp1:hr>
<tp1:cad>0</tp1:cad>
</tp1:TrackPointExtension>
</extensions>
</trkpt>
<trkpt lat="51.7957310" lon="14.0284910">
<ele>6.8500000</ele>
<time>2010-06-27T08:06:33Z</time>
<extensions>
<tp1:TrackPointExtension>
<tp1:hr>107</tp1:hr>
<tp1:cad>0</tp1:cad>
</tp1:TrackPointExtension>
</extensions>
</trkpt>
<trkpt lat="51.7957310" lon="14.0286990">
<ele>6.8180000</ele>
<time>2010-06-27T08:06:35Z</time>
<extensions>
<tp1:TrackPointExtension>
<tp1:hr>107</tp1:hr>
<tp1:cad>0</tp1:cad>
</tp1:TrackPointExtension>
</extensions>
</trkpt>
<trkpt lat="51.7957740" lon="14.0289620">
<ele>6.8110000</ele>
<time>2010-06-27T08:06:39Z</time>
<extensions>
<tp1:TrackPointExtension>
<tp1:hr>108</tp1:hr>
<tp1:cad>59</tp1:cad>
</tp1:TrackPointExtension>
</extensions>
</trkpt>
<trkpt lat="51.7958240" lon="14.0289940">
<ele>6.8920000</ele>
<time>2010-06-27T08:06:40Z</time>
<extensions>
<tp1:TrackPointExtension>
<tp1:hr>108</tp1:hr>
<tp1:cad>63</tp1:cad>
</tp1:TrackPointExtension>
</extensions>
</trkpt>
<trkpt lat="51.7962240" lon="14.0292530">
<ele>7.7330000</ele>
<time>2010-06-27T08:06:46Z</time>
<extensions>
<tp1:TrackPointExtension>
<tp1:hr>110</tp1:hr>
<tp1:cad>83</tp1:cad>
</tp1:TrackPointExtension>
</extensions>
</trkpt>
<trkpt lat="51.7966100" lon="14.0295160">
<ele>7.7080000</ele>
<time>2010-06-27T08:06:51Z</time>
<extensions>
<tp1:TrackPointExtension>
<tp1:hr>116</tp1:hr>
<tp1:cad>28</tp1:cad>
</tp1:TrackPointExtension>
</extensions>
</trkpt>
<trkpt lat="51.7966800" lon="14.0295810">
<ele>7.8160000</ele>
<time>2010-06-27T08:06:52Z</time>
<extensions>
<tp1:TrackPointExtension>
<tp1:hr>115</tp1:hr>
<tp1:cad>80</tp1:cad>
</tp1:TrackPointExtension>
</extensions>
</trkpt>
<trkpt lat="51.7971340" lon="14.0301190">
<ele>8.1160000</ele>
<time>2010-06-27T08:06:59Z</time>
<extensions>
<tp1:TrackPointExtension>
<tp1:hr>119</tp1:hr>
<tp1:cad>77</tp1:cad>
</tp1:TrackPointExtension>
</extensions>
</trkpt>
<trkpt lat="51.7974010" lon="14.0303250">
<ele>8.6190000</ele>
<time>2010-06-27T08:07:03Z</time>
<extensions>
<tp1:TrackPointExtension>
<tp1:hr>121</tp1:hr>
<tp1:cad>77</tp1:cad>
</tp1:TrackPointExtension>
</extensions>
</trkpt>
<trkpt lat="51.7980940" lon="14.0303970">
<ele>9.0190000</ele>
<time>2010-06-27T08:07:12Z</time>
<extensions>
<tp1:TrackPointExtension>
<tp1:hr>125</tp1:hr>
<tp1:cad>0</tp1:cad>
</tp1:TrackPointExtension>
</extensions>
</trkpt>
<trkpt lat="51.7983200" lon="14.0304460">
<ele>8.4110000</ele>
<time>2010-06-27T08:07:15Z</time>
<extensions>
<tp1:TrackPointExtension>
<tp1:hr>126</tp1:hr>
<tp1:cad>77</tp1:cad>
</tp1:TrackPointExtension>
</extensions>
</trkpt>
<trkpt lat="51.7988020" lon="14.0303710">
<ele>6.8640000</ele>
<time>2010-06-27T08:07:21Z</time>
<extensions>
<tp1:TrackPointExtension>
<tp1:hr>128</tp1:hr>
<tp1:cad>0</tp1:cad>
</tp1:TrackPointExtension>
</extensions>
</trkpt>
<trkpt lat="51.7993340" lon="14.0301810">
<ele>6.1040000</ele>
<time>2010-06-27T08:07:28Z</time>
<extensions>
<tp1:TrackPointExtension>
<tp1:hr>124</tp1:hr>
<tp1:cad>0</tp1:cad>
</tp1:TrackPointExtension>
</extensions>
</trkpt>
<trkpt lat="51.7998080" lon="14.0301300">
<ele>4.5820000</ele>
<time>2010-06-27T08:07:34Z</time>
<extensions>
<tp1:TrackPointExtension>
<tp1:hr>119</tp1:hr>
<tp1:cad>80</tp1:cad>
</tp1:TrackPointExtension>
</extensions>
</trkpt>
<trkpt lat="51.8003190" lon="14.0299790">
<ele>4.2150000</ele>
<time>2010-06-27T08:07:40Z</time>
<extensions>
<tp1:TrackPointExtension>
<tp1:hr>114</tp1:hr>
<tp1:cad>0</tp1:cad>
</tp1:TrackPointExtension>
</extensions>
</trkpt>
<trkpt lat="51.8006340" lon="14.0298740">
<ele>2.7940000</ele>
<time>2010-06-27T08:07:44Z</time>
<extensions>
<tp1:TrackPointExtension>
<tp1:hr>109</tp1:hr>
<tp1:cad>0</tp1:cad>
</tp1:TrackPointExtension>
</extensions>
</trkpt>
<trkpt lat="51.8009600" lon="14.0297270">
<ele>2.0130000</ele>
<time>2010-06-27T08:07:49Z</time>
<extensions>
<tp1:TrackPointExtension>
<tp1:hr>104</tp1:hr>
<tp1:cad>68</tp1:cad>
</tp1:TrackPointExtension>
</extensions>
</trkpt>
<trkpt lat="51.8013410" lon="14.0294930">
<ele>2.1260000</ele>
<time>2010-06-27T08:07:55Z</time>
<extensions>
<tp1:TrackPointExtension>
<tp1:hr>105</tp1:hr>
<tp1:cad>0</tp1:cad>
</tp1:TrackPointExtension>
</extensions>
</trkpt>
<trkpt lat="51.8014920" lon="14.0294510">
<ele>1.1370000</ele>
<time>2010-06-27T08:07:58Z</time>
<extensions>
<tp1:TrackPointExtension>
<tp1:hr>105</tp1:hr>
<tp1:cad>0</tp1:cad>
</tp1:TrackPointExtension>
</extensions>
</trkpt>
<trkpt lat="51.8015490" lon="14.0294350">
<ele>0.7930000</ele>
<time>2010-06-27T08:08:00Z</time>
<extensions>
<tp1:TrackPointExtension>
<tp1:hr>105</tp1:hr>
<tp1:cad>36</tp1:cad>
</tp1:TrackPointExtension>
</extensions>
</trkpt>
<trkpt lat="51.8016650" lon="14.0294020">
<ele>0.6000000</ele>
<time>2010-06-27T08:08:04Z</time>
<extensions>
<tp1:TrackPointExtension>
<tp1:hr>106</tp1:hr>
<tp1:cad>30</tp1:cad>
</tp1:TrackPointExtension>
</extensions>
</trkpt>
<trkpt lat="51.8017310" lon="14.0295240">
<ele>0.1240000</ele>
<time>2010-06-27T08:08:08Z</time>
<extensions>
<tp1:TrackPointExtension>
<tp1:hr>106</tp1:hr>
<tp1:cad>45</tp1:cad>
</tp1:TrackPointExtension>
</extensions>
</trkpt>
<trkpt lat="51.8015940" lon="14.0300770">
<ele>0.5940000</ele>
<time>2010-06-27T08:08:14Z</time>
<extensions>
<tp1:TrackPointExtension>
<tp1:hr>110</tp1:hr>
<tp1:cad>88</tp1:cad>
</tp1:TrackPointExtension>
</extensions>
</trkpt>
<trkpt lat="51.8014900" lon="14.0305720">
<ele>0.9840000</ele>
<time>2010-06-27T08:08:18Z</time>
<extensions>
<tp1:TrackPointExtension>
<tp1:hr>115</tp1:hr>
<tp1:cad>94</tp1:cad>
</tp1:TrackPointExtension>
</extensions>
</trkpt>
<trkpt lat="51.8014370" lon="14.0308260">
<ele>1.0670000</ele>
<time>2010-06-27T08:08:20Z</time>
<extensions>
<tp1:TrackPointExtension>
<tp1:hr>120</tp1:hr>
<tp1:cad>96</tp1:cad>
</tp1:TrackPointExtension>
</extensions>
</trkpt>
<trkpt lat="51.8011830" lon="14.0320340">
<ele>1.4880000</ele>
<time>2010-06-27T08:08:29Z</time>
<extensions>
<tp1:TrackPointExtension>
<tp1:hr>125</tp1:hr>
<tp1:cad>43</tp1:cad>
</tp1:TrackPointExtension>
</extensions>
</trkpt>
<trkpt lat="51.8010240" lon="14.0327890">
<ele>1.6740000</ele>
<time>2010-06-27T08:08:35Z</time>
<extensions>
<tp1:TrackPointExtension>
<tp1:hr>128</tp1:hr>
<tp1:cad>83</tp1:cad>
</tp1:TrackPointExtension>
</extensions>
</trkpt>
<trkpt lat="51.8007960" lon="14.0338740">
<ele>1.4760000</ele>
<time>2010-06-27T08:08:44Z</time>
<extensions>
<tp1:TrackPointExtension>
<tp1:hr>131</tp1:hr>
<tp1:cad>77</tp1:cad>
</tp1:TrackPointExtension>
</extensions>
</trkpt>
<trkpt lat="51.8006590" lon="14.0345270">
<ele>2.1730000</ele>
<time>2010-06-27T08:08:50Z</time>
<extensions>
<tp1:TrackPointExtension>
<tp1:hr>131</tp1:hr>
<tp1:cad>67</tp1:cad>
</tp1:TrackPointExtension>
</extensions>
</trkpt>
<trkpt lat="51.8004390" lon="14.0355760">
<ele>2.0780000</ele>
<time>2010-06-27T08:09:00Z</time>
<extensions>
<tp1:TrackPointExtension>
<tp1:hr>128</tp1:hr>
<tp1:cad>73</tp1:cad>
</tp1:TrackPointExtension>
</extensions>
</trkpt>
<trkpt lat="51.8002760" lon="14.0363500">
<ele>2.5900000</ele>
<time>2010-06-27T08:09:07Z</time>
<extensions>
<tp1:TrackPointExtension>
<tp1:hr>123</tp1:hr>
<tp1:cad>76</tp1:cad>
</tp1:TrackPointExtension>
</extensions>
</trkpt>
<trkpt lat="51.8001090" lon="14.0371450">
<ele>2.7410000</ele>
<time>2010-06-27T08:09:14Z</time>
<extensions>
<tp1:TrackPointExtension>
<tp1:hr>118</tp1:hr>
<tp1:cad>78</tp1:cad>
</tp1:TrackPointExtension>
</extensions>
</trkpt>
<trkpt lat="51.7998390" lon="14.0384300">
<ele>1.8320000</ele>
<time>2010-06-27T08:09:25Z</time>
<extensions>
<tp1:TrackPointExtension>
<tp1:hr>115</tp1:hr>
<tp1:cad>67</tp1:cad>
</tp1:TrackPointExtension>
</extensions>
</trkpt>
<trkpt lat="51.7996250" lon="14.0394500">
<ele>1.4140000</ele>
<time>2010-06-27T08:09:34Z</time>
<extensions>
<tp1:TrackPointExtension>
<tp1:hr>112</tp1:hr>
<tp1:cad>74</tp1:cad>
</tp1:TrackPointExtension>
</extensions>
</trkpt>
<trkpt lat="51.7994600" lon="14.0402370">
<ele>1.3440000</ele>
<time>2010-06-27T08:09:41Z</time>
<extensions>
<tp1:TrackPointExtension>
<tp1:hr>110</tp1:hr>
<tp1:cad>75</tp1:cad>
</tp1:TrackPointExtension>
</extensions>
</trkpt>
<trkpt lat="51.7992710" lon="14.0411340">
<ele>0.7980000</ele>
<time>2010-06-27T08:09:49Z</time>
<extensions>
<tp1:TrackPointExtension>
<tp1:hr>110</tp1:hr>
<tp1:cad>0</tp1:cad>
</tp1:TrackPointExtension>
</extensions>
</trkpt>
<trkpt lat="51.7991640" lon="14.0416430">
<ele>1.0680000</ele>
<time>2010-06-27T08:09:55Z</time>
<extensions>
<tp1:TrackPointExtension>
<tp1:hr>110</tp1:hr>
<tp1:cad>71</tp1:cad>
</tp1:TrackPointExtension>
</extensions>
</trkpt>
<trkpt lat="51.7989580" lon="14.0422170">
<ele>0.8270000</ele>
<time>2010-06-27T08:10:00Z</time>
<extensions>
<tp1:TrackPointExtension>
<tp1:hr>113</tp1:hr>
<tp1:cad>79</tp1:cad>
</tp1:TrackPointExtension>
</extensions>
</trkpt>
<trkpt lat="51.7986450" lon="14.0430080">
<ele>0.5570000</ele>
<time>2010-06-27T08:10:08Z</time>
<extensions>
<tp1:TrackPointExtension>
<tp1:hr>110</tp1:hr>
<tp1:cad>69</tp1:cad>
</tp1:TrackPointExtension>
</extensions>
</trkpt>
<trkpt lat="51.7984200" lon="14.0435020">
<ele>-0.0260000</ele>
<time>2010-06-27T08:10:14Z</time>
<extensions>
<tp1:TrackPointExtension>
<tp1:hr>110</tp1:hr>
<tp1:cad>0</tp1:cad>
</tp1:TrackPointExtension>
</extensions>
</trkpt>
<trkpt lat="51.7983120" lon="14.0437370">
<ele>-0.3040000</ele>
<time>2010-06-27T08:10:18Z</time>
<extensions>
<tp1:TrackPointExtension>
<tp1:hr>108</tp1:hr>
<tp1:cad>0</tp1:cad>
</tp1:TrackPointExtension>
</extensions>
</trkpt>
<trkpt lat="51.7983110" lon="14.0439900">
<ele>-0.4000000</ele>
<time>2010-06-27T08:10:22Z</time>
<extensions>
<tp1:TrackPointExtension>
<tp1:hr>106</tp1:hr>
<tp1:cad>57</tp1:cad>
</tp1:TrackPointExtension>
</extensions>
</trkpt>
<trkpt lat="51.7984720" lon="14.0440800">
<ele>-0.2590000</ele>
<time>2010-06-27T08:10:25Z</time>
<extensions>
<tp1:TrackPointExtension>
<tp1:hr>108</tp1:hr>
<tp1:cad>73</tp1:cad>
</tp1:TrackPointExtension>
</extensions>
</trkpt>
<trkpt lat="51.7989110" lon="14.0443240">
<ele>0.3970000</ele>
<time>2010-06-27T08:10:31Z</time>
<extensions>
<tp1:TrackPointExtension>
<tp1:hr>114</tp1:hr>
<tp1:cad>81</tp1:cad>
</tp1:TrackPointExtension>
</extensions>
</trkpt>
<trkpt lat="51.7990600" lon="14.0444080">
<ele>0.2210000</ele>
<time>2010-06-27T08:10:33Z</time>
<extensions>
<tp1:TrackPointExtension>
<tp1:hr>118</tp1:hr>
<tp1:cad>83</tp1:cad>
</tp1:TrackPointExtension>
</extensions>
</trkpt>
<trkpt lat="51.7994400" lon="14.0444630">
<ele>0.1390000</ele>
<time>2010-06-27T08:10:38Z</time>
<extensions>
<tp1:TrackPointExtension>
<tp1:hr>119</tp1:hr>
<tp1:cad>0</tp1:cad>
</tp1:TrackPointExtension>
</extensions>
</trkpt>
<trkpt lat="51.7999280" lon="14.0443870">
<ele>-0.2490000</ele>
<time>2010-06-27T08:10:45Z</time>
<extensions>
<tp1:TrackPointExtension>
<tp1:hr>119</tp1:hr>
<tp1:cad>64</tp1:cad>
</tp1:TrackPointExtension>
</extensions>
</trkpt>
<trkpt lat="51.8002460" lon="14.0445050">
<ele>-0.3730000</ele>
<time>2010-06-27T08:10:50Z</time>
<extensions>
<tp1:TrackPointExtension>
<tp1:hr>119</tp1:hr>
<tp1:cad>70</tp1:cad>
</tp1:TrackPointExtension>
</extensions>
</trkpt>
<trkpt lat="51.8004250" lon="14.0448020">
<ele>-0.2450000</ele>
<time>2010-06-27T08:10:54Z</time>
<extensions>
<tp1:TrackPointExtension>
<tp1:hr>120</tp1:hr>
<tp1:cad>0</tp1:cad>
</tp1:TrackPointExtension>
</extensions>
</trkpt>
<trkpt lat="51.8005980" lon="14.0450910">
<ele>-1.0280000</ele>
<time>2010-06-27T08:10:59Z</time>
<extensions>
<tp1:TrackPointExtension>
<tp1:hr>119</tp1:hr>
<tp1:cad>51</tp1:cad>
</tp1:TrackPointExtension>
</extensions>
</trkpt>
<trkpt lat="51.8004190" lon="14.0453430">
<ele>-1.1100000</ele>
<time>2010-06-27T08:11:02Z</time>
<extensions>
<tp1:TrackPointExtension>
<tp1:hr>119</tp1:hr>
<tp1:cad>70</tp1:cad>
</tp1:TrackPointExtension>
</extensions>
</trkpt>
<trkpt lat="51.7999490" lon="14.0459940">
<ele>-0.2090000</ele>
<time>2010-06-27T08:11:11Z</time>
<extensions>
<tp1:TrackPointExtension>
<tp1:hr>121</tp1:hr>
<tp1:cad>31</tp1:cad>
</tp1:TrackPointExtension>
</extensions>
</trkpt>
<trkpt lat="51.7995300" lon="14.0465950">
<ele>1.0130000</ele>
<time>2010-06-27T08:11:20Z</time>
<extensions>
<tp1:TrackPointExtension>
<tp1:hr>123</tp1:hr>
<tp1:cad>63</tp1:cad>
</tp1:TrackPointExtension>
</extensions>
</trkpt>
<trkpt lat="51.7992080" lon="14.0470560">
<ele>1.4520000</ele>
<time>2010-06-27T08:11:27Z</time>
<extensions>
<tp1:TrackPointExtension>
<tp1:hr>125</tp1:hr>
<tp1:cad>0</tp1:cad>
</tp1:TrackPointExtension>
</extensions>
</trkpt>
<trkpt lat="51.7991780" lon="14.0473030">
<ele>1.4540000</ele>
<time>2010-06-27T08:11:31Z</time>
<extensions>
<tp1:TrackPointExtension>
<tp1:hr>125</tp1:hr>
<tp1:cad>67</tp1:cad>
</tp1:TrackPointExtension>
</extensions>
</trkpt>
<trkpt lat="51.7992120" lon="14.0473780">
<ele>1.5070000</ele>
<time>2010-06-27T08:11:32Z</time>
<extensions>
<tp1:TrackPointExtension>
<tp1:hr>126</tp1:hr>
<tp1:cad>67</tp1:cad>
</tp1:TrackPointExtension>
</extensions>
</trkpt>
<trkpt lat="51.7995900" lon="14.0482120">
<ele>1.9220000</ele>
<time>2010-06-27T08:11:42Z</time>
<extensions>
<tp1:TrackPointExtension>
<tp1:hr>126</tp1:hr>
<tp1:cad>71</tp1:cad>
</tp1:TrackPointExtension>
</extensions>
</trkpt>
<trkpt lat="51.7996840" lon="14.0484200">
<ele>1.9720000</ele>
<time>2010-06-27T08:11:45Z</time>
<extensions>
<tp1:TrackPointExtension>
<tp1:hr>126</tp1:hr>
<tp1:cad>0</tp1:cad>
</tp1:TrackPointExtension>
</extensions>
</trkpt>
<trkpt lat="51.7997200" lon="14.0485000">
<ele>1.7650000</ele>
<time>2010-06-27T08:11:47Z</time>
<extensions>
<tp1:TrackPointExtension>
<tp1:hr>125</tp1:hr>
<tp1:cad>0</tp1:cad>
</tp1:TrackPointExtension>
</extensions>
</trkpt>
<trkpt lat="51.7997660" lon="14.0486020">
<ele>1.4750000</ele>
<time>2010-06-27T08:11:53Z</time>
<extensions>
<tp1:TrackPointExtension>
<tp1:hr>120</tp1:hr>
<tp1:cad>0</tp1:cad>
</tp1:TrackPointExtension>
</extensions>
</trkpt>
<trkpt lat="51.7997950" lon="14.0486650">
<ele>1.3420000</ele>
<time>2010-06-27T08:11:58Z</time>
<extensions>
<tp1:TrackPointExtension>
<tp1:hr>117</tp1:hr>
<tp1:cad>0</tp1:cad>
</tp1:TrackPointExtension>
</extensions>
</trkpt>
<trkpt lat="51.7998000" lon="14.0488520">
<ele>1.3420000</ele>
<time>2010-06-27T08:12:00Z</time>
<extensions>
<tp1:TrackPointExtension>
<tp1:hr>114</tp1:hr>
</tp1:TrackPointExtension>
</extensions>
</trkpt>
</trkseg>
<trkseg>
<trkpt lat="51.7999170" lon="14.0489420">
<ele>1.0630000</ele>
<time>2010-06-27T08:12:14Z</time>
<extensions>
<tp1:TrackPointExtension>
<tp1:hr>110</tp1:hr>
<tp1:cad>53</tp1:cad>
</tp1:TrackPointExtension>
</extensions>
</trkpt>
<trkpt lat="51.8001000" lon="14.0493640">
<ele>1.5200000</ele>
<time>2010-06-27T08:12:20Z</time>
<extensions>
<tp1:TrackPointExtension>
<tp1:hr>107</tp1:hr>
<tp1:cad>71</tp1:cad>
</tp1:TrackPointExtension>
</extensions>
</trkpt>
<trkpt lat="51.8003950" lon="14.0500310">
<ele>1.1900000</ele>
<time>2010-06-27T08:12:28Z</time>
<extensions>
<tp1:TrackPointExtension>
<tp1:hr>109</tp1:hr>
<tp1:cad>76</tp1:cad>
</tp1:TrackPointExtension>
</extensions>
</trkpt>
<trkpt lat="51.8007460" lon="14.0508240">
<ele>0.6370000</ele>
<time>2010-06-27T08:12:37Z</time>
<extensions>
<tp1:TrackPointExtension>
<tp1:hr>113</tp1:hr>
<tp1:cad>0</tp1:cad>
</tp1:TrackPointExtension>
</extensions>
</trkpt>
<trkpt lat="51.8009800" lon="14.0514210">
<ele>0.3210000</ele>
<time>2010-06-27T08:12:44Z</time>
<extensions>
<tp1:TrackPointExtension>
<tp1:hr>114</tp1:hr>
<tp1:cad>82</tp1:cad>
</tp1:TrackPointExtension>
</extensions>
</trkpt>
<trkpt lat="51.8013410" lon="14.0523100">
<ele>-0.2880000</ele>
<time>2010-06-27T08:12:53Z</time>
<extensions>
<tp1:TrackPointExtension>
<tp1:hr>115</tp1:hr>
<tp1:cad>40</tp1:cad>
</tp1:TrackPointExtension>
</extensions>
</trkpt>
<trkpt lat="51.8015860" lon="14.0531080">
<ele>-0.9430000</ele>
<time>2010-06-27T08:13:00Z</time>
<extensions>
<tp1:TrackPointExtension>
<tp1:hr>113</tp1:hr>
<tp1:cad>0</tp1:cad>
</tp1:TrackPointExtension>
</extensions>
</trkpt>
<trkpt lat="51.8016430" lon="14.0538410">
<ele>-2.3660000</ele>
<time>2010-06-27T08:13:06Z</time>
<extensions>
<tp1:TrackPointExtension>
<tp1:hr>110</tp1:hr>
<tp1:cad>82</tp1:cad>
</tp1:TrackPointExtension>
</extensions>
</trkpt>
<trkpt lat="51.8017580" lon="14.0546290">
<ele>-2.7170000</ele>
<time>2010-06-27T08:13:13Z</time>
<extensions>
<tp1:TrackPointExtension>
<tp1:hr>110</tp1:hr>
<tp1:cad>82</tp1:cad>
</tp1:TrackPointExtension>
</extensions>
</trkpt>
<trkpt lat="51.8019420" lon="14.0549880">
<ele>-3.5050000</ele>
<time>2010-06-27T08:13:17Z</time>
<extensions>
<tp1:TrackPointExtension>
<tp1:hr>110</tp1:hr>
<tp1:cad>0</tp1:cad>
</tp1:TrackPointExtension>
</extensions>
</trkpt>
<trkpt lat="51.8022370" lon="14.0551710">
<ele>-4.2190000</ele>
<time>2010-06-27T08:13:21Z</time>
<extensions>
<tp1:TrackPointExtension>
<tp1:hr>109</tp1:hr>
<tp1:cad>82</tp1:cad>
</tp1:TrackPointExtension>
</extensions>
</trkpt>
<trkpt lat="51.8022830" lon="14.0552620">
<ele>-4.2700000</ele>
<time>2010-06-27T08:13:22Z</time>
<extensions>
<tp1:TrackPointExtension>
<tp1:hr>109</tp1:hr>
<tp1:cad>84</tp1:cad>
</tp1:TrackPointExtension>
</extensions>
</trkpt>
<trkpt lat="51.8027520" lon="14.0564330">
<ele>-5.0080000</ele>
<time>2010-06-27T08:13:33Z</time>
<extensions>
<tp1:TrackPointExtension>
<tp1:hr>110</tp1:hr>
<tp1:cad>79</tp1:cad>
</tp1:TrackPointExtension>
</extensions>
</trkpt>
<trkpt lat="51.8029440" lon="14.0570890">
<ele>-4.9410000</ele>
<time>2010-06-27T08:13:39Z</time>
<extensions>
<tp1:TrackPointExtension>
<tp1:hr>110</tp1:hr>
<tp1:cad>78</tp1:cad>
</tp1:TrackPointExtension>
</extensions>
</trkpt>
<trkpt lat="51.8030830" lon="14.0579090">
<ele>-5.1410000</ele>
<time>2010-06-27T08:13:46Z</time>
<extensions>
<tp1:TrackPointExtension>
<tp1:hr>111</tp1:hr>
<tp1:cad>80</tp1:cad>
</tp1:TrackPointExtension>
</extensions>
</trkpt>
<trkpt lat="51.8031130" lon="14.0585100">
<ele>-5.2460000</ele>
<time>2010-06-27T08:13:51Z</time>
<extensions>
<tp1:TrackPointExtension>
<tp1:hr>111</tp1:hr>
<tp1:cad>0</tp1:cad>
</tp1:TrackPointExtension>
</extensions>
</trkpt>
<trkpt lat="51.8031700" lon="14.0588380">
<ele>-5.2480000</ele>
<time>2010-06-27T08:13:54Z</time>
<extensions>
<tp1:TrackPointExtension>
<tp1:hr>110</tp1:hr>
<tp1:cad>0</tp1:cad>
</tp1:TrackPointExtension>
</extensions>
</trkpt>
<trkpt lat="51.8031720" lon="14.0592520">
<ele>-5.6530000</ele>
<time>2010-06-27T08:13:58Z</time>
<extensions>
<tp1:TrackPointExtension>
<tp1:hr>110</tp1:hr>
<tp1:cad>44</tp1:cad>
</tp1:TrackPointExtension>
</extensions>
</trkpt>
<trkpt lat="51.8031180" lon="14.0594550">
<ele>-5.7630000</ele>
<time>2010-06-27T08:14:00Z</time>
<extensions>
<tp1:TrackPointExtension>
<tp1:hr>110</tp1:hr>
<tp1:cad>75</tp1:cad>
</tp1:TrackPointExtension>
</extensions>
</trkpt>
<trkpt lat="51.8027840" lon="14.0604880">
<ele>-5.7490000</ele>
<time>2010-06-27T08:14:10Z</time>
<extensions>
<tp1:TrackPointExtension>
<tp1:hr>110</tp1:hr>
<tp1:cad>76</tp1:cad>
</tp1:TrackPointExtension>
</extensions>
</trkpt>
<trkpt lat="51.8025930" lon="14.0612600">
<ele>-5.6070000</ele>
<time>2010-06-27T08:14:17Z</time>
<extensions>
<tp1:TrackPointExtension>
<tp1:hr>109</tp1:hr>
<tp1:cad>79</tp1:cad>
</tp1:TrackPointExtension>
</extensions>
</trkpt>
<trkpt lat="51.8024530" lon="14.0622010">
<ele>-5.3470000</ele>
<time>2010-06-27T08:14:25Z</time>
<extensions>
<tp1:TrackPointExtension>
<tp1:hr>111</tp1:hr>
<tp1:cad>79</tp1:cad>
</tp1:TrackPointExtension>
</extensions>
</trkpt>
<trkpt lat="51.8023310" lon="14.0630190">
<ele>-4.9730000</ele>
<time>2010-06-27T08:14:32Z</time>
<extensions>
<tp1:TrackPointExtension>
<tp1:hr>115</tp1:hr>
<tp1:cad>81</tp1:cad>
</tp1:TrackPointExtension>
</extensions>
</trkpt>
<trkpt lat="51.8021740" lon="14.0641020">
<ele>-4.7560000</ele>
<time>2010-06-27T08:14:41Z</time>
<extensions>
<tp1:TrackPointExtension>
<tp1:hr>116</tp1:hr>
<tp1:cad>74</tp1:cad>
</tp1:TrackPointExtension>
</extensions>
</trkpt>
<trkpt lat="51.8020700" lon="14.0648530">
<ele>-3.4380000</ele>
<time>2010-06-27T08:14:48Z</time>
<extensions>
<tp1:TrackPointExtension>
<tp1:hr>118</tp1:hr>
<tp1:cad>24</tp1:cad>
</tp1:TrackPointExtension>
</extensions>
</trkpt>
<trkpt lat="51.8019860" lon="14.0654530">
<ele>-3.4280000</ele>
<time>2010-06-27T08:14:54Z</time>
<extensions>
<tp1:TrackPointExtension>
<tp1:hr>119</tp1:hr>
<tp1:cad>0</tp1:cad>
</tp1:TrackPointExtension>
</extensions>
</trkpt>
<trkpt lat="51.8019170" lon="14.0659440">
<ele>-3.2860000</ele>
<time>2010-06-27T08:15:00Z</time>
<extensions>
<tp1:TrackPointExtension>
<tp1:hr>119</tp1:hr>
<tp1:cad>0</tp1:cad>
</tp1:TrackPointExtension>
</extensions>
</trkpt>
<trkpt lat="51.8019060" lon="14.0660260">
<ele>-3.2980000</ele>
<time>2010-06-27T08:15:01Z</time>
<extensions>
<tp1:TrackPointExtension>
<tp1:hr>119</tp1:hr>
<tp1:cad>0</tp1:cad>
</tp1:TrackPointExtension>
</extensions>
</trkpt>
<trkpt lat="51.8018680" lon="14.0663020">
<ele>-3.5380000</ele>
<time>2010-06-27T08:15:06Z</time>
<extensions>
<tp1:TrackPointExtension>
<tp1:hr>119</tp1:hr>
<tp1:cad>0</tp1:cad>
</tp1:TrackPointExtension>
</extensions>
</trkpt>
<trkpt lat="51.8018530" lon="14.0664060">
<ele>-3.6810000</ele>
<time>2010-06-27T08:15:11Z</time>
<extensions>
<tp1:TrackPointExtension>
<tp1:hr>117</tp1:hr>
<tp1:cad>0</tp1:cad>
</tp1:TrackPointExtension>
</extensions>
</trkpt>
<trkpt lat="51.8018460" lon="14.0664570">
<ele>-3.6590000</ele>
<time>2010-06-27T08:15:17Z</time>
<extensions>
<tp1:TrackPointExtension>
<tp1:hr>113</tp1:hr>
<tp1:cad>0</tp1:cad>
</tp1:TrackPointExtension>
</extensions>
</trkpt>
<trkpt lat="51.8018450" lon="14.0664610">
<ele>-3.7100000</ele>
<time>2010-06-27T08:15:23Z</time>
<extensions>
<tp1:TrackPointExtension>
<tp1:hr>111</tp1:hr>
</tp1:TrackPointExtension>
</extensions>
</trkpt>
</trkseg>
<trkseg>
<trkpt lat="51.8018310" lon="14.0665660">
<ele>-3.5240000</ele>
<time>2010-06-27T08:15:33Z</time>
<extensions>
<tp1:TrackPointExtension>
<tp1:hr>111</tp1:hr>
<tp1:cad>34</tp1:cad>
</tp1:TrackPointExtension>
</extensions>
</trkpt>
<trkpt lat="51.8018050" lon="14.0667470">
<ele>-3.3340000</ele>
<time>2010-06-27T08:15:36Z</time>
<extensions>
<tp1:TrackPointExtension>
<tp1:hr>112</tp1:hr>
<tp1:cad>48</tp1:cad>
</tp1:TrackPointExtension>
</extensions>
</trkpt>
<trkpt lat="51.8017830" lon="14.0669060">
<ele>-3.2370000</ele>
<time>2010-06-27T08:15:38Z</time>
<extensions>
<tp1:TrackPointExtension>
<tp1:hr>112</tp1:hr>
<tp1:cad>56</tp1:cad>
</tp1:TrackPointExtension>
</extensions>
</trkpt>
<trkpt lat="51.8016960" lon="14.0675350">
<ele>-2.9260000</ele>
<time>2010-06-27T08:15:45Z</time>
<extensions>
<tp1:TrackPointExtension>
<tp1:hr>112</tp1:hr>
<tp1:cad>40</tp1:cad>
</tp1:TrackPointExtension>
</extensions>
</trkpt>
<trkpt lat="51.8016690" lon="14.0677250">
<ele>-2.8660000</ele>
<time>2010-06-27T08:15:47Z</time>
<extensions>
<tp1:TrackPointExtension>
<tp1:hr>112</tp1:hr>
<tp1:cad>64</tp1:cad>
</tp1:TrackPointExtension>
</extensions>
</trkpt>
<trkpt lat="51.8015790" lon="14.0683730">
<ele>-3.1080000</ele>
<time>2010-06-27T08:15:54Z</time>
<extensions>
<tp1:TrackPointExtension>
<tp1:hr>112</tp1:hr>
<tp1:cad>64</tp1:cad>
</tp1:TrackPointExtension>
</extensions>
</trkpt>
<trkpt lat="51.8015070" lon="14.0689720">
<ele>-3.5520000</ele>
<time>2010-06-27T08:16:00Z</time>
<extensions>
<tp1:TrackPointExtension>
<tp1:hr>114</tp1:hr>
<tp1:cad>0</tp1:cad>
</tp1:TrackPointExtension>
</extensions>
</trkpt>
<trkpt lat="51.8015840" lon="14.0694830">
<ele>-3.7400000</ele>
<time>2010-06-27T08:16:06Z</time>
<extensions>
<tp1:TrackPointExtension>
<tp1:hr>117</tp1:hr>
<tp1:cad>0</tp1:cad>
</tp1:TrackPointExtension>
</extensions>
</trkpt>
<trkpt lat="51.8017020" lon="14.0699720">
<ele>-3.9410000</ele>
<time>2010-06-27T08:16:12Z</time>
<extensions>
<tp1:TrackPointExtension>
<tp1:hr>118</tp1:hr>
<tp1:cad>0</tp1:cad>
</tp1:TrackPointExtension>
</extensions>
</trkpt>
<trkpt lat="51.8017810" lon="14.0703000">
<ele>-4.0420000</ele>
<time>2010-06-27T08:16:16Z</time>
<extensions>
<tp1:TrackPointExtension>
<tp1:hr>117</tp1:hr>
<tp1:cad>0</tp1:cad>
</tp1:TrackPointExtension>
</extensions>
</trkpt>
<trkpt lat="51.8018950" lon="14.0707730">
<ele>-4.2060000</ele>
<time>2010-06-27T08:16:22Z</time>
<extensions>
<tp1:TrackPointExtension>
<tp1:hr>111</tp1:hr>
<tp1:cad>0</tp1:cad>
</tp1:TrackPointExtension>
</extensions>
</trkpt>
<trkpt lat="51.8019830" lon="14.0711600">
<ele>-4.4800000</ele>
<time>2010-06-27T08:16:28Z</time>
<extensions>
<tp1:TrackPointExtension>
<tp1:hr>111</tp1:hr>
<tp1:cad>0</tp1:cad>
</tp1:TrackPointExtension>
</extensions>
</trkpt>
<trkpt lat="51.8020480" lon="14.0714720">
<ele>-4.4880000</ele>
<time>2010-06-27T08:16:34Z</time>
<extensions>
<tp1:TrackPointExtension>
<tp1:hr>111</tp1:hr>
<tp1:cad>0</tp1:cad>
</tp1:TrackPointExtension>
</extensions>
</trkpt>
<trkpt lat="51.8020700" lon="14.0715790">
<ele>-4.5380000</ele>
<time>2010-06-27T08:16:36Z</time>
<extensions>
<tp1:TrackPointExtension>
<tp1:hr>110</tp1:hr>
<tp1:cad>45</tp1:cad>
</tp1:TrackPointExtension>
</extensions>
</trkpt>
<trkpt lat="51.8018450" lon="14.0718400">
<ele>-4.9170000</ele>
<time>2010-06-27T08:16:41Z</time>
<extensions>
<tp1:TrackPointExtension>
<tp1:hr>111</tp1:hr>
<tp1:cad>56</tp1:cad>
</tp1:TrackPointExtension>
</extensions>
</trkpt>
<trkpt lat="51.8014970" lon="14.0721020">
<ele>-5.1810000</ele>
<time>2010-06-27T08:16:48Z</time>
<extensions>
<tp1:TrackPointExtension>
<tp1:hr>111</tp1:hr>
<tp1:cad>60</tp1:cad>
</tp1:TrackPointExtension>
</extensions>
</trkpt>
<trkpt lat="51.8010990" lon="14.0723900">
<ele>-5.7810000</ele>
<time>2010-06-27T08:16:56Z</time>
<extensions>
<tp1:TrackPointExtension>
<tp1:hr>113</tp1:hr>
<tp1:cad>0</tp1:cad>
</tp1:TrackPointExtension>
</extensions>
</trkpt>
<trkpt lat="51.8007780" lon="14.0725270">
<ele>-5.7610000</ele>
<time>2010-06-27T08:17:03Z</time>
<extensions>
<tp1:TrackPointExtension>
<tp1:hr>112</tp1:hr>
<tp1:cad>58</tp1:cad>
</tp1:TrackPointExtension>
</extensions>
</trkpt>
<trkpt lat="51.8003820" lon="14.0726960">
<ele>-5.4530000</ele>
<time>2010-06-27T08:17:10Z</time>
<extensions>
<tp1:TrackPointExtension>
<tp1:hr>112</tp1:hr>
<tp1:cad>0</tp1:cad>
</tp1:TrackPointExtension>
</extensions>
</trkpt>
<trkpt lat="51.7998210" lon="14.0729340">
<ele>-5.1060000</ele>
<time>2010-06-27T08:17:20Z</time>
<extensions>
<tp1:TrackPointExtension>
<tp1:hr>114</tp1:hr>
<tp1:cad>63</tp1:cad>
</tp1:TrackPointExtension>
</extensions>
</trkpt>
<trkpt lat="51.7992930" lon="14.0731590">
<ele>-4.8120000</ele>
<time>2010-06-27T08:17:29Z</time>
<extensions>
<tp1:TrackPointExtension>
<tp1:hr>116</tp1:hr>
<tp1:cad>44</tp1:cad>
</tp1:TrackPointExtension>
</extensions>
</trkpt>
<trkpt lat="51.7988470" lon="14.0733990">
<ele>-4.5180000</ele>
<time>2010-06-27T08:17:37Z</time>
<extensions>
<tp1:TrackPointExtension>
<tp1:hr>113</tp1:hr>
<tp1:cad>58</tp1:cad>
</tp1:TrackPointExtension>
</extensions>
</trkpt>
<trkpt lat="51.7985190" lon="14.0737030">
<ele>-4.4430000</ele>
<time>2010-06-27T08:17:44Z</time>
<extensions>
<tp1:TrackPointExtension>
<tp1:hr>110</tp1:hr>
<tp1:cad>0</tp1:cad>
</tp1:TrackPointExtension>
</extensions>
</trkpt>
<trkpt lat="51.7984740" lon="14.0737480">
<ele>-4.2680000</ele>
<time>2010-06-27T08:17:45Z</time>
<extensions>
<tp1:TrackPointExtension>
<tp1:hr>110</tp1:hr>
<tp1:cad>0</tp1:cad>
</tp1:TrackPointExtension>
</extensions>
</trkpt>
<trkpt lat="51.7983100" lon="14.0739110">
<ele>-4.0000000</ele>
<time>2010-06-27T08:17:49Z</time>
<extensions>
<tp1:TrackPointExtension>
<tp1:hr>109</tp1:hr>
<tp1:cad>0</tp1:cad>
</tp1:TrackPointExtension>
</extensions>
</trkpt>
<trkpt lat="51.7983210" lon="14.0741470">
<ele>-4.0360000</ele>
<time>2010-06-27T08:17:51Z</time>
<extensions>
<tp1:TrackPointExtension>
<tp1:hr>110</tp1:hr>
<tp1:cad>31</tp1:cad>
</tp1:TrackPointExtension>
</extensions>
</trkpt>
<trkpt lat="51.7983710" lon="14.0749380">
<ele>-3.9570000</ele>
<time>2010-06-27T08:18:00Z</time>
<extensions>
<tp1:TrackPointExtension>
<tp1:hr>111</tp1:hr>
<tp1:cad>58</tp1:cad>
</tp1:TrackPointExtension>
</extensions>
</trkpt>
<trkpt lat="51.7984280" lon="14.0758410">
<ele>-3.6120000</ele>
<time>2010-06-27T08:18:10Z</time>
<extensions>
<tp1:TrackPointExtension>
<tp1:hr>113</tp1:hr>
<tp1:cad>60</tp1:cad>
</tp1:TrackPointExtension>
</extensions>
</trkpt>
<trkpt lat="51.7984730" lon="14.0765360">
<ele>-3.1290000</ele>
<time>2010-06-27T08:18:17Z</time>
<extensions>
<tp1:TrackPointExtension>
<tp1:hr>112</tp1:hr>
<tp1:cad>78</tp1:cad>
</tp1:TrackPointExtension>
</extensions>
</trkpt>
<trkpt lat="51.7985360" lon="14.0775270">
<ele>-3.6400000</ele>
<time>2010-06-27T08:18:25Z</time>
<extensions>
<tp1:TrackPointExtension>
<tp1:hr>117</tp1:hr>
<tp1:cad>0</tp1:cad>
</tp1:TrackPointExtension>
</extensions>
</trkpt>
<trkpt lat="51.7986200" lon="14.0788520">
<ele>-3.9080000</ele>
<time>2010-06-27T08:18:36Z</time>
<extensions>
<tp1:TrackPointExtension>
<tp1:hr>120</tp1:hr>
<tp1:cad>45</tp1:cad>
</tp1:TrackPointExtension>
</extensions>
</trkpt>
<trkpt lat="51.7987020" lon="14.0801440">
<ele>-3.8900000</ele>
<time>2010-06-27T08:18:47Z</time>
<extensions>
<tp1:TrackPointExtension>
<tp1:hr>116</tp1:hr>
<tp1:cad>76</tp1:cad>
</tp1:TrackPointExtension>
</extensions>
</trkpt>
<trkpt lat="51.7987820" lon="14.0814470">
<ele>-4.0300000</ele>
<time>2010-06-27T08:18:58Z</time>
<extensions>
<tp1:TrackPointExtension>
<tp1:hr>114</tp1:hr>
<tp1:cad>0</tp1:cad>
</tp1:TrackPointExtension>
</extensions>
</trkpt>
<trkpt lat="51.7988550" lon="14.0826380">
<ele>-3.8610000</ele>
<time>2010-06-27T08:19:08Z</time>
<extensions>
<tp1:TrackPointExtension>
<tp1:hr>113</tp1:hr>
<tp1:cad>79</tp1:cad>
</tp1:TrackPointExtension>
</extensions>
</trkpt>
<trkpt lat="51.7989350" lon="14.0839480">
<ele>-4.1100000</ele>
<time>2010-06-27T08:19:19Z</time>
<extensions>
<tp1:TrackPointExtension>
<tp1:hr>111</tp1:hr>
<tp1:cad>49</tp1:cad>
</tp1:TrackPointExtension>
</extensions>
</trkpt>
<trkpt lat="51.7989710" lon="14.0845360">
<ele>-4.1200000</ele>
<time>2010-06-27T08:19:24Z</time>
<extensions>
<tp1:TrackPointExtension>
<tp1:hr>106</tp1:hr>
<tp1:cad>79</tp1:cad>
</tp1:TrackPointExtension>
</extensions>
</trkpt>
<trkpt lat="51.7990540" lon="14.0858890">
<ele>-4.6090000</ele>
<time>2010-06-27T08:19:35Z</time>
<extensions>
<tp1:TrackPointExtension>
<tp1:hr>109</tp1:hr>
<tp1:cad>0</tp1:cad>
</tp1:TrackPointExtension>
</extensions>
</trkpt>
<trkpt lat="51.7991210" lon="14.0868270">
<ele>-4.8130000</ele>
<time>2010-06-27T08:19:43Z</time>
<extensions>
<tp1:TrackPointExtension>
<tp1:hr>109</tp1:hr>
<tp1:cad>77</tp1:cad>
</tp1:TrackPointExtension>
</extensions>
</trkpt>
<trkpt lat="51.7992150" lon="14.0880110">
<ele>-4.8640000</ele>
<time>2010-06-27T08:19:53Z</time>
<extensions>
<tp1:TrackPointExtension>
<tp1:hr>113</tp1:hr>
<tp1:cad>79</tp1:cad>
</tp1:TrackPointExtension>
</extensions>
</trkpt>
<trkpt lat="51.7992960" lon="14.0889230">
<ele>-4.7220000</ele>
<time>2010-06-27T08:20:01Z</time>
<extensions>
<tp1:TrackPointExtension>
<tp1:hr>113</tp1:hr>
<tp1:cad>75</tp1:cad>
</tp1:TrackPointExtension>
</extensions>
</trkpt>
<trkpt lat="51.7993510" lon="14.0895860">
<ele>-4.9410000</ele>
<time>2010-06-27T08:20:07Z</time>
<extensions>
<tp1:TrackPointExtension>
<tp1:hr>115</tp1:hr>
<tp1:cad>0</tp1:cad>
</tp1:TrackPointExtension>
</extensions>
</trkpt>
<trkpt lat="51.7993510" lon="14.0897920">
<ele>-5.0280000</ele>
<time>2010-06-27T08:20:09Z</time>
<extensions>
<tp1:TrackPointExtension>
<tp1:hr>115</tp1:hr>
<tp1:cad>0</tp1:cad>
</tp1:TrackPointExtension>
</extensions>
</trkpt>
<trkpt lat="51.7992660" lon="14.0900530">
<ele>-5.3120000</ele>
<time>2010-06-27T08:20:13Z</time>
<extensions>
<tp1:TrackPointExtension>
<tp1:hr>115</tp1:hr>
<tp1:cad>0</tp1:cad>
</tp1:TrackPointExtension>
</extensions>
</trkpt>
<trkpt lat="51.7992260" lon="14.0901150">
<ele>-5.3810000</ele>
<time>2010-06-27T08:20:16Z</time>
<extensions>
<tp1:TrackPointExtension>
<tp1:hr>115</tp1:hr>
</tp1:TrackPointExtension>
</extensions>
</trkpt>
<trkpt lat="51.7992200" lon="14.0901260">
<ele>-5.4080000</ele>
<time>2010-06-27T08:20:17Z</time>
<extensions>
<tp1:TrackPointExtension>
<tp1:hr>114</tp1:hr>
</tp1:TrackPointExtension>
</extensions>
</trkpt>
<trkpt lat="51.7991470" lon="14.0902560">
<ele>-5.5010000</ele>
<time>2010-06-27T08:20:19Z</time>
<extensions>
<tp1:TrackPointExtension>
<tp1:hr>115</tp1:hr>
</tp1:TrackPointExtension>
</extensions>
</trkpt>
</trkseg>
<trkseg>
<trkpt lat="51.7991830" lon="14.0903480">
<ele>-5.6890000</ele>
<time>2010-06-27T08:20:33Z</time>
<extensions>
<tp1:TrackPointExtension>
<tp1:hr>114</tp1:hr>
<tp1:cad>42</tp1:cad>
</tp1:TrackPointExtension>
</extensions>
</trkpt>
<trkpt lat="51.7992220" lon="14.0904510">
<ele>-5.6500000</ele>
<time>2010-06-27T08:20:35Z</time>
<extensions>
<tp1:TrackPointExtension>
<tp1:hr>114</tp1:hr>
<tp1:cad>46</tp1:cad>
</tp1:TrackPointExtension>
</extensions>
</trkpt>
<trkpt lat="51.7994100" lon="14.0908990">
<ele>-5.4980000</ele>
<time>2010-06-27T08:20:42Z</time>
<extensions>
<tp1:TrackPointExtension>
<tp1:hr>116</tp1:hr>
<tp1:cad>59</tp1:cad>
</tp1:TrackPointExtension>
</extensions>
</trkpt>
<trkpt lat="51.7997340" lon="14.0914100">
<ele>-5.5380000</ele>
<time>2010-06-27T08:20:50Z</time>
<extensions>
<tp1:TrackPointExtension>
<tp1:hr>116</tp1:hr>
<tp1:cad>68</tp1:cad>
</tp1:TrackPointExtension>
</extensions>
</trkpt>
<trkpt lat="51.7997950" lon="14.0914940">
<ele>-5.4020000</ele>
<time>2010-06-27T08:20:51Z</time>
<extensions>
<tp1:TrackPointExtension>
<tp1:hr>116</tp1:hr>
<tp1:cad>68</tp1:cad>
</tp1:TrackPointExtension>
</extensions>
</trkpt>
<trkpt lat="51.7998940" lon="14.0918760">
<ele>-5.2960000</ele>
<time>2010-06-27T08:20:55Z</time>
<extensions>
<tp1:TrackPointExtension>
<tp1:hr>117</tp1:hr>
<tp1:cad>73</tp1:cad>
</tp1:TrackPointExtension>
</extensions>
</trkpt>
<trkpt lat="51.7998940" lon="14.0919880">
<ele>-5.4420000</ele>
<time>2010-06-27T08:20:56Z</time>
<extensions>
<tp1:TrackPointExtension>
<tp1:hr>117</tp1:hr>
<tp1:cad>74</tp1:cad>
</tp1:TrackPointExtension>
</extensions>
</trkpt>
<trkpt lat="51.7998790" lon="14.0923270">
<ele>-5.7410000</ele>
<time>2010-06-27T08:20:59Z</time>
<extensions>
<tp1:TrackPointExtension>
<tp1:hr>118</tp1:hr>
<tp1:cad>77</tp1:cad>
</tp1:TrackPointExtension>
</extensions>
</trkpt>
<trkpt lat="51.7999250" lon="14.0933150">
<ele>-5.5850000</ele>
<time>2010-06-27T08:21:07Z</time>
<extensions>
<tp1:TrackPointExtension>
<tp1:hr>118</tp1:hr>
<tp1:cad>82</tp1:cad>
</tp1:TrackPointExtension>
</extensions>
</trkpt>
<trkpt lat="51.8000130" lon="14.0948190">
<ele>-5.4650000</ele>
<time>2010-06-27T08:21:19Z</time>
<extensions>
<tp1:TrackPointExtension>
<tp1:hr>120</tp1:hr>
<tp1:cad>74</tp1:cad>
</tp1:TrackPointExtension>
</extensions>
</trkpt>
<trkpt lat="51.8000890" lon="14.0956710">
<ele>-5.3390000</ele>
<time>2010-06-27T08:21:26Z</time>
<extensions>
<tp1:TrackPointExtension>
<tp1:hr>120</tp1:hr>
<tp1:cad>79</tp1:cad>
</tp1:TrackPointExtension>
</extensions>
</trkpt>
<trkpt lat="51.8002090" lon="14.0965890">
<ele>-5.0560000</ele>
<time>2010-06-27T08:21:34Z</time>
<extensions>
<tp1:TrackPointExtension>
<tp1:hr>120</tp1:hr>
<tp1:cad>76</tp1:cad>
</tp1:TrackPointExtension>
</extensions>
</trkpt>
<trkpt lat="51.8002720" lon="14.0969160">
<ele>-4.8960000</ele>
<time>2010-06-27T08:21:37Z</time>
<extensions>
<tp1:TrackPointExtension>
<tp1:hr>119</tp1:hr>
<tp1:cad>77</tp1:cad>
</tp1:TrackPointExtension>
</extensions>
</trkpt>
<trkpt lat="51.8006520" lon="14.0975790">
<ele>-4.7420000</ele>
<time>2010-06-27T08:21:45Z</time>
<extensions>
<tp1:TrackPointExtension>
<tp1:hr>117</tp1:hr>
<tp1:cad>75</tp1:cad>
</tp1:TrackPointExtension>
</extensions>
</trkpt>
<trkpt lat="51.8009810" lon="14.0981550">
<ele>-4.8670000</ele>
<time>2010-06-27T08:21:52Z</time>
<extensions>
<tp1:TrackPointExtension>
<tp1:hr>115</tp1:hr>
<tp1:cad>0</tp1:cad>
</tp1:TrackPointExtension>
</extensions>
</trkpt>
<trkpt lat="51.8010180" lon="14.0982210">
<ele>-4.9870000</ele>
<time>2010-06-27T08:21:53Z</time>
<extensions>
<tp1:TrackPointExtension>
<tp1:hr>115</tp1:hr>
<tp1:cad>0</tp1:cad>
</tp1:TrackPointExtension>
</extensions>
</trkpt>
<trkpt lat="51.8011810" lon="14.0985060">
<ele>-5.3170000</ele>
<time>2010-06-27T08:21:58Z</time>
<extensions>
<tp1:TrackPointExtension>
<tp1:hr>117</tp1:hr>
<tp1:cad>75</tp1:cad>
</tp1:TrackPointExtension>
</extensions>
</trkpt>
<trkpt lat="51.8015500" lon="14.0990860">
<ele>-5.3700000</ele>
<time>2010-06-27T08:22:04Z</time>
<extensions>
<tp1:TrackPointExtension>
<tp1:hr>120</tp1:hr>
<tp1:cad>89</tp1:cad>
</tp1:TrackPointExtension>
</extensions>
</trkpt>
<trkpt lat="51.8019800" lon="14.0997610">
<ele>-5.2330000</ele>
<time>2010-06-27T08:22:11Z</time>
<extensions>
<tp1:TrackPointExtension>
<tp1:hr>124</tp1:hr>
<tp1:cad>0</tp1:cad>
</tp1:TrackPointExtension>
</extensions>
</trkpt>
<trkpt lat="51.8022250" lon="14.1001470">
<ele>-5.3710000</ele>
<time>2010-06-27T08:22:16Z</time>
<extensions>
<tp1:TrackPointExtension>
<tp1:hr>124</tp1:hr>
<tp1:cad>76</tp1:cad>
</tp1:TrackPointExtension>
</extensions>
</trkpt>
<trkpt lat="51.8024910" lon="14.1005650">
<ele>-5.5360000</ele>
<time>2010-06-27T08:22:21Z</time>
<extensions>
<tp1:TrackPointExtension>
<tp1:hr>125</tp1:hr>
<tp1:cad>79</tp1:cad>
</tp1:TrackPointExtension>
</extensions>
</trkpt>
<trkpt lat="51.8027550" lon="14.1009810">
<ele>-5.6380000</ele>
<time>2010-06-27T08:22:26Z</time>
<extensions>
<tp1:TrackPointExtension>
<tp1:hr>125</tp1:hr>
<tp1:cad>83</tp1:cad>
</tp1:TrackPointExtension>
</extensions>
</trkpt>
<trkpt lat="51.8030360" lon="14.1014230">
<ele>-5.5050000</ele>
<time>2010-06-27T08:22:31Z</time>
<extensions>
<tp1:TrackPointExtension>
<tp1:hr>123</tp1:hr>
<tp1:cad>0</tp1:cad>
</tp1:TrackPointExtension>
</extensions>
</trkpt>
<trkpt lat="51.8034380" lon="14.1020550">
<ele>-5.7540000</ele>
<time>2010-06-27T08:22:39Z</time>
<extensions>
<tp1:TrackPointExtension>
<tp1:hr>120</tp1:hr>
<tp1:cad>71</tp1:cad>
</tp1:TrackPointExtension>
</extensions>
</trkpt>
<trkpt lat="51.8037390" lon="14.1025290">
<ele>-5.9390000</ele>
<time>2010-06-27T08:22:45Z</time>
<extensions>
<tp1:TrackPointExtension>
<tp1:hr>117</tp1:hr>
<tp1:cad>79</tp1:cad>
</tp1:TrackPointExtension>
</extensions>
</trkpt>
<trkpt lat="51.8039760" lon="14.1027520">
<ele>-5.8800000</ele>
<time>2010-06-27T08:22:49Z</time>
<extensions>
<tp1:TrackPointExtension>
<tp1:hr>116</tp1:hr>
<tp1:cad>81</tp1:cad>
</tp1:TrackPointExtension>
</extensions>
</trkpt>
<trkpt lat="51.8044180" lon="14.1027490">
<ele>-6.2230000</ele>
<time>2010-06-27T08:22:55Z</time>
<extensions>
<tp1:TrackPointExtension>
<tp1:hr>115</tp1:hr>
<tp1:cad>0</tp1:cad>
</tp1:TrackPointExtension>
</extensions>
</trkpt>
<trkpt lat="51.8048390" lon="14.1026140">
<ele>-6.2770000</ele>
<time>2010-06-27T08:23:01Z</time>
<extensions>
<tp1:TrackPointExtension>
<tp1:hr>115</tp1:hr>
<tp1:cad>80</tp1:cad>
</tp1:TrackPointExtension>
</extensions>
</trkpt>
<trkpt lat="51.8052690" lon="14.1024140">
<ele>-4.9550000</ele>
<time>2010-06-27T08:23:07Z</time>
<extensions>
<tp1:TrackPointExtension>
<tp1:hr>116</tp1:hr>
<tp1:cad>76</tp1:cad>
</tp1:TrackPointExtension>
</extensions>
</trkpt>
<trkpt lat="51.8057500" lon="14.1021020">
<ele>-5.5720000</ele>
<time>2010-06-27T08:23:14Z</time>
<extensions>
<tp1:TrackPointExtension>
<tp1:hr>118</tp1:hr>
<tp1:cad>78</tp1:cad>
</tp1:TrackPointExtension>
</extensions>
</trkpt>
<trkpt lat="51.8061980" lon="14.1016720">
<ele>-6.1300000</ele>
<time>2010-06-27T08:23:21Z</time>
<extensions>
<tp1:TrackPointExtension>
<tp1:hr>120</tp1:hr>
<tp1:cad>80</tp1:cad>
</tp1:TrackPointExtension>
</extensions>
</trkpt>
<trkpt lat="51.8067050" lon="14.1009740">
<ele>-5.0850000</ele>
<time>2010-06-27T08:23:30Z</time>
<extensions>
<tp1:TrackPointExtension>
<tp1:hr>120</tp1:hr>
<tp1:cad>78</tp1:cad>
</tp1:TrackPointExtension>
</extensions>
</trkpt>
<trkpt lat="51.8073980" lon="14.1000200">
<ele>-6.0510000</ele>
<time>2010-06-27T08:23:42Z</time>
<extensions>
<tp1:TrackPointExtension>
<tp1:hr>121</tp1:hr>
<tp1:cad>83</tp1:cad>
</tp1:TrackPointExtension>
</extensions>
</trkpt>
<trkpt lat="51.8079860" lon="14.0992120">
<ele>-5.5990000</ele>
<time>2010-06-27T08:23:52Z</time>
<extensions>
<tp1:TrackPointExtension>
<tp1:hr>121</tp1:hr>
<tp1:cad>78</tp1:cad>
</tp1:TrackPointExtension>
</extensions>
</trkpt>
<trkpt lat="51.8082720" lon="14.0988180">
<ele>-5.7600000</ele>
<time>2010-06-27T08:23:57Z</time>
<extensions>
<tp1:TrackPointExtension>
<tp1:hr>120</tp1:hr>
<tp1:cad>82</tp1:cad>
</tp1:TrackPointExtension>
</extensions>
</trkpt>
<trkpt lat="51.8087560" lon="14.0984420">
<ele>-6.8080000</ele>
<time>2010-06-27T08:24:04Z</time>
<extensions>
<tp1:TrackPointExtension>
<tp1:hr>120</tp1:hr>
<tp1:cad>82</tp1:cad>
</tp1:TrackPointExtension>
</extensions>
</trkpt>
<trkpt lat="51.8092450" lon="14.0981160">
<ele>-6.5500000</ele>
<time>2010-06-27T08:24:11Z</time>
<extensions>
<tp1:TrackPointExtension>
<tp1:hr>119</tp1:hr>
<tp1:cad>80</tp1:cad>
</tp1:TrackPointExtension>
</extensions>
</trkpt>
<trkpt lat="51.8095320" lon="14.0979570">
<ele>-6.0200000</ele>
<time>2010-06-27T08:24:15Z</time>
<extensions>
<tp1:TrackPointExtension>
<tp1:hr>119</tp1:hr>
<tp1:cad>79</tp1:cad>
</tp1:TrackPointExtension>
</extensions>
</trkpt>
<trkpt lat="51.8096770" lon="14.0979310">
<ele>-6.3450000</ele>
<time>2010-06-27T08:24:17Z</time>
<extensions>
<tp1:TrackPointExtension>
<tp1:hr>119</tp1:hr>
<tp1:cad>79</tp1:cad>
</tp1:TrackPointExtension>
</extensions>
</trkpt>
<trkpt lat="51.8101330" lon="14.0980190">
<ele>-6.9380000</ele>
<time>2010-06-27T08:24:23Z</time>
<extensions>
<tp1:TrackPointExtension>
<tp1:hr>118</tp1:hr>
<tp1:cad>85</tp1:cad>
</tp1:TrackPointExtension>
</extensions>
</trkpt>
<trkpt lat="51.8105930" lon="14.0982060">
<ele>-7.0270000</ele>
<time>2010-06-27T08:24:29Z</time>
<extensions>
<tp1:TrackPointExtension>
<tp1:hr>118</tp1:hr>
<tp1:cad>81</tp1:cad>
</tp1:TrackPointExtension>
</extensions>
</trkpt>
<trkpt lat="51.8114110" lon="14.0985350">
<ele>-7.0160000</ele>
<time>2010-06-27T08:24:40Z</time>
<extensions>
<tp1:TrackPointExtension>
<tp1:hr>117</tp1:hr>
<tp1:cad>78</tp1:cad>
</tp1:TrackPointExtension>
</extensions>
</trkpt>
<trkpt lat="51.8121430" lon="14.0988230">
<ele>-7.4920000</ele>
<time>2010-06-27T08:24:50Z</time>
<extensions>
<tp1:TrackPointExtension>
<tp1:hr>116</tp1:hr>
<tp1:cad>79</tp1:cad>
</tp1:TrackPointExtension>
</extensions>
</trkpt>
<trkpt lat="51.8127340" lon="14.0990590">
<ele>-7.0310000</ele>
<time>2010-06-27T08:24:58Z</time>
<extensions>
<tp1:TrackPointExtension>
<tp1:hr>117</tp1:hr>
<tp1:cad>79</tp1:cad>
</tp1:TrackPointExtension>
</extensions>
</trkpt>
<trkpt lat="51.8132380" lon="14.0992640">
<ele>-7.8120000</ele>
<time>2010-06-27T08:25:05Z</time>
<extensions>
<tp1:TrackPointExtension>
<tp1:hr>119</tp1:hr>
<tp1:cad>0</tp1:cad>
</tp1:TrackPointExtension>
</extensions>
</trkpt>
<trkpt lat="51.8135000" lon="14.0992560">
<ele>-7.7400000</ele>
<time>2010-06-27T08:25:09Z</time>
<extensions>
<tp1:TrackPointExtension>
<tp1:hr>118</tp1:hr>
<tp1:cad>79</tp1:cad>
</tp1:TrackPointExtension>
</extensions>
</trkpt>
<trkpt lat="51.8135620" lon="14.0991960">
<ele>-7.5690000</ele>
<time>2010-06-27T08:25:10Z</time>
<extensions>
<tp1:TrackPointExtension>
<tp1:hr>118</tp1:hr>
<tp1:cad>80</tp1:cad>
</tp1:TrackPointExtension>
</extensions>
</trkpt>
<trkpt lat="51.8140130" lon="14.0987640">
<ele>-7.0930000</ele>
<time>2010-06-27T08:25:17Z</time>
<extensions>
<tp1:TrackPointExtension>
<tp1:hr>119</tp1:hr>
<tp1:cad>83</tp1:cad>
</tp1:TrackPointExtension>
</extensions>
</trkpt>
<trkpt lat="51.8146110" lon="14.0983390">
<ele>-7.8120000</ele>
<time>2010-06-27T08:25:25Z</time>
<extensions>
<tp1:TrackPointExtension>
<tp1:hr>118</tp1:hr>
<tp1:cad>83</tp1:cad>
</tp1:TrackPointExtension>
</extensions>
</trkpt>
<trkpt lat="51.8149550" lon="14.0980780">
<ele>-6.7580000</ele>
<time>2010-06-27T08:25:30Z</time>
<extensions>
<tp1:TrackPointExtension>
<tp1:hr>118</tp1:hr>
<tp1:cad>79</tp1:cad>
</tp1:TrackPointExtension>
</extensions>
</trkpt>
<trkpt lat="51.8153030" lon="14.0978990">
<ele>-6.8710000</ele>
<time>2010-06-27T08:25:35Z</time>
<extensions>
<tp1:TrackPointExtension>
<tp1:hr>119</tp1:hr>
<tp1:cad>78</tp1:cad>
</tp1:TrackPointExtension>
</extensions>
</trkpt>
<trkpt lat="51.8156490" lon="14.0977270">
<ele>-7.3760000</ele>
<time>2010-06-27T08:25:40Z</time>
<extensions>
<tp1:TrackPointExtension>
<tp1:hr>119</tp1:hr>
<tp1:cad>82</tp1:cad>
</tp1:TrackPointExtension>
</extensions>
</trkpt>
<trkpt lat="51.8159870" lon="14.0973470">
<ele>-7.8620000</ele>
<time>2010-06-27T08:25:47Z</time>
<extensions>
<tp1:TrackPointExtension>
<tp1:hr>121</tp1:hr>
<tp1:cad>75</tp1:cad>
</tp1:TrackPointExtension>
</extensions>
</trkpt>
<trkpt lat="51.8159870" lon="14.0973470">
<ele>-7.9730000</ele>
<time>2010-06-27T08:25:49Z</time>
<extensions>
<tp1:TrackPointExtension>
<tp1:hr>121</tp1:hr>
<tp1:cad>75</tp1:cad>
</tp1:TrackPointExtension>
</extensions>
</trkpt>
<trkpt lat="51.8164660" lon="14.0970560">
<ele>-7.6620000</ele>
<time>2010-06-27T08:25:53Z</time>
<extensions>
<tp1:TrackPointExtension>
<tp1:hr>119</tp1:hr>
<tp1:cad>78</tp1:cad>
</tp1:TrackPointExtension>
</extensions>
</trkpt>
<trkpt lat="51.8165210" lon="14.0971160">
<ele>-7.5450000</ele>
<time>2010-06-27T08:25:54Z</time>
<extensions>
<tp1:TrackPointExtension>
<tp1:hr>119</tp1:hr>
<tp1:cad>81</tp1:cad>
</tp1:TrackPointExtension>
</extensions>
</trkpt>
<trkpt lat="51.8170560" lon="14.0976950">
<ele>-7.9890000</ele>
<time>2010-06-27T08:26:02Z</time>
<extensions>
<tp1:TrackPointExtension>
<tp1:hr>120</tp1:hr>
<tp1:cad>86</tp1:cad>
</tp1:TrackPointExtension>
</extensions>
</trkpt>
<trkpt lat="51.8175760" lon="14.0982600">
<ele>-8.2500000</ele>
<time>2010-06-27T08:26:10Z</time>
<extensions>
<tp1:TrackPointExtension>
<tp1:hr>121</tp1:hr>
<tp1:cad>84</tp1:cad>
</tp1:TrackPointExtension>
</extensions>
</trkpt>
<trkpt lat="51.8180990" lon="14.0988260">
<ele>-8.5170000</ele>
<time>2010-06-27T08:26:18Z</time>
<extensions>
<tp1:TrackPointExtension>
<tp1:hr>121</tp1:hr>
<tp1:cad>0</tp1:cad>
</tp1:TrackPointExtension>
</extensions>
</trkpt>
<trkpt lat="51.8186020" lon="14.0993710">
<ele>-8.4500000</ele>
<time>2010-06-27T08:26:26Z</time>
<extensions>
<tp1:TrackPointExtension>
<tp1:hr>120</tp1:hr>
<tp1:cad>79</tp1:cad>
</tp1:TrackPointExtension>
</extensions>
</trkpt>
<trkpt lat="51.8190380" lon="14.0998480">
<ele>-8.3740000</ele>
<time>2010-06-27T08:26:33Z</time>
<extensions>
<tp1:TrackPointExtension>
<tp1:hr>116</tp1:hr>
<tp1:cad>80</tp1:cad>
</tp1:TrackPointExtension>
</extensions>
</trkpt>
<trkpt lat="51.8193990" lon="14.1002440">
<ele>-7.9950000</ele>
<time>2010-06-27T08:26:41Z</time>
<extensions>
<tp1:TrackPointExtension>
<tp1:hr>115</tp1:hr>
<tp1:cad>72</tp1:cad>
</tp1:TrackPointExtension>
</extensions>
</trkpt>
<trkpt lat="51.8196140" lon="14.1004800">
<ele>-7.9860000</ele>
<time>2010-06-27T08:26:44Z</time>
<extensions>
<tp1:TrackPointExtension>
<tp1:hr>115</tp1:hr>
<tp1:cad>75</tp1:cad>
</tp1:TrackPointExtension>
</extensions>
</trkpt>
<trkpt lat="51.8200210" lon="14.1011240">
<ele>-8.1830000</ele>
<time>2010-06-27T08:26:51Z</time>
<extensions>
<tp1:TrackPointExtension>
<tp1:hr>115</tp1:hr>
<tp1:cad>0</tp1:cad>
</tp1:TrackPointExtension>
</extensions>
</trkpt>
<trkpt lat="51.8205310" lon="14.1018130">
<ele>-8.4810000</ele>
<time>2010-06-27T08:27:00Z</time>
<extensions>
<tp1:TrackPointExtension>
<tp1:hr>114</tp1:hr>
<tp1:cad>73</tp1:cad>
</tp1:TrackPointExtension>
</extensions>
</trkpt>
<trkpt lat="51.8208150" lon="14.1021970">
<ele>-8.4960000</ele>
<time>2010-06-27T08:27:08Z</time>
<extensions>
<tp1:TrackPointExtension>
<tp1:hr>114</tp1:hr>
<tp1:cad>73</tp1:cad>
</tp1:TrackPointExtension>
</extensions>
</trkpt>
<trkpt lat="51.8213160" lon="14.1028530">
<ele>-8.7690000</ele>
<time>2010-06-27T08:27:15Z</time>
<extensions>
<tp1:TrackPointExtension>
<tp1:hr>113</tp1:hr>
<tp1:cad>68</tp1:cad>
</tp1:TrackPointExtension>
</extensions>
</trkpt>
<trkpt lat="51.8216290" lon="14.1032640">
<ele>-8.4960000</ele>
<time>2010-06-27T08:27:21Z</time>
<extensions>
<tp1:TrackPointExtension>
<tp1:hr>111</tp1:hr>
<tp1:cad>72</tp1:cad>
</tp1:TrackPointExtension>
</extensions>
</trkpt>
<trkpt lat="51.8218370" lon="14.1035060">
<ele>-8.0850000</ele>
<time>2010-06-27T08:27:25Z</time>
<extensions>
<tp1:TrackPointExtension>
<tp1:hr>111</tp1:hr>
<tp1:cad>76</tp1:cad>
</tp1:TrackPointExtension>
</extensions>
</trkpt>
<trkpt lat="51.8222140" lon="14.1037930">
<ele>-8.3120000</ele>
<time>2010-06-27T08:27:31Z</time>
<extensions>
<tp1:TrackPointExtension>
<tp1:hr>110</tp1:hr>
<tp1:cad>76</tp1:cad>
</tp1:TrackPointExtension>
</extensions>
</trkpt>
<trkpt lat="51.8227180" lon="14.1037690">
<ele>-8.2950000</ele>
<time>2010-06-27T08:27:38Z</time>
<extensions>
<tp1:TrackPointExtension>
<tp1:hr>111</tp1:hr>
<tp1:cad>78</tp1:cad>
</tp1:TrackPointExtension>
</extensions>
</trkpt>
<trkpt lat="51.8232280" lon="14.1037390">
<ele>-8.3920000</ele>
<time>2010-06-27T08:27:45Z</time>
<extensions>
<tp1:TrackPointExtension>
<tp1:hr>111</tp1:hr>
<tp1:cad>78</tp1:cad>
</tp1:TrackPointExtension>
</extensions>
</trkpt>
<trkpt lat="51.8237310" lon="14.1037310">
<ele>-8.3610000</ele>
<time>2010-06-27T08:27:52Z</time>
<extensions>
<tp1:TrackPointExtension>
<tp1:hr>112</tp1:hr>
<tp1:cad>77</tp1:cad>
</tp1:TrackPointExtension>
</extensions>
</trkpt>
<trkpt lat="51.8243560" lon="14.1037200">
<ele>-8.0830000</ele>
<time>2010-06-27T08:28:01Z</time>
<extensions>
<tp1:TrackPointExtension>
<tp1:hr>114</tp1:hr>
<tp1:cad>79</tp1:cad>
</tp1:TrackPointExtension>
</extensions>
</trkpt>
<trkpt lat="51.8246130" lon="14.1037850">
<ele>-8.4440000</ele>
<time>2010-06-27T08:28:06Z</time>
<extensions>
<tp1:TrackPointExtension>
<tp1:hr>115</tp1:hr>
<tp1:cad>51</tp1:cad>
</tp1:TrackPointExtension>
</extensions>
</trkpt>
<trkpt lat="51.8251990" lon="14.1039170">
<ele>-8.7850000</ele>
<time>2010-06-27T08:28:12Z</time>
<extensions>
<tp1:TrackPointExtension>
<tp1:hr>115</tp1:hr>
<tp1:cad>80</tp1:cad>
</tp1:TrackPointExtension>
</extensions>
</trkpt>
<trkpt lat="51.8256580" lon="14.1040220">
<ele>-8.7350000</ele>
<time>2010-06-27T08:28:18Z</time>
<extensions>
<tp1:TrackPointExtension>
<tp1:hr>114</tp1:hr>
<tp1:cad>78</tp1:cad>
</tp1:TrackPointExtension>
</extensions>
</trkpt>
<trkpt lat="51.8261690" lon="14.1040900">
<ele>-8.2460000</ele>
<time>2010-06-27T08:28:25Z</time>
<extensions>
<tp1:TrackPointExtension>
<tp1:hr>114</tp1:hr>
<tp1:cad>81</tp1:cad>
</tp1:TrackPointExtension>
</extensions>
</trkpt>
<trkpt lat="51.8265980" lon="14.1041270">
<ele>-8.7240000</ele>
<time>2010-06-27T08:28:31Z</time>
<extensions>
<tp1:TrackPointExtension>
<tp1:hr>114</tp1:hr>
<tp1:cad>22</tp1:cad>
</tp1:TrackPointExtension>
</extensions>
</trkpt>
<trkpt lat="51.8269640" lon="14.1041110">
<ele>-8.7600000</ele>
<time>2010-06-27T08:28:36Z</time>
<extensions>
<tp1:TrackPointExtension>
<tp1:hr>114</tp1:hr>
<tp1:cad>79</tp1:cad>
</tp1:TrackPointExtension>
</extensions>
</trkpt>
<trkpt lat="51.8274340" lon="14.1040130">
<ele>-8.3680000</ele>
<time>2010-06-27T08:28:42Z</time>
<extensions>
<tp1:TrackPointExtension>
<tp1:hr>115</tp1:hr>
<tp1:cad>80</tp1:cad>
</tp1:TrackPointExtension>
</extensions>
</trkpt>
<trkpt lat="51.8279760" lon="14.1038100">
<ele>-8.6970000</ele>
<time>2010-06-27T08:28:49Z</time>
<extensions>
<tp1:TrackPointExtension>
<tp1:hr>114</tp1:hr>
<tp1:cad>80</tp1:cad>
</tp1:TrackPointExtension>
</extensions>
</trkpt>
<trkpt lat="51.8284470" lon="14.1037210">
<ele>-8.1970000</ele>
<time>2010-06-27T08:28:55Z</time>
<extensions>
<tp1:TrackPointExtension>
<tp1:hr>114</tp1:hr>
<tp1:cad>82</tp1:cad>
</tp1:TrackPointExtension>
</extensions>
</trkpt>
<trkpt lat="51.8287440" lon="14.1037220">
<ele>-8.5250000</ele>
<time>2010-06-27T08:28:59Z</time>
<extensions>
<tp1:TrackPointExtension>
<tp1:hr>114</tp1:hr>
<tp1:cad>80</tp1:cad>
</tp1:TrackPointExtension>
</extensions>
</trkpt>
<trkpt lat="51.8288930" lon="14.1037470">
<ele>-8.7200000</ele>
<time>2010-06-27T08:29:01Z</time>
<extensions>
<tp1:TrackPointExtension>
<tp1:hr>114</tp1:hr>
<tp1:cad>76</tp1:cad>
</tp1:TrackPointExtension>
</extensions>
</trkpt>
<trkpt lat="51.8293550" lon="14.1038280">
<ele>-8.9430000</ele>
<time>2010-06-27T08:29:09Z</time>
<extensions>
<tp1:TrackPointExtension>
<tp1:hr>115</tp1:hr>
<tp1:cad>24</tp1:cad>
</tp1:TrackPointExtension>
</extensions>
</trkpt>
<trkpt lat="51.8300520" lon="14.1041250">
<ele>-9.1000000</ele>
<time>2010-06-27T08:29:17Z</time>
<extensions>
<tp1:TrackPointExtension>
<tp1:hr>112</tp1:hr>
<tp1:cad>79</tp1:cad>
</tp1:TrackPointExtension>
</extensions>
</trkpt>
<trkpt lat="51.8307210" lon="14.1043510">
<ele>-8.9110000</ele>
<time>2010-06-27T08:29:26Z</time>
<extensions>
<tp1:TrackPointExtension>
<tp1:hr>111</tp1:hr>
<tp1:cad>77</tp1:cad>
</tp1:TrackPointExtension>
</extensions>
</trkpt>
<trkpt lat="51.8312690" lon="14.1045360">
<ele>-8.7210000</ele>
<time>2010-06-27T08:29:34Z</time>
<extensions>
<tp1:TrackPointExtension>
<tp1:hr>113</tp1:hr>
<tp1:cad>0</tp1:cad>
</tp1:TrackPointExtension>
</extensions>
</trkpt>
<trkpt lat="51.8314600" lon="14.1046000">
<ele>-8.3800000</ele>
<time>2010-06-27T08:29:38Z</time>
<extensions>
<tp1:TrackPointExtension>
<tp1:hr>111</tp1:hr>
<tp1:cad>0</tp1:cad>
</tp1:TrackPointExtension>
</extensions>
</trkpt>
<trkpt lat="51.8315550" lon="14.1048150">
<ele>-8.2410000</ele>
<time>2010-06-27T08:29:42Z</time>
<extensions>
<tp1:TrackPointExtension>
<tp1:hr>110</tp1:hr>
<tp1:cad>66</tp1:cad>
</tp1:TrackPointExtension>
</extensions>
</trkpt>
<trkpt lat="51.8316610" lon="14.1056550">
<ele>-9.2460000</ele>
<time>2010-06-27T08:29:49Z</time>
<extensions>
<tp1:TrackPointExtension>
<tp1:hr>114</tp1:hr>
<tp1:cad>82</tp1:cad>
</tp1:TrackPointExtension>
</extensions>
</trkpt>
<trkpt lat="51.8317230" lon="14.1066290">
<ele>-9.2210000</ele>
<time>2010-06-27T08:29:57Z</time>
<extensions>
<tp1:TrackPointExtension>
<tp1:hr>115</tp1:hr>
<tp1:cad>76</tp1:cad>
</tp1:TrackPointExtension>
</extensions>
</trkpt>
<trkpt lat="51.8317460" lon="14.1070440">
<ele>-9.4770000</ele>
<time>2010-06-27T08:30:01Z</time>
<extensions>
<tp1:TrackPointExtension>
<tp1:hr>116</tp1:hr>
<tp1:cad>0</tp1:cad>
</tp1:TrackPointExtension>
</extensions>
</trkpt>
<trkpt lat="51.8317880" lon="14.1076660">
<ele>-9.1550000</ele>
<time>2010-06-27T08:30:07Z</time>
<extensions>
<tp1:TrackPointExtension>
<tp1:hr>118</tp1:hr>
<tp1:cad>75</tp1:cad>
</tp1:TrackPointExtension>
</extensions>
</trkpt>
<trkpt lat="51.8318060" lon="14.1079220">
<ele>-8.9850000</ele>
<time>2010-06-27T08:30:09Z</time>
<extensions>
<tp1:TrackPointExtension>
<tp1:hr>118</tp1:hr>
<tp1:cad>82</tp1:cad>
</tp1:TrackPointExtension>
</extensions>
</trkpt>
<trkpt lat="51.8318330" lon="14.1083240">
<ele>-8.8890000</ele>
<time>2010-06-27T08:30:12Z</time>
<extensions>
<tp1:TrackPointExtension>
<tp1:hr>120</tp1:hr>
<tp1:cad>86</tp1:cad>
</tp1:TrackPointExtension>
</extensions>
</trkpt>
<trkpt lat="51.8318420" lon="14.1084400">
<ele>-8.8920000</ele>
<time>2010-06-27T08:30:13Z</time>
<extensions>
<tp1:TrackPointExtension>
<tp1:hr>120</tp1:hr>
<tp1:cad>86</tp1:cad>
</tp1:TrackPointExtension>
</extensions>
</trkpt>
<trkpt lat="51.8318810" lon="14.1090710">
<ele>-9.1480000</ele>
<time>2010-06-27T08:30:18Z</time>
<extensions>
<tp1:TrackPointExtension>
<tp1:hr>122</tp1:hr>
<tp1:cad>0</tp1:cad>
</tp1:TrackPointExtension>
</extensions>
</trkpt>
<trkpt lat="51.8319290" lon="14.1097230">
<ele>-9.2510000</ele>
<time>2010-06-27T08:30:24Z</time>
<extensions>
<tp1:TrackPointExtension>
<tp1:hr>122</tp1:hr>
<tp1:cad>76</tp1:cad>
</tp1:TrackPointExtension>
</extensions>
</trkpt>
<trkpt lat="51.8319950" lon="14.1105620">
<ele>-8.8950000</ele>
<time>2010-06-27T08:30:31Z</time>
<extensions>
<tp1:TrackPointExtension>
<tp1:hr>123</tp1:hr>
<tp1:cad>84</tp1:cad>
</tp1:TrackPointExtension>
</extensions>
</trkpt>
<trkpt lat="51.8319950" lon="14.1114480">
<ele>-9.5470000</ele>
<time>2010-06-27T08:30:38Z</time>
<extensions>
<tp1:TrackPointExtension>
<tp1:hr>124</tp1:hr>
<tp1:cad>82</tp1:cad>
</tp1:TrackPointExtension>
</extensions>
</trkpt>
<trkpt lat="51.8319910" lon="14.1122940">
<ele>-9.6840000</ele>
<time>2010-06-27T08:30:45Z</time>
<extensions>
<tp1:TrackPointExtension>
<tp1:hr>123</tp1:hr>
<tp1:cad>76</tp1:cad>
</tp1:TrackPointExtension>
</extensions>
</trkpt>
<trkpt lat="51.8319300" lon="14.1128540">
<ele>-9.6830000</ele>
<time>2010-06-27T08:30:50Z</time>
<extensions>
<tp1:TrackPointExtension>
<tp1:hr>121</tp1:hr>
<tp1:cad>76</tp1:cad>
</tp1:TrackPointExtension>
</extensions>
</trkpt>
<trkpt lat="51.8319180" lon="14.1137060">
<ele>-9.6110000</ele>
<time>2010-06-27T08:30:57Z</time>
<extensions>
<tp1:TrackPointExtension>
<tp1:hr>119</tp1:hr>
<tp1:cad>82</tp1:cad>
</tp1:TrackPointExtension>
</extensions>
</trkpt>
<trkpt lat="51.8319110" lon="14.1140610">
<ele>-9.7710000</ele>
<time>2010-06-27T08:31:00Z</time>
<extensions>
<tp1:TrackPointExtension>
<tp1:hr>119</tp1:hr>
<tp1:cad>82</tp1:cad>
</tp1:TrackPointExtension>
</extensions>
</trkpt>
<trkpt lat="51.8318400" lon="14.1148150">
<ele>-9.6780000</ele>
<time>2010-06-27T08:31:06Z</time>
<extensions>
<tp1:TrackPointExtension>
<tp1:hr>119</tp1:hr>
<tp1:cad>84</tp1:cad>
</tp1:TrackPointExtension>
</extensions>
</trkpt>
<trkpt lat="51.8317790" lon="14.1155670">
<ele>-9.7220000</ele>
<time>2010-06-27T08:31:12Z</time>
<extensions>
<tp1:TrackPointExtension>
<tp1:hr>120</tp1:hr>
<tp1:cad>81</tp1:cad>
</tp1:TrackPointExtension>
</extensions>
</trkpt>
<trkpt lat="51.8317300" lon="14.1161660">
<ele>-9.5740000</ele>
<time>2010-06-27T08:31:17Z</time>
<extensions>
<tp1:TrackPointExtension>
<tp1:hr>122</tp1:hr>
<tp1:cad>83</tp1:cad>
</tp1:TrackPointExtension>
</extensions>
</trkpt>
<trkpt lat="51.8316120" lon="14.1171590">
<ele>-9.3770000</ele>
<time>2010-06-27T08:31:25Z</time>
<extensions>
<tp1:TrackPointExtension>
<tp1:hr>120</tp1:hr>
<tp1:cad>73</tp1:cad>
</tp1:TrackPointExtension>
</extensions>
</trkpt>
<trkpt lat="51.8315100" lon="14.1179680">
<ele>-9.4610000</ele>
<time>2010-06-27T08:31:32Z</time>
<extensions>
<tp1:TrackPointExtension>
<tp1:hr>119</tp1:hr>
<tp1:cad>80</tp1:cad>
</tp1:TrackPointExtension>
</extensions>
</trkpt>
<trkpt lat="51.8314040" lon="14.1187940">
<ele>-9.2950000</ele>
<time>2010-06-27T08:31:39Z</time>
<extensions>
<tp1:TrackPointExtension>
<tp1:hr>116</tp1:hr>
<tp1:cad>80</tp1:cad>
</tp1:TrackPointExtension>
</extensions>
</trkpt>
<trkpt lat="51.8313140" lon="14.1193810">
<ele>-9.4630000</ele>
<time>2010-06-27T08:31:44Z</time>
<extensions>
<tp1:TrackPointExtension>
<tp1:hr>112</tp1:hr>
<tp1:cad>81</tp1:cad>
</tp1:TrackPointExtension>
</extensions>
</trkpt>
<trkpt lat="51.8311940" lon="14.1200740">
<ele>-9.1870000</ele>
<time>2010-06-27T08:31:50Z</time>
<extensions>
<tp1:TrackPointExtension>
<tp1:hr>112</tp1:hr>
<tp1:cad>82</tp1:cad>
</tp1:TrackPointExtension>
</extensions>
</trkpt>
<trkpt lat="51.8310830" lon="14.1208480">
<ele>-9.1540000</ele>
<time>2010-06-27T08:31:56Z</time>
<extensions>
<tp1:TrackPointExtension>
<tp1:hr>111</tp1:hr>
<tp1:cad>82</tp1:cad>
</tp1:TrackPointExtension>
</extensions>
</trkpt>
<trkpt lat="51.8309250" lon="14.1217330">
<ele>-9.0410000</ele>
<time>2010-06-27T08:32:03Z</time>
<extensions>
<tp1:TrackPointExtension>
<tp1:hr>111</tp1:hr>
<tp1:cad>85</tp1:cad>
</tp1:TrackPointExtension>
</extensions>
</trkpt>
<trkpt lat="51.8307610" lon="14.1224150">
<ele>-8.7890000</ele>
<time>2010-06-27T08:32:09Z</time>
<extensions>
<tp1:TrackPointExtension>
<tp1:hr>111</tp1:hr>
<tp1:cad>79</tp1:cad>
</tp1:TrackPointExtension>
</extensions>
</trkpt>
<trkpt lat="51.8305390" lon="14.1231680">
<ele>-8.7330000</ele>
<time>2010-06-27T08:32:16Z</time>
<extensions>
<tp1:TrackPointExtension>
<tp1:hr>111</tp1:hr>
<tp1:cad>0</tp1:cad>
</tp1:TrackPointExtension>
</extensions>
</trkpt>
<trkpt lat="51.8303960" lon="14.1237060">
<ele>-8.7310000</ele>
<time>2010-06-27T08:32:21Z</time>
<extensions>
<tp1:TrackPointExtension>
<tp1:hr>110</tp1:hr>
<tp1:cad>76</tp1:cad>
</tp1:TrackPointExtension>
</extensions>
</trkpt>
<trkpt lat="51.8302090" lon="14.1245040">
<ele>-7.8720000</ele>
<time>2010-06-27T08:32:28Z</time>
<extensions>
<tp1:TrackPointExtension>
<tp1:hr>111</tp1:hr>
<tp1:cad>80</tp1:cad>
</tp1:TrackPointExtension>
</extensions>
</trkpt>
<trkpt lat="51.8301860" lon="14.1246200">
<ele>-7.7740000</ele>
<time>2010-06-27T08:32:29Z</time>
<extensions>
<tp1:TrackPointExtension>
<tp1:hr>111</tp1:hr>
<tp1:cad>81</tp1:cad>
</tp1:TrackPointExtension>
</extensions>
</trkpt>
<trkpt lat="51.8300850" lon="14.1253020">
<ele>-7.9420000</ele>
<time>2010-06-27T08:32:35Z</time>
<extensions>
<tp1:TrackPointExtension>
<tp1:hr>113</tp1:hr>
<tp1:cad>85</tp1:cad>
</tp1:TrackPointExtension>
</extensions>
</trkpt>
<trkpt lat="51.8300550" lon="14.1256810">
<ele>-7.9800000</ele>
<time>2010-06-27T08:32:38Z</time>
<extensions>
<tp1:TrackPointExtension>
<tp1:hr>114</tp1:hr>
<tp1:cad>83</tp1:cad>
</tp1:TrackPointExtension>
</extensions>
</trkpt>
<trkpt lat="51.8299410" lon="14.1265200">
<ele>-7.9390000</ele>
<time>2010-06-27T08:32:45Z</time>
<extensions>
<tp1:TrackPointExtension>
<tp1:hr>114</tp1:hr>
<tp1:cad>82</tp1:cad>
</tp1:TrackPointExtension>
</extensions>
</trkpt>
<trkpt lat="51.8298730" lon="14.1270190">
<ele>-7.9710000</ele>
<time>2010-06-27T08:32:49Z</time>
<extensions>
<tp1:TrackPointExtension>
<tp1:hr>116</tp1:hr>
<tp1:cad>81</tp1:cad>
</tp1:TrackPointExtension>
</extensions>
</trkpt>
<trkpt lat="51.8297370" lon="14.1275530">
<ele>-8.0850000</ele>
<time>2010-06-27T08:32:54Z</time>
<extensions>
<tp1:TrackPointExtension>
<tp1:hr>116</tp1:hr>
<tp1:cad>0</tp1:cad>
</tp1:TrackPointExtension>
</extensions>
</trkpt>
<trkpt lat="51.8295840" lon="14.1280940">
<ele>-8.1850000</ele>
<time>2010-06-27T08:33:00Z</time>
<extensions>
<tp1:TrackPointExtension>
<tp1:hr>116</tp1:hr>
<tp1:cad>33</tp1:cad>
</tp1:TrackPointExtension>
</extensions>
</trkpt>
<trkpt lat="51.8294540" lon="14.1287090">
<ele>-7.7590000</ele>
<time>2010-06-27T08:33:06Z</time>
<extensions>
<tp1:TrackPointExtension>
<tp1:hr>116</tp1:hr>
<tp1:cad>78</tp1:cad>
</tp1:TrackPointExtension>
</extensions>
</trkpt>
<trkpt lat="51.8294140" lon="14.1291630">
<ele>-7.8440000</ele>
<time>2010-06-27T08:33:10Z</time>
<extensions>
<tp1:TrackPointExtension>
<tp1:hr>117</tp1:hr>
<tp1:cad>81</tp1:cad>
</tp1:TrackPointExtension>
</extensions>
</trkpt>
<trkpt lat="51.8294030" lon="14.1292890">
<ele>-7.9350000</ele>
<time>2010-06-27T08:33:11Z</time>
<extensions>
<tp1:TrackPointExtension>
<tp1:hr>117</tp1:hr>
<tp1:cad>82</tp1:cad>
</tp1:TrackPointExtension>
</extensions>
</trkpt>
<trkpt lat="51.8292670" lon="14.1304570">
<ele>-7.9500000</ele>
<time>2010-06-27T08:33:20Z</time>
<extensions>
<tp1:TrackPointExtension>
<tp1:hr>122</tp1:hr>
<tp1:cad>86</tp1:cad>
</tp1:TrackPointExtension>
</extensions>
</trkpt>
<trkpt lat="51.8291490" lon="14.1312190">
<ele>-7.7820000</ele>
<time>2010-06-27T08:33:26Z</time>
<extensions>
<tp1:TrackPointExtension>
<tp1:hr>123</tp1:hr>
<tp1:cad>87</tp1:cad>
</tp1:TrackPointExtension>
</extensions>
</trkpt>
<trkpt lat="51.8290580" lon="14.1319760">
<ele>-7.6020000</ele>
<time>2010-06-27T08:33:32Z</time>
<extensions>
<tp1:TrackPointExtension>
<tp1:hr>123</tp1:hr>
<tp1:cad>46</tp1:cad>
</tp1:TrackPointExtension>
</extensions>
</trkpt>
<trkpt lat="51.8289930" lon="14.1327000">
<ele>-7.1500000</ele>
<time>2010-06-27T08:33:38Z</time>
<extensions>
<tp1:TrackPointExtension>
<tp1:hr>122</tp1:hr>
<tp1:cad>83</tp1:cad>
</tp1:TrackPointExtension>
</extensions>
</trkpt>
<trkpt lat="51.8289380" lon="14.1335670">
<ele>-7.3520000</ele>
<time>2010-06-27T08:33:45Z</time>
<extensions>
<tp1:TrackPointExtension>
<tp1:hr>121</tp1:hr>
<tp1:cad>82</tp1:cad>
</tp1:TrackPointExtension>
</extensions>
</trkpt>
<trkpt lat="51.8288800" lon="14.1340260">
<ele>-7.5840000</ele>
<time>2010-06-27T08:33:49Z</time>
<extensions>
<tp1:TrackPointExtension>
<tp1:hr>120</tp1:hr>
<tp1:cad>0</tp1:cad>
</tp1:TrackPointExtension>
</extensions>
</trkpt>
<trkpt lat="51.8288020" lon="14.1344700">
<ele>-7.6790000</ele>
<time>2010-06-27T08:33:54Z</time>
<extensions>
<tp1:TrackPointExtension>
<tp1:hr>119</tp1:hr>
<tp1:cad>50</tp1:cad>
</tp1:TrackPointExtension>
</extensions>
</trkpt>
<trkpt lat="51.8287760" lon="14.1346190">
<ele>-7.1190000</ele>
<time>2010-06-27T08:33:58Z</time>
<extensions>
<tp1:TrackPointExtension>
<tp1:hr>118</tp1:hr>
<tp1:cad>55</tp1:cad>
</tp1:TrackPointExtension>
</extensions>
</trkpt>
<trkpt lat="51.8289260" lon="14.1348770">
<ele>-6.6980000</ele>
<time>2010-06-27T08:34:01Z</time>
<extensions>
<tp1:TrackPointExtension>
<tp1:hr>118</tp1:hr>
<tp1:cad>73</tp1:cad>
</tp1:TrackPointExtension>
</extensions>
</trkpt>
<trkpt lat="51.8289260" lon="14.1348770">
<ele>-6.6360000</ele>
<time>2010-06-27T08:34:02Z</time>
<extensions>
<tp1:TrackPointExtension>
<tp1:hr>118</tp1:hr>
<tp1:cad>76</tp1:cad>
</tp1:TrackPointExtension>
</extensions>
</trkpt>
<trkpt lat="51.8288620" lon="14.1354530">
<ele>-6.7720000</ele>
<time>2010-06-27T08:34:05Z</time>
<extensions>
<tp1:TrackPointExtension>
<tp1:hr>118</tp1:hr>
<tp1:cad>21</tp1:cad>
</tp1:TrackPointExtension>
</extensions>
</trkpt>
<trkpt lat="51.8286960" lon="14.1359130">
<ele>-6.9510000</ele>
<time>2010-06-27T08:34:09Z</time>
<extensions>
<tp1:TrackPointExtension>
<tp1:hr>118</tp1:hr>
<tp1:cad>82</tp1:cad>
</tp1:TrackPointExtension>
</extensions>
</trkpt>
<trkpt lat="51.8286070" lon="14.1361110">
<ele>-7.1290000</ele>
<time>2010-06-27T08:34:11Z</time>
<extensions>
<tp1:TrackPointExtension>
<tp1:hr>119</tp1:hr>
<tp1:cad>81</tp1:cad>
</tp1:TrackPointExtension>
</extensions>
</trkpt>
<trkpt lat="51.8284040" lon="14.1368530">
<ele>-7.1380000</ele>
<time>2010-06-27T08:34:17Z</time>
<extensions>
<tp1:TrackPointExtension>
<tp1:hr>122</tp1:hr>
<tp1:cad>58</tp1:cad>
</tp1:TrackPointExtension>
</extensions>
</trkpt>
<trkpt lat="51.8282090" lon="14.1375970">
<ele>-7.2240000</ele>
<time>2010-06-27T08:34:24Z</time>
<extensions>
<tp1:TrackPointExtension>
<tp1:hr>124</tp1:hr>
<tp1:cad>81</tp1:cad>
</tp1:TrackPointExtension>
</extensions>
</trkpt>
<trkpt lat="51.8280720" lon="14.1381240">
<ele>-7.8010000</ele>
<time>2010-06-27T08:34:29Z</time>
<extensions>
<tp1:TrackPointExtension>
<tp1:hr>122</tp1:hr>
<tp1:cad>0</tp1:cad>
</tp1:TrackPointExtension>
</extensions>
</trkpt>
<trkpt lat="51.8280110" lon="14.1383580">
<ele>-7.6650000</ele>
<time>2010-06-27T08:34:31Z</time>
<extensions>
<tp1:TrackPointExtension>
<tp1:hr>121</tp1:hr>
<tp1:cad>78</tp1:cad>
</tp1:TrackPointExtension>
</extensions>
</trkpt>
<trkpt lat="51.8277790" lon="14.1392490">
<ele>-7.6190000</ele>
<time>2010-06-27T08:34:39Z</time>
<extensions>
<tp1:TrackPointExtension>
<tp1:hr>118</tp1:hr>
<tp1:cad>76</tp1:cad>
</tp1:TrackPointExtension>
</extensions>
</trkpt>
<trkpt lat="51.8276110" lon="14.1398930">
<ele>-7.3310000</ele>
<time>2010-06-27T08:34:45Z</time>
<extensions>
<tp1:TrackPointExtension>
<tp1:hr>117</tp1:hr>
<tp1:cad>76</tp1:cad>
</tp1:TrackPointExtension>
</extensions>
</trkpt>
<trkpt lat="51.8273800" lon="14.1407760">
<ele>-7.6110000</ele>
<time>2010-06-27T08:34:53Z</time>
<extensions>
<tp1:TrackPointExtension>
<tp1:hr>118</tp1:hr>
<tp1:cad>80</tp1:cad>
</tp1:TrackPointExtension>
</extensions>
</trkpt>
<trkpt lat="51.8271700" lon="14.1415410">
<ele>-6.9610000</ele>
<time>2010-06-27T08:35:00Z</time>
<extensions>
<tp1:TrackPointExtension>
<tp1:hr>118</tp1:hr>
<tp1:cad>0</tp1:cad>
</tp1:TrackPointExtension>
</extensions>
</trkpt>
<trkpt lat="51.8269930" lon="14.1422370">
<ele>-6.7730000</ele>
<time>2010-06-27T08:35:07Z</time>
<extensions>
<tp1:TrackPointExtension>
<tp1:hr>119</tp1:hr>
<tp1:cad>0</tp1:cad>
</tp1:TrackPointExtension>
</extensions>
</trkpt>
<trkpt lat="51.8268810" lon="14.1427640">
<ele>-7.1410000</ele>
<time>2010-06-27T08:35:14Z</time>
<extensions>
<tp1:TrackPointExtension>
<tp1:hr>115</tp1:hr>
<tp1:cad>0</tp1:cad>
</tp1:TrackPointExtension>
</extensions>
</trkpt>
<trkpt lat="51.8268660" lon="14.1429270">
<ele>-7.0020000</ele>
<time>2010-06-27T08:35:17Z</time>
<extensions>
<tp1:TrackPointExtension>
<tp1:hr>110</tp1:hr>
<tp1:cad>0</tp1:cad>
</tp1:TrackPointExtension>
</extensions>
</trkpt>
<trkpt lat="51.8268660" lon="14.1430770">
<ele>-7.2310000</ele>
<time>2010-06-27T08:35:23Z</time>
<extensions>
<tp1:TrackPointExtension>
<tp1:hr>109</tp1:hr>
<tp1:cad>0</tp1:cad>
</tp1:TrackPointExtension>
</extensions>
</trkpt>
<trkpt lat="51.8268660" lon="14.1432020">
<ele>-6.8020000</ele>
<time>2010-06-27T08:35:27Z</time>
<extensions>
<tp1:TrackPointExtension>
<tp1:hr>110</tp1:hr>
<tp1:cad>27</tp1:cad>
</tp1:TrackPointExtension>
</extensions>
</trkpt>
<trkpt lat="51.8269590" lon="14.1432370">
<ele>-6.6520000</ele>
<time>2010-06-27T08:35:31Z</time>
<extensions>
<tp1:TrackPointExtension>
<tp1:hr>113</tp1:hr>
<tp1:cad>45</tp1:cad>
</tp1:TrackPointExtension>
</extensions>
</trkpt>
<trkpt lat="51.8272590" lon="14.1434420">
<ele>-6.2320000</ele>
<time>2010-06-27T08:35:37Z</time>
<extensions>
<tp1:TrackPointExtension>
<tp1:hr>115</tp1:hr>
<tp1:cad>66</tp1:cad>
</tp1:TrackPointExtension>
</extensions>
</trkpt>
<trkpt lat="51.8274860" lon="14.1438420">
<ele>-6.3300000</ele>
<time>2010-06-27T08:35:42Z</time>
<extensions>
<tp1:TrackPointExtension>
<tp1:hr>118</tp1:hr>
<tp1:cad>75</tp1:cad>
</tp1:TrackPointExtension>
</extensions>
</trkpt>
<trkpt lat="51.8278090" lon="14.1444480">
<ele>-6.4470000</ele>
<time>2010-06-27T08:35:49Z</time>
<extensions>
<tp1:TrackPointExtension>
<tp1:hr>119</tp1:hr>
<tp1:cad>71</tp1:cad>
</tp1:TrackPointExtension>
</extensions>
</trkpt>
<trkpt lat="51.8282110" lon="14.1451170">
<ele>-6.3630000</ele>
<time>2010-06-27T08:35:57Z</time>
<extensions>
<tp1:TrackPointExtension>
<tp1:hr>122</tp1:hr>
<tp1:cad>77</tp1:cad>
</tp1:TrackPointExtension>
</extensions>
</trkpt>
<trkpt lat="51.8286940" lon="14.1458710">
<ele>-5.6050000</ele>
<time>2010-06-27T08:36:06Z</time>
<extensions>
<tp1:TrackPointExtension>
<tp1:hr>123</tp1:hr>
<tp1:cad>83</tp1:cad>
</tp1:TrackPointExtension>
</extensions>
</trkpt>
<trkpt lat="51.8291030" lon="14.1464660">
<ele>-6.1600000</ele>
<time>2010-06-27T08:36:13Z</time>
<extensions>
<tp1:TrackPointExtension>
<tp1:hr>124</tp1:hr>
<tp1:cad>85</tp1:cad>
</tp1:TrackPointExtension>
</extensions>
</trkpt>
<trkpt lat="51.8295270" lon="14.1471290">
<ele>-6.2040000</ele>
<time>2010-06-27T08:36:22Z</time>
<extensions>
<tp1:TrackPointExtension>
<tp1:hr>128</tp1:hr>
<tp1:cad>83</tp1:cad>
</tp1:TrackPointExtension>
</extensions>
</trkpt>
<trkpt lat="51.8301580" lon="14.1480400">
<ele>-6.0450000</ele>
<time>2010-06-27T08:36:31Z</time>
<extensions>
<tp1:TrackPointExtension>
<tp1:hr>129</tp1:hr>
<tp1:cad>78</tp1:cad>
</tp1:TrackPointExtension>
</extensions>
</trkpt>
<trkpt lat="51.8305090" lon="14.1483630">
<ele>-6.0980000</ele>
<time>2010-06-27T08:36:36Z</time>
<extensions>
<tp1:TrackPointExtension>
<tp1:hr>128</tp1:hr>
<tp1:cad>0</tp1:cad>
</tp1:TrackPointExtension>
</extensions>
</trkpt>
<trkpt lat="51.8308760" lon="14.1485190">
<ele>-6.0810000</ele>
<time>2010-06-27T08:36:41Z</time>
<extensions>
<tp1:TrackPointExtension>
<tp1:hr>127</tp1:hr>
<tp1:cad>82</tp1:cad>
</tp1:TrackPointExtension>
</extensions>
</trkpt>
<trkpt lat="51.8314030" lon="14.1485940">
<ele>-5.8700000</ele>
<time>2010-06-27T08:36:48Z</time>
<extensions>
<tp1:TrackPointExtension>
<tp1:hr>127</tp1:hr>
<tp1:cad>82</tp1:cad>
</tp1:TrackPointExtension>
</extensions>
</trkpt>
<trkpt lat="51.8320910" lon="14.1486070">
<ele>-5.1270000</ele>
<time>2010-06-27T08:36:57Z</time>
<extensions>
<tp1:TrackPointExtension>
<tp1:hr>124</tp1:hr>
<tp1:cad>81</tp1:cad>
</tp1:TrackPointExtension>
</extensions>
</trkpt>
<trkpt lat="51.8325270" lon="14.1485260">
<ele>-5.1140000</ele>
<time>2010-06-27T08:37:03Z</time>
<extensions>
<tp1:TrackPointExtension>
<tp1:hr>123</tp1:hr>
<tp1:cad>82</tp1:cad>
</tp1:TrackPointExtension>
</extensions>
</trkpt>
<trkpt lat="51.8329670" lon="14.1482850">
<ele>-5.1470000</ele>
<time>2010-06-27T08:37:09Z</time>
<extensions>
<tp1:TrackPointExtension>
<tp1:hr>122</tp1:hr>
<tp1:cad>0</tp1:cad>
</tp1:TrackPointExtension>
</extensions>
</trkpt>
<trkpt lat="51.8334880" lon="14.1480550">
<ele>-5.2330000</ele>
<time>2010-06-27T08:37:16Z</time>
<extensions>
<tp1:TrackPointExtension>
<tp1:hr>120</tp1:hr>
<tp1:cad>84</tp1:cad>
</tp1:TrackPointExtension>
</extensions>
</trkpt>
<trkpt lat="51.8338660" lon="14.1480350">
<ele>-5.9970000</ele>
<time>2010-06-27T08:37:21Z</time>
<extensions>
<tp1:TrackPointExtension>
<tp1:hr>118</tp1:hr>
<tp1:cad>0</tp1:cad>
</tp1:TrackPointExtension>
</extensions>
</trkpt>
<trkpt lat="51.8340030" lon="14.1480590">
<ele>-6.1300000</ele>
<time>2010-06-27T08:37:23Z</time>
<extensions>
<tp1:TrackPointExtension>
<tp1:hr>118</tp1:hr>
<tp1:cad>0</tp1:cad>
</tp1:TrackPointExtension>
</extensions>
</trkpt>
<trkpt lat="51.8342050" lon="14.1480950">
<ele>-6.1510000</ele>
<time>2010-06-27T08:37:27Z</time>
<extensions>
<tp1:TrackPointExtension>
<tp1:hr>117</tp1:hr>
<tp1:cad>81</tp1:cad>
</tp1:TrackPointExtension>
</extensions>
</trkpt>
<trkpt lat="51.8343120" lon="14.1478590">
<ele>-6.1510000</ele>
<time>2010-06-27T08:37:28Z</time>
<extensions>
<tp1:TrackPointExtension>
<tp1:hr>117</tp1:hr>
<tp1:cad>83</tp1:cad>
</tp1:TrackPointExtension>
</extensions>
</trkpt>
<trkpt lat="51.8345550" lon="14.1473420">
<ele>-6.3460000</ele>
<time>2010-06-27T08:37:33Z</time>
<extensions>
<tp1:TrackPointExtension>
<tp1:hr>118</tp1:hr>
<tp1:cad>36</tp1:cad>
</tp1:TrackPointExtension>
</extensions>
</trkpt>
<trkpt lat="51.8349730" lon="14.1464500">
<ele>-5.5940000</ele>
<time>2010-06-27T08:37:41Z</time>
<extensions>
<tp1:TrackPointExtension>
<tp1:hr>122</tp1:hr>
<tp1:cad>88</tp1:cad>
</tp1:TrackPointExtension>
</extensions>
</trkpt>
<trkpt lat="51.8352900" lon="14.1456750">
<ele>-7.0760000</ele>
<time>2010-06-27T08:37:48Z</time>
<extensions>
<tp1:TrackPointExtension>
<tp1:hr>123</tp1:hr>
<tp1:cad>83</tp1:cad>
</tp1:TrackPointExtension>
</extensions>
</trkpt>
<trkpt lat="51.8355570" lon="14.1449830">
<ele>-6.4940000</ele>
<time>2010-06-27T08:37:55Z</time>
<extensions>
<tp1:TrackPointExtension>
<tp1:hr>123</tp1:hr>
<tp1:cad>81</tp1:cad>
</tp1:TrackPointExtension>
</extensions>
</trkpt>
<trkpt lat="51.8357880" lon="14.1443970">
<ele>-7.0020000</ele>
<time>2010-06-27T08:38:00Z</time>
<extensions>
<tp1:TrackPointExtension>
<tp1:hr>124</tp1:hr>
<tp1:cad>66</tp1:cad>
</tp1:TrackPointExtension>
</extensions>
</trkpt>
<trkpt lat="51.8360950" lon="14.1435820">
<ele>-6.9400000</ele>
<time>2010-06-27T08:38:08Z</time>
<extensions>
<tp1:TrackPointExtension>
<tp1:hr>124</tp1:hr>
<tp1:cad>66</tp1:cad>
</tp1:TrackPointExtension>
</extensions>
</trkpt>
<trkpt lat="51.8364470" lon="14.1426300">
<ele>-7.0070000</ele>
<time>2010-06-27T08:38:17Z</time>
<extensions>
<tp1:TrackPointExtension>
<tp1:hr>120</tp1:hr>
<tp1:cad>71</tp1:cad>
</tp1:TrackPointExtension>
</extensions>
</trkpt>
<trkpt lat="51.8368520" lon="14.1415620">
<ele>-6.9800000</ele>
<time>2010-06-27T08:38:27Z</time>
<extensions>
<tp1:TrackPointExtension>
<tp1:hr>116</tp1:hr>
<tp1:cad>83</tp1:cad>
</tp1:TrackPointExtension>
</extensions>
</trkpt>
<trkpt lat="51.8371480" lon="14.1408170">
<ele>-7.0380000</ele>
<time>2010-06-27T08:38:34Z</time>
<extensions>
<tp1:TrackPointExtension>
<tp1:hr>115</tp1:hr>
<tp1:cad>80</tp1:cad>
</tp1:TrackPointExtension>
</extensions>
</trkpt>
<trkpt lat="51.8374240" lon="14.1403670">
<ele>-7.0810000</ele>
<time>2010-06-27T08:38:39Z</time>
<extensions>
<tp1:TrackPointExtension>
<tp1:hr>116</tp1:hr>
<tp1:cad>0</tp1:cad>
</tp1:TrackPointExtension>
</extensions>
</trkpt>
<trkpt lat="51.8376380" lon="14.1401340">
<ele>-7.2090000</ele>
<time>2010-06-27T08:38:44Z</time>
<extensions>
<tp1:TrackPointExtension>
<tp1:hr>117</tp1:hr>
<tp1:cad>79</tp1:cad>
</tp1:TrackPointExtension>
</extensions>
</trkpt>
<trkpt lat="51.8382550" lon="14.1394940">
<ele>-7.0560000</ele>
<time>2010-06-27T08:38:52Z</time>
<extensions>
<tp1:TrackPointExtension>
<tp1:hr>116</tp1:hr>
<tp1:cad>84</tp1:cad>
</tp1:TrackPointExtension>
</extensions>
</trkpt>
<trkpt lat="51.8385010" lon="14.1391950">
<ele>-7.0100000</ele>
<time>2010-06-27T08:38:56Z</time>
<extensions>
<tp1:TrackPointExtension>
<tp1:hr>116</tp1:hr>
<tp1:cad>38</tp1:cad>
</tp1:TrackPointExtension>
</extensions>
</trkpt>
<trkpt lat="51.8386250" lon="14.1389110">
<ele>-7.0980000</ele>
<time>2010-06-27T08:38:59Z</time>
<extensions>
<tp1:TrackPointExtension>
<tp1:hr>116</tp1:hr>
<tp1:cad>84</tp1:cad>
</tp1:TrackPointExtension>
</extensions>
</trkpt>
<trkpt lat="51.8387470" lon="14.1383100">
<ele>-7.5560000</ele>
<time>2010-06-27T08:39:04Z</time>
<extensions>
<tp1:TrackPointExtension>
<tp1:hr>117</tp1:hr>
<tp1:cad>0</tp1:cad>
</tp1:TrackPointExtension>
</extensions>
</trkpt>
<trkpt lat="51.8388830" lon="14.1374950">
<ele>-7.5820000</ele>
<time>2010-06-27T08:39:11Z</time>
<extensions>
<tp1:TrackPointExtension>
<tp1:hr>116</tp1:hr>
<tp1:cad>79</tp1:cad>
</tp1:TrackPointExtension>
</extensions>
</trkpt>
<trkpt lat="51.8390070" lon="14.1366730">
<ele>-7.3540000</ele>
<time>2010-06-27T08:39:18Z</time>
<extensions>
<tp1:TrackPointExtension>
<tp1:hr>117</tp1:hr>
<tp1:cad>83</tp1:cad>
</tp1:TrackPointExtension>
</extensions>
</trkpt>
<trkpt lat="51.8391750" lon="14.1356890">
<ele>-7.2720000</ele>
<time>2010-06-27T08:39:26Z</time>
<extensions>
<tp1:TrackPointExtension>
<tp1:hr>118</tp1:hr>
<tp1:cad>68</tp1:cad>
</tp1:TrackPointExtension>
</extensions>
</trkpt>
<trkpt lat="51.8393270" lon="14.1349500">
<ele>-7.4330000</ele>
<time>2010-06-27T08:39:32Z</time>
<extensions>
<tp1:TrackPointExtension>
<tp1:hr>120</tp1:hr>
<tp1:cad>83</tp1:cad>
</tp1:TrackPointExtension>
</extensions>
</trkpt>
<trkpt lat="51.8396590" lon="14.1339050">
<ele>-7.4240000</ele>
<time>2010-06-27T08:39:41Z</time>
<extensions>
<tp1:TrackPointExtension>
<tp1:hr>118</tp1:hr>
<tp1:cad>0</tp1:cad>
</tp1:TrackPointExtension>
</extensions>
</trkpt>
<trkpt lat="51.8399080" lon="14.1331350">
<ele>-6.6940000</ele>
<time>2010-06-27T08:39:48Z</time>
<extensions>
<tp1:TrackPointExtension>
<tp1:hr>114</tp1:hr>
<tp1:cad>82</tp1:cad>
</tp1:TrackPointExtension>
</extensions>
</trkpt>
<trkpt lat="51.8401430" lon="14.1323570">
<ele>-7.1730000</ele>
<time>2010-06-27T08:39:55Z</time>
<extensions>
<tp1:TrackPointExtension>
<tp1:hr>115</tp1:hr>
<tp1:cad>82</tp1:cad>
</tp1:TrackPointExtension>
</extensions>
</trkpt>
<trkpt lat="51.8403030" lon="14.1318010">
<ele>-7.4150000</ele>
<time>2010-06-27T08:40:00Z</time>
<extensions>
<tp1:TrackPointExtension>
<tp1:hr>113</tp1:hr>
<tp1:cad>82</tp1:cad>
</tp1:TrackPointExtension>
</extensions>
</trkpt>
<trkpt lat="51.8405280" lon="14.1310040">
<ele>-6.8420000</ele>
<time>2010-06-27T08:40:07Z</time>
<extensions>
<tp1:TrackPointExtension>
<tp1:hr>114</tp1:hr>
<tp1:cad>84</tp1:cad>
</tp1:TrackPointExtension>
</extensions>
</trkpt>
<trkpt lat="51.8407530" lon="14.1302060">
<ele>-7.5080000</ele>
<time>2010-06-27T08:40:14Z</time>
<extensions>
<tp1:TrackPointExtension>
<tp1:hr>114</tp1:hr>
<tp1:cad>84</tp1:cad>
</tp1:TrackPointExtension>
</extensions>
</trkpt>
<trkpt lat="51.8409790" lon="14.1293960">
<ele>-6.6760000</ele>
<time>2010-06-27T08:40:21Z</time>
<extensions>
<tp1:TrackPointExtension>
<tp1:hr>117</tp1:hr>
<tp1:cad>84</tp1:cad>
</tp1:TrackPointExtension>
</extensions>
</trkpt>
<trkpt lat="51.8412120" lon="14.1285560">
<ele>-6.7040000</ele>
<time>2010-06-27T08:40:28Z</time>
<extensions>
<tp1:TrackPointExtension>
<tp1:hr>117</tp1:hr>
<tp1:cad>86</tp1:cad>
</tp1:TrackPointExtension>
</extensions>
</trkpt>
<trkpt lat="51.8415090" lon="14.1274890">
<ele>-7.7390000</ele>
<time>2010-06-27T08:40:37Z</time>
<extensions>
<tp1:TrackPointExtension>
<tp1:hr>118</tp1:hr>
<tp1:cad>0</tp1:cad>
</tp1:TrackPointExtension>
</extensions>
</trkpt>
<trkpt lat="51.8417580" lon="14.1265940">
<ele>-7.6000000</ele>
<time>2010-06-27T08:40:45Z</time>
<extensions>
<tp1:TrackPointExtension>
<tp1:hr>119</tp1:hr>
<tp1:cad>82</tp1:cad>
</tp1:TrackPointExtension>
</extensions>
</trkpt>
<trkpt lat="51.8418530" lon="14.1260060">
<ele>-7.3630000</ele>
<time>2010-06-27T08:40:50Z</time>
<extensions>
<tp1:TrackPointExtension>
<tp1:hr>119</tp1:hr>
<tp1:cad>86</tp1:cad>
</tp1:TrackPointExtension>
</extensions>
</trkpt>
<trkpt lat="51.8419730" lon="14.1251330">
<ele>-7.8480000</ele>
<time>2010-06-27T08:40:57Z</time>
<extensions>
<tp1:TrackPointExtension>
<tp1:hr>120</tp1:hr>
<tp1:cad>71</tp1:cad>
</tp1:TrackPointExtension>
</extensions>
</trkpt>
<trkpt lat="51.8421420" lon="14.1238920">
<ele>-8.3380000</ele>
<time>2010-06-27T08:41:07Z</time>
<extensions>
<tp1:TrackPointExtension>
<tp1:hr>121</tp1:hr>
<tp1:cad>83</tp1:cad>
</tp1:TrackPointExtension>
</extensions>
</trkpt>
<trkpt lat="51.8423620" lon="14.1226430">
<ele>-8.1490000</ele>
<time>2010-06-27T08:41:17Z</time>
<extensions>
<tp1:TrackPointExtension>
<tp1:hr>119</tp1:hr>
<tp1:cad>84</tp1:cad>
</tp1:TrackPointExtension>
</extensions>
</trkpt>
<trkpt lat="51.8425510" lon="14.1212820">
<ele>-8.3180000</ele>
<time>2010-06-27T08:41:28Z</time>
<extensions>
<tp1:TrackPointExtension>
<tp1:hr>118</tp1:hr>
<tp1:cad>85</tp1:cad>
</tp1:TrackPointExtension>
</extensions>
</trkpt>
<trkpt lat="51.8426920" lon="14.1202780">
<ele>-8.3500000</ele>
<time>2010-06-27T08:41:36Z</time>
<extensions>
<tp1:TrackPointExtension>
<tp1:hr>119</tp1:hr>
<tp1:cad>86</tp1:cad>
</tp1:TrackPointExtension>
</extensions>
</trkpt>
<trkpt lat="51.8428490" lon="14.1192720">
<ele>-8.7390000</ele>
<time>2010-06-27T08:41:44Z</time>
<extensions>
<tp1:TrackPointExtension>
<tp1:hr>117</tp1:hr>
<tp1:cad>19</tp1:cad>
</tp1:TrackPointExtension>
</extensions>
</trkpt>
<trkpt lat="51.8429960" lon="14.1182920">
<ele>-8.8180000</ele>
<time>2010-06-27T08:41:52Z</time>
<extensions>
<tp1:TrackPointExtension>
<tp1:hr>116</tp1:hr>
<tp1:cad>82</tp1:cad>
</tp1:TrackPointExtension>
</extensions>
</trkpt>
<trkpt lat="51.8431430" lon="14.1173110">
<ele>-9.0710000</ele>
<time>2010-06-27T08:42:00Z</time>
<extensions>
<tp1:TrackPointExtension>
<tp1:hr>116</tp1:hr>
<tp1:cad>84</tp1:cad>
</tp1:TrackPointExtension>
</extensions>
</trkpt>
<trkpt lat="51.8433380" lon="14.1160180">
<ele>-9.0240000</ele>
<time>2010-06-27T08:42:10Z</time>
<extensions>
<tp1:TrackPointExtension>
<tp1:hr>119</tp1:hr>
<tp1:cad>73</tp1:cad>
</tp1:TrackPointExtension>
</extensions>
</trkpt>
<trkpt lat="51.8434200" lon="14.1151220">
<ele>-9.4980000</ele>
<time>2010-06-27T08:42:17Z</time>
<extensions>
<tp1:TrackPointExtension>
<tp1:hr>119</tp1:hr>
<tp1:cad>83</tp1:cad>
</tp1:TrackPointExtension>
</extensions>
</trkpt>
<trkpt lat="51.8434440" lon="14.1143960">
<ele>-9.3660000</ele>
<time>2010-06-27T08:42:23Z</time>
<extensions>
<tp1:TrackPointExtension>
<tp1:hr>118</tp1:hr>
<tp1:cad>87</tp1:cad>
</tp1:TrackPointExtension>
</extensions>
</trkpt>
<trkpt lat="51.8434350" lon="14.1141390">
<ele>-9.3780000</ele>
<time>2010-06-27T08:42:25Z</time>
<extensions>
<tp1:TrackPointExtension>
<tp1:hr>117</tp1:hr>
<tp1:cad>77</tp1:cad>
</tp1:TrackPointExtension>
</extensions>
</trkpt>
<trkpt lat="51.8433530" lon="14.1134730">
<ele>-9.4490000</ele>
<time>2010-06-27T08:42:30Z</time>
<extensions>
<tp1:TrackPointExtension>
<tp1:hr>115</tp1:hr>
<tp1:cad>0</tp1:cad>
</tp1:TrackPointExtension>
</extensions>
</trkpt>
<trkpt lat="51.8433460" lon="14.1134190">
<ele>-9.4970000</ele>
<time>2010-06-27T08:42:31Z</time>
<extensions>
<tp1:TrackPointExtension>
<tp1:hr>115</tp1:hr>
<tp1:cad>0</tp1:cad>
</tp1:TrackPointExtension>
</extensions>
</trkpt>
<trkpt lat="51.8431970" lon="14.1129250">
<ele>-9.5120000</ele>
<time>2010-06-27T08:42:35Z</time>
<extensions>
<tp1:TrackPointExtension>
<tp1:hr>113</tp1:hr>
<tp1:cad>29</tp1:cad>
</tp1:TrackPointExtension>
</extensions>
</trkpt>
<trkpt lat="51.8431410" lon="14.1124000">
<ele>-9.3700000</ele>
<time>2010-06-27T08:42:39Z</time>
<extensions>
<tp1:TrackPointExtension>
<tp1:hr>111</tp1:hr>
<tp1:cad>83</tp1:cad>
</tp1:TrackPointExtension>
</extensions>
</trkpt>
<trkpt lat="51.8431560" lon="14.1122740">
<ele>-9.3050000</ele>
<time>2010-06-27T08:42:40Z</time>
<extensions>
<tp1:TrackPointExtension>
<tp1:hr>111</tp1:hr>
<tp1:cad>83</tp1:cad>
</tp1:TrackPointExtension>
</extensions>
</trkpt>
<trkpt lat="51.8432600" lon="14.1114450">
<ele>-9.3230000</ele>
<time>2010-06-27T08:42:47Z</time>
<extensions>
<tp1:TrackPointExtension>
<tp1:hr>111</tp1:hr>
<tp1:cad>83</tp1:cad>
</tp1:TrackPointExtension>
</extensions>
</trkpt>
<trkpt lat="51.8432380" lon="14.1111020">
<ele>-8.9800000</ele>
<time>2010-06-27T08:42:51Z</time>
<extensions>
<tp1:TrackPointExtension>
<tp1:hr>111</tp1:hr>
<tp1:cad>83</tp1:cad>
</tp1:TrackPointExtension>
</extensions>
</trkpt>
<trkpt lat="51.8431180" lon="14.1108230">
<ele>-8.9580000</ele>
<time>2010-06-27T08:42:53Z</time>
<extensions>
<tp1:TrackPointExtension>
<tp1:hr>111</tp1:hr>
<tp1:cad>74</tp1:cad>
</tp1:TrackPointExtension>
</extensions>
</trkpt>
<trkpt lat="51.8428940" lon="14.1102780">
<ele>-9.0900000</ele>
<time>2010-06-27T08:42:58Z</time>
<extensions>
<tp1:TrackPointExtension>
<tp1:hr>112</tp1:hr>
<tp1:cad>0</tp1:cad>
</tp1:TrackPointExtension>
</extensions>
</trkpt>
<trkpt lat="51.8428750" lon="14.1096960">
<ele>-9.1330000</ele>
<time>2010-06-27T08:43:03Z</time>
<extensions>
<tp1:TrackPointExtension>
<tp1:hr>112</tp1:hr>
<tp1:cad>0</tp1:cad>
</tp1:TrackPointExtension>
</extensions>
</trkpt>
<trkpt lat="51.8429640" lon="14.1090470">
<ele>-8.8870000</ele>
<time>2010-06-27T08:43:09Z</time>
<extensions>
<tp1:TrackPointExtension>
<tp1:hr>112</tp1:hr>
<tp1:cad>0</tp1:cad>
</tp1:TrackPointExtension>
</extensions>
</trkpt>
<trkpt lat="51.8429750" lon="14.1089590">
<ele>-8.8780000</ele>
<time>2010-06-27T08:43:10Z</time>
<extensions>
<tp1:TrackPointExtension>
<tp1:hr>111</tp1:hr>
<tp1:cad>0</tp1:cad>
</tp1:TrackPointExtension>
</extensions>
</trkpt>
<trkpt lat="51.8430220" lon="14.1085880">
<ele>-8.6760000</ele>
<time>2010-06-27T08:43:14Z</time>
<extensions>
<tp1:TrackPointExtension>
<tp1:hr>111</tp1:hr>
<tp1:cad>65</tp1:cad>
</tp1:TrackPointExtension>
</extensions>
</trkpt>
<trkpt lat="51.8432070" lon="14.1085330">
<ele>-8.3200000</ele>
<time>2010-06-27T08:43:16Z</time>
<extensions>
<tp1:TrackPointExtension>
<tp1:hr>111</tp1:hr>
<tp1:cad>65</tp1:cad>
</tp1:TrackPointExtension>
</extensions>
</trkpt>
<trkpt lat="51.8435170" lon="14.1086340">
<ele>-7.6820000</ele>
<time>2010-06-27T08:43:23Z</time>
<extensions>
<tp1:TrackPointExtension>
<tp1:hr>114</tp1:hr>
<tp1:cad>71</tp1:cad>
</tp1:TrackPointExtension>
</extensions>
</trkpt>
<trkpt lat="51.8442200" lon="14.1086890">
<ele>-8.4540000</ele>
<time>2010-06-27T08:43:31Z</time>
<extensions>
<tp1:TrackPointExtension>
<tp1:hr>114</tp1:hr>
<tp1:cad>0</tp1:cad>
</tp1:TrackPointExtension>
</extensions>
</trkpt>
<trkpt lat="51.8445920" lon="14.1086770">
<ele>-8.6530000</ele>
<time>2010-06-27T08:43:36Z</time>
<extensions>
<tp1:TrackPointExtension>
<tp1:hr>115</tp1:hr>
<tp1:cad>0</tp1:cad>
</tp1:TrackPointExtension>
</extensions>
</trkpt>
<trkpt lat="51.8449220" lon="14.1085150">
<ele>-8.9250000</ele>
<time>2010-06-27T08:43:41Z</time>
<extensions>
<tp1:TrackPointExtension>
<tp1:hr>113</tp1:hr>
<tp1:cad>0</tp1:cad>
</tp1:TrackPointExtension>
</extensions>
</trkpt>
<trkpt lat="51.8450460" lon="14.1081720">
<ele>-8.8280000</ele>
<time>2010-06-27T08:43:45Z</time>
<extensions>
<tp1:TrackPointExtension>
<tp1:hr>112</tp1:hr>
<tp1:cad>0</tp1:cad>
</tp1:TrackPointExtension>
</extensions>
</trkpt>
<trkpt lat="51.8451680" lon="14.1072980">
<ele>-8.7870000</ele>
<time>2010-06-27T08:43:53Z</time>
<extensions>
<tp1:TrackPointExtension>
<tp1:hr>112</tp1:hr>
<tp1:cad>32</tp1:cad>
</tp1:TrackPointExtension>
</extensions>
</trkpt>
<trkpt lat="51.8452960" lon="14.1063820">
<ele>-8.7330000</ele>
<time>2010-06-27T08:44:01Z</time>
<extensions>
<tp1:TrackPointExtension>
<tp1:hr>112</tp1:hr>
<tp1:cad>77</tp1:cad>
</tp1:TrackPointExtension>
</extensions>
</trkpt>
<trkpt lat="51.8454740" lon="14.1051110">
<ele>-9.1120000</ele>
<time>2010-06-27T08:44:12Z</time>
<extensions>
<tp1:TrackPointExtension>
<tp1:hr>111</tp1:hr>
<tp1:cad>78</tp1:cad>
</tp1:TrackPointExtension>
</extensions>
</trkpt>
<trkpt lat="51.8456020" lon="14.1041950">
<ele>-8.9430000</ele>
<time>2010-06-27T08:44:20Z</time>
<extensions>
<tp1:TrackPointExtension>
<tp1:hr>111</tp1:hr>
<tp1:cad>77</tp1:cad>
</tp1:TrackPointExtension>
</extensions>
</trkpt>
<trkpt lat="51.8457570" lon="14.1037770">
<ele>-9.1320000</ele>
<time>2010-06-27T08:44:24Z</time>
<extensions>
<tp1:TrackPointExtension>
<tp1:hr>111</tp1:hr>
<tp1:cad>82</tp1:cad>
</tp1:TrackPointExtension>
</extensions>
</trkpt>
<trkpt lat="51.8459510" lon="14.1035880">
<ele>-9.2690000</ele>
<time>2010-06-27T08:44:27Z</time>
<extensions>
<tp1:TrackPointExtension>
<tp1:hr>110</tp1:hr>
<tp1:cad>0</tp1:cad>
</tp1:TrackPointExtension>
</extensions>
</trkpt>
<trkpt lat="51.8465690" lon="14.1031950">
<ele>-9.2290000</ele>
<time>2010-06-27T08:44:36Z</time>
<extensions>
<tp1:TrackPointExtension>
<tp1:hr>112</tp1:hr>
<tp1:cad>78</tp1:cad>
</tp1:TrackPointExtension>
</extensions>
</trkpt>
<trkpt lat="51.8471940" lon="14.1027880">
<ele>-9.3050000</ele>
<time>2010-06-27T08:44:45Z</time>
<extensions>
<tp1:TrackPointExtension>
<tp1:hr>110</tp1:hr>
<tp1:cad>78</tp1:cad>
</tp1:TrackPointExtension>
</extensions>
</trkpt>
<trkpt lat="51.8472730" lon="14.1027330">
<ele>-8.9720000</ele>
<time>2010-06-27T08:44:49Z</time>
<extensions>
<tp1:TrackPointExtension>
<tp1:hr>110</tp1:hr>
<tp1:cad>81</tp1:cad>
</tp1:TrackPointExtension>
</extensions>
</trkpt>
<trkpt lat="51.8479290" lon="14.1027650">
<ele>-9.0830000</ele>
<time>2010-06-27T08:44:55Z</time>
<extensions>
<tp1:TrackPointExtension>
<tp1:hr>111</tp1:hr>
<tp1:cad>22</tp1:cad>
</tp1:TrackPointExtension>
</extensions>
</trkpt>
<trkpt lat="51.8488050" lon="14.1031380">
<ele>-8.9510000</ele>
<time>2010-06-27T08:45:07Z</time>
<extensions>
<tp1:TrackPointExtension>
<tp1:hr>112</tp1:hr>
<tp1:cad>80</tp1:cad>
</tp1:TrackPointExtension>
</extensions>
</trkpt>
<trkpt lat="51.8494900" lon="14.1033440">
<ele>-9.2920000</ele>
<time>2010-06-27T08:45:16Z</time>
<extensions>
<tp1:TrackPointExtension>
<tp1:hr>113</tp1:hr>
<tp1:cad>0</tp1:cad>
</tp1:TrackPointExtension>
</extensions>
</trkpt>
<trkpt lat="51.8499970" lon="14.1035410">
<ele>-9.1430000</ele>
<time>2010-06-27T08:45:23Z</time>
<extensions>
<tp1:TrackPointExtension>
<tp1:hr>113</tp1:hr>
<tp1:cad>82</tp1:cad>
</tp1:TrackPointExtension>
</extensions>
</trkpt>
<trkpt lat="51.8506300" lon="14.1039260">
<ele>-9.1600000</ele>
<time>2010-06-27T08:45:32Z</time>
<extensions>
<tp1:TrackPointExtension>
<tp1:hr>114</tp1:hr>
<tp1:cad>80</tp1:cad>
</tp1:TrackPointExtension>
</extensions>
</trkpt>
<trkpt lat="51.8512520" lon="14.1043610">
<ele>-9.0270000</ele>
<time>2010-06-27T08:45:41Z</time>
<extensions>
<tp1:TrackPointExtension>
<tp1:hr>112</tp1:hr>
<tp1:cad>78</tp1:cad>
</tp1:TrackPointExtension>
</extensions>
</trkpt>
<trkpt lat="51.8516630" lon="14.1046420">
<ele>-8.8010000</ele>
<time>2010-06-27T08:45:47Z</time>
<extensions>
<tp1:TrackPointExtension>
<tp1:hr>113</tp1:hr>
<tp1:cad>83</tp1:cad>
</tp1:TrackPointExtension>
</extensions>
</trkpt>
<trkpt lat="51.8521700" lon="14.1049720">
<ele>-9.1610000</ele>
<time>2010-06-27T08:45:54Z</time>
<extensions>
<tp1:TrackPointExtension>
<tp1:hr>114</tp1:hr>
<tp1:cad>71</tp1:cad>
</tp1:TrackPointExtension>
</extensions>
</trkpt>
<trkpt lat="51.8527930" lon="14.1053760">
<ele>-9.4570000</ele>
<time>2010-06-27T08:46:03Z</time>
<extensions>
<tp1:TrackPointExtension>
<tp1:hr>111</tp1:hr>
<tp1:cad>74</tp1:cad>
</tp1:TrackPointExtension>
</extensions>
</trkpt>
<trkpt lat="51.8531480" lon="14.1056060">
<ele>-9.4190000</ele>
<time>2010-06-27T08:46:08Z</time>
<extensions>
<tp1:TrackPointExtension>
<tp1:hr>111</tp1:hr>
<tp1:cad>40</tp1:cad>
</tp1:TrackPointExtension>
</extensions>
</trkpt>
<trkpt lat="51.8533560" lon="14.1059690">
<ele>-9.5170000</ele>
<time>2010-06-27T08:46:12Z</time>
<extensions>
<tp1:TrackPointExtension>
<tp1:hr>111</tp1:hr>
<tp1:cad>82</tp1:cad>
</tp1:TrackPointExtension>
</extensions>
</trkpt>
<trkpt lat="51.8533880" lon="14.1063110">
<ele>-9.4700000</ele>
<time>2010-06-27T08:46:15Z</time>
<extensions>
<tp1:TrackPointExtension>
<tp1:hr>111</tp1:hr>
<tp1:cad>0</tp1:cad>
</tp1:TrackPointExtension>
</extensions>
</trkpt>
<trkpt lat="51.8533880" lon="14.1068790">
<ele>-9.3170000</ele>
<time>2010-06-27T08:46:20Z</time>
<extensions>
<tp1:TrackPointExtension>
<tp1:hr>110</tp1:hr>
<tp1:cad>77</tp1:cad>
</tp1:TrackPointExtension>
</extensions>
</trkpt>
<trkpt lat="51.8533880" lon="14.1071110">
<ele>-9.2230000</ele>
<time>2010-06-27T08:46:24Z</time>
<extensions>
<tp1:TrackPointExtension>
<tp1:hr>110</tp1:hr>
<tp1:cad>86</tp1:cad>
</tp1:TrackPointExtension>
</extensions>
</trkpt>
<trkpt lat="51.8536900" lon="14.1075660">
<ele>-9.1770000</ele>
<time>2010-06-27T08:46:27Z</time>
<extensions>
<tp1:TrackPointExtension>
<tp1:hr>110</tp1:hr>
<tp1:cad>86</tp1:cad>
</tp1:TrackPointExtension>
</extensions>
</trkpt>
<trkpt lat="51.8537650" lon="14.1076210">
<ele>-9.1540000</ele>
<time>2010-06-27T08:46:28Z</time>
<extensions>
<tp1:TrackPointExtension>
<tp1:hr>110</tp1:hr>
<tp1:cad>86</tp1:cad>
</tp1:TrackPointExtension>
</extensions>
</trkpt>
<trkpt lat="51.8545420" lon="14.1082180">
<ele>-9.4000000</ele>
<time>2010-06-27T08:46:39Z</time>
<extensions>
<tp1:TrackPointExtension>
<tp1:hr>114</tp1:hr>
<tp1:cad>82</tp1:cad>
</tp1:TrackPointExtension>
</extensions>
</trkpt>
<trkpt lat="51.8551660" lon="14.1086870">
<ele>-9.0370000</ele>
<time>2010-06-27T08:46:48Z</time>
<extensions>
<tp1:TrackPointExtension>
<tp1:hr>116</tp1:hr>
<tp1:cad>83</tp1:cad>
</tp1:TrackPointExtension>
</extensions>
</trkpt>
<trkpt lat="51.8556030" lon="14.1089340">
<ele>-9.1350000</ele>
<time>2010-06-27T08:46:54Z</time>
<extensions>
<tp1:TrackPointExtension>
<tp1:hr>117</tp1:hr>
<tp1:cad>83</tp1:cad>
</tp1:TrackPointExtension>
</extensions>
</trkpt>
<trkpt lat="51.8559840" lon="14.1089930">
<ele>-9.0860000</ele>
<time>2010-06-27T08:46:59Z</time>
<extensions>
<tp1:TrackPointExtension>
<tp1:hr>118</tp1:hr>
<tp1:cad>82</tp1:cad>
</tp1:TrackPointExtension>
</extensions>
</trkpt>
<trkpt lat="51.8562870" lon="14.1088800">
<ele>-9.1280000</ele>
<time>2010-06-27T08:47:03Z</time>
<extensions>
<tp1:TrackPointExtension>
<tp1:hr>118</tp1:hr>
<tp1:cad>74</tp1:cad>
</tp1:TrackPointExtension>
</extensions>
</trkpt>
<trkpt lat="51.8567850" lon="14.1084760">
<ele>-9.3810000</ele>
<time>2010-06-27T08:47:10Z</time>
<extensions>
<tp1:TrackPointExtension>
<tp1:hr>119</tp1:hr>
<tp1:cad>83</tp1:cad>
</tp1:TrackPointExtension>
</extensions>
</trkpt>
<trkpt lat="51.8572480" lon="14.1081110">
<ele>-9.1470000</ele>
<time>2010-06-27T08:47:17Z</time>
<extensions>
<tp1:TrackPointExtension>
<tp1:hr>116</tp1:hr>
<tp1:cad>74</tp1:cad>
</tp1:TrackPointExtension>
</extensions>
</trkpt>
<trkpt lat="51.8575850" lon="14.1078470">
<ele>-8.7070000</ele>
<time>2010-06-27T08:47:23Z</time>
<extensions>
<tp1:TrackPointExtension>
<tp1:hr>116</tp1:hr>
<tp1:cad>0</tp1:cad>
</tp1:TrackPointExtension>
</extensions>
</trkpt>
<trkpt lat="51.8575940" lon="14.1078400">
<ele>-8.8680000</ele>
<time>2010-06-27T08:47:26Z</time>
<extensions>
<tp1:TrackPointExtension>
<tp1:hr>114</tp1:hr>
<tp1:cad>0</tp1:cad>
</tp1:TrackPointExtension>
</extensions>
</trkpt>
<trkpt lat="51.8581300" lon="14.1076540">
<ele>-8.4720000</ele>
<time>2010-06-27T08:47:33Z</time>
<extensions>
<tp1:TrackPointExtension>
<tp1:hr>113</tp1:hr>
<tp1:cad>74</tp1:cad>
</tp1:TrackPointExtension>
</extensions>
</trkpt>
<trkpt lat="51.8585500" lon="14.1076300">
<ele>-9.1020000</ele>
<time>2010-06-27T08:47:39Z</time>
<extensions>
<tp1:TrackPointExtension>
<tp1:hr>113</tp1:hr>
<tp1:cad>77</tp1:cad>
</tp1:TrackPointExtension>
</extensions>
</trkpt>
<trkpt lat="51.8590360" lon="14.1076380">
<ele>-9.5170000</ele>
<time>2010-06-27T08:47:46Z</time>
<extensions>
<tp1:TrackPointExtension>
<tp1:hr>115</tp1:hr>
<tp1:cad>78</tp1:cad>
</tp1:TrackPointExtension>
</extensions>
</trkpt>
<trkpt lat="51.8597120" lon="14.1076350">
<ele>-9.2610000</ele>
<time>2010-06-27T08:47:55Z</time>
<extensions>
<tp1:TrackPointExtension>
<tp1:hr>113</tp1:hr>
<tp1:cad>0</tp1:cad>
</tp1:TrackPointExtension>
</extensions>
</trkpt>
<trkpt lat="51.8598620" lon="14.1076300">
<ele>-9.1060000</ele>
<time>2010-06-27T08:47:57Z</time>
<extensions>
<tp1:TrackPointExtension>
<tp1:hr>112</tp1:hr>
<tp1:cad>0</tp1:cad>
</tp1:TrackPointExtension>
</extensions>
</trkpt>
<trkpt lat="51.8603780" lon="14.1076140">
<ele>-9.1350000</ele>
<time>2010-06-27T08:48:04Z</time>
<extensions>
<tp1:TrackPointExtension>
<tp1:hr>113</tp1:hr>
<tp1:cad>75</tp1:cad>
</tp1:TrackPointExtension>
</extensions>
</trkpt>
<trkpt lat="51.8609240" lon="14.1076740">
<ele>-8.8560000</ele>
<time>2010-06-27T08:48:12Z</time>
<extensions>
<tp1:TrackPointExtension>
<tp1:hr>112</tp1:hr>
<tp1:cad>74</tp1:cad>
</tp1:TrackPointExtension>
</extensions>
</trkpt>
<trkpt lat="51.8610910" lon="14.1077330">
<ele>-8.1240000</ele>
<time>2010-06-27T08:48:18Z</time>
<extensions>
<tp1:TrackPointExtension>
<tp1:hr>112</tp1:hr>
<tp1:cad>45</tp1:cad>
</tp1:TrackPointExtension>
</extensions>
</trkpt>
<trkpt lat="51.8619020" lon="14.1081700">
<ele>-8.8270000</ele>
<time>2010-06-27T08:48:26Z</time>
<extensions>
<tp1:TrackPointExtension>
<tp1:hr>113</tp1:hr>
<tp1:cad>0</tp1:cad>
</tp1:TrackPointExtension>
</extensions>
</trkpt>
<trkpt lat="51.8625430" lon="14.1085090">
<ele>-9.0750000</ele>
<time>2010-06-27T08:48:35Z</time>
<extensions>
<tp1:TrackPointExtension>
<tp1:hr>112</tp1:hr>
<tp1:cad>83</tp1:cad>
</tp1:TrackPointExtension>
</extensions>
</trkpt>
<trkpt lat="51.8630730" lon="14.1087100">
<ele>-9.1280000</ele>
<time>2010-06-27T08:48:42Z</time>
<extensions>
<tp1:TrackPointExtension>
<tp1:hr>113</tp1:hr>
<tp1:cad>81</tp1:cad>
</tp1:TrackPointExtension>
</extensions>
</trkpt>
<trkpt lat="51.8635890" lon="14.1089070">
<ele>-9.0290000</ele>
<time>2010-06-27T08:48:49Z</time>
<extensions>
<tp1:TrackPointExtension>
<tp1:hr>113</tp1:hr>
<tp1:cad>80</tp1:cad>
</tp1:TrackPointExtension>
</extensions>
</trkpt>
<trkpt lat="51.8641850" lon="14.1091300">
<ele>-9.0740000</ele>
<time>2010-06-27T08:48:57Z</time>
<extensions>
<tp1:TrackPointExtension>
<tp1:hr>113</tp1:hr>
<tp1:cad>80</tp1:cad>
</tp1:TrackPointExtension>
</extensions>
</trkpt>
<trkpt lat="51.8646100" lon="14.1092560">
<ele>-8.7350000</ele>
<time>2010-06-27T08:49:04Z</time>
<extensions>
<tp1:TrackPointExtension>
<tp1:hr>115</tp1:hr>
<tp1:cad>73</tp1:cad>
</tp1:TrackPointExtension>
</extensions>
</trkpt>
<trkpt lat="51.8649030" lon="14.1092350">
<ele>-8.2830000</ele>
<time>2010-06-27T08:49:07Z</time>
<extensions>
<tp1:TrackPointExtension>
<tp1:hr>116</tp1:hr>
<tp1:cad>78</tp1:cad>
</tp1:TrackPointExtension>
</extensions>
</trkpt>
<trkpt lat="51.8652740" lon="14.1091920">
<ele>-8.1230000</ele>
<time>2010-06-27T08:49:12Z</time>
<extensions>
<tp1:TrackPointExtension>
<tp1:hr>118</tp1:hr>
<tp1:cad>31</tp1:cad>
</tp1:TrackPointExtension>
</extensions>
</trkpt>
<trkpt lat="51.8657700" lon="14.1093310">
<ele>-8.7220000</ele>
<time>2010-06-27T08:49:18Z</time>
<extensions>
<tp1:TrackPointExtension>
<tp1:hr>119</tp1:hr>
<tp1:cad>0</tp1:cad>
</tp1:TrackPointExtension>
</extensions>
</trkpt>
<trkpt lat="51.8661570" lon="14.1095680">
<ele>-9.0550000</ele>
<time>2010-06-27T08:49:23Z</time>
<extensions>
<tp1:TrackPointExtension>
<tp1:hr>121</tp1:hr>
<tp1:cad>0</tp1:cad>
</tp1:TrackPointExtension>
</extensions>
</trkpt>
<trkpt lat="51.8668070" lon="14.1099780">
<ele>-8.4200000</ele>
<time>2010-06-27T08:49:32Z</time>
<extensions>
<tp1:TrackPointExtension>
<tp1:hr>121</tp1:hr>
<tp1:cad>87</tp1:cad>
</tp1:TrackPointExtension>
</extensions>
</trkpt>
<trkpt lat="51.8671190" lon="14.1104150">
<ele>-8.6300000</ele>
<time>2010-06-27T08:49:37Z</time>
<extensions>
<tp1:TrackPointExtension>
<tp1:hr>120</tp1:hr>
<tp1:cad>74</tp1:cad>
</tp1:TrackPointExtension>
</extensions>
</trkpt>
<trkpt lat="51.8675590" lon="14.1111440">
<ele>-9.3260000</ele>
<time>2010-06-27T08:49:45Z</time>
<extensions>
<tp1:TrackPointExtension>
<tp1:hr>119</tp1:hr>
<tp1:cad>86</tp1:cad>
</tp1:TrackPointExtension>
</extensions>
</trkpt>
<trkpt lat="51.8678360" lon="14.1116110">
<ele>-9.0970000</ele>
<time>2010-06-27T08:49:50Z</time>
<extensions>
<tp1:TrackPointExtension>
<tp1:hr>118</tp1:hr>
<tp1:cad>79</tp1:cad>
</tp1:TrackPointExtension>
</extensions>
</trkpt>
<trkpt lat="51.8681560" lon="14.1121510">
<ele>-9.3390000</ele>
<time>2010-06-27T08:49:56Z</time>
<extensions>
<tp1:TrackPointExtension>
<tp1:hr>117</tp1:hr>
<tp1:cad>83</tp1:cad>
</tp1:TrackPointExtension>
</extensions>
</trkpt>
<trkpt lat="51.8685020" lon="14.1126540">
<ele>-9.0070000</ele>
<time>2010-06-27T08:50:02Z</time>
<extensions>
<tp1:TrackPointExtension>
<tp1:hr>117</tp1:hr>
<tp1:cad>86</tp1:cad>
</tp1:TrackPointExtension>
</extensions>
</trkpt>
<trkpt lat="51.8688380" lon="14.1129580">
<ele>-8.8980000</ele>
<time>2010-06-27T08:50:07Z</time>
<extensions>
<tp1:TrackPointExtension>
<tp1:hr>119</tp1:hr>
<tp1:cad>85</tp1:cad>
</tp1:TrackPointExtension>
</extensions>
</trkpt>
<trkpt lat="51.8693560" lon="14.1133470">
<ele>-8.8790000</ele>
<time>2010-06-27T08:50:14Z</time>
<extensions>
<tp1:TrackPointExtension>
<tp1:hr>121</tp1:hr>
<tp1:cad>86</tp1:cad>
</tp1:TrackPointExtension>
</extensions>
</trkpt>
<trkpt lat="51.8697480" lon="14.1135030">
<ele>-8.9970000</ele>
<time>2010-06-27T08:50:19Z</time>
<extensions>
<tp1:TrackPointExtension>
<tp1:hr>121</tp1:hr>
<tp1:cad>84</tp1:cad>
</tp1:TrackPointExtension>
</extensions>
</trkpt>
<trkpt lat="51.8702970" lon="14.1137010">
<ele>-8.7320000</ele>
<time>2010-06-27T08:50:26Z</time>
<extensions>
<tp1:TrackPointExtension>
<tp1:hr>121</tp1:hr>
<tp1:cad>82</tp1:cad>
</tp1:TrackPointExtension>
</extensions>
</trkpt>
<trkpt lat="51.8705970" lon="14.1138480">
<ele>-8.4050000</ele>
<time>2010-06-27T08:50:30Z</time>
<extensions>
<tp1:TrackPointExtension>
<tp1:hr>121</tp1:hr>
<tp1:cad>84</tp1:cad>
</tp1:TrackPointExtension>
</extensions>
</trkpt>
<trkpt lat="51.8710200" lon="14.1144790">
<ele>-8.4320000</ele>
<time>2010-06-27T08:50:37Z</time>
<extensions>
<tp1:TrackPointExtension>
<tp1:hr>121</tp1:hr>
<tp1:cad>79</tp1:cad>
</tp1:TrackPointExtension>
</extensions>
</trkpt>
<trkpt lat="51.8713530" lon="14.1150530">
<ele>-8.3390000</ele>
<time>2010-06-27T08:50:43Z</time>
<extensions>
<tp1:TrackPointExtension>
<tp1:hr>122</tp1:hr>
<tp1:cad>0</tp1:cad>
</tp1:TrackPointExtension>
</extensions>
</trkpt>
<trkpt lat="51.8717270" lon="14.1156940">
<ele>-8.3580000</ele>
<time>2010-06-27T08:50:50Z</time>
<extensions>
<tp1:TrackPointExtension>
<tp1:hr>122</tp1:hr>
<tp1:cad>84</tp1:cad>
</tp1:TrackPointExtension>
</extensions>
</trkpt>
<trkpt lat="51.8721170" lon="14.1163660">
<ele>-9.0980000</ele>
<time>2010-06-27T08:50:57Z</time>
<extensions>
<tp1:TrackPointExtension>
<tp1:hr>122</tp1:hr>
<tp1:cad>0</tp1:cad>
</tp1:TrackPointExtension>
</extensions>
</trkpt>
<trkpt lat="51.8724670" lon="14.1169720">
<ele>-8.7440000</ele>
<time>2010-06-27T08:51:04Z</time>
<extensions>
<tp1:TrackPointExtension>
<tp1:hr>118</tp1:hr>
<tp1:cad>75</tp1:cad>
</tp1:TrackPointExtension>
</extensions>
</trkpt>
<trkpt lat="51.8725050" lon="14.1170710">
<ele>-8.7480000</ele>
<time>2010-06-27T08:51:05Z</time>
<extensions>
<tp1:TrackPointExtension>
<tp1:hr>118</tp1:hr>
<tp1:cad>75</tp1:cad>
</tp1:TrackPointExtension>
</extensions>
</trkpt>
<trkpt lat="51.8725610" lon="14.1172680">
<ele>-8.5710000</ele>
<time>2010-06-27T08:51:07Z</time>
<extensions>
<tp1:TrackPointExtension>
<tp1:hr>117</tp1:hr>
<tp1:cad>71</tp1:cad>
</tp1:TrackPointExtension>
</extensions>
</trkpt>
<trkpt lat="51.8726570" lon="14.1174960">
<ele>-7.7350000</ele>
<time>2010-06-27T08:51:11Z</time>
<extensions>
<tp1:TrackPointExtension>
<tp1:hr>117</tp1:hr>
<tp1:cad>70</tp1:cad>
</tp1:TrackPointExtension>
</extensions>
</trkpt>
<trkpt lat="51.8732450" lon="14.1177840">
<ele>-7.9340000</ele>
<time>2010-06-27T08:51:18Z</time>
<extensions>
<tp1:TrackPointExtension>
<tp1:hr>119</tp1:hr>
<tp1:cad>83</tp1:cad>
</tp1:TrackPointExtension>
</extensions>
</trkpt>
<trkpt lat="51.8736940" lon="14.1179910">
<ele>-7.8280000</ele>
<time>2010-06-27T08:51:24Z</time>
<extensions>
<tp1:TrackPointExtension>
<tp1:hr>121</tp1:hr>
<tp1:cad>78</tp1:cad>
</tp1:TrackPointExtension>
</extensions>
</trkpt>
<trkpt lat="51.8741100" lon="14.1181650">
<ele>-7.6810000</ele>
<time>2010-06-27T08:51:30Z</time>
<extensions>
<tp1:TrackPointExtension>
<tp1:hr>125</tp1:hr>
<tp1:cad>79</tp1:cad>
</tp1:TrackPointExtension>
</extensions>
</trkpt>
<trkpt lat="51.8746370" lon="14.1183850">
<ele>-8.2110000</ele>
<time>2010-06-27T08:51:37Z</time>
<extensions>
<tp1:TrackPointExtension>
<tp1:hr>124</tp1:hr>
<tp1:cad>79</tp1:cad>
</tp1:TrackPointExtension>
</extensions>
</trkpt>
<trkpt lat="51.8750530" lon="14.1185700">
<ele>-8.1420000</ele>
<time>2010-06-27T08:51:43Z</time>
<extensions>
<tp1:TrackPointExtension>
<tp1:hr>122</tp1:hr>
<tp1:cad>82</tp1:cad>
</tp1:TrackPointExtension>
</extensions>
</trkpt>
<trkpt lat="51.8757160" lon="14.1188730">
<ele>-7.2080000</ele>
<time>2010-06-27T08:51:52Z</time>
<extensions>
<tp1:TrackPointExtension>
<tp1:hr>119</tp1:hr>
<tp1:cad>82</tp1:cad>
</tp1:TrackPointExtension>
</extensions>
</trkpt>
<trkpt lat="51.8762380" lon="14.1190990">
<ele>-8.2800000</ele>
<time>2010-06-27T08:51:59Z</time>
<extensions>
<tp1:TrackPointExtension>
<tp1:hr>120</tp1:hr>
<tp1:cad>82</tp1:cad>
</tp1:TrackPointExtension>
</extensions>
</trkpt>
<trkpt lat="51.8769300" lon="14.1193920">
<ele>-8.0030000</ele>
<time>2010-06-27T08:52:08Z</time>
<extensions>
<tp1:TrackPointExtension>
<tp1:hr>121</tp1:hr>
<tp1:cad>83</tp1:cad>
</tp1:TrackPointExtension>
</extensions>
</trkpt>
<trkpt lat="51.8773700" lon="14.1195780">
<ele>-7.5620000</ele>
<time>2010-06-27T08:52:14Z</time>
<extensions>
<tp1:TrackPointExtension>
<tp1:hr>121</tp1:hr>
<tp1:cad>78</tp1:cad>
</tp1:TrackPointExtension>
</extensions>
</trkpt>
<trkpt lat="51.8780050" lon="14.1198420">
<ele>-6.7860000</ele>
<time>2010-06-27T08:52:23Z</time>
<extensions>
<tp1:TrackPointExtension>
<tp1:hr>122</tp1:hr>
<tp1:cad>77</tp1:cad>
</tp1:TrackPointExtension>
</extensions>
</trkpt>
<trkpt lat="51.8786050" lon="14.1200650">
<ele>-7.2200000</ele>
<time>2010-06-27T08:52:31Z</time>
<extensions>
<tp1:TrackPointExtension>
<tp1:hr>121</tp1:hr>
<tp1:cad>85</tp1:cad>
</tp1:TrackPointExtension>
</extensions>
</trkpt>
<trkpt lat="51.8790990" lon="14.1201610">
<ele>-7.9810000</ele>
<time>2010-06-27T08:52:37Z</time>
<extensions>
<tp1:TrackPointExtension>
<tp1:hr>120</tp1:hr>
<tp1:cad>0</tp1:cad>
</tp1:TrackPointExtension>
</extensions>
</trkpt>
<trkpt lat="51.8794810" lon="14.1201010">
<ele>-8.0260000</ele>
<time>2010-06-27T08:52:42Z</time>
<extensions>
<tp1:TrackPointExtension>
<tp1:hr>118</tp1:hr>
<tp1:cad>81</tp1:cad>
</tp1:TrackPointExtension>
</extensions>
</trkpt>
<trkpt lat="51.8799210" lon="14.1200470">
<ele>-8.2000000</ele>
<time>2010-06-27T08:52:48Z</time>
<extensions>
<tp1:TrackPointExtension>
<tp1:hr>116</tp1:hr>
<tp1:cad>21</tp1:cad>
</tp1:TrackPointExtension>
</extensions>
</trkpt>
<trkpt lat="51.8804070" lon="14.1201010">
<ele>-8.7350000</ele>
<time>2010-06-27T08:52:54Z</time>
<extensions>
<tp1:TrackPointExtension>
<tp1:hr>116</tp1:hr>
<tp1:cad>0</tp1:cad>
</tp1:TrackPointExtension>
</extensions>
</trkpt>
<trkpt lat="51.8811890" lon="14.1203030">
<ele>-8.8590000</ele>
<time>2010-06-27T08:53:04Z</time>
<extensions>
<tp1:TrackPointExtension>
<tp1:hr>118</tp1:hr>
<tp1:cad>80</tp1:cad>
</tp1:TrackPointExtension>
</extensions>
</trkpt>
<trkpt lat="51.8818340" lon="14.1204690">
<ele>-8.9540000</ele>
<time>2010-06-27T08:53:13Z</time>
<extensions>
<tp1:TrackPointExtension>
<tp1:hr>113</tp1:hr>
<tp1:cad>0</tp1:cad>
</tp1:TrackPointExtension>
</extensions>
</trkpt>
<trkpt lat="51.8820120" lon="14.1205150">
<ele>-8.9040000</ele>
<time>2010-06-27T08:53:16Z</time>
<extensions>
<tp1:TrackPointExtension>
<tp1:hr>109</tp1:hr>
<tp1:cad>63</tp1:cad>
</tp1:TrackPointExtension>
</extensions>
</trkpt>
<trkpt lat="51.8822030" lon="14.1206230">
<ele>-8.6070000</ele>
<time>2010-06-27T08:53:20Z</time>
<extensions>
<tp1:TrackPointExtension>
<tp1:hr>110</tp1:hr>
<tp1:cad>58</tp1:cad>
</tp1:TrackPointExtension>
</extensions>
</trkpt>
<trkpt lat="51.8821960" lon="14.1207730">
<ele>-8.3970000</ele>
<time>2010-06-27T08:53:22Z</time>
<extensions>
<tp1:TrackPointExtension>
<tp1:hr>111</tp1:hr>
<tp1:cad>70</tp1:cad>
</tp1:TrackPointExtension>
</extensions>
</trkpt>
<trkpt lat="51.8821740" lon="14.1212190">
<ele>-8.3120000</ele>
<time>2010-06-27T08:53:26Z</time>
<extensions>
<tp1:TrackPointExtension>
<tp1:hr>117</tp1:hr>
<tp1:cad>31</tp1:cad>
</tp1:TrackPointExtension>
</extensions>
</trkpt>
<trkpt lat="51.8821310" lon="14.1221320">
<ele>-8.3180000</ele>
<time>2010-06-27T08:53:34Z</time>
<extensions>
<tp1:TrackPointExtension>
<tp1:hr>119</tp1:hr>
<tp1:cad>78</tp1:cad>
</tp1:TrackPointExtension>
</extensions>
</trkpt>
<trkpt lat="51.8820730" lon="14.1233370">
<ele>-8.2530000</ele>
<time>2010-06-27T08:53:44Z</time>
<extensions>
<tp1:TrackPointExtension>
<tp1:hr>121</tp1:hr>
<tp1:cad>79</tp1:cad>
</tp1:TrackPointExtension>
</extensions>
</trkpt>
<trkpt lat="51.8820330" lon="14.1241700">
<ele>-8.6080000</ele>
<time>2010-06-27T08:53:51Z</time>
<extensions>
<tp1:TrackPointExtension>
<tp1:hr>121</tp1:hr>
<tp1:cad>0</tp1:cad>
</tp1:TrackPointExtension>
</extensions>
</trkpt>
<trkpt lat="51.8820080" lon="14.1246960">
<ele>-8.6770000</ele>
<time>2010-06-27T08:53:56Z</time>
<extensions>
<tp1:TrackPointExtension>
<tp1:hr>119</tp1:hr>
<tp1:cad>0</tp1:cad>
</tp1:TrackPointExtension>
</extensions>
</trkpt>
<trkpt lat="51.8820890" lon="14.1250510">
<ele>-8.5570000</ele>
<time>2010-06-27T08:54:00Z</time>
<extensions>
<tp1:TrackPointExtension>
<tp1:hr>117</tp1:hr>
<tp1:cad>52</tp1:cad>
</tp1:TrackPointExtension>
</extensions>
</trkpt>
<trkpt lat="51.8821820" lon="14.1250520">
<ele>-8.7330000</ele>
<time>2010-06-27T08:54:02Z</time>
<extensions>
<tp1:TrackPointExtension>
<tp1:hr>116</tp1:hr>
<tp1:cad>66</tp1:cad>
</tp1:TrackPointExtension>
</extensions>
</trkpt>
<trkpt lat="51.8826870" lon="14.1250580">
<ele>-8.4160000</ele>
<time>2010-06-27T08:54:09Z</time>
<extensions>
<tp1:TrackPointExtension>
<tp1:hr>118</tp1:hr>
<tp1:cad>80</tp1:cad>
</tp1:TrackPointExtension>
</extensions>
</trkpt>
<trkpt lat="51.8834480" lon="14.1250680">
<ele>-9.2330000</ele>
<time>2010-06-27T08:54:19Z</time>
<extensions>
<tp1:TrackPointExtension>
<tp1:hr>122</tp1:hr>
<tp1:cad>82</tp1:cad>
</tp1:TrackPointExtension>
</extensions>
</trkpt>
<trkpt lat="51.8840560" lon="14.1250760">
<ele>-9.2100000</ele>
<time>2010-06-27T08:54:27Z</time>
<extensions>
<tp1:TrackPointExtension>
<tp1:hr>122</tp1:hr>
<tp1:cad>76</tp1:cad>
</tp1:TrackPointExtension>
</extensions>
</trkpt>
<trkpt lat="51.8846550" lon="14.1250840">
<ele>-9.3860000</ele>
<time>2010-06-27T08:54:35Z</time>
<extensions>
<tp1:TrackPointExtension>
<tp1:hr>122</tp1:hr>
<tp1:cad>83</tp1:cad>
</tp1:TrackPointExtension>
</extensions>
</trkpt>
<trkpt lat="51.8852620" lon="14.1250920">
<ele>-9.2930000</ele>
<time>2010-06-27T08:54:43Z</time>
<extensions>
<tp1:TrackPointExtension>
<tp1:hr>123</tp1:hr>
<tp1:cad>83</tp1:cad>
</tp1:TrackPointExtension>
</extensions>
</trkpt>
<trkpt lat="51.8856310" lon="14.1252560">
<ele>-9.0810000</ele>
<time>2010-06-27T08:54:48Z</time>
<extensions>
<tp1:TrackPointExtension>
<tp1:hr>123</tp1:hr>
<tp1:cad>82</tp1:cad>
</tp1:TrackPointExtension>
</extensions>
</trkpt>
<trkpt lat="51.8861490" lon="14.1255190">
<ele>-9.3700000</ele>
<time>2010-06-27T08:54:55Z</time>
<extensions>
<tp1:TrackPointExtension>
<tp1:hr>124</tp1:hr>
<tp1:cad>82</tp1:cad>
</tp1:TrackPointExtension>
</extensions>
</trkpt>
<trkpt lat="51.8865150" lon="14.1256210">
<ele>-9.4800000</ele>
<time>2010-06-27T08:55:00Z</time>
<extensions>
<tp1:TrackPointExtension>
<tp1:hr>124</tp1:hr>
<tp1:cad>84</tp1:cad>
</tp1:TrackPointExtension>
</extensions>
</trkpt>
<trkpt lat="51.8869910" lon="14.1256280">
<ele>-9.3030000</ele>
<time>2010-06-27T08:55:06Z</time>
<extensions>
<tp1:TrackPointExtension>
<tp1:hr>123</tp1:hr>
<tp1:cad>85</tp1:cad>
</tp1:TrackPointExtension>
</extensions>
</trkpt>
<trkpt lat="51.8876950" lon="14.1255660">
<ele>-9.3350000</ele>
<time>2010-06-27T08:55:15Z</time>
<extensions>
<tp1:TrackPointExtension>
<tp1:hr>122</tp1:hr>
<tp1:cad>83</tp1:cad>
</tp1:TrackPointExtension>
</extensions>
</trkpt>
<trkpt lat="51.8885570" lon="14.1254660">
<ele>-9.1040000</ele>
<time>2010-06-27T08:55:26Z</time>
<extensions>
<tp1:TrackPointExtension>
<tp1:hr>120</tp1:hr>
<tp1:cad>83</tp1:cad>
</tp1:TrackPointExtension>
</extensions>
</trkpt>
<trkpt lat="51.8894090" lon="14.1253690">
<ele>-9.1390000</ele>
<time>2010-06-27T08:55:37Z</time>
<extensions>
<tp1:TrackPointExtension>
<tp1:hr>117</tp1:hr>
<tp1:cad>83</tp1:cad>
</tp1:TrackPointExtension>
</extensions>
</trkpt>
<trkpt lat="51.8901160" lon="14.1252910">
<ele>-8.8860000</ele>
<time>2010-06-27T08:55:46Z</time>
<extensions>
<tp1:TrackPointExtension>
<tp1:hr>116</tp1:hr>
<tp1:cad>72</tp1:cad>
</tp1:TrackPointExtension>
</extensions>
</trkpt>
<trkpt lat="51.8908210" lon="14.1252180">
<ele>-8.2110000</ele>
<time>2010-06-27T08:55:55Z</time>
<extensions>
<tp1:TrackPointExtension>
<tp1:hr>116</tp1:hr>
<tp1:cad>80</tp1:cad>
</tp1:TrackPointExtension>
</extensions>
</trkpt>
<trkpt lat="51.8918310" lon="14.1251270">
<ele>-8.6720000</ele>
<time>2010-06-27T08:56:08Z</time>
<extensions>
<tp1:TrackPointExtension>
<tp1:hr>118</tp1:hr>
<tp1:cad>83</tp1:cad>
</tp1:TrackPointExtension>
</extensions>
</trkpt>
<trkpt lat="51.8926020" lon="14.1250570">
<ele>-9.3350000</ele>
<time>2010-06-27T08:56:18Z</time>
<extensions>
<tp1:TrackPointExtension>
<tp1:hr>121</tp1:hr>
<tp1:cad>84</tp1:cad>
</tp1:TrackPointExtension>
</extensions>
</trkpt>
<trkpt lat="51.8933860" lon="14.1250010">
<ele>-8.2750000</ele>
<time>2010-06-27T08:56:28Z</time>
<extensions>
<tp1:TrackPointExtension>
<tp1:hr>120</tp1:hr>
<tp1:cad>84</tp1:cad>
</tp1:TrackPointExtension>
</extensions>
</trkpt>
<trkpt lat="51.8942390" lon="14.1249880">
<ele>-9.3630000</ele>
<time>2010-06-27T08:56:39Z</time>
<extensions>
<tp1:TrackPointExtension>
<tp1:hr>121</tp1:hr>
<tp1:cad>83</tp1:cad>
</tp1:TrackPointExtension>
</extensions>
</trkpt>
<trkpt lat="51.8948540" lon="14.1250030">
<ele>-9.2480000</ele>
<time>2010-06-27T08:56:47Z</time>
<extensions>
<tp1:TrackPointExtension>
<tp1:hr>123</tp1:hr>
<tp1:cad>77</tp1:cad>
</tp1:TrackPointExtension>
</extensions>
</trkpt>
<trkpt lat="51.8952370" lon="14.1250420">
<ele>-9.2370000</ele>
<time>2010-06-27T08:56:52Z</time>
<extensions>
<tp1:TrackPointExtension>
<tp1:hr>125</tp1:hr>
<tp1:cad>0</tp1:cad>
</tp1:TrackPointExtension>
</extensions>
</trkpt>
<trkpt lat="51.8955060" lon="14.1250850">
<ele>-9.5120000</ele>
<time>2010-06-27T08:56:56Z</time>
<extensions>
<tp1:TrackPointExtension>
<tp1:hr>125</tp1:hr>
<tp1:cad>78</tp1:cad>
</tp1:TrackPointExtension>
</extensions>
</trkpt>
<trkpt lat="51.8958760" lon="14.1251440">
<ele>-9.6380000</ele>
<time>2010-06-27T08:57:01Z</time>
<extensions>
<tp1:TrackPointExtension>
<tp1:hr>123</tp1:hr>
<tp1:cad>82</tp1:cad>
</tp1:TrackPointExtension>
</extensions>
</trkpt>
<trkpt lat="51.8964290" lon="14.1252320">
<ele>-9.6010000</ele>
<time>2010-06-27T08:57:08Z</time>
<extensions>
<tp1:TrackPointExtension>
<tp1:hr>121</tp1:hr>
<tp1:cad>83</tp1:cad>
</tp1:TrackPointExtension>
</extensions>
</trkpt>
<trkpt lat="51.8968000" lon="14.1252420">
<ele>-9.6520000</ele>
<time>2010-06-27T08:57:13Z</time>
<extensions>
<tp1:TrackPointExtension>
<tp1:hr>121</tp1:hr>
<tp1:cad>82</tp1:cad>
</tp1:TrackPointExtension>
</extensions>
</trkpt>
<trkpt lat="51.8972650" lon="14.1252420">
<ele>-9.2320000</ele>
<time>2010-06-27T08:57:19Z</time>
<extensions>
<tp1:TrackPointExtension>
<tp1:hr>120</tp1:hr>
<tp1:cad>82</tp1:cad>
</tp1:TrackPointExtension>
</extensions>
</trkpt>
<trkpt lat="51.8977370" lon="14.1252130">
<ele>-8.7960000</ele>
<time>2010-06-27T08:57:25Z</time>
<extensions>
<tp1:TrackPointExtension>
<tp1:hr>121</tp1:hr>
<tp1:cad>81</tp1:cad>
</tp1:TrackPointExtension>
</extensions>
</trkpt>
<trkpt lat="51.8982190" lon="14.1250990">
<ele>-9.2470000</ele>
<time>2010-06-27T08:57:31Z</time>
<extensions>
<tp1:TrackPointExtension>
<tp1:hr>121</tp1:hr>
<tp1:cad>86</tp1:cad>
</tp1:TrackPointExtension>
</extensions>
</trkpt>
<trkpt lat="51.8985330" lon="14.1249290">
<ele>-8.9260000</ele>
<time>2010-06-27T08:57:35Z</time>
<extensions>
<tp1:TrackPointExtension>
<tp1:hr>122</tp1:hr>
<tp1:cad>88</tp1:cad>
</tp1:TrackPointExtension>
</extensions>
</trkpt>
<trkpt lat="51.8992770" lon="14.1243770">
<ele>-9.8570000</ele>
<time>2010-06-27T08:57:45Z</time>
<extensions>
<tp1:TrackPointExtension>
<tp1:hr>122</tp1:hr>
<tp1:cad>77</tp1:cad>
</tp1:TrackPointExtension>
</extensions>
</trkpt>
<trkpt lat="51.8997020" lon="14.1240620">
<ele>-9.9430000</ele>
<time>2010-06-27T08:57:51Z</time>
<extensions>
<tp1:TrackPointExtension>
<tp1:hr>121</tp1:hr>
<tp1:cad>0</tp1:cad>
</tp1:TrackPointExtension>
</extensions>
</trkpt>
<trkpt lat="51.9000280" lon="14.1238200">
<ele>-9.6670000</ele>
<time>2010-06-27T08:57:56Z</time>
<extensions>
<tp1:TrackPointExtension>
<tp1:hr>120</tp1:hr>
<tp1:cad>77</tp1:cad>
</tp1:TrackPointExtension>
</extensions>
</trkpt>
<trkpt lat="51.9005260" lon="14.1234510">
<ele>-9.8670000</ele>
<time>2010-06-27T08:58:03Z</time>
<extensions>
<tp1:TrackPointExtension>
<tp1:hr>116</tp1:hr>
<tp1:cad>71</tp1:cad>
</tp1:TrackPointExtension>
</extensions>
</trkpt>
<trkpt lat="51.9010650" lon="14.1230510">
<ele>-9.2920000</ele>
<time>2010-06-27T08:58:11Z</time>
<extensions>
<tp1:TrackPointExtension>
<tp1:hr>114</tp1:hr>
<tp1:cad>77</tp1:cad>
</tp1:TrackPointExtension>
</extensions>
</trkpt>
<trkpt lat="51.9016550" lon="14.1226130">
<ele>-8.8240000</ele>
<time>2010-06-27T08:58:19Z</time>
<extensions>
<tp1:TrackPointExtension>
<tp1:hr>114</tp1:hr>
<tp1:cad>82</tp1:cad>
</tp1:TrackPointExtension>
</extensions>
</trkpt>
<trkpt lat="51.9020130" lon="14.1223480">
<ele>-8.9870000</ele>
<time>2010-06-27T08:58:24Z</time>
<extensions>
<tp1:TrackPointExtension>
<tp1:hr>115</tp1:hr>
<tp1:cad>76</tp1:cad>
</tp1:TrackPointExtension>
</extensions>
</trkpt>
<trkpt lat="51.9023540" lon="14.1220940">
<ele>-9.2840000</ele>
<time>2010-06-27T08:58:29Z</time>
<extensions>
<tp1:TrackPointExtension>
<tp1:hr>116</tp1:hr>
<tp1:cad>71</tp1:cad>
</tp1:TrackPointExtension>
</extensions>
</trkpt>
<trkpt lat="51.9030930" lon="14.1215570">
<ele>-9.1950000</ele>
<time>2010-06-27T08:58:39Z</time>
<extensions>
<tp1:TrackPointExtension>
<tp1:hr>118</tp1:hr>
<tp1:cad>77</tp1:cad>
</tp1:TrackPointExtension>
</extensions>
</trkpt>
<trkpt lat="51.9035270" lon="14.1212540">
<ele>-9.3220000</ele>
<time>2010-06-27T08:58:45Z</time>
<extensions>
<tp1:TrackPointExtension>
<tp1:hr>118</tp1:hr>
<tp1:cad>77</tp1:cad>
</tp1:TrackPointExtension>
</extensions>
</trkpt>
<trkpt lat="51.9040340" lon="14.1208530">
<ele>-9.2840000</ele>
<time>2010-06-27T08:58:52Z</time>
<extensions>
<tp1:TrackPointExtension>
<tp1:hr>116</tp1:hr>
<tp1:cad>77</tp1:cad>
</tp1:TrackPointExtension>
</extensions>
</trkpt>
<trkpt lat="51.9045350" lon="14.1204570">
<ele>-8.4840000</ele>
<time>2010-06-27T08:58:59Z</time>
<extensions>
<tp1:TrackPointExtension>
<tp1:hr>116</tp1:hr>
<tp1:cad>74</tp1:cad>
</tp1:TrackPointExtension>
</extensions>
</trkpt>
<trkpt lat="51.9050040" lon="14.1200870">
<ele>-8.9170000</ele>
<time>2010-06-27T08:59:06Z</time>
<extensions>
<tp1:TrackPointExtension>
<tp1:hr>116</tp1:hr>
<tp1:cad>79</tp1:cad>
</tp1:TrackPointExtension>
</extensions>
</trkpt>
<trkpt lat="51.9055730" lon="14.1196280">
<ele>-9.0490000</ele>
<time>2010-06-27T08:59:14Z</time>
<extensions>
<tp1:TrackPointExtension>
<tp1:hr>119</tp1:hr>
<tp1:cad>79</tp1:cad>
</tp1:TrackPointExtension>
</extensions>
</trkpt>
<trkpt lat="51.9060860" lon="14.1192040">
<ele>-8.7290000</ele>
<time>2010-06-27T08:59:21Z</time>
<extensions>
<tp1:TrackPointExtension>
<tp1:hr>121</tp1:hr>
<tp1:cad>71</tp1:cad>
</tp1:TrackPointExtension>
</extensions>
</trkpt>
<trkpt lat="51.9065150" lon="14.1188560">
<ele>-8.8750000</ele>
<time>2010-06-27T08:59:27Z</time>
<extensions>
<tp1:TrackPointExtension>
<tp1:hr>124</tp1:hr>
<tp1:cad>27</tp1:cad>
</tp1:TrackPointExtension>
</extensions>
</trkpt>
<trkpt lat="51.9069840" lon="14.1185010">
<ele>-8.9300000</ele>
<time>2010-06-27T08:59:34Z</time>
<extensions>
<tp1:TrackPointExtension>
<tp1:hr>125</tp1:hr>
<tp1:cad>0</tp1:cad>
</tp1:TrackPointExtension>
</extensions>
</trkpt>
<trkpt lat="51.9072160" lon="14.1183460">
<ele>-9.0810000</ele>
<time>2010-06-27T08:59:38Z</time>
<extensions>
<tp1:TrackPointExtension>
<tp1:hr>127</tp1:hr>
<tp1:cad>0</tp1:cad>
</tp1:TrackPointExtension>
</extensions>
</trkpt>
<trkpt lat="51.9073940" lon="14.1182270">
<ele>-9.0410000</ele>
<time>2010-06-27T08:59:41Z</time>
<extensions>
<tp1:TrackPointExtension>
<tp1:hr>129</tp1:hr>
<tp1:cad>66</tp1:cad>
</tp1:TrackPointExtension>
</extensions>
</trkpt>
<trkpt lat="51.9076430" lon="14.1180620">
<ele>-8.7730000</ele>
<time>2010-06-27T08:59:45Z</time>
<extensions>
<tp1:TrackPointExtension>
<tp1:hr>129</tp1:hr>
<tp1:cad>68</tp1:cad>
</tp1:TrackPointExtension>
</extensions>
</trkpt>
<trkpt lat="51.9077830" lon="14.1179680">
<ele>-8.4010000</ele>
<time>2010-06-27T08:59:50Z</time>
<extensions>
<tp1:TrackPointExtension>
<tp1:hr>127</tp1:hr>
<tp1:cad>71</tp1:cad>
</tp1:TrackPointExtension>
</extensions>
</trkpt>
<trkpt lat="51.9082370" lon="14.1177250">
<ele>-7.9990000</ele>
<time>2010-06-27T08:59:55Z</time>
<extensions>
<tp1:TrackPointExtension>
<tp1:hr>126</tp1:hr>
<tp1:cad>0</tp1:cad>
</tp1:TrackPointExtension>
</extensions>
</trkpt>
<trkpt lat="51.9083250" lon="14.1175890">
<ele>-8.0760000</ele>
<time>2010-06-27T08:59:57Z</time>
<extensions>
<tp1:TrackPointExtension>
<tp1:hr>126</tp1:hr>
<tp1:cad>0</tp1:cad>
</tp1:TrackPointExtension>
</extensions>
</trkpt>
<trkpt lat="51.9085580" lon="14.1175430">
<ele>-7.8930000</ele>
<time>2010-06-27T09:00:01Z</time>
<extensions>
<tp1:TrackPointExtension>
<tp1:hr>127</tp1:hr>
<tp1:cad>51</tp1:cad>
</tp1:TrackPointExtension>
</extensions>
</trkpt>
<trkpt lat="51.9086270" lon="14.1176720">
<ele>-7.7200000</ele>
<time>2010-06-27T09:00:03Z</time>
<extensions>
<tp1:TrackPointExtension>
<tp1:hr>127</tp1:hr>
<tp1:cad>64</tp1:cad>
</tp1:TrackPointExtension>
</extensions>
</trkpt>
<trkpt lat="51.9089090" lon="14.1181710">
<ele>-7.7050000</ele>
<time>2010-06-27T09:00:09Z</time>
<extensions>
<tp1:TrackPointExtension>
<tp1:hr>126</tp1:hr>
<tp1:cad>33</tp1:cad>
</tp1:TrackPointExtension>
</extensions>
</trkpt>
<trkpt lat="51.9092710" lon="14.1187090">
<ele>-7.4240000</ele>
<time>2010-06-27T09:00:16Z</time>
<extensions>
<tp1:TrackPointExtension>
<tp1:hr>127</tp1:hr>
<tp1:cad>71</tp1:cad>
</tp1:TrackPointExtension>
</extensions>
</trkpt>
<trkpt lat="51.9098210" lon="14.1194910">
<ele>-7.6530000</ele>
<time>2010-06-27T09:00:26Z</time>
<extensions>
<tp1:TrackPointExtension>
<tp1:hr>129</tp1:hr>
<tp1:cad>0</tp1:cad>
</tp1:TrackPointExtension>
</extensions>
</trkpt>
<trkpt lat="51.9102100" lon="14.1200750">
<ele>-7.5740000</ele>
<time>2010-06-27T09:00:34Z</time>
<extensions>
<tp1:TrackPointExtension>
<tp1:hr>129</tp1:hr>
<tp1:cad>50</tp1:cad>
</tp1:TrackPointExtension>
</extensions>
</trkpt>
<trkpt lat="51.9105420" lon="14.1205730">
<ele>-6.7340000</ele>
<time>2010-06-27T09:00:41Z</time>
<extensions>
<tp1:TrackPointExtension>
<tp1:hr>129</tp1:hr>
<tp1:cad>60</tp1:cad>
</tp1:TrackPointExtension>
</extensions>
</trkpt>
<trkpt lat="51.9108490" lon="14.1209830">
<ele>-6.0180000</ele>
<time>2010-06-27T09:00:47Z</time>
<extensions>
<tp1:TrackPointExtension>
<tp1:hr>131</tp1:hr>
<tp1:cad>67</tp1:cad>
</tp1:TrackPointExtension>
</extensions>
</trkpt>
<trkpt lat="51.9111480" lon="14.1213780">
<ele>-5.2940000</ele>
<time>2010-06-27T09:00:53Z</time>
<extensions>
<tp1:TrackPointExtension>
<tp1:hr>132</tp1:hr>
<tp1:cad>43</tp1:cad>
</tp1:TrackPointExtension>
</extensions>
</trkpt>
<trkpt lat="51.9113670" lon="14.1217190">
<ele>-4.5570000</ele>
<time>2010-06-27T09:00:59Z</time>
<extensions>
<tp1:TrackPointExtension>
<tp1:hr>134</tp1:hr>
<tp1:cad>27</tp1:cad>
</tp1:TrackPointExtension>
</extensions>
</trkpt>
<trkpt lat="51.9114740" lon="14.1218740">
<ele>-4.0650000</ele>
<time>2010-06-27T09:01:03Z</time>
<extensions>
<tp1:TrackPointExtension>
<tp1:hr>133</tp1:hr>
<tp1:cad>0</tp1:cad>
</tp1:TrackPointExtension>
</extensions>
</trkpt>
<trkpt lat="51.9114740" lon="14.1218740">
<ele>-3.9910000</ele>
<time>2010-06-27T09:01:04Z</time>
<extensions>
<tp1:TrackPointExtension>
<tp1:hr>133</tp1:hr>
<tp1:cad>0</tp1:cad>
</tp1:TrackPointExtension>
</extensions>
</trkpt>
<trkpt lat="51.9114740" lon="14.1218740">
<ele>-3.9790000</ele>
<time>2010-06-27T09:01:05Z</time>
<extensions>
<tp1:TrackPointExtension>
<tp1:hr>134</tp1:hr>
<tp1:cad>0</tp1:cad>
</tp1:TrackPointExtension>
</extensions>
</trkpt>
<trkpt lat="51.9114740" lon="14.1218740">
<ele>-4.2180000</ele>
<time>2010-06-27T09:01:07Z</time>
<extensions>
<tp1:TrackPointExtension>
<tp1:hr>134</tp1:hr>
<tp1:cad>36</tp1:cad>
</tp1:TrackPointExtension>
</extensions>
</trkpt>
</trkseg>
<trkseg>
<trkpt lat="51.9114740" lon="14.1218740">
<ele>-4.2960000</ele>
<time>2010-06-27T09:01:09Z</time>
<extensions>
<tp1:TrackPointExtension>
<tp1:hr>134</tp1:hr>
<tp1:cad>36</tp1:cad>
</tp1:TrackPointExtension>
</extensions>
</trkpt>
<trkpt lat="51.9116600" lon="14.1221250">
<ele>-3.7830000</ele>
<time>2010-06-27T09:01:14Z</time>
<extensions>
<tp1:TrackPointExtension>
<tp1:hr>136</tp1:hr>
<tp1:cad>43</tp1:cad>
</tp1:TrackPointExtension>
</extensions>
</trkpt>
<trkpt lat="51.9118610" lon="14.1224000">
<ele>-2.9870000</ele>
<time>2010-06-27T09:01:19Z</time>
<extensions>
<tp1:TrackPointExtension>
<tp1:hr>138</tp1:hr>
<tp1:cad>63</tp1:cad>
</tp1:TrackPointExtension>
</extensions>
</trkpt>
<trkpt lat="51.9122760" lon="14.1229760">
<ele>-3.7170000</ele>
<time>2010-06-27T09:01:27Z</time>
<extensions>
<tp1:TrackPointExtension>
<tp1:hr>138</tp1:hr>
<tp1:cad>34</tp1:cad>
</tp1:TrackPointExtension>
</extensions>
</trkpt>
<trkpt lat="51.9127910" lon="14.1236360">
<ele>-4.4960000</ele>
<time>2010-06-27T09:01:36Z</time>
<extensions>
<tp1:TrackPointExtension>
<tp1:hr>137</tp1:hr>
<tp1:cad>28</tp1:cad>
</tp1:TrackPointExtension>
</extensions>
</trkpt>
<trkpt lat="51.9128600" lon="14.1236890">
<ele>-4.7580000</ele>
<time>2010-06-27T09:01:37Z</time>
<extensions>
<tp1:TrackPointExtension>
<tp1:hr>137</tp1:hr>
<tp1:cad>73</tp1:cad>
</tp1:TrackPointExtension>
</extensions>
</trkpt>
<trkpt lat="51.9129430" lon="14.1241790">
<ele>-5.3970000</ele>
<time>2010-06-27T09:01:41Z</time>
<extensions>
<tp1:TrackPointExtension>
<tp1:hr>136</tp1:hr>
<tp1:cad>74</tp1:cad>
</tp1:TrackPointExtension>
</extensions>
</trkpt>
<trkpt lat="51.9129870" lon="14.1244100">
<ele>-5.4770000</ele>
<time>2010-06-27T09:01:43Z</time>
<extensions>
<tp1:TrackPointExtension>
<tp1:hr>136</tp1:hr>
<tp1:cad>0</tp1:cad>
</tp1:TrackPointExtension>
</extensions>
</trkpt>
<trkpt lat="51.9130830" lon="14.1249310">
<ele>-5.2500000</ele>
<time>2010-06-27T09:01:48Z</time>
<extensions>
<tp1:TrackPointExtension>
<tp1:hr>135</tp1:hr>
<tp1:cad>75</tp1:cad>
</tp1:TrackPointExtension>
</extensions>
</trkpt>
<trkpt lat="51.9132050" lon="14.1250090">
<ele>-5.2500000</ele>
<time>2010-06-27T09:01:49Z</time>
<extensions>
<tp1:TrackPointExtension>
<tp1:hr>134</tp1:hr>
<tp1:cad>75</tp1:cad>
</tp1:TrackPointExtension>
</extensions>
</trkpt>
<trkpt lat="51.9138730" lon="14.1254430">
<ele>-5.7430000</ele>
<time>2010-06-27T09:01:58Z</time>
<extensions>
<tp1:TrackPointExtension>
<tp1:hr>133</tp1:hr>
<tp1:cad>78</tp1:cad>
</tp1:TrackPointExtension>
</extensions>
</trkpt>
<trkpt lat="51.9143230" lon="14.1257250">
<ele>-5.3860000</ele>
<time>2010-06-27T09:02:04Z</time>
<extensions>
<tp1:TrackPointExtension>
<tp1:hr>132</tp1:hr>
<tp1:cad>76</tp1:cad>
</tp1:TrackPointExtension>
</extensions>
</trkpt>
<trkpt lat="51.9149060" lon="14.1260790">
<ele>-4.9500000</ele>
<time>2010-06-27T09:02:12Z</time>
<extensions>
<tp1:TrackPointExtension>
<tp1:hr>132</tp1:hr>
<tp1:cad>74</tp1:cad>
</tp1:TrackPointExtension>
</extensions>
</trkpt>
<trkpt lat="51.9155330" lon="14.1264560">
<ele>-4.3580000</ele>
<time>2010-06-27T09:02:21Z</time>
<extensions>
<tp1:TrackPointExtension>
<tp1:hr>131</tp1:hr>
<tp1:cad>74</tp1:cad>
</tp1:TrackPointExtension>
</extensions>
</trkpt>
<trkpt lat="51.9164080" lon="14.1269630">
<ele>-4.1730000</ele>
<time>2010-06-27T09:02:33Z</time>
<extensions>
<tp1:TrackPointExtension>
<tp1:hr>132</tp1:hr>
<tp1:cad>75</tp1:cad>
</tp1:TrackPointExtension>
</extensions>
</trkpt>
<trkpt lat="51.9172090" lon="14.1274750">
<ele>-4.6860000</ele>
<time>2010-06-27T09:02:44Z</time>
<extensions>
<tp1:TrackPointExtension>
<tp1:hr>133</tp1:hr>
<tp1:cad>91</tp1:cad>
</tp1:TrackPointExtension>
</extensions>
</trkpt>
<trkpt lat="51.9174800" lon="14.1277180">
<ele>-4.6350000</ele>
<time>2010-06-27T09:02:48Z</time>
<extensions>
<tp1:TrackPointExtension>
<tp1:hr>134</tp1:hr>
<tp1:cad>89</tp1:cad>
</tp1:TrackPointExtension>
</extensions>
</trkpt>
<trkpt lat="51.9177000" lon="14.1280570">
<ele>-4.0630000</ele>
<time>2010-06-27T09:02:52Z</time>
<extensions>
<tp1:TrackPointExtension>
<tp1:hr>133</tp1:hr>
<tp1:cad>89</tp1:cad>
</tp1:TrackPointExtension>
</extensions>
</trkpt>
<trkpt lat="51.9178960" lon="14.1284420">
<ele>-3.7870000</ele>
<time>2010-06-27T09:02:56Z</time>
<extensions>
<tp1:TrackPointExtension>
<tp1:hr>132</tp1:hr>
<tp1:cad>90</tp1:cad>
</tp1:TrackPointExtension>
</extensions>
</trkpt>
<trkpt lat="51.9181980" lon="14.1288240">
<ele>-3.8060000</ele>
<time>2010-06-27T09:03:01Z</time>
<extensions>
<tp1:TrackPointExtension>
<tp1:hr>133</tp1:hr>
<tp1:cad>92</tp1:cad>
</tp1:TrackPointExtension>
</extensions>
</trkpt>
<trkpt lat="51.9187270" lon="14.1293190">
<ele>-3.9720000</ele>
<time>2010-06-27T09:03:11Z</time>
<extensions>
<tp1:TrackPointExtension>
<tp1:hr>135</tp1:hr>
<tp1:cad>93</tp1:cad>
</tp1:TrackPointExtension>
</extensions>
</trkpt>
<trkpt lat="51.9195000" lon="14.1300550">
<ele>-4.3560000</ele>
<time>2010-06-27T09:03:20Z</time>
<extensions>
<tp1:TrackPointExtension>
<tp1:hr>135</tp1:hr>
<tp1:cad>92</tp1:cad>
</tp1:TrackPointExtension>
</extensions>
</trkpt>
<trkpt lat="51.9199790" lon="14.1305100">
<ele>-4.7190000</ele>
<time>2010-06-27T09:03:27Z</time>
<extensions>
<tp1:TrackPointExtension>
<tp1:hr>133</tp1:hr>
<tp1:cad>0</tp1:cad>
</tp1:TrackPointExtension>
</extensions>
</trkpt>
<trkpt lat="51.9204780" lon="14.1309840">
<ele>-5.8580000</ele>
<time>2010-06-27T09:03:34Z</time>
<extensions>
<tp1:TrackPointExtension>
<tp1:hr>132</tp1:hr>
<tp1:cad>0</tp1:cad>
</tp1:TrackPointExtension>
</extensions>
</trkpt>
<trkpt lat="51.9211380" lon="14.1316110">
<ele>-7.1450000</ele>
<time>2010-06-27T09:03:43Z</time>
<extensions>
<tp1:TrackPointExtension>
<tp1:hr>131</tp1:hr>
<tp1:cad>85</tp1:cad>
</tp1:TrackPointExtension>
</extensions>
</trkpt>
<trkpt lat="51.9215560" lon="14.1320100">
<ele>-7.2090000</ele>
<time>2010-06-27T09:03:49Z</time>
<extensions>
<tp1:TrackPointExtension>
<tp1:hr>126</tp1:hr>
<tp1:cad>82</tp1:cad>
</tp1:TrackPointExtension>
</extensions>
</trkpt>
<trkpt lat="51.9216930" lon="14.1321400">
<ele>-6.9930000</ele>
<time>2010-06-27T09:03:51Z</time>
<extensions>
<tp1:TrackPointExtension>
<tp1:hr>122</tp1:hr>
<tp1:cad>82</tp1:cad>
</tp1:TrackPointExtension>
</extensions>
</trkpt>
<trkpt lat="51.9223790" lon="14.1324270">
<ele>-5.7620000</ele>
<time>2010-06-27T09:04:00Z</time>
<extensions>
<tp1:TrackPointExtension>
<tp1:hr>125</tp1:hr>
<tp1:cad>82</tp1:cad>
</tp1:TrackPointExtension>
</extensions>
</trkpt>
<trkpt lat="51.9232000" lon="14.1327120">
<ele>-4.6370000</ele>
<time>2010-06-27T09:04:11Z</time>
<extensions>
<tp1:TrackPointExtension>
<tp1:hr>128</tp1:hr>
<tp1:cad>81</tp1:cad>
</tp1:TrackPointExtension>
</extensions>
</trkpt>
<trkpt lat="51.9239790" lon="14.1329830">
<ele>-5.2870000</ele>
<time>2010-06-27T09:04:21Z</time>
<extensions>
<tp1:TrackPointExtension>
<tp1:hr>133</tp1:hr>
<tp1:cad>86</tp1:cad>
</tp1:TrackPointExtension>
</extensions>
</trkpt>
<trkpt lat="51.9245410" lon="14.1331790">
<ele>-5.5220000</ele>
<time>2010-06-27T09:04:28Z</time>
<extensions>
<tp1:TrackPointExtension>
<tp1:hr>139</tp1:hr>
<tp1:cad>83</tp1:cad>
</tp1:TrackPointExtension>
</extensions>
</trkpt>
<trkpt lat="51.9250920" lon="14.1332610">
<ele>-5.4620000</ele>
<time>2010-06-27T09:04:35Z</time>
<extensions>
<tp1:TrackPointExtension>
<tp1:hr>142</tp1:hr>
<tp1:cad>81</tp1:cad>
</tp1:TrackPointExtension>
</extensions>
</trkpt>
<trkpt lat="51.9254830" lon="14.1332120">
<ele>-5.6350000</ele>
<time>2010-06-27T09:04:40Z</time>
<extensions>
<tp1:TrackPointExtension>
<tp1:hr>142</tp1:hr>
<tp1:cad>84</tp1:cad>
</tp1:TrackPointExtension>
</extensions>
</trkpt>
<trkpt lat="51.9258740" lon="14.1330400">
<ele>-6.0840000</ele>
<time>2010-06-27T09:04:45Z</time>
<extensions>
<tp1:TrackPointExtension>
<tp1:hr>142</tp1:hr>
<tp1:cad>85</tp1:cad>
</tp1:TrackPointExtension>
</extensions>
</trkpt>
<trkpt lat="51.9263210" lon="14.1327320">
<ele>-6.3850000</ele>
<time>2010-06-27T09:04:51Z</time>
<extensions>
<tp1:TrackPointExtension>
<tp1:hr>142</tp1:hr>
<tp1:cad>86</tp1:cad>
</tp1:TrackPointExtension>
</extensions>
</trkpt>
<trkpt lat="51.9267850" lon="14.1325280">
<ele>-6.1600000</ele>
<time>2010-06-27T09:04:57Z</time>
<extensions>
<tp1:TrackPointExtension>
<tp1:hr>142</tp1:hr>
<tp1:cad>84</tp1:cad>
</tp1:TrackPointExtension>
</extensions>
</trkpt>
<trkpt lat="51.9272510" lon="14.1325020">
<ele>-5.5660000</ele>
<time>2010-06-27T09:05:03Z</time>
<extensions>
<tp1:TrackPointExtension>
<tp1:hr>142</tp1:hr>
<tp1:cad>84</tp1:cad>
</tp1:TrackPointExtension>
</extensions>
</trkpt>
<trkpt lat="51.9277380" lon="14.1324760">
<ele>-5.2710000</ele>
<time>2010-06-27T09:05:09Z</time>
<extensions>
<tp1:TrackPointExtension>
<tp1:hr>140</tp1:hr>
<tp1:cad>83</tp1:cad>
</tp1:TrackPointExtension>
</extensions>
</trkpt>
<trkpt lat="51.9282990" lon="14.1324450">
<ele>-4.1800000</ele>
<time>2010-06-27T09:05:16Z</time>
<extensions>
<tp1:TrackPointExtension>
<tp1:hr>141</tp1:hr>
<tp1:cad>85</tp1:cad>
</tp1:TrackPointExtension>
</extensions>
</trkpt>
<trkpt lat="51.9288590" lon="14.1324140">
<ele>-3.7890000</ele>
<time>2010-06-27T09:05:23Z</time>
<extensions>
<tp1:TrackPointExtension>
<tp1:hr>142</tp1:hr>
<tp1:cad>94</tp1:cad>
</tp1:TrackPointExtension>
</extensions>
</trkpt>
<trkpt lat="51.9292640" lon="14.1323920">
<ele>-3.7230000</ele>
<time>2010-06-27T09:05:28Z</time>
<extensions>
<tp1:TrackPointExtension>
<tp1:hr>144</tp1:hr>
<tp1:cad>96</tp1:cad>
</tp1:TrackPointExtension>
</extensions>
</trkpt>
<trkpt lat="51.9299200" lon="14.1323560">
<ele>-3.7200000</ele>
<time>2010-06-27T09:05:36Z</time>
<extensions>
<tp1:TrackPointExtension>
<tp1:hr>146</tp1:hr>
<tp1:cad>79</tp1:cad>
</tp1:TrackPointExtension>
</extensions>
</trkpt>
<trkpt lat="51.9304120" lon="14.1323290">
<ele>-4.2030000</ele>
<time>2010-06-27T09:05:42Z</time>
<extensions>
<tp1:TrackPointExtension>
<tp1:hr>145</tp1:hr>
<tp1:cad>96</tp1:cad>
</tp1:TrackPointExtension>
</extensions>
</trkpt>
<trkpt lat="51.9309840" lon="14.1322170">
<ele>-4.3750000</ele>
<time>2010-06-27T09:05:49Z</time>
<extensions>
<tp1:TrackPointExtension>
<tp1:hr>143</tp1:hr>
<tp1:cad>96</tp1:cad>
</tp1:TrackPointExtension>
</extensions>
</trkpt>
<trkpt lat="51.9317000" lon="14.1320580">
<ele>-4.1710000</ele>
<time>2010-06-27T09:05:58Z</time>
<extensions>
<tp1:TrackPointExtension>
<tp1:hr>141</tp1:hr>
<tp1:cad>47</tp1:cad>
</tp1:TrackPointExtension>
</extensions>
</trkpt>
<trkpt lat="51.9320900" lon="14.1319720">
<ele>-4.0600000</ele>
<time>2010-06-27T09:06:03Z</time>
<extensions>
<tp1:TrackPointExtension>
<tp1:hr>139</tp1:hr>
<tp1:cad>95</tp1:cad>
</tp1:TrackPointExtension>
</extensions>
</trkpt>
<trkpt lat="51.9325460" lon="14.1318700">
<ele>-4.4290000</ele>
<time>2010-06-27T09:06:09Z</time>
<extensions>
<tp1:TrackPointExtension>
<tp1:hr>138</tp1:hr>
<tp1:cad>96</tp1:cad>
</tp1:TrackPointExtension>
</extensions>
</trkpt>
<trkpt lat="51.9330590" lon="14.1317560">
<ele>-4.7430000</ele>
<time>2010-06-27T09:06:15Z</time>
<extensions>
<tp1:TrackPointExtension>
<tp1:hr>139</tp1:hr>
<tp1:cad>86</tp1:cad>
</tp1:TrackPointExtension>
</extensions>
</trkpt>
<trkpt lat="51.9335510" lon="14.1316470">
<ele>-4.9830000</ele>
<time>2010-06-27T09:06:21Z</time>
<extensions>
<tp1:TrackPointExtension>
<tp1:hr>138</tp1:hr>
<tp1:cad>86</tp1:cad>
</tp1:TrackPointExtension>
</extensions>
</trkpt>
<trkpt lat="51.9341890" lon="14.1315050">
<ele>-4.8020000</ele>
<time>2010-06-27T09:06:29Z</time>
<extensions>
<tp1:TrackPointExtension>
<tp1:hr>136</tp1:hr>
<tp1:cad>82</tp1:cad>
</tp1:TrackPointExtension>
</extensions>
</trkpt>
<trkpt lat="51.9347340" lon="14.1313840">
<ele>-5.4750000</ele>
<time>2010-06-27T09:06:36Z</time>
<extensions>
<tp1:TrackPointExtension>
<tp1:hr>134</tp1:hr>
<tp1:cad>84</tp1:cad>
</tp1:TrackPointExtension>
</extensions>
</trkpt>
<trkpt lat="51.9352240" lon="14.1312750">
<ele>-5.7200000</ele>
<time>2010-06-27T09:06:42Z</time>
<extensions>
<tp1:TrackPointExtension>
<tp1:hr>134</tp1:hr>
<tp1:cad>86</tp1:cad>
</tp1:TrackPointExtension>
</extensions>
</trkpt>
<trkpt lat="51.9358120" lon="14.1311450">
<ele>-6.6160000</ele>
<time>2010-06-27T09:06:49Z</time>
<extensions>
<tp1:TrackPointExtension>
<tp1:hr>135</tp1:hr>
<tp1:cad>87</tp1:cad>
</tp1:TrackPointExtension>
</extensions>
</trkpt>
<trkpt lat="51.9365630" lon="14.1309780">
<ele>-6.0080000</ele>
<time>2010-06-27T09:06:58Z</time>
<extensions>
<tp1:TrackPointExtension>
<tp1:hr>134</tp1:hr>
<tp1:cad>85</tp1:cad>
</tp1:TrackPointExtension>
</extensions>
</trkpt>
<trkpt lat="51.9373720" lon="14.1307980">
<ele>-6.3970000</ele>
<time>2010-06-27T09:07:08Z</time>
<extensions>
<tp1:TrackPointExtension>
<tp1:hr>133</tp1:hr>
<tp1:cad>84</tp1:cad>
</tp1:TrackPointExtension>
</extensions>
</trkpt>
<trkpt lat="51.9381840" lon="14.1306170">
<ele>-5.5600000</ele>
<time>2010-06-27T09:07:18Z</time>
<extensions>
<tp1:TrackPointExtension>
<tp1:hr>135</tp1:hr>
<tp1:cad>87</tp1:cad>
</tp1:TrackPointExtension>
</extensions>
</trkpt>
<trkpt lat="51.9386840" lon="14.1305060">
<ele>-5.3130000</ele>
<time>2010-06-27T09:07:24Z</time>
<extensions>
<tp1:TrackPointExtension>
<tp1:hr>140</tp1:hr>
<tp1:cad>88</tp1:cad>
</tp1:TrackPointExtension>
</extensions>
</trkpt>
<trkpt lat="51.9392890" lon="14.1303610">
<ele>-5.7140000</ele>
<time>2010-06-27T09:07:31Z</time>
<extensions>
<tp1:TrackPointExtension>
<tp1:hr>142</tp1:hr>
<tp1:cad>60</tp1:cad>
</tp1:TrackPointExtension>
</extensions>
</trkpt>
<trkpt lat="51.9399480" lon="14.1301880">
<ele>-6.1970000</ele>
<time>2010-06-27T09:07:39Z</time>
<extensions>
<tp1:TrackPointExtension>
<tp1:hr>143</tp1:hr>
<tp1:cad>90</tp1:cad>
</tp1:TrackPointExtension>
</extensions>
</trkpt>
<trkpt lat="51.9406220" lon="14.1300120">
<ele>-7.5860000</ele>
<time>2010-06-27T09:07:47Z</time>
<extensions>
<tp1:TrackPointExtension>
<tp1:hr>142</tp1:hr>
<tp1:cad>91</tp1:cad>
</tp1:TrackPointExtension>
</extensions>
</trkpt>
<trkpt lat="51.9413160" lon="14.1298380">
<ele>-7.8220000</ele>
<time>2010-06-27T09:07:55Z</time>
<extensions>
<tp1:TrackPointExtension>
<tp1:hr>138</tp1:hr>
<tp1:cad>86</tp1:cad>
</tp1:TrackPointExtension>
</extensions>
</trkpt>
<trkpt lat="51.9418890" lon="14.1299600">
<ele>-7.0470000</ele>
<time>2010-06-27T09:08:02Z</time>
<extensions>
<tp1:TrackPointExtension>
<tp1:hr>137</tp1:hr>
<tp1:cad>85</tp1:cad>
</tp1:TrackPointExtension>
</extensions>
</trkpt>
<trkpt lat="51.9425320" lon="14.1300930">
<ele>-6.3660000</ele>
<time>2010-06-27T09:08:10Z</time>
<extensions>
<tp1:TrackPointExtension>
<tp1:hr>138</tp1:hr>
<tp1:cad>82</tp1:cad>
</tp1:TrackPointExtension>
</extensions>
</trkpt>
<trkpt lat="51.9430080" lon="14.1301920">
<ele>-6.6560000</ele>
<time>2010-06-27T09:08:16Z</time>
<extensions>
<tp1:TrackPointExtension>
<tp1:hr>140</tp1:hr>
<tp1:cad>84</tp1:cad>
</tp1:TrackPointExtension>
</extensions>
</trkpt>
<trkpt lat="51.9433720" lon="14.1304710">
<ele>-7.8800000</ele>
<time>2010-06-27T09:08:21Z</time>
<extensions>
<tp1:TrackPointExtension>
<tp1:hr>142</tp1:hr>
<tp1:cad>0</tp1:cad>
</tp1:TrackPointExtension>
</extensions>
</trkpt>
<trkpt lat="51.9435240" lon="14.1306380">
<ele>-8.1350000</ele>
<time>2010-06-27T09:08:24Z</time>
<extensions>
<tp1:TrackPointExtension>
<tp1:hr>143</tp1:hr>
<tp1:cad>0</tp1:cad>
</tp1:TrackPointExtension>
</extensions>
</trkpt>
<trkpt lat="51.9437180" lon="14.1310330">
<ele>-8.3080000</ele>
<time>2010-06-27T09:08:29Z</time>
<extensions>
<tp1:TrackPointExtension>
<tp1:hr>145</tp1:hr>
<tp1:cad>83</tp1:cad>
</tp1:TrackPointExtension>
</extensions>
</trkpt>
<trkpt lat="51.9440510" lon="14.1319400">
<ele>-9.0220000</ele>
<time>2010-06-27T09:08:37Z</time>
<extensions>
<tp1:TrackPointExtension>
<tp1:hr>146</tp1:hr>
<tp1:cad>83</tp1:cad>
</tp1:TrackPointExtension>
</extensions>
</trkpt>
<trkpt lat="51.9440970" lon="14.1320530">
<ele>-9.1310000</ele>
<time>2010-06-27T09:08:38Z</time>
<extensions>
<tp1:TrackPointExtension>
<tp1:hr>146</tp1:hr>
<tp1:cad>83</tp1:cad>
</tp1:TrackPointExtension>
</extensions>
</trkpt>
<trkpt lat="51.9444960" lon="14.1325060">
<ele>-9.3360000</ele>
<time>2010-06-27T09:08:44Z</time>
<extensions>
<tp1:TrackPointExtension>
<tp1:hr>146</tp1:hr>
<tp1:cad>83</tp1:cad>
</tp1:TrackPointExtension>
</extensions>
</trkpt>
<trkpt lat="51.9448650" lon="14.1330270">
<ele>-9.7980000</ele>
<time>2010-06-27T09:08:50Z</time>
<extensions>
<tp1:TrackPointExtension>
<tp1:hr>147</tp1:hr>
<tp1:cad>85</tp1:cad>
</tp1:TrackPointExtension>
</extensions>
</trkpt>
<trkpt lat="51.9455350" lon="14.1339570">
<ele>-10.2800000</ele>
<time>2010-06-27T09:09:01Z</time>
<extensions>
<tp1:TrackPointExtension>
<tp1:hr>147</tp1:hr>
<tp1:cad>83</tp1:cad>
</tp1:TrackPointExtension>
</extensions>
</trkpt>
<trkpt lat="51.9457810" lon="14.1344720">
<ele>-9.7110000</ele>
<time>2010-06-27T09:09:06Z</time>
<extensions>
<tp1:TrackPointExtension>
<tp1:hr>147</tp1:hr>
<tp1:cad>94</tp1:cad>
</tp1:TrackPointExtension>
</extensions>
</trkpt>
<trkpt lat="51.9459100" lon="14.1350790">
<ele>-9.4060000</ele>
<time>2010-06-27T09:09:11Z</time>
<extensions>
<tp1:TrackPointExtension>
<tp1:hr>147</tp1:hr>
<tp1:cad>91</tp1:cad>
</tp1:TrackPointExtension>
</extensions>
</trkpt>
<trkpt lat="51.9461310" lon="14.1363150">
<ele>-8.3270000</ele>
<time>2010-06-27T09:09:21Z</time>
<extensions>
<tp1:TrackPointExtension>
<tp1:hr>149</tp1:hr>
<tp1:cad>91</tp1:cad>
</tp1:TrackPointExtension>
</extensions>
</trkpt>
<trkpt lat="51.9461750" lon="14.1365580">
<ele>-7.8760000</ele>
<time>2010-06-27T09:09:23Z</time>
<extensions>
<tp1:TrackPointExtension>
<tp1:hr>149</tp1:hr>
<tp1:cad>90</tp1:cad>
</tp1:TrackPointExtension>
</extensions>
</trkpt>
<trkpt lat="51.9463810" lon="14.1370390">
<ele>-7.4440000</ele>
<time>2010-06-27T09:09:28Z</time>
<extensions>
<tp1:TrackPointExtension>
<tp1:hr>150</tp1:hr>
<tp1:cad>91</tp1:cad>
</tp1:TrackPointExtension>
</extensions>
</trkpt>
<trkpt lat="51.9466470" lon="14.1373060">
<ele>-7.8300000</ele>
<time>2010-06-27T09:09:32Z</time>
<extensions>
<tp1:TrackPointExtension>
<tp1:hr>150</tp1:hr>
<tp1:cad>91</tp1:cad>
</tp1:TrackPointExtension>
</extensions>
</trkpt>
<trkpt lat="51.9467050" lon="14.1373510">
<ele>-7.8830000</ele>
<time>2010-06-27T09:09:33Z</time>
<extensions>
<tp1:TrackPointExtension>
<tp1:hr>151</tp1:hr>
<tp1:cad>91</tp1:cad>
</tp1:TrackPointExtension>
</extensions>
</trkpt>
<trkpt lat="51.9476210" lon="14.1376640">
<ele>-8.1620000</ele>
<time>2010-06-27T09:09:45Z</time>
<extensions>
<tp1:TrackPointExtension>
<tp1:hr>154</tp1:hr>
<tp1:cad>90</tp1:cad>
</tp1:TrackPointExtension>
</extensions>
</trkpt>
<trkpt lat="51.9484740" lon="14.1379550">
<ele>-8.6670000</ele>
<time>2010-06-27T09:09:56Z</time>
<extensions>
<tp1:TrackPointExtension>
<tp1:hr>155</tp1:hr>
<tp1:cad>93</tp1:cad>
</tp1:TrackPointExtension>
</extensions>
</trkpt>
<trkpt lat="51.9492570" lon="14.1382220">
<ele>-7.7380000</ele>
<time>2010-06-27T09:10:06Z</time>
<extensions>
<tp1:TrackPointExtension>
<tp1:hr>156</tp1:hr>
<tp1:cad>91</tp1:cad>
</tp1:TrackPointExtension>
</extensions>
</trkpt>
<trkpt lat="51.9501920" lon="14.1385410">
<ele>-6.7190000</ele>
<time>2010-06-27T09:10:18Z</time>
<extensions>
<tp1:TrackPointExtension>
<tp1:hr>157</tp1:hr>
<tp1:cad>94</tp1:cad>
</tp1:TrackPointExtension>
</extensions>
</trkpt>
<trkpt lat="51.9511580" lon="14.1388710">
<ele>-6.3820000</ele>
<time>2010-06-27T09:10:30Z</time>
<extensions>
<tp1:TrackPointExtension>
<tp1:hr>159</tp1:hr>
<tp1:cad>83</tp1:cad>
</tp1:TrackPointExtension>
</extensions>
</trkpt>
<trkpt lat="51.9520320" lon="14.1391690">
<ele>-5.5160000</ele>
<time>2010-06-27T09:10:41Z</time>
<extensions>
<tp1:TrackPointExtension>
<tp1:hr>159</tp1:hr>
<tp1:cad>81</tp1:cad>
</tp1:TrackPointExtension>
</extensions>
</trkpt>
<trkpt lat="51.9528430" lon="14.1394460">
<ele>-5.5870000</ele>
<time>2010-06-27T09:10:52Z</time>
<extensions>
<tp1:TrackPointExtension>
<tp1:hr>158</tp1:hr>
<tp1:cad>88</tp1:cad>
</tp1:TrackPointExtension>
</extensions>
</trkpt>
<trkpt lat="51.9537460" lon="14.1397540">
<ele>-5.6760000</ele>
<time>2010-06-27T09:11:04Z</time>
<extensions>
<tp1:TrackPointExtension>
<tp1:hr>157</tp1:hr>
<tp1:cad>93</tp1:cad>
</tp1:TrackPointExtension>
</extensions>
</trkpt>
<trkpt lat="51.9544490" lon="14.1399940">
<ele>-4.4830000</ele>
<time>2010-06-27T09:11:13Z</time>
<extensions>
<tp1:TrackPointExtension>
<tp1:hr>157</tp1:hr>
<tp1:cad>97</tp1:cad>
</tp1:TrackPointExtension>
</extensions>
</trkpt>
<trkpt lat="51.9551010" lon="14.1401330">
<ele>-4.5760000</ele>
<time>2010-06-27T09:11:21Z</time>
<extensions>
<tp1:TrackPointExtension>
<tp1:hr>155</tp1:hr>
<tp1:cad>94</tp1:cad>
</tp1:TrackPointExtension>
</extensions>
</trkpt>
<trkpt lat="51.9556880" lon="14.1402000">
<ele>-4.5580000</ele>
<time>2010-06-27T09:11:28Z</time>
<extensions>
<tp1:TrackPointExtension>
<tp1:hr>153</tp1:hr>
<tp1:cad>0</tp1:cad>
</tp1:TrackPointExtension>
</extensions>
</trkpt>
<trkpt lat="51.9564220" lon="14.1402830">
<ele>-5.0910000</ele>
<time>2010-06-27T09:11:37Z</time>
<extensions>
<tp1:TrackPointExtension>
<tp1:hr>151</tp1:hr>
<tp1:cad>90</tp1:cad>
</tp1:TrackPointExtension>
</extensions>
</trkpt>
<trkpt lat="51.9570730" lon="14.1403570">
<ele>-5.2770000</ele>
<time>2010-06-27T09:11:45Z</time>
<extensions>
<tp1:TrackPointExtension>
<tp1:hr>148</tp1:hr>
<tp1:cad>98</tp1:cad>
</tp1:TrackPointExtension>
</extensions>
</trkpt>
<trkpt lat="51.9579080" lon="14.1404430">
<ele>-5.8880000</ele>
<time>2010-06-27T09:11:55Z</time>
<extensions>
<tp1:TrackPointExtension>
<tp1:hr>143</tp1:hr>
<tp1:cad>0</tp1:cad>
</tp1:TrackPointExtension>
</extensions>
</trkpt>
<trkpt lat="51.9586600" lon="14.1405160">
<ele>-6.2330000</ele>
<time>2010-06-27T09:12:04Z</time>
<extensions>
<tp1:TrackPointExtension>
<tp1:hr>139</tp1:hr>
<tp1:cad>90</tp1:cad>
</tp1:TrackPointExtension>
</extensions>
</trkpt>
<trkpt lat="51.9591560" lon="14.1404870">
<ele>-6.3330000</ele>
<time>2010-06-27T09:12:10Z</time>
<extensions>
<tp1:TrackPointExtension>
<tp1:hr>137</tp1:hr>
<tp1:cad>86</tp1:cad>
</tp1:TrackPointExtension>
</extensions>
</trkpt>
<trkpt lat="51.9596290" lon="14.1402480">
<ele>-6.4250000</ele>
<time>2010-06-27T09:12:16Z</time>
<extensions>
<tp1:TrackPointExtension>
<tp1:hr>137</tp1:hr>
<tp1:cad>87</tp1:cad>
</tp1:TrackPointExtension>
</extensions>
</trkpt>
<trkpt lat="51.9600740" lon="14.1398830">
<ele>-6.3040000</ele>
<time>2010-06-27T09:12:22Z</time>
<extensions>
<tp1:TrackPointExtension>
<tp1:hr>136</tp1:hr>
<tp1:cad>87</tp1:cad>
</tp1:TrackPointExtension>
</extensions>
</trkpt>
<trkpt lat="51.9606580" lon="14.1393460">
<ele>-6.7530000</ele>
<time>2010-06-27T09:12:30Z</time>
<extensions>
<tp1:TrackPointExtension>
<tp1:hr>134</tp1:hr>
<tp1:cad>0</tp1:cad>
</tp1:TrackPointExtension>
</extensions>
</trkpt>
<trkpt lat="51.9610890" lon="14.1388940">
<ele>-7.0810000</ele>
<time>2010-06-27T09:12:36Z</time>
<extensions>
<tp1:TrackPointExtension>
<tp1:hr>132</tp1:hr>
<tp1:cad>31</tp1:cad>
</tp1:TrackPointExtension>
</extensions>
</trkpt>
<trkpt lat="51.9616340" lon="14.1383230">
<ele>-8.7830000</ele>
<time>2010-06-27T09:12:43Z</time>
<extensions>
<tp1:TrackPointExtension>
<tp1:hr>130</tp1:hr>
<tp1:cad>0</tp1:cad>
</tp1:TrackPointExtension>
</extensions>
</trkpt>
<trkpt lat="51.9618630" lon="14.1378830">
<ele>-9.9910000</ele>
<time>2010-06-27T09:12:47Z</time>
<extensions>
<tp1:TrackPointExtension>
<tp1:hr>128</tp1:hr>
<tp1:cad>0</tp1:cad>
</tp1:TrackPointExtension>
</extensions>
</trkpt>
<trkpt lat="51.9619210" lon="14.1374950">
<ele>-10.2730000</ele>
<time>2010-06-27T09:12:50Z</time>
<extensions>
<tp1:TrackPointExtension>
<tp1:hr>126</tp1:hr>
<tp1:cad>94</tp1:cad>
</tp1:TrackPointExtension>
</extensions>
</trkpt>
<trkpt lat="51.9618720" lon="14.1369650">
<ele>-10.4470000</ele>
<time>2010-06-27T09:12:54Z</time>
<extensions>
<tp1:TrackPointExtension>
<tp1:hr>125</tp1:hr>
<tp1:cad>80</tp1:cad>
</tp1:TrackPointExtension>
</extensions>
</trkpt>
<trkpt lat="51.9618310" lon="14.1368450">
<ele>-10.6420000</ele>
<time>2010-06-27T09:12:55Z</time>
<extensions>
<tp1:TrackPointExtension>
<tp1:hr>125</tp1:hr>
<tp1:cad>88</tp1:cad>
</tp1:TrackPointExtension>
</extensions>
</trkpt>
<trkpt lat="51.9614510" lon="14.1357730">
<ele>-9.7070000</ele>
<time>2010-06-27T09:13:04Z</time>
<extensions>
<tp1:TrackPointExtension>
<tp1:hr>123</tp1:hr>
<tp1:cad>81</tp1:cad>
</tp1:TrackPointExtension>
</extensions>
</trkpt>
<trkpt lat="51.9611690" lon="14.1350670">
<ele>-9.8660000</ele>
<time>2010-06-27T09:13:11Z</time>
<extensions>
<tp1:TrackPointExtension>
<tp1:hr>123</tp1:hr>
<tp1:cad>0</tp1:cad>
</tp1:TrackPointExtension>
</extensions>
</trkpt>
<trkpt lat="51.9611180" lon="14.1346480">
<ele>-9.3000000</ele>
<time>2010-06-27T09:13:15Z</time>
<extensions>
<tp1:TrackPointExtension>
<tp1:hr>123</tp1:hr>
<tp1:cad>75</tp1:cad>
</tp1:TrackPointExtension>
</extensions>
</trkpt>
<trkpt lat="51.9613040" lon="14.1344370">
<ele>-9.8130000</ele>
<time>2010-06-27T09:13:18Z</time>
<extensions>
<tp1:TrackPointExtension>
<tp1:hr>124</tp1:hr>
<tp1:cad>85</tp1:cad>
</tp1:TrackPointExtension>
</extensions>
</trkpt>
<trkpt lat="51.9618330" lon="14.1337500">
<ele>-10.7680000</ele>
<time>2010-06-27T09:13:26Z</time>
<extensions>
<tp1:TrackPointExtension>
<tp1:hr>129</tp1:hr>
<tp1:cad>0</tp1:cad>
</tp1:TrackPointExtension>
</extensions>
</trkpt>
<trkpt lat="51.9621200" lon="14.1333270">
<ele>-10.5750000</ele>
<time>2010-06-27T09:13:31Z</time>
<extensions>
<tp1:TrackPointExtension>
<tp1:hr>131</tp1:hr>
<tp1:cad>0</tp1:cad>
</tp1:TrackPointExtension>
</extensions>
</trkpt>
<trkpt lat="51.9623110" lon="14.1330460">
<ele>-10.3360000</ele>
<time>2010-06-27T09:13:35Z</time>
<extensions>
<tp1:TrackPointExtension>
<tp1:hr>131</tp1:hr>
<tp1:cad>68</tp1:cad>
</tp1:TrackPointExtension>
</extensions>
</trkpt>
<trkpt lat="51.9621590" lon="14.1327580">
<ele>-10.2040000</ele>
<time>2010-06-27T09:13:38Z</time>
<extensions>
<tp1:TrackPointExtension>
<tp1:hr>130</tp1:hr>
<tp1:cad>77</tp1:cad>
</tp1:TrackPointExtension>
</extensions>
</trkpt>
<trkpt lat="51.9616850" lon="14.1321860">
<ele>-9.8140000</ele>
<time>2010-06-27T09:13:45Z</time>
<extensions>
<tp1:TrackPointExtension>
<tp1:hr>129</tp1:hr>
<tp1:cad>71</tp1:cad>
</tp1:TrackPointExtension>
</extensions>
</trkpt>
<trkpt lat="51.9611720" lon="14.1315670">
<ele>-9.2870000</ele>
<time>2010-06-27T09:13:53Z</time>
<extensions>
<tp1:TrackPointExtension>
<tp1:hr>131</tp1:hr>
<tp1:cad>82</tp1:cad>
</tp1:TrackPointExtension>
</extensions>
</trkpt>
<trkpt lat="51.9606150" lon="14.1310770">
<ele>-8.3060000</ele>
<time>2010-06-27T09:14:01Z</time>
<extensions>
<tp1:TrackPointExtension>
<tp1:hr>134</tp1:hr>
<tp1:cad>81</tp1:cad>
</tp1:TrackPointExtension>
</extensions>
</trkpt>
<trkpt lat="51.9600490" lon="14.1306030">
<ele>-8.1430000</ele>
<time>2010-06-27T09:14:09Z</time>
<extensions>
<tp1:TrackPointExtension>
<tp1:hr>136</tp1:hr>
<tp1:cad>93</tp1:cad>
</tp1:TrackPointExtension>
</extensions>
</trkpt>
<trkpt lat="51.9591280" lon="14.1298330">
<ele>-7.8220000</ele>
<time>2010-06-27T09:14:22Z</time>
<extensions>
<tp1:TrackPointExtension>
<tp1:hr>138</tp1:hr>
<tp1:cad>94</tp1:cad>
</tp1:TrackPointExtension>
</extensions>
</trkpt>
<trkpt lat="51.9583240" lon="14.1291600">
<ele>-6.8720000</ele>
<time>2010-06-27T09:14:33Z</time>
<extensions>
<tp1:TrackPointExtension>
<tp1:hr>138</tp1:hr>
<tp1:cad>95</tp1:cad>
</tp1:TrackPointExtension>
</extensions>
</trkpt>
<trkpt lat="51.9576770" lon="14.1286190">
<ele>-7.0840000</ele>
<time>2010-06-27T09:14:42Z</time>
<extensions>
<tp1:TrackPointExtension>
<tp1:hr>138</tp1:hr>
<tp1:cad>94</tp1:cad>
</tp1:TrackPointExtension>
</extensions>
</trkpt>
<trkpt lat="51.9569450" lon="14.1280060">
<ele>-6.5590000</ele>
<time>2010-06-27T09:14:52Z</time>
<extensions>
<tp1:TrackPointExtension>
<tp1:hr>137</tp1:hr>
<tp1:cad>94</tp1:cad>
</tp1:TrackPointExtension>
</extensions>
</trkpt>
<trkpt lat="51.9563020" lon="14.1274920">
<ele>-6.1290000</ele>
<time>2010-06-27T09:15:01Z</time>
<extensions>
<tp1:TrackPointExtension>
<tp1:hr>138</tp1:hr>
<tp1:cad>93</tp1:cad>
</tp1:TrackPointExtension>
</extensions>
</trkpt>
<trkpt lat="51.9557400" lon="14.1270860">
<ele>-5.3050000</ele>
<time>2010-06-27T09:15:09Z</time>
<extensions>
<tp1:TrackPointExtension>
<tp1:hr>139</tp1:hr>
<tp1:cad>90</tp1:cad>
</tp1:TrackPointExtension>
</extensions>
</trkpt>
<trkpt lat="51.9554060" lon="14.1268430">
<ele>-4.4290000</ele>
<time>2010-06-27T09:15:14Z</time>
<extensions>
<tp1:TrackPointExtension>
<tp1:hr>139</tp1:hr>
<tp1:cad>89</tp1:cad>
</tp1:TrackPointExtension>
</extensions>
</trkpt>
<trkpt lat="51.9551430" lon="14.1266720">
<ele>-3.4530000</ele>
<time>2010-06-27T09:15:18Z</time>
<extensions>
<tp1:TrackPointExtension>
<tp1:hr>139</tp1:hr>
<tp1:cad>88</tp1:cad>
</tp1:TrackPointExtension>
</extensions>
</trkpt>
<trkpt lat="51.9547530" lon="14.1264470">
<ele>-2.0510000</ele>
<time>2010-06-27T09:15:24Z</time>
<extensions>
<tp1:TrackPointExtension>
<tp1:hr>139</tp1:hr>
<tp1:cad>88</tp1:cad>
</tp1:TrackPointExtension>
</extensions>
</trkpt>
<trkpt lat="51.9544240" lon="14.1262580">
<ele>-1.1360000</ele>
<time>2010-06-27T09:15:29Z</time>
<extensions>
<tp1:TrackPointExtension>
<tp1:hr>140</tp1:hr>
<tp1:cad>88</tp1:cad>
</tp1:TrackPointExtension>
</extensions>
</trkpt>
<trkpt lat="51.9540100" lon="14.1260200">
<ele>0.1160000</ele>
<time>2010-06-27T09:15:35Z</time>
<extensions>
<tp1:TrackPointExtension>
<tp1:hr>140</tp1:hr>
<tp1:cad>87</tp1:cad>
</tp1:TrackPointExtension>
</extensions>
</trkpt>
<trkpt lat="51.9536860" lon="14.1258330">
<ele>0.9750000</ele>
<time>2010-06-27T09:15:39Z</time>
<extensions>
<tp1:TrackPointExtension>
<tp1:hr>141</tp1:hr>
<tp1:cad>88</tp1:cad>
</tp1:TrackPointExtension>
</extensions>
</trkpt>
<trkpt lat="51.9532490" lon="14.1255820">
<ele>1.9760000</ele>
<time>2010-06-27T09:15:45Z</time>
<extensions>
<tp1:TrackPointExtension>
<tp1:hr>144</tp1:hr>
<tp1:cad>90</tp1:cad>
</tp1:TrackPointExtension>
</extensions>
</trkpt>
<trkpt lat="51.9528150" lon="14.1253100">
<ele>2.6760000</ele>
<time>2010-06-27T09:15:51Z</time>
<extensions>
<tp1:TrackPointExtension>
<tp1:hr>146</tp1:hr>
<tp1:cad>86</tp1:cad>
</tp1:TrackPointExtension>
</extensions>
</trkpt>
<trkpt lat="51.9526830" lon="14.1252180">
<ele>2.4170000</ele>
<time>2010-06-27T09:15:53Z</time>
<extensions>
<tp1:TrackPointExtension>
<tp1:hr>147</tp1:hr>
<tp1:cad>89</tp1:cad>
</tp1:TrackPointExtension>
</extensions>
</trkpt>
<trkpt lat="51.9522960" lon="14.1246600">
<ele>2.0910000</ele>
<time>2010-06-27T09:15:59Z</time>
<extensions>
<tp1:TrackPointExtension>
<tp1:hr>148</tp1:hr>
<tp1:cad>96</tp1:cad>
</tp1:TrackPointExtension>
</extensions>
</trkpt>
<trkpt lat="51.9519410" lon="14.1240330">
<ele>1.3550000</ele>
<time>2010-06-27T09:16:05Z</time>
<extensions>
<tp1:TrackPointExtension>
<tp1:hr>148</tp1:hr>
<tp1:cad>0</tp1:cad>
</tp1:TrackPointExtension>
</extensions>
</trkpt>
<trkpt lat="51.9516690" lon="14.1235540">
<ele>0.9910000</ele>
<time>2010-06-27T09:16:10Z</time>
<extensions>
<tp1:TrackPointExtension>
<tp1:hr>146</tp1:hr>
<tp1:cad>97</tp1:cad>
</tp1:TrackPointExtension>
</extensions>
</trkpt>
<trkpt lat="51.9513750" lon="14.1230360">
<ele>0.0210000</ele>
<time>2010-06-27T09:16:15Z</time>
<extensions>
<tp1:TrackPointExtension>
<tp1:hr>144</tp1:hr>
<tp1:cad>100</tp1:cad>
</tp1:TrackPointExtension>
</extensions>
</trkpt>
<trkpt lat="51.9508370" lon="14.1220860">
<ele>-1.0490000</ele>
<time>2010-06-27T09:16:24Z</time>
<extensions>
<tp1:TrackPointExtension>
<tp1:hr>141</tp1:hr>
<tp1:cad>0</tp1:cad>
</tp1:TrackPointExtension>
</extensions>
</trkpt>
<trkpt lat="51.9506030" lon="14.1216580">
<ele>-1.5840000</ele>
<time>2010-06-27T09:16:28Z</time>
<extensions>
<tp1:TrackPointExtension>
<tp1:hr>136</tp1:hr>
<tp1:cad>0</tp1:cad>
</tp1:TrackPointExtension>
</extensions>
</trkpt>
<trkpt lat="51.9502740" lon="14.1209810">
<ele>-2.6450000</ele>
<time>2010-06-27T09:16:34Z</time>
<extensions>
<tp1:TrackPointExtension>
<tp1:hr>132</tp1:hr>
<tp1:cad>102</tp1:cad>
</tp1:TrackPointExtension>
</extensions>
</trkpt>
<trkpt lat="51.9498160" lon="14.1200380">
<ele>-3.7980000</ele>
<time>2010-06-27T09:16:42Z</time>
<extensions>
<tp1:TrackPointExtension>
<tp1:hr>127</tp1:hr>
<tp1:cad>80</tp1:cad>
</tp1:TrackPointExtension>
</extensions>
</trkpt>
<trkpt lat="51.9494560" lon="14.1193580">
<ele>-4.3950000</ele>
<time>2010-06-27T09:16:48Z</time>
<extensions>
<tp1:TrackPointExtension>
<tp1:hr>126</tp1:hr>
<tp1:cad>0</tp1:cad>
</tp1:TrackPointExtension>
</extensions>
</trkpt>
<trkpt lat="51.9489680" lon="14.1187430">
<ele>-5.6640000</ele>
<time>2010-06-27T09:16:55Z</time>
<extensions>
<tp1:TrackPointExtension>
<tp1:hr>126</tp1:hr>
<tp1:cad>35</tp1:cad>
</tp1:TrackPointExtension>
</extensions>
</trkpt>
<trkpt lat="51.9483780" lon="14.1180090">
<ele>-6.6490000</ele>
<time>2010-06-27T09:17:03Z</time>
<extensions>
<tp1:TrackPointExtension>
<tp1:hr>128</tp1:hr>
<tp1:cad>101</tp1:cad>
</tp1:TrackPointExtension>
</extensions>
</trkpt>
<trkpt lat="51.9478510" lon="14.1173580">
<ele>-6.9960000</ele>
<time>2010-06-27T09:17:10Z</time>
<extensions>
<tp1:TrackPointExtension>
<tp1:hr>126</tp1:hr>
<tp1:cad>94</tp1:cad>
</tp1:TrackPointExtension>
</extensions>
</trkpt>
<trkpt lat="51.9473940" lon="14.1168110">
<ele>-7.1230000</ele>
<time>2010-06-27T09:17:16Z</time>
<extensions>
<tp1:TrackPointExtension>
<tp1:hr>128</tp1:hr>
<tp1:cad>0</tp1:cad>
</tp1:TrackPointExtension>
</extensions>
</trkpt>
<trkpt lat="51.9466440" lon="14.1159120">
<ele>-8.6710000</ele>
<time>2010-06-27T09:17:26Z</time>
<extensions>
<tp1:TrackPointExtension>
<tp1:hr>128</tp1:hr>
<tp1:cad>95</tp1:cad>
</tp1:TrackPointExtension>
</extensions>
</trkpt>
<trkpt lat="51.9457730" lon="14.1148640">
<ele>-9.1470000</ele>
<time>2010-06-27T09:17:38Z</time>
<extensions>
<tp1:TrackPointExtension>
<tp1:hr>130</tp1:hr>
<tp1:cad>93</tp1:cad>
</tp1:TrackPointExtension>
</extensions>
</trkpt>
<trkpt lat="51.9450590" lon="14.1139710">
<ele>-9.1360000</ele>
<time>2010-06-27T09:17:48Z</time>
<extensions>
<tp1:TrackPointExtension>
<tp1:hr>129</tp1:hr>
<tp1:cad>91</tp1:cad>
</tp1:TrackPointExtension>
</extensions>
</trkpt>
<trkpt lat="51.9445220" lon="14.1132180">
<ele>-9.4300000</ele>
<time>2010-06-27T09:17:56Z</time>
<extensions>
<tp1:TrackPointExtension>
<tp1:hr>130</tp1:hr>
<tp1:cad>21</tp1:cad>
</tp1:TrackPointExtension>
</extensions>
</trkpt>
<trkpt lat="51.9438880" lon="14.1122630">
<ele>-8.3750000</ele>
<time>2010-06-27T09:18:06Z</time>
<extensions>
<tp1:TrackPointExtension>
<tp1:hr>131</tp1:hr>
<tp1:cad>90</tp1:cad>
</tp1:TrackPointExtension>
</extensions>
</trkpt>
<trkpt lat="51.9433080" lon="14.1113890">
<ele>-7.7820000</ele>
<time>2010-06-27T09:18:15Z</time>
<extensions>
<tp1:TrackPointExtension>
<tp1:hr>135</tp1:hr>
<tp1:cad>94</tp1:cad>
</tp1:TrackPointExtension>
</extensions>
</trkpt>
<trkpt lat="51.9427170" lon="14.1105000">
<ele>-6.7710000</ele>
<time>2010-06-27T09:18:24Z</time>
<extensions>
<tp1:TrackPointExtension>
<tp1:hr>138</tp1:hr>
<tp1:cad>94</tp1:cad>
</tp1:TrackPointExtension>
</extensions>
</trkpt>
<trkpt lat="51.9422090" lon="14.1097330">
<ele>-6.3130000</ele>
<time>2010-06-27T09:18:32Z</time>
<extensions>
<tp1:TrackPointExtension>
<tp1:hr>141</tp1:hr>
<tp1:cad>92</tp1:cad>
</tp1:TrackPointExtension>
</extensions>
</trkpt>
<trkpt lat="51.9416330" lon="14.1088670">
<ele>-6.6590000</ele>
<time>2010-06-27T09:18:41Z</time>
<extensions>
<tp1:TrackPointExtension>
<tp1:hr>144</tp1:hr>
<tp1:cad>92</tp1:cad>
</tp1:TrackPointExtension>
</extensions>
</trkpt>
<trkpt lat="51.9411360" lon="14.1082970">
<ele>-6.3600000</ele>
<time>2010-06-27T09:18:48Z</time>
<extensions>
<tp1:TrackPointExtension>
<tp1:hr>146</tp1:hr>
<tp1:cad>95</tp1:cad>
</tp1:TrackPointExtension>
</extensions>
</trkpt>
<trkpt lat="51.9406920" lon="14.1078250">
<ele>-6.0060000</ele>
<time>2010-06-27T09:18:54Z</time>
<extensions>
<tp1:TrackPointExtension>
<tp1:hr>147</tp1:hr>
<tp1:cad>96</tp1:cad>
</tp1:TrackPointExtension>
</extensions>
</trkpt>
<trkpt lat="51.9401690" lon="14.1072720">
<ele>-5.8330000</ele>
<time>2010-06-27T09:19:01Z</time>
<extensions>
<tp1:TrackPointExtension>
<tp1:hr>148</tp1:hr>
<tp1:cad>94</tp1:cad>
</tp1:TrackPointExtension>
</extensions>
</trkpt>
<trkpt lat="51.9396500" lon="14.1067000">
<ele>-5.7800000</ele>
<time>2010-06-27T09:19:08Z</time>
<extensions>
<tp1:TrackPointExtension>
<tp1:hr>146</tp1:hr>
<tp1:cad>92</tp1:cad>
</tp1:TrackPointExtension>
</extensions>
</trkpt>
<trkpt lat="51.9391570" lon="14.1060490">
<ele>-5.7420000</ele>
<time>2010-06-27T09:19:15Z</time>
<extensions>
<tp1:TrackPointExtension>
<tp1:hr>144</tp1:hr>
<tp1:cad>95</tp1:cad>
</tp1:TrackPointExtension>
</extensions>
</trkpt>
<trkpt lat="51.9384250" lon="14.1050830">
<ele>-4.8440000</ele>
<time>2010-06-27T09:19:25Z</time>
<extensions>
<tp1:TrackPointExtension>
<tp1:hr>142</tp1:hr>
<tp1:cad>97</tp1:cad>
</tp1:TrackPointExtension>
</extensions>
</trkpt>
<trkpt lat="51.9376770" lon="14.1041770">
<ele>-4.6200000</ele>
<time>2010-06-27T09:19:35Z</time>
<extensions>
<tp1:TrackPointExtension>
<tp1:hr>143</tp1:hr>
<tp1:cad>96</tp1:cad>
</tp1:TrackPointExtension>
</extensions>
</trkpt>
<trkpt lat="51.9369280" lon="14.1033050">
<ele>-3.7850000</ele>
<time>2010-06-27T09:19:45Z</time>
<extensions>
<tp1:TrackPointExtension>
<tp1:hr>144</tp1:hr>
<tp1:cad>43</tp1:cad>
</tp1:TrackPointExtension>
</extensions>
</trkpt>
<trkpt lat="51.9362610" lon="14.1025300">
<ele>-3.5900000</ele>
<time>2010-06-27T09:19:54Z</time>
<extensions>
<tp1:TrackPointExtension>
<tp1:hr>146</tp1:hr>
<tp1:cad>95</tp1:cad>
</tp1:TrackPointExtension>
</extensions>
</trkpt>
<trkpt lat="51.9354330" lon="14.1015680">
<ele>-2.6210000</ele>
<time>2010-06-27T09:20:05Z</time>
<extensions>
<tp1:TrackPointExtension>
<tp1:hr>149</tp1:hr>
<tp1:cad>94</tp1:cad>
</tp1:TrackPointExtension>
</extensions>
</trkpt>
<trkpt lat="51.9347680" lon="14.1007950">
<ele>-2.6210000</ele>
<time>2010-06-27T09:20:14Z</time>
<extensions>
<tp1:TrackPointExtension>
<tp1:hr>150</tp1:hr>
<tp1:cad>99</tp1:cad>
</tp1:TrackPointExtension>
</extensions>
</trkpt>
<trkpt lat="51.9340040" lon="14.0999030">
<ele>-2.8170000</ele>
<time>2010-06-27T09:20:24Z</time>
<extensions>
<tp1:TrackPointExtension>
<tp1:hr>150</tp1:hr>
<tp1:cad>97</tp1:cad>
</tp1:TrackPointExtension>
</extensions>
</trkpt>
<trkpt lat="51.9331610" lon="14.0989180">
<ele>-3.2230000</ele>
<time>2010-06-27T09:20:35Z</time>
<extensions>
<tp1:TrackPointExtension>
<tp1:hr>148</tp1:hr>
<tp1:cad>0</tp1:cad>
</tp1:TrackPointExtension>
</extensions>
</trkpt>
<trkpt lat="51.9327470" lon="14.0982900">
<ele>-3.4610000</ele>
<time>2010-06-27T09:20:41Z</time>
<extensions>
<tp1:TrackPointExtension>
<tp1:hr>146</tp1:hr>
<tp1:cad>97</tp1:cad>
</tp1:TrackPointExtension>
</extensions>
</trkpt>
<trkpt lat="51.9322370" lon="14.0973750">
<ele>-2.9930000</ele>
<time>2010-06-27T09:20:49Z</time>
<extensions>
<tp1:TrackPointExtension>
<tp1:hr>145</tp1:hr>
<tp1:cad>0</tp1:cad>
</tp1:TrackPointExtension>
</extensions>
</trkpt>
<trkpt lat="51.9321730" lon="14.0972610">
<ele>-3.1930000</ele>
<time>2010-06-27T09:20:50Z</time>
<extensions>
<tp1:TrackPointExtension>
<tp1:hr>145</tp1:hr>
</tp1:TrackPointExtension>
</extensions>
</trkpt>
<trkpt lat="51.9314740" lon="14.0960050">
<ele>-3.9350000</ele>
<time>2010-06-27T09:21:01Z</time>
<extensions>
<tp1:TrackPointExtension>
<tp1:hr>145</tp1:hr>
</tp1:TrackPointExtension>
</extensions>
</trkpt>
<trkpt lat="51.9309130" lon="14.0949920">
<ele>-3.9140000</ele>
<time>2010-06-27T09:21:10Z</time>
<extensions>
<tp1:TrackPointExtension>
<tp1:hr>145</tp1:hr>
</tp1:TrackPointExtension>
</extensions>
</trkpt>
<trkpt lat="51.9303180" lon="14.0938760">
<ele>-3.9630000</ele>
<time>2010-06-27T09:21:20Z</time>
<extensions>
<tp1:TrackPointExtension>
<tp1:hr>145</tp1:hr>
</tp1:TrackPointExtension>
</extensions>
</trkpt>
<trkpt lat="51.9302590" lon="14.0937650">
<ele>-3.9270000</ele>
<time>2010-06-27T09:21:21Z</time>
<extensions>
<tp1:TrackPointExtension>
<tp1:hr>145</tp1:hr>
</tp1:TrackPointExtension>
</extensions>
</trkpt>
<trkpt lat="51.9298260" lon="14.0929540">
<ele>-4.2510000</ele>
<time>2010-06-27T09:21:29Z</time>
<extensions>
<tp1:TrackPointExtension>
<tp1:hr>145</tp1:hr>
<tp1:cad>83</tp1:cad>
</tp1:TrackPointExtension>
</extensions>
</trkpt>
<trkpt lat="51.9292710" lon="14.0919900">
<ele>-4.8050000</ele>
<time>2010-06-27T09:21:39Z</time>
<extensions>
<tp1:TrackPointExtension>
<tp1:hr>143</tp1:hr>
<tp1:cad>88</tp1:cad>
</tp1:TrackPointExtension>
</extensions>
</trkpt>
<trkpt lat="51.9288280" lon="14.0912170">
<ele>-5.1700000</ele>
<time>2010-06-27T09:21:47Z</time>
<extensions>
<tp1:TrackPointExtension>
<tp1:hr>140</tp1:hr>
<tp1:cad>0</tp1:cad>
</tp1:TrackPointExtension>
</extensions>
</trkpt>
<trkpt lat="51.9286900" lon="14.0909670">
<ele>-5.6480000</ele>
<time>2010-06-27T09:21:50Z</time>
<extensions>
<tp1:TrackPointExtension>
<tp1:hr>138</tp1:hr>
<tp1:cad>0</tp1:cad>
</tp1:TrackPointExtension>
</extensions>
</trkpt>
<trkpt lat="51.9285760" lon="14.0907600">
<ele>-6.4520000</ele>
<time>2010-06-27T09:21:54Z</time>
<extensions>
<tp1:TrackPointExtension>
<tp1:hr>135</tp1:hr>
<tp1:cad>57</tp1:cad>
</tp1:TrackPointExtension>
</extensions>
</trkpt>
<trkpt lat="51.9286420" lon="14.0906030">
<ele>-6.5550000</ele>
<time>2010-06-27T09:21:55Z</time>
<extensions>
<tp1:TrackPointExtension>
<tp1:hr>135</tp1:hr>
<tp1:cad>60</tp1:cad>
</tp1:TrackPointExtension>
</extensions>
</trkpt>
<trkpt lat="51.9289390" lon="14.0901150">
<ele>-6.2920000</ele>
<time>2010-06-27T09:22:01Z</time>
<extensions>
<tp1:TrackPointExtension>
<tp1:hr>136</tp1:hr>
<tp1:cad>89</tp1:cad>
</tp1:TrackPointExtension>
</extensions>
</trkpt>
<trkpt lat="51.9293270" lon="14.0896230">
<ele>-6.2300000</ele>
<time>2010-06-27T09:22:08Z</time>
<extensions>
<tp1:TrackPointExtension>
<tp1:hr>140</tp1:hr>
<tp1:cad>85</tp1:cad>
</tp1:TrackPointExtension>
</extensions>
</trkpt>
<trkpt lat="51.9296810" lon="14.0890700">
<ele>-6.4500000</ele>
<time>2010-06-27T09:22:13Z</time>
<extensions>
<tp1:TrackPointExtension>
<tp1:hr>143</tp1:hr>
<tp1:cad>88</tp1:cad>
</tp1:TrackPointExtension>
</extensions>
</trkpt>
<trkpt lat="51.9300880" lon="14.0881540">
<ele>-6.8820000</ele>
<time>2010-06-27T09:22:21Z</time>
<extensions>
<tp1:TrackPointExtension>
<tp1:hr>145</tp1:hr>
<tp1:cad>90</tp1:cad>
</tp1:TrackPointExtension>
</extensions>
</trkpt>
<trkpt lat="51.9304960" lon="14.0872610">
<ele>-7.0650000</ele>
<time>2010-06-27T09:22:29Z</time>
<extensions>
<tp1:TrackPointExtension>
<tp1:hr>147</tp1:hr>
<tp1:cad>89</tp1:cad>
</tp1:TrackPointExtension>
</extensions>
</trkpt>
<trkpt lat="51.9309190" lon="14.0864000">
<ele>-7.4340000</ele>
<time>2010-06-27T09:22:37Z</time>
<extensions>
<tp1:TrackPointExtension>
<tp1:hr>147</tp1:hr>
<tp1:cad>90</tp1:cad>
</tp1:TrackPointExtension>
</extensions>
</trkpt>
<trkpt lat="51.9312910" lon="14.0856500">
<ele>-7.9210000</ele>
<time>2010-06-27T09:22:44Z</time>
<extensions>
<tp1:TrackPointExtension>
<tp1:hr>147</tp1:hr>
<tp1:cad>91</tp1:cad>
</tp1:TrackPointExtension>
</extensions>
</trkpt>
<trkpt lat="51.9315800" lon="14.0850740">
<ele>-8.1030000</ele>
<time>2010-06-27T09:22:51Z</time>
<extensions>
<tp1:TrackPointExtension>
<tp1:hr>148</tp1:hr>
<tp1:cad>29</tp1:cad>
</tp1:TrackPointExtension>
</extensions>
</trkpt>
<trkpt lat="51.9318150" lon="14.0842340">
<ele>-6.6500000</ele>
<time>2010-06-27T09:22:56Z</time>
<extensions>
<tp1:TrackPointExtension>
<tp1:hr>149</tp1:hr>
<tp1:cad>90</tp1:cad>
</tp1:TrackPointExtension>
</extensions>
</trkpt>
<trkpt lat="51.9320950" lon="14.0828630">
<ele>-7.8250000</ele>
<time>2010-06-27T09:23:07Z</time>
<extensions>
<tp1:TrackPointExtension>
<tp1:hr>149</tp1:hr>
<tp1:cad>85</tp1:cad>
</tp1:TrackPointExtension>
</extensions>
</trkpt>
<trkpt lat="51.9323850" lon="14.0817190">
<ele>-6.8180000</ele>
<time>2010-06-27T09:23:16Z</time>
<extensions>
<tp1:TrackPointExtension>
<tp1:hr>148</tp1:hr>
<tp1:cad>80</tp1:cad>
</tp1:TrackPointExtension>
</extensions>
</trkpt>
<trkpt lat="51.9327070" lon="14.0804220">
<ele>-4.8320000</ele>
<time>2010-06-27T09:23:27Z</time>
<extensions>
<tp1:TrackPointExtension>
<tp1:hr>149</tp1:hr>
<tp1:cad>85</tp1:cad>
</tp1:TrackPointExtension>
</extensions>
</trkpt>
<trkpt lat="51.9330070" lon="14.0792170">
<ele>-3.8380000</ele>
<time>2010-06-27T09:23:37Z</time>
<extensions>
<tp1:TrackPointExtension>
<tp1:hr>149</tp1:hr>
<tp1:cad>82</tp1:cad>
</tp1:TrackPointExtension>
</extensions>
</trkpt>
<trkpt lat="51.9333970" lon="14.0776250">
<ele>-3.2880000</ele>
<time>2010-06-27T09:23:50Z</time>
<extensions>
<tp1:TrackPointExtension>
<tp1:hr>151</tp1:hr>
<tp1:cad>85</tp1:cad>
</tp1:TrackPointExtension>
</extensions>
</trkpt>
<trkpt lat="51.9338250" lon="14.0758770">
<ele>-1.8480000</ele>
<time>2010-06-27T09:24:04Z</time>
<extensions>
<tp1:TrackPointExtension>
<tp1:hr>149</tp1:hr>
<tp1:cad>87</tp1:cad>
</tp1:TrackPointExtension>
</extensions>
</trkpt>
<trkpt lat="51.9341300" lon="14.0746310">
<ele>-2.7190000</ele>
<time>2010-06-27T09:24:14Z</time>
<extensions>
<tp1:TrackPointExtension>
<tp1:hr>146</tp1:hr>
<tp1:cad>84</tp1:cad>
</tp1:TrackPointExtension>
</extensions>
</trkpt>
<trkpt lat="51.9343720" lon="14.0736420">
<ele>-3.7070000</ele>
<time>2010-06-27T09:24:22Z</time>
<extensions>
<tp1:TrackPointExtension>
<tp1:hr>145</tp1:hr>
<tp1:cad>88</tp1:cad>
</tp1:TrackPointExtension>
</extensions>
</trkpt>
<trkpt lat="51.9346200" lon="14.0726310">
<ele>-4.1670000</ele>
<time>2010-06-27T09:24:30Z</time>
<extensions>
<tp1:TrackPointExtension>
<tp1:hr>143</tp1:hr>
<tp1:cad>85</tp1:cad>
</tp1:TrackPointExtension>
</extensions>
</trkpt>
<trkpt lat="51.9349930" lon="14.0711070">
<ele>-4.2380000</ele>
<time>2010-06-27T09:24:42Z</time>
<extensions>
<tp1:TrackPointExtension>
<tp1:hr>140</tp1:hr>
<tp1:cad>88</tp1:cad>
</tp1:TrackPointExtension>
</extensions>
</trkpt>
<trkpt lat="51.9352690" lon="14.0699820">
<ele>-4.2190000</ele>
<time>2010-06-27T09:24:51Z</time>
<extensions>
<tp1:TrackPointExtension>
<tp1:hr>139</tp1:hr>
<tp1:cad>87</tp1:cad>
</tp1:TrackPointExtension>
</extensions>
</trkpt>
<trkpt lat="51.9355730" lon="14.0687370">
<ele>-4.7770000</ele>
<time>2010-06-27T09:25:01Z</time>
<extensions>
<tp1:TrackPointExtension>
<tp1:hr>137</tp1:hr>
<tp1:cad>87</tp1:cad>
</tp1:TrackPointExtension>
</extensions>
</trkpt>
<trkpt lat="51.9357600" lon="14.0679730">
<ele>-4.7290000</ele>
<time>2010-06-27T09:25:07Z</time>
<extensions>
<tp1:TrackPointExtension>
<tp1:hr>135</tp1:hr>
<tp1:cad>88</tp1:cad>
</tp1:TrackPointExtension>
</extensions>
</trkpt>
<trkpt lat="51.9360480" lon="14.0667980">
<ele>-5.1440000</ele>
<time>2010-06-27T09:25:16Z</time>
<extensions>
<tp1:TrackPointExtension>
<tp1:hr>134</tp1:hr>
<tp1:cad>91</tp1:cad>
</tp1:TrackPointExtension>
</extensions>
</trkpt>
<trkpt lat="51.9363350" lon="14.0656260">
<ele>-5.3830000</ele>
<time>2010-06-27T09:25:25Z</time>
<extensions>
<tp1:TrackPointExtension>
<tp1:hr>132</tp1:hr>
<tp1:cad>88</tp1:cad>
</tp1:TrackPointExtension>
</extensions>
</trkpt>
<trkpt lat="51.9366200" lon="14.0644630">
<ele>-5.7410000</ele>
<time>2010-06-27T09:25:34Z</time>
<extensions>
<tp1:TrackPointExtension>
<tp1:hr>131</tp1:hr>
<tp1:cad>92</tp1:cad>
</tp1:TrackPointExtension>
</extensions>
</trkpt>
<trkpt lat="51.9368900" lon="14.0633590">
<ele>-5.9150000</ele>
<time>2010-06-27T09:25:42Z</time>
<extensions>
<tp1:TrackPointExtension>
<tp1:hr>130</tp1:hr>
<tp1:cad>90</tp1:cad>
</tp1:TrackPointExtension>
</extensions>
</trkpt>
<trkpt lat="51.9371140" lon="14.0624470">
<ele>-6.0740000</ele>
<time>2010-06-27T09:25:49Z</time>
<extensions>
<tp1:TrackPointExtension>
<tp1:hr>131</tp1:hr>
<tp1:cad>86</tp1:cad>
</tp1:TrackPointExtension>
</extensions>
</trkpt>
<trkpt lat="51.9373370" lon="14.0615410">
<ele>-6.6820000</ele>
<time>2010-06-27T09:25:56Z</time>
<extensions>
<tp1:TrackPointExtension>
<tp1:hr>131</tp1:hr>
<tp1:cad>86</tp1:cad>
</tp1:TrackPointExtension>
</extensions>
</trkpt>
<trkpt lat="51.9376230" lon="14.0603790">
<ele>-6.8060000</ele>
<time>2010-06-27T09:26:05Z</time>
<extensions>
<tp1:TrackPointExtension>
<tp1:hr>131</tp1:hr>
<tp1:cad>85</tp1:cad>
</tp1:TrackPointExtension>
</extensions>
</trkpt>
<trkpt lat="51.9379140" lon="14.0592020">
<ele>-6.4570000</ele>
<time>2010-06-27T09:26:14Z</time>
<extensions>
<tp1:TrackPointExtension>
<tp1:hr>128</tp1:hr>
<tp1:cad>84</tp1:cad>
</tp1:TrackPointExtension>
</extensions>
</trkpt>
<trkpt lat="51.9382020" lon="14.0580320">
<ele>-6.2630000</ele>
<time>2010-06-27T09:26:23Z</time>
<extensions>
<tp1:TrackPointExtension>
<tp1:hr>128</tp1:hr>
<tp1:cad>86</tp1:cad>
</tp1:TrackPointExtension>
</extensions>
</trkpt>
<trkpt lat="51.9385330" lon="14.0566900">
<ele>-5.7650000</ele>
<time>2010-06-27T09:26:33Z</time>
<extensions>
<tp1:TrackPointExtension>
<tp1:hr>128</tp1:hr>
<tp1:cad>86</tp1:cad>
</tp1:TrackPointExtension>
</extensions>
</trkpt>
<trkpt lat="51.9388590" lon="14.0553690">
<ele>-5.5250000</ele>
<time>2010-06-27T09:26:43Z</time>
<extensions>
<tp1:TrackPointExtension>
<tp1:hr>131</tp1:hr>
<tp1:cad>89</tp1:cad>
</tp1:TrackPointExtension>
</extensions>
</trkpt>
<trkpt lat="51.9391610" lon="14.0541470">
<ele>-6.1780000</ele>
<time>2010-06-27T09:26:52Z</time>
<extensions>
<tp1:TrackPointExtension>
<tp1:hr>132</tp1:hr>
<tp1:cad>27</tp1:cad>
</tp1:TrackPointExtension>
</extensions>
</trkpt>
<trkpt lat="51.9394290" lon="14.0530590">
<ele>-6.6820000</ele>
<time>2010-06-27T09:27:00Z</time>
<extensions>
<tp1:TrackPointExtension>
<tp1:hr>134</tp1:hr>
<tp1:cad>20</tp1:cad>
</tp1:TrackPointExtension>
</extensions>
</trkpt>
<trkpt lat="51.9396680" lon="14.0520920">
<ele>-6.9440000</ele>
<time>2010-06-27T09:27:07Z</time>
<extensions>
<tp1:TrackPointExtension>
<tp1:hr>135</tp1:hr>
<tp1:cad>89</tp1:cad>
</tp1:TrackPointExtension>
</extensions>
</trkpt>
<trkpt lat="51.9399770" lon="14.0508400">
<ele>-6.4430000</ele>
<time>2010-06-27T09:27:16Z</time>
<extensions>
<tp1:TrackPointExtension>
<tp1:hr>135</tp1:hr>
<tp1:cad>88</tp1:cad>
</tp1:TrackPointExtension>
</extensions>
</trkpt>
<trkpt lat="51.9403100" lon="14.0494890">
<ele>-6.9280000</ele>
<time>2010-06-27T09:27:26Z</time>
<extensions>
<tp1:TrackPointExtension>
<tp1:hr>135</tp1:hr>
<tp1:cad>88</tp1:cad>
</tp1:TrackPointExtension>
</extensions>
</trkpt>
<trkpt lat="51.9406850" lon="14.0479440">
<ele>-7.2420000</ele>
<time>2010-06-27T09:27:37Z</time>
<extensions>
<tp1:TrackPointExtension>
<tp1:hr>134</tp1:hr>
<tp1:cad>88</tp1:cad>
</tp1:TrackPointExtension>
</extensions>
</trkpt>
<trkpt lat="51.9408780" lon="14.0471460">
<ele>-7.0340000</ele>
<time>2010-06-27T09:27:43Z</time>
<extensions>
<tp1:TrackPointExtension>
<tp1:hr>133</tp1:hr>
<tp1:cad>85</tp1:cad>
</tp1:TrackPointExtension>
</extensions>
</trkpt>
<trkpt lat="51.9411350" lon="14.0460900">
<ele>-7.3040000</ele>
<time>2010-06-27T09:27:51Z</time>
<extensions>
<tp1:TrackPointExtension>
<tp1:hr>133</tp1:hr>
<tp1:cad>86</tp1:cad>
</tp1:TrackPointExtension>
</extensions>
</trkpt>
<trkpt lat="51.9413560" lon="14.0451750">
<ele>-7.0280000</ele>
<time>2010-06-27T09:27:58Z</time>
<extensions>
<tp1:TrackPointExtension>
<tp1:hr>133</tp1:hr>
<tp1:cad>86</tp1:cad>
</tp1:TrackPointExtension>
</extensions>
</trkpt>
<trkpt lat="51.9415170" lon="14.0445110">
<ele>-6.7180000</ele>
<time>2010-06-27T09:28:03Z</time>
<extensions>
<tp1:TrackPointExtension>
<tp1:hr>135</tp1:hr>
<tp1:cad>87</tp1:cad>
</tp1:TrackPointExtension>
</extensions>
</trkpt>
<trkpt lat="51.9418140" lon="14.0432850">
<ele>-6.4600000</ele>
<time>2010-06-27T09:28:12Z</time>
<extensions>
<tp1:TrackPointExtension>
<tp1:hr>135</tp1:hr>
<tp1:cad>86</tp1:cad>
</tp1:TrackPointExtension>
</extensions>
</trkpt>
<trkpt lat="51.9420650" lon="14.0422210">
<ele>-6.2850000</ele>
<time>2010-06-27T09:28:20Z</time>
<extensions>
<tp1:TrackPointExtension>
<tp1:hr>134</tp1:hr>
<tp1:cad>86</tp1:cad>
</tp1:TrackPointExtension>
</extensions>
</trkpt>
<trkpt lat="51.9422130" lon="14.0411480">
<ele>-6.6150000</ele>
<time>2010-06-27T09:28:28Z</time>
<extensions>
<tp1:TrackPointExtension>
<tp1:hr>133</tp1:hr>
<tp1:cad>0</tp1:cad>
</tp1:TrackPointExtension>
</extensions>
</trkpt>
<trkpt lat="51.9423100" lon="14.0402000">
<ele>-6.5230000</ele>
<time>2010-06-27T09:28:35Z</time>
<extensions>
<tp1:TrackPointExtension>
<tp1:hr>133</tp1:hr>
<tp1:cad>87</tp1:cad>
</tp1:TrackPointExtension>
</extensions>
</trkpt>
<trkpt lat="51.9424420" lon="14.0389460">
<ele>-7.5040000</ele>
<time>2010-06-27T09:28:44Z</time>
<extensions>
<tp1:TrackPointExtension>
<tp1:hr>134</tp1:hr>
<tp1:cad>86</tp1:cad>
</tp1:TrackPointExtension>
</extensions>
</trkpt>
<trkpt lat="51.9426060" lon="14.0374180">
<ele>-8.1370000</ele>
<time>2010-06-27T09:28:55Z</time>
<extensions>
<tp1:TrackPointExtension>
<tp1:hr>131</tp1:hr>
<tp1:cad>85</tp1:cad>
</tp1:TrackPointExtension>
</extensions>
</trkpt>
<trkpt lat="51.9427570" lon="14.0360180">
<ele>-8.2960000</ele>
<time>2010-06-27T09:29:05Z</time>
<extensions>
<tp1:TrackPointExtension>
<tp1:hr>129</tp1:hr>
<tp1:cad>84</tp1:cad>
</tp1:TrackPointExtension>
</extensions>
</trkpt>
<trkpt lat="51.9429360" lon="14.0343540">
<ele>-8.6690000</ele>
<time>2010-06-27T09:29:17Z</time>
<extensions>
<tp1:TrackPointExtension>
<tp1:hr>130</tp1:hr>
<tp1:cad>84</tp1:cad>
</tp1:TrackPointExtension>
</extensions>
</trkpt>
<trkpt lat="51.9431000" lon="14.0328380">
<ele>-8.5120000</ele>
<time>2010-06-27T09:29:28Z</time>
<extensions>
<tp1:TrackPointExtension>
<tp1:hr>128</tp1:hr>
<tp1:cad>85</tp1:cad>
</tp1:TrackPointExtension>
</extensions>
</trkpt>
<trkpt lat="51.9432610" lon="14.0313370">
<ele>-8.7400000</ele>
<time>2010-06-27T09:29:39Z</time>
<extensions>
<tp1:TrackPointExtension>
<tp1:hr>129</tp1:hr>
<tp1:cad>83</tp1:cad>
</tp1:TrackPointExtension>
</extensions>
</trkpt>
<trkpt lat="51.9433930" lon="14.0301150">
<ele>-8.4560000</ele>
<time>2010-06-27T09:29:48Z</time>
<extensions>
<tp1:TrackPointExtension>
<tp1:hr>131</tp1:hr>
<tp1:cad>85</tp1:cad>
</tp1:TrackPointExtension>
</extensions>
</trkpt>
<trkpt lat="51.9435590" lon="14.0285730">
<ele>-8.3380000</ele>
<time>2010-06-27T09:29:59Z</time>
<extensions>
<tp1:TrackPointExtension>
<tp1:hr>134</tp1:hr>
<tp1:cad>87</tp1:cad>
</tp1:TrackPointExtension>
</extensions>
</trkpt>
<trkpt lat="51.9436940" lon="14.0273230">
<ele>-8.2910000</ele>
<time>2010-06-27T09:30:08Z</time>
<extensions>
<tp1:TrackPointExtension>
<tp1:hr>136</tp1:hr>
<tp1:cad>84</tp1:cad>
</tp1:TrackPointExtension>
</extensions>
</trkpt>
<trkpt lat="51.9438280" lon="14.0260750">
<ele>-8.6140000</ele>
<time>2010-06-27T09:30:17Z</time>
<extensions>
<tp1:TrackPointExtension>
<tp1:hr>137</tp1:hr>
<tp1:cad>87</tp1:cad>
</tp1:TrackPointExtension>
</extensions>
</trkpt>
<trkpt lat="51.9439500" lon="14.0249420">
<ele>-8.2840000</ele>
<time>2010-06-27T09:30:25Z</time>
<extensions>
<tp1:TrackPointExtension>
<tp1:hr>137</tp1:hr>
<tp1:cad>86</tp1:cad>
</tp1:TrackPointExtension>
</extensions>
</trkpt>
<trkpt lat="51.9440860" lon="14.0236820">
<ele>-8.3450000</ele>
<time>2010-06-27T09:30:34Z</time>
<extensions>
<tp1:TrackPointExtension>
<tp1:hr>136</tp1:hr>
<tp1:cad>84</tp1:cad>
</tp1:TrackPointExtension>
</extensions>
</trkpt>
<trkpt lat="51.9442360" lon="14.0222880">
<ele>-8.2830000</ele>
<time>2010-06-27T09:30:44Z</time>
<extensions>
<tp1:TrackPointExtension>
<tp1:hr>137</tp1:hr>
<tp1:cad>86</tp1:cad>
</tp1:TrackPointExtension>
</extensions>
</trkpt>
<trkpt lat="51.9443740" lon="14.0210090">
<ele>-8.4380000</ele>
<time>2010-06-27T09:30:53Z</time>
<extensions>
<tp1:TrackPointExtension>
<tp1:hr>136</tp1:hr>
<tp1:cad>88</tp1:cad>
</tp1:TrackPointExtension>
</extensions>
</trkpt>
<trkpt lat="51.9444840" lon="14.0199860">
<ele>-7.8440000</ele>
<time>2010-06-27T09:31:00Z</time>
<extensions>
<tp1:TrackPointExtension>
<tp1:hr>135</tp1:hr>
<tp1:cad>91</tp1:cad>
</tp1:TrackPointExtension>
</extensions>
</trkpt>
<trkpt lat="51.9446270" lon="14.0186580">
<ele>-8.1660000</ele>
<time>2010-06-27T09:31:09Z</time>
<extensions>
<tp1:TrackPointExtension>
<tp1:hr>136</tp1:hr>
<tp1:cad>91</tp1:cad>
</tp1:TrackPointExtension>
</extensions>
</trkpt>
<trkpt lat="51.9448160" lon="14.0169010">
<ele>-8.1840000</ele>
<time>2010-06-27T09:31:21Z</time>
<extensions>
<tp1:TrackPointExtension>
<tp1:hr>135</tp1:hr>
<tp1:cad>87</tp1:cad>
</tp1:TrackPointExtension>
</extensions>
</trkpt>
<trkpt lat="51.9449820" lon="14.0153590">
<ele>-8.1870000</ele>
<time>2010-06-27T09:31:32Z</time>
<extensions>
<tp1:TrackPointExtension>
<tp1:hr>132</tp1:hr>
<tp1:cad>89</tp1:cad>
</tp1:TrackPointExtension>
</extensions>
</trkpt>
<trkpt lat="51.9451550" lon="14.0137570">
<ele>-7.8350000</ele>
<time>2010-06-27T09:31:43Z</time>
<extensions>
<tp1:TrackPointExtension>
<tp1:hr>133</tp1:hr>
<tp1:cad>91</tp1:cad>
</tp1:TrackPointExtension>
</extensions>
</trkpt>
<trkpt lat="51.9452970" lon="14.0124360">
<ele>-7.5980000</ele>
<time>2010-06-27T09:31:52Z</time>
<extensions>
<tp1:TrackPointExtension>
<tp1:hr>134</tp1:hr>
<tp1:cad>91</tp1:cad>
</tp1:TrackPointExtension>
</extensions>
</trkpt>
<trkpt lat="51.9454260" lon="14.0112430">
<ele>-7.7770000</ele>
<time>2010-06-27T09:32:00Z</time>
<extensions>
<tp1:TrackPointExtension>
<tp1:hr>134</tp1:hr>
<tp1:cad>90</tp1:cad>
</tp1:TrackPointExtension>
</extensions>
</trkpt>
<trkpt lat="51.9455630" lon="14.0099690">
<ele>-8.0610000</ele>
<time>2010-06-27T09:32:09Z</time>
<extensions>
<tp1:TrackPointExtension>
<tp1:hr>133</tp1:hr>
<tp1:cad>89</tp1:cad>
</tp1:TrackPointExtension>
</extensions>
</trkpt>
<trkpt lat="51.9456950" lon="14.0084770">
<ele>-9.0380000</ele>
<time>2010-06-27T09:32:19Z</time>
<extensions>
<tp1:TrackPointExtension>
<tp1:hr>130</tp1:hr>
<tp1:cad>92</tp1:cad>
</tp1:TrackPointExtension>
</extensions>
</trkpt>
<trkpt lat="51.9456800" lon="14.0074120">
<ele>-9.6240000</ele>
<time>2010-06-27T09:32:26Z</time>
<extensions>
<tp1:TrackPointExtension>
<tp1:hr>130</tp1:hr>
<tp1:cad>90</tp1:cad>
</tp1:TrackPointExtension>
</extensions>
</trkpt>
<trkpt lat="51.9455000" lon="14.0060900">
<ele>-10.2110000</ele>
<time>2010-06-27T09:32:35Z</time>
<extensions>
<tp1:TrackPointExtension>
<tp1:hr>129</tp1:hr>
<tp1:cad>91</tp1:cad>
</tp1:TrackPointExtension>
</extensions>
</trkpt>
<trkpt lat="51.9453430" lon="14.0047640">
<ele>-10.9140000</ele>
<time>2010-06-27T09:32:44Z</time>
<extensions>
<tp1:TrackPointExtension>
<tp1:hr>129</tp1:hr>
<tp1:cad>0</tp1:cad>
</tp1:TrackPointExtension>
</extensions>
</trkpt>
<trkpt lat="51.9451840" lon="14.0037720">
<ele>-10.6960000</ele>
<time>2010-06-27T09:32:51Z</time>
<extensions>
<tp1:TrackPointExtension>
<tp1:hr>129</tp1:hr>
<tp1:cad>86</tp1:cad>
</tp1:TrackPointExtension>
</extensions>
</trkpt>
<trkpt lat="51.9450550" lon="14.0029300">
<ele>-10.9410000</ele>
<time>2010-06-27T09:32:57Z</time>
<extensions>
<tp1:TrackPointExtension>
<tp1:hr>131</tp1:hr>
<tp1:cad>90</tp1:cad>
</tp1:TrackPointExtension>
</extensions>
</trkpt>
<trkpt lat="51.9448680" lon="14.0016620">
<ele>-10.8340000</ele>
<time>2010-06-27T09:33:06Z</time>
<extensions>
<tp1:TrackPointExtension>
<tp1:hr>133</tp1:hr>
<tp1:cad>86</tp1:cad>
</tp1:TrackPointExtension>
</extensions>
</trkpt>
<trkpt lat="51.9447450" lon="14.0008340">
<ele>-10.9090000</ele>
<time>2010-06-27T09:33:12Z</time>
<extensions>
<tp1:TrackPointExtension>
<tp1:hr>133</tp1:hr>
<tp1:cad>85</tp1:cad>
</tp1:TrackPointExtension>
</extensions>
</trkpt>
<trkpt lat="51.9445720" lon="13.9997290">
<ele>-11.2060000</ele>
<time>2010-06-27T09:33:20Z</time>
<extensions>
<tp1:TrackPointExtension>
<tp1:hr>133</tp1:hr>
<tp1:cad>88</tp1:cad>
</tp1:TrackPointExtension>
</extensions>
</trkpt>
<trkpt lat="51.9444090" lon="13.9987420">
<ele>-11.3350000</ele>
<time>2010-06-27T09:33:27Z</time>
<extensions>
<tp1:TrackPointExtension>
<tp1:hr>134</tp1:hr>
<tp1:cad>89</tp1:cad>
</tp1:TrackPointExtension>
</extensions>
</trkpt>
<trkpt lat="51.9442400" lon="13.9977240">
<ele>-11.7380000</ele>
<time>2010-06-27T09:33:34Z</time>
<extensions>
<tp1:TrackPointExtension>
<tp1:hr>135</tp1:hr>
<tp1:cad>87</tp1:cad>
</tp1:TrackPointExtension>
</extensions>
</trkpt>
<trkpt lat="51.9440530" lon="13.9965890">
<ele>-11.7370000</ele>
<time>2010-06-27T09:33:42Z</time>
<extensions>
<tp1:TrackPointExtension>
<tp1:hr>135</tp1:hr>
<tp1:cad>89</tp1:cad>
</tp1:TrackPointExtension>
</extensions>
</trkpt>
<trkpt lat="51.9438890" lon="13.9956000">
<ele>-11.3790000</ele>
<time>2010-06-27T09:33:49Z</time>
<extensions>
<tp1:TrackPointExtension>
<tp1:hr>132</tp1:hr>
<tp1:cad>86</tp1:cad>
</tp1:TrackPointExtension>
</extensions>
</trkpt>
<trkpt lat="51.9437070" lon="13.9944980">
<ele>-11.4780000</ele>
<time>2010-06-27T09:33:57Z</time>
<extensions>
<tp1:TrackPointExtension>
<tp1:hr>132</tp1:hr>
<tp1:cad>87</tp1:cad>
</tp1:TrackPointExtension>
</extensions>
</trkpt>
<trkpt lat="51.9435010" lon="13.9932570">
<ele>-11.4600000</ele>
<time>2010-06-27T09:34:06Z</time>
<extensions>
<tp1:TrackPointExtension>
<tp1:hr>132</tp1:hr>
<tp1:cad>87</tp1:cad>
</tp1:TrackPointExtension>
</extensions>
</trkpt>
<trkpt lat="51.9433160" lon="13.9921380">
<ele>-11.6200000</ele>
<time>2010-06-27T09:34:14Z</time>
<extensions>
<tp1:TrackPointExtension>
<tp1:hr>131</tp1:hr>
<tp1:cad>86</tp1:cad>
</tp1:TrackPointExtension>
</extensions>
</trkpt>
<trkpt lat="51.9431820" lon="13.9911720">
<ele>-11.2950000</ele>
<time>2010-06-27T09:34:21Z</time>
<extensions>
<tp1:TrackPointExtension>
<tp1:hr>133</tp1:hr>
<tp1:cad>89</tp1:cad>
</tp1:TrackPointExtension>
</extensions>
</trkpt>
<trkpt lat="51.9432120" lon="13.9904550">
<ele>-11.6330000</ele>
<time>2010-06-27T09:34:26Z</time>
<extensions>
<tp1:TrackPointExtension>
<tp1:hr>135</tp1:hr>
<tp1:cad>87</tp1:cad>
</tp1:TrackPointExtension>
</extensions>
</trkpt>
<trkpt lat="51.9433200" lon="13.9897490">
<ele>-11.2690000</ele>
<time>2010-06-27T09:34:31Z</time>
<extensions>
<tp1:TrackPointExtension>
<tp1:hr>135</tp1:hr>
<tp1:cad>28</tp1:cad>
</tp1:TrackPointExtension>
</extensions>
</trkpt>
<trkpt lat="51.9435990" lon="13.9886990">
<ele>-11.2970000</ele>
<time>2010-06-27T09:34:39Z</time>
<extensions>
<tp1:TrackPointExtension>
<tp1:hr>139</tp1:hr>
<tp1:cad>86</tp1:cad>
</tp1:TrackPointExtension>
</extensions>
</trkpt>
<trkpt lat="51.9439830" lon="13.9873970">
<ele>-11.5920000</ele>
<time>2010-06-27T09:34:49Z</time>
<extensions>
<tp1:TrackPointExtension>
<tp1:hr>142</tp1:hr>
<tp1:cad>88</tp1:cad>
</tp1:TrackPointExtension>
</extensions>
</trkpt>
<trkpt lat="51.9444270" lon="13.9857780">
<ele>-11.7070000</ele>
<time>2010-06-27T09:35:01Z</time>
<extensions>
<tp1:TrackPointExtension>
<tp1:hr>143</tp1:hr>
<tp1:cad>89</tp1:cad>
</tp1:TrackPointExtension>
</extensions>
</trkpt>
<trkpt lat="51.9447620" lon="13.9844100">
<ele>-12.0150000</ele>
<time>2010-06-27T09:35:11Z</time>
<extensions>
<tp1:TrackPointExtension>
<tp1:hr>140</tp1:hr>
<tp1:cad>89</tp1:cad>
</tp1:TrackPointExtension>
</extensions>
</trkpt>
<trkpt lat="51.9449400" lon="13.9832740">
<ele>-11.5920000</ele>
<time>2010-06-27T09:35:19Z</time>
<extensions>
<tp1:TrackPointExtension>
<tp1:hr>139</tp1:hr>
<tp1:cad>88</tp1:cad>
</tp1:TrackPointExtension>
</extensions>
</trkpt>
<trkpt lat="51.9450670" lon="13.9819670">
<ele>-11.5110000</ele>
<time>2010-06-27T09:35:28Z</time>
<extensions>
<tp1:TrackPointExtension>
<tp1:hr>139</tp1:hr>
<tp1:cad>89</tp1:cad>
</tp1:TrackPointExtension>
</extensions>
</trkpt>
<trkpt lat="51.9450770" lon="13.9806630">
<ele>-11.2950000</ele>
<time>2010-06-27T09:35:37Z</time>
<extensions>
<tp1:TrackPointExtension>
<tp1:hr>139</tp1:hr>
<tp1:cad>88</tp1:cad>
</tp1:TrackPointExtension>
</extensions>
</trkpt>
<trkpt lat="51.9450150" lon="13.9798050">
<ele>-11.6540000</ele>
<time>2010-06-27T09:35:43Z</time>
<extensions>
<tp1:TrackPointExtension>
<tp1:hr>138</tp1:hr>
<tp1:cad>89</tp1:cad>
</tp1:TrackPointExtension>
</extensions>
</trkpt>
<trkpt lat="51.9447940" lon="13.9782150">
<ele>-11.9510000</ele>
<time>2010-06-27T09:35:54Z</time>
<extensions>
<tp1:TrackPointExtension>
<tp1:hr>138</tp1:hr>
<tp1:cad>90</tp1:cad>
</tp1:TrackPointExtension>
</extensions>
</trkpt>
<trkpt lat="51.9445810" lon="13.9765850">
<ele>-11.7340000</ele>
<time>2010-06-27T09:36:05Z</time>
<extensions>
<tp1:TrackPointExtension>
<tp1:hr>137</tp1:hr>
<tp1:cad>90</tp1:cad>
</tp1:TrackPointExtension>
</extensions>
</trkpt>
<trkpt lat="51.9444090" lon="13.9752590">
<ele>-11.6590000</ele>
<time>2010-06-27T09:36:14Z</time>
<extensions>
<tp1:TrackPointExtension>
<tp1:hr>138</tp1:hr>
<tp1:cad>90</tp1:cad>
</tp1:TrackPointExtension>
</extensions>
</trkpt>
<trkpt lat="51.9442390" lon="13.9739490">
<ele>-11.9830000</ele>
<time>2010-06-27T09:36:23Z</time>
<extensions>
<tp1:TrackPointExtension>
<tp1:hr>140</tp1:hr>
<tp1:cad>90</tp1:cad>
</tp1:TrackPointExtension>
</extensions>
</trkpt>
<trkpt lat="51.9441040" lon="13.9729070">
<ele>-11.9700000</ele>
<time>2010-06-27T09:36:30Z</time>
<extensions>
<tp1:TrackPointExtension>
<tp1:hr>142</tp1:hr>
<tp1:cad>91</tp1:cad>
</tp1:TrackPointExtension>
</extensions>
</trkpt>
<trkpt lat="51.9439390" lon="13.9715560">
<ele>-11.9880000</ele>
<time>2010-06-27T09:36:39Z</time>
<extensions>
<tp1:TrackPointExtension>
<tp1:hr>142</tp1:hr>
<tp1:cad>93</tp1:cad>
</tp1:TrackPointExtension>
</extensions>
</trkpt>
<trkpt lat="51.9439560" lon="13.9707860">
<ele>-11.9520000</ele>
<time>2010-06-27T09:36:44Z</time>
<extensions>
<tp1:TrackPointExtension>
<tp1:hr>143</tp1:hr>
<tp1:cad>91</tp1:cad>
</tp1:TrackPointExtension>
</extensions>
</trkpt>
<trkpt lat="51.9440770" lon="13.9696140">
<ele>-11.5390000</ele>
<time>2010-06-27T09:36:52Z</time>
<extensions>
<tp1:TrackPointExtension>
<tp1:hr>145</tp1:hr>
<tp1:cad>91</tp1:cad>
</tp1:TrackPointExtension>
</extensions>
</trkpt>
<trkpt lat="51.9442190" lon="13.9682880">
<ele>-11.3040000</ele>
<time>2010-06-27T09:37:01Z</time>
<extensions>
<tp1:TrackPointExtension>
<tp1:hr>146</tp1:hr>
<tp1:cad>89</tp1:cad>
</tp1:TrackPointExtension>
</extensions>
</trkpt>
<trkpt lat="51.9443980" lon="13.9665420">
<ele>-11.0650000</ele>
<time>2010-06-27T09:37:13Z</time>
<extensions>
<tp1:TrackPointExtension>
<tp1:hr>149</tp1:hr>
<tp1:cad>89</tp1:cad>
</tp1:TrackPointExtension>
</extensions>
</trkpt>
<trkpt lat="51.9445240" lon="13.9653770">
<ele>-11.4650000</ele>
<time>2010-06-27T09:37:21Z</time>
<extensions>
<tp1:TrackPointExtension>
<tp1:hr>151</tp1:hr>
<tp1:cad>92</tp1:cad>
</tp1:TrackPointExtension>
</extensions>
</trkpt>
<trkpt lat="51.9446330" lon="13.9643430">
<ele>-10.5400000</ele>
<time>2010-06-27T09:37:28Z</time>
<extensions>
<tp1:TrackPointExtension>
<tp1:hr>153</tp1:hr>
<tp1:cad>89</tp1:cad>
</tp1:TrackPointExtension>
</extensions>
</trkpt>
<trkpt lat="51.9447590" lon="13.9630360">
<ele>-11.4700000</ele>
<time>2010-06-27T09:37:37Z</time>
<extensions>
<tp1:TrackPointExtension>
<tp1:hr>155</tp1:hr>
<tp1:cad>92</tp1:cad>
</tp1:TrackPointExtension>
</extensions>
</trkpt>
<trkpt lat="51.9448900" lon="13.9616850">
<ele>-10.9300000</ele>
<time>2010-06-27T09:37:46Z</time>
<extensions>
<tp1:TrackPointExtension>
<tp1:hr>157</tp1:hr>
<tp1:cad>91</tp1:cad>
</tp1:TrackPointExtension>
</extensions>
</trkpt>
<trkpt lat="51.9449770" lon="13.9607950">
<ele>-10.4540000</ele>
<time>2010-06-27T09:37:52Z</time>
<extensions>
<tp1:TrackPointExtension>
<tp1:hr>158</tp1:hr>
<tp1:cad>89</tp1:cad>
</tp1:TrackPointExtension>
</extensions>
</trkpt>
<trkpt lat="51.9450550" lon="13.9593110">
<ele>-10.2100000</ele>
<time>2010-06-27T09:38:02Z</time>
<extensions>
<tp1:TrackPointExtension>
<tp1:hr>160</tp1:hr>
<tp1:cad>89</tp1:cad>
</tp1:TrackPointExtension>
</extensions>
</trkpt>
<trkpt lat="51.9450280" lon="13.9581350">
<ele>-10.3680000</ele>
<time>2010-06-27T09:38:10Z</time>
<extensions>
<tp1:TrackPointExtension>
<tp1:hr>161</tp1:hr>
<tp1:cad>89</tp1:cad>
</tp1:TrackPointExtension>
</extensions>
</trkpt>
<trkpt lat="51.9449640" lon="13.9571290">
<ele>-10.3400000</ele>
<time>2010-06-27T09:38:17Z</time>
<extensions>
<tp1:TrackPointExtension>
<tp1:hr>161</tp1:hr>
<tp1:cad>85</tp1:cad>
</tp1:TrackPointExtension>
</extensions>
</trkpt>
<trkpt lat="51.9448550" lon="13.9559030">
<ele>-11.0030000</ele>
<time>2010-06-27T09:38:26Z</time>
<extensions>
<tp1:TrackPointExtension>
<tp1:hr>162</tp1:hr>
<tp1:cad>83</tp1:cad>
</tp1:TrackPointExtension>
</extensions>
</trkpt>
<trkpt lat="51.9447360" lon="13.9546550">
<ele>-12.1100000</ele>
<time>2010-06-27T09:38:35Z</time>
<extensions>
<tp1:TrackPointExtension>
<tp1:hr>161</tp1:hr>
<tp1:cad>87</tp1:cad>
</tp1:TrackPointExtension>
</extensions>
</trkpt>
<trkpt lat="51.9446550" lon="13.9537930">
<ele>-11.5890000</ele>
<time>2010-06-27T09:38:41Z</time>
<extensions>
<tp1:TrackPointExtension>
<tp1:hr>161</tp1:hr>
<tp1:cad>87</tp1:cad>
</tp1:TrackPointExtension>
</extensions>
</trkpt>
<trkpt lat="51.9445420" lon="13.9526040">
<ele>-11.6950000</ele>
<time>2010-06-27T09:38:49Z</time>
<extensions>
<tp1:TrackPointExtension>
<tp1:hr>160</tp1:hr>
<tp1:cad>94</tp1:cad>
</tp1:TrackPointExtension>
</extensions>
</trkpt>
<trkpt lat="51.9444830" lon="13.9519890">
<ele>-11.9250000</ele>
<time>2010-06-27T09:38:53Z</time>
<extensions>
<tp1:TrackPointExtension>
<tp1:hr>159</tp1:hr>
<tp1:cad>94</tp1:cad>
</tp1:TrackPointExtension>
</extensions>
</trkpt>
<trkpt lat="51.9443820" lon="13.9509160">
<ele>-11.5690000</ele>
<time>2010-06-27T09:39:00Z</time>
<extensions>
<tp1:TrackPointExtension>
<tp1:hr>157</tp1:hr>
<tp1:cad>0</tp1:cad>
</tp1:TrackPointExtension>
</extensions>
</trkpt>
<trkpt lat="51.9442700" lon="13.9497330">
<ele>-11.3630000</ele>
<time>2010-06-27T09:39:08Z</time>
<extensions>
<tp1:TrackPointExtension>
<tp1:hr>154</tp1:hr>
<tp1:cad>93</tp1:cad>
</tp1:TrackPointExtension>
</extensions>
</trkpt>
<trkpt lat="51.9441560" lon="13.9485310">
<ele>-10.9140000</ele>
<time>2010-06-27T09:39:16Z</time>
<extensions>
<tp1:TrackPointExtension>
<tp1:hr>153</tp1:hr>
<tp1:cad>90</tp1:cad>
</tp1:TrackPointExtension>
</extensions>
</trkpt>
<trkpt lat="51.9440710" lon="13.9476340">
<ele>-11.3430000</ele>
<time>2010-06-27T09:39:22Z</time>
<extensions>
<tp1:TrackPointExtension>
<tp1:hr>153</tp1:hr>
<tp1:cad>92</tp1:cad>
</tp1:TrackPointExtension>
</extensions>
</trkpt>
<trkpt lat="51.9439720" lon="13.9465940">
<ele>-11.6920000</ele>
<time>2010-06-27T09:39:29Z</time>
<extensions>
<tp1:TrackPointExtension>
<tp1:hr>152</tp1:hr>
<tp1:cad>90</tp1:cad>
</tp1:TrackPointExtension>
</extensions>
</trkpt>
<trkpt lat="51.9438880" lon="13.9457110">
<ele>-11.8580000</ele>
<time>2010-06-27T09:39:35Z</time>
<extensions>
<tp1:TrackPointExtension>
<tp1:hr>152</tp1:hr>
<tp1:cad>22</tp1:cad>
</tp1:TrackPointExtension>
</extensions>
</trkpt>
<trkpt lat="51.9438020" lon="13.9448070">
<ele>-11.6310000</ele>
<time>2010-06-27T09:39:41Z</time>
<extensions>
<tp1:TrackPointExtension>
<tp1:hr>152</tp1:hr>
<tp1:cad>90</tp1:cad>
</tp1:TrackPointExtension>
</extensions>
</trkpt>
<trkpt lat="51.9436780" lon="13.9434920">
<ele>-11.5860000</ele>
<time>2010-06-27T09:39:50Z</time>
<extensions>
<tp1:TrackPointExtension>
<tp1:hr>152</tp1:hr>
<tp1:cad>88</tp1:cad>
</tp1:TrackPointExtension>
</extensions>
</trkpt>
<trkpt lat="51.9435850" lon="13.9425100">
<ele>-11.8770000</ele>
<time>2010-06-27T09:39:57Z</time>
<extensions>
<tp1:TrackPointExtension>
<tp1:hr>152</tp1:hr>
<tp1:cad>88</tp1:cad>
</tp1:TrackPointExtension>
</extensions>
</trkpt>
<trkpt lat="51.9434900" lon="13.9415070">
<ele>-11.3820000</ele>
<time>2010-06-27T09:40:04Z</time>
<extensions>
<tp1:TrackPointExtension>
<tp1:hr>151</tp1:hr>
<tp1:cad>90</tp1:cad>
</tp1:TrackPointExtension>
</extensions>
</trkpt>
<trkpt lat="51.9433800" lon="13.9403320">
<ele>-11.3890000</ele>
<time>2010-06-27T09:40:12Z</time>
<extensions>
<tp1:TrackPointExtension>
<tp1:hr>151</tp1:hr>
<tp1:cad>87</tp1:cad>
</tp1:TrackPointExtension>
</extensions>
</trkpt>
<trkpt lat="51.9432870" lon="13.9393300">
<ele>-11.6010000</ele>
<time>2010-06-27T09:40:19Z</time>
<extensions>
<tp1:TrackPointExtension>
<tp1:hr>150</tp1:hr>
<tp1:cad>99</tp1:cad>
</tp1:TrackPointExtension>
</extensions>
</trkpt>
<trkpt lat="51.9431900" lon="13.9382790">
<ele>-9.2770000</ele>
<time>2010-06-27T09:40:25Z</time>
<extensions>
<tp1:TrackPointExtension>
<tp1:hr>152</tp1:hr>
<tp1:cad>118</tp1:cad>
</tp1:TrackPointExtension>
</extensions>
</trkpt>
<trkpt lat="51.9430980" lon="13.9372890">
<ele>-8.6580000</ele>
<time>2010-06-27T09:40:30Z</time>
<extensions>
<tp1:TrackPointExtension>
<tp1:hr>157</tp1:hr>
<tp1:cad>126</tp1:cad>
</tp1:TrackPointExtension>
</extensions>
</trkpt>
<trkpt lat="51.9430210" lon="13.9364660">
<ele>-8.9010000</ele>
<time>2010-06-27T09:40:34Z</time>
<extensions>
<tp1:TrackPointExtension>
<tp1:hr>162</tp1:hr>
<tp1:cad>117</tp1:cad>
</tp1:TrackPointExtension>
</extensions>
</trkpt>
<trkpt lat="51.9429510" lon="13.9357110">
<ele>-9.4630000</ele>
<time>2010-06-27T09:40:38Z</time>
<extensions>
<tp1:TrackPointExtension>
<tp1:hr>168</tp1:hr>
<tp1:cad>115</tp1:cad>
</tp1:TrackPointExtension>
</extensions>
</trkpt>
<trkpt lat="51.9428470" lon="13.9345850">
<ele>-10.1200000</ele>
<time>2010-06-27T09:40:44Z</time>
<extensions>
<tp1:TrackPointExtension>
<tp1:hr>174</tp1:hr>
<tp1:cad>112</tp1:cad>
</tp1:TrackPointExtension>
</extensions>
</trkpt>
<trkpt lat="51.9427080" lon="13.9331410">
<ele>-10.3170000</ele>
<time>2010-06-27T09:40:52Z</time>
<extensions>
<tp1:TrackPointExtension>
<tp1:hr>176</tp1:hr>
<tp1:cad>111</tp1:cad>
</tp1:TrackPointExtension>
</extensions>
</trkpt>
<trkpt lat="51.9425730" lon="13.9318970">
<ele>-9.4440000</ele>
<time>2010-06-27T09:40:59Z</time>
<extensions>
<tp1:TrackPointExtension>
<tp1:hr>176</tp1:hr>
<tp1:cad>108</tp1:cad>
</tp1:TrackPointExtension>
</extensions>
</trkpt>
<trkpt lat="51.9424740" lon="13.9309960">
<ele>-9.8970000</ele>
<time>2010-06-27T09:41:04Z</time>
<extensions>
<tp1:TrackPointExtension>
<tp1:hr>177</tp1:hr>
<tp1:cad>117</tp1:cad>
</tp1:TrackPointExtension>
</extensions>
</trkpt>
<trkpt lat="51.9422640" lon="13.9290620">
<ele>-9.8680000</ele>
<time>2010-06-27T09:41:14Z</time>
<extensions>
<tp1:TrackPointExtension>
<tp1:hr>178</tp1:hr>
<tp1:cad>121</tp1:cad>
</tp1:TrackPointExtension>
</extensions>
</trkpt>
<trkpt lat="51.9421630" lon="13.9281610">
<ele>-9.9350000</ele>
<time>2010-06-27T09:41:19Z</time>
<extensions>
<tp1:TrackPointExtension>
<tp1:hr>181</tp1:hr>
<tp1:cad>0</tp1:cad>
</tp1:TrackPointExtension>
</extensions>
</trkpt>
<trkpt lat="51.9420790" lon="13.9274130">
<ele>-10.3800000</ele>
<time>2010-06-27T09:41:24Z</time>
<extensions>
<tp1:TrackPointExtension>
<tp1:hr>182</tp1:hr>
<tp1:cad>0</tp1:cad>
</tp1:TrackPointExtension>
</extensions>
</trkpt>
<trkpt lat="51.9419800" lon="13.9265300">
<ele>-11.0310000</ele>
<time>2010-06-27T09:41:31Z</time>
<extensions>
<tp1:TrackPointExtension>
<tp1:hr>181</tp1:hr>
<tp1:cad>72</tp1:cad>
</tp1:TrackPointExtension>
</extensions>
</trkpt>
<trkpt lat="51.9418770" lon="13.9255740">
<ele>-10.8460000</ele>
<time>2010-06-27T09:41:39Z</time>
<extensions>
<tp1:TrackPointExtension>
<tp1:hr>178</tp1:hr>
<tp1:cad>74</tp1:cad>
</tp1:TrackPointExtension>
</extensions>
</trkpt>
<trkpt lat="51.9417060" lon="13.9239700">
<ele>-11.6980000</ele>
<time>2010-06-27T09:41:52Z</time>
<extensions>
<tp1:TrackPointExtension>
<tp1:hr>175</tp1:hr>
<tp1:cad>80</tp1:cad>
</tp1:TrackPointExtension>
</extensions>
</trkpt>
<trkpt lat="51.9415820" lon="13.9228450">
<ele>-12.0320000</ele>
<time>2010-06-27T09:42:01Z</time>
<extensions>
<tp1:TrackPointExtension>
<tp1:hr>173</tp1:hr>
<tp1:cad>95</tp1:cad>
</tp1:TrackPointExtension>
</extensions>
</trkpt>
<trkpt lat="51.9414800" lon="13.9219410">
<ele>-10.9430000</ele>
<time>2010-06-27T09:42:08Z</time>
<extensions>
<tp1:TrackPointExtension>
<tp1:hr>173</tp1:hr>
<tp1:cad>95</tp1:cad>
</tp1:TrackPointExtension>
</extensions>
</trkpt>
<trkpt lat="51.9413760" lon="13.9210190">
<ele>-11.7720000</ele>
<time>2010-06-27T09:42:15Z</time>
<extensions>
<tp1:TrackPointExtension>
<tp1:hr>173</tp1:hr>
<tp1:cad>99</tp1:cad>
</tp1:TrackPointExtension>
</extensions>
</trkpt>
<trkpt lat="51.9412440" lon="13.9197870">
<ele>-11.3350000</ele>
<time>2010-06-27T09:42:24Z</time>
<extensions>
<tp1:TrackPointExtension>
<tp1:hr>172</tp1:hr>
<tp1:cad>102</tp1:cad>
</tp1:TrackPointExtension>
</extensions>
</trkpt>
<trkpt lat="51.9410940" lon="13.9183520">
<ele>-11.5390000</ele>
<time>2010-06-27T09:42:34Z</time>
<extensions>
<tp1:TrackPointExtension>
<tp1:hr>172</tp1:hr>
<tp1:cad>97</tp1:cad>
</tp1:TrackPointExtension>
</extensions>
</trkpt>
<trkpt lat="51.9410230" lon="13.9173220">
<ele>-10.5660000</ele>
<time>2010-06-27T09:42:41Z</time>
<extensions>
<tp1:TrackPointExtension>
<tp1:hr>172</tp1:hr>
<tp1:cad>94</tp1:cad>
</tp1:TrackPointExtension>
</extensions>
</trkpt>
<trkpt lat="51.9411310" lon="13.9166330">
<ele>-10.9650000</ele>
<time>2010-06-27T09:42:46Z</time>
<extensions>
<tp1:TrackPointExtension>
<tp1:hr>171</tp1:hr>
<tp1:cad>95</tp1:cad>
</tp1:TrackPointExtension>
</extensions>
</trkpt>
<trkpt lat="51.9413720" lon="13.9158620">
<ele>-11.3630000</ele>
<time>2010-06-27T09:42:52Z</time>
<extensions>
<tp1:TrackPointExtension>
<tp1:hr>171</tp1:hr>
<tp1:cad>97</tp1:cad>
</tp1:TrackPointExtension>
</extensions>
</trkpt>
<trkpt lat="51.9416690" lon="13.9152740">
<ele>-11.4720000</ele>
<time>2010-06-27T09:42:57Z</time>
<extensions>
<tp1:TrackPointExtension>
<tp1:hr>171</tp1:hr>
<tp1:cad>101</tp1:cad>
</tp1:TrackPointExtension>
</extensions>
</trkpt>
<trkpt lat="51.9421010" lon="13.9146760">
<ele>-11.5150000</ele>
<time>2010-06-27T09:43:03Z</time>
<extensions>
<tp1:TrackPointExtension>
<tp1:hr>171</tp1:hr>
<tp1:cad>26</tp1:cad>
</tp1:TrackPointExtension>
</extensions>
</trkpt>
<trkpt lat="51.9424540" lon="13.9142980">
<ele>-11.6780000</ele>
<time>2010-06-27T09:43:08Z</time>
<extensions>
<tp1:TrackPointExtension>
<tp1:hr>170</tp1:hr>
<tp1:cad>81</tp1:cad>
</tp1:TrackPointExtension>
</extensions>
</trkpt>
<trkpt lat="51.9427690" lon="13.9137360">
<ele>-11.5490000</ele>
<time>2010-06-27T09:43:14Z</time>
<extensions>
<tp1:TrackPointExtension>
<tp1:hr>170</tp1:hr>
<tp1:cad>0</tp1:cad>
</tp1:TrackPointExtension>
</extensions>
</trkpt>
<trkpt lat="51.9429320" lon="13.9133450">
<ele>-11.6100000</ele>
<time>2010-06-27T09:43:18Z</time>
<extensions>
<tp1:TrackPointExtension>
<tp1:hr>168</tp1:hr>
<tp1:cad>77</tp1:cad>
</tp1:TrackPointExtension>
</extensions>
</trkpt>
<trkpt lat="51.9430170" lon="13.9130260">
<ele>-11.1630000</ele>
<time>2010-06-27T09:43:22Z</time>
<extensions>
<tp1:TrackPointExtension>
<tp1:hr>167</tp1:hr>
<tp1:cad>86</tp1:cad>
</tp1:TrackPointExtension>
</extensions>
</trkpt>
<trkpt lat="51.9428890" lon="13.9123890">
<ele>-11.6020000</ele>
<time>2010-06-27T09:43:26Z</time>
<extensions>
<tp1:TrackPointExtension>
<tp1:hr>166</tp1:hr>
<tp1:cad>88</tp1:cad>
</tp1:TrackPointExtension>
</extensions>
</trkpt>
<trkpt lat="51.9427480" lon="13.9119090">
<ele>-12.0210000</ele>
<time>2010-06-27T09:43:30Z</time>
<extensions>
<tp1:TrackPointExtension>
<tp1:hr>165</tp1:hr>
<tp1:cad>90</tp1:cad>
</tp1:TrackPointExtension>
</extensions>
</trkpt>
<trkpt lat="51.9423860" lon="13.9113610">
<ele>-11.9420000</ele>
<time>2010-06-27T09:43:36Z</time>
<extensions>
<tp1:TrackPointExtension>
<tp1:hr>164</tp1:hr>
<tp1:cad>82</tp1:cad>
</tp1:TrackPointExtension>
</extensions>
</trkpt>
<trkpt lat="51.9418230" lon="13.9106440">
<ele>-11.8150000</ele>
<time>2010-06-27T09:43:45Z</time>
<extensions>
<tp1:TrackPointExtension>
<tp1:hr>162</tp1:hr>
<tp1:cad>81</tp1:cad>
</tp1:TrackPointExtension>
</extensions>
</trkpt>
<trkpt lat="51.9417660" lon="13.9105540">
<ele>-11.9470000</ele>
<time>2010-06-27T09:43:46Z</time>
<extensions>
<tp1:TrackPointExtension>
<tp1:hr>162</tp1:hr>
<tp1:cad>81</tp1:cad>
</tp1:TrackPointExtension>
</extensions>
</trkpt>
<trkpt lat="51.9415430" lon="13.9100370">
<ele>-11.1420000</ele>
<time>2010-06-27T09:43:51Z</time>
<extensions>
<tp1:TrackPointExtension>
<tp1:hr>161</tp1:hr>
<tp1:cad>82</tp1:cad>
</tp1:TrackPointExtension>
</extensions>
</trkpt>
<trkpt lat="51.9413860" lon="13.9093350">
<ele>-12.1310000</ele>
<time>2010-06-27T09:43:57Z</time>
<extensions>
<tp1:TrackPointExtension>
<tp1:hr>161</tp1:hr>
<tp1:cad>81</tp1:cad>
</tp1:TrackPointExtension>
</extensions>
</trkpt>
<trkpt lat="51.9411980" lon="13.9080320">
<ele>-12.3430000</ele>
<time>2010-06-27T09:44:07Z</time>
<extensions>
<tp1:TrackPointExtension>
<tp1:hr>160</tp1:hr>
<tp1:cad>86</tp1:cad>
</tp1:TrackPointExtension>
</extensions>
</trkpt>
<trkpt lat="51.9410850" lon="13.9070390">
<ele>-11.7090000</ele>
<time>2010-06-27T09:44:16Z</time>
<extensions>
<tp1:TrackPointExtension>
<tp1:hr>158</tp1:hr>
<tp1:cad>83</tp1:cad>
</tp1:TrackPointExtension>
</extensions>
</trkpt>
<trkpt lat="51.9410640" lon="13.9065890">
<ele>-11.4650000</ele>
<time>2010-06-27T09:44:18Z</time>
<extensions>
<tp1:TrackPointExtension>
<tp1:hr>158</tp1:hr>
<tp1:cad>83</tp1:cad>
</tp1:TrackPointExtension>
</extensions>
</trkpt>
<trkpt lat="51.9411210" lon="13.9059260">
<ele>-11.2610000</ele>
<time>2010-06-27T09:44:23Z</time>
<extensions>
<tp1:TrackPointExtension>
<tp1:hr>157</tp1:hr>
<tp1:cad>84</tp1:cad>
</tp1:TrackPointExtension>
</extensions>
</trkpt>
<trkpt lat="51.9413000" lon="13.9053010">
<ele>-10.8270000</ele>
<time>2010-06-27T09:44:31Z</time>
<extensions>
<tp1:TrackPointExtension>
<tp1:hr>156</tp1:hr>
<tp1:cad>58</tp1:cad>
</tp1:TrackPointExtension>
</extensions>
</trkpt>
<trkpt lat="51.9416550" lon="13.9043090">
<ele>-11.8260000</ele>
<time>2010-06-27T09:44:37Z</time>
<extensions>
<tp1:TrackPointExtension>
<tp1:hr>157</tp1:hr>
<tp1:cad>83</tp1:cad>
</tp1:TrackPointExtension>
</extensions>
</trkpt>
<trkpt lat="51.9418120" lon="13.9034360">
<ele>-11.2560000</ele>
<time>2010-06-27T09:44:44Z</time>
<extensions>
<tp1:TrackPointExtension>
<tp1:hr>157</tp1:hr>
<tp1:cad>84</tp1:cad>
</tp1:TrackPointExtension>
</extensions>
</trkpt>
<trkpt lat="51.9420220" lon="13.9024550">
<ele>-12.0030000</ele>
<time>2010-06-27T09:44:52Z</time>
<extensions>
<tp1:TrackPointExtension>
<tp1:hr>159</tp1:hr>
<tp1:cad>85</tp1:cad>
</tp1:TrackPointExtension>
</extensions>
</trkpt>
<trkpt lat="51.9420440" lon="13.9019540">
<ele>-10.9360000</ele>
<time>2010-06-27T09:44:56Z</time>
<extensions>
<tp1:TrackPointExtension>
<tp1:hr>160</tp1:hr>
<tp1:cad>84</tp1:cad>
</tp1:TrackPointExtension>
</extensions>
</trkpt>
<trkpt lat="51.9418690" lon="13.9015630">
<ele>-11.4370000</ele>
<time>2010-06-27T09:44:59Z</time>
<extensions>
<tp1:TrackPointExtension>
<tp1:hr>160</tp1:hr>
<tp1:cad>83</tp1:cad>
</tp1:TrackPointExtension>
</extensions>
</trkpt>
<trkpt lat="51.9417570" lon="13.9013560">
<ele>-12.0860000</ele>
<time>2010-06-27T09:45:01Z</time>
<extensions>
<tp1:TrackPointExtension>
<tp1:hr>160</tp1:hr>
<tp1:cad>84</tp1:cad>
</tp1:TrackPointExtension>
</extensions>
</trkpt>
<trkpt lat="51.9416430" lon="13.9008600">
<ele>-11.8430000</ele>
<time>2010-06-27T09:45:06Z</time>
<extensions>
<tp1:TrackPointExtension>
<tp1:hr>160</tp1:hr>
<tp1:cad>0</tp1:cad>
</tp1:TrackPointExtension>
</extensions>
</trkpt>
<trkpt lat="51.9415990" lon="13.9004450">
<ele>-11.8460000</ele>
<time>2010-06-27T09:45:09Z</time>
<extensions>
<tp1:TrackPointExtension>
<tp1:hr>161</tp1:hr>
<tp1:cad>0</tp1:cad>
</tp1:TrackPointExtension>
</extensions>
</trkpt>
<trkpt lat="51.9415790" lon="13.9002590">
<ele>-10.9300000</ele>
<time>2010-06-27T09:45:13Z</time>
<extensions>
<tp1:TrackPointExtension>
<tp1:hr>160</tp1:hr>
<tp1:cad>62</tp1:cad>
</tp1:TrackPointExtension>
</extensions>
</trkpt>
<trkpt lat="51.9416760" lon="13.9002170">
<ele>-10.9300000</ele>
<time>2010-06-27T09:45:14Z</time>
<extensions>
<tp1:TrackPointExtension>
<tp1:hr>160</tp1:hr>
<tp1:cad>69</tp1:cad>
</tp1:TrackPointExtension>
</extensions>
</trkpt>
<trkpt lat="51.9418090" lon="13.9001600">
<ele>-10.1350000</ele>
<time>2010-06-27T09:45:16Z</time>
<extensions>
<tp1:TrackPointExtension>
<tp1:hr>161</tp1:hr>
<tp1:cad>84</tp1:cad>
</tp1:TrackPointExtension>
</extensions>
</trkpt>
<trkpt lat="51.9418950" lon="13.9001220">
<ele>-9.9150000</ele>
<time>2010-06-27T09:45:17Z</time>
<extensions>
<tp1:TrackPointExtension>
<tp1:hr>160</tp1:hr>
<tp1:cad>84</tp1:cad>
</tp1:TrackPointExtension>
</extensions>
</trkpt>
<trkpt lat="51.9421370" lon="13.8999120">
<ele>-10.0180000</ele>
<time>2010-06-27T09:45:20Z</time>
<extensions>
<tp1:TrackPointExtension>
<tp1:hr>160</tp1:hr>
<tp1:cad>90</tp1:cad>
</tp1:TrackPointExtension>
</extensions>
</trkpt>
<trkpt lat="51.9422010" lon="13.8995340">
<ele>-10.4710000</ele>
<time>2010-06-27T09:45:23Z</time>
<extensions>
<tp1:TrackPointExtension>
<tp1:hr>159</tp1:hr>
<tp1:cad>92</tp1:cad>
</tp1:TrackPointExtension>
</extensions>
</trkpt>
<trkpt lat="51.9422010" lon="13.8984490">
<ele>-10.3180000</ele>
<time>2010-06-27T09:45:31Z</time>
<extensions>
<tp1:TrackPointExtension>
<tp1:hr>160</tp1:hr>
<tp1:cad>83</tp1:cad>
</tp1:TrackPointExtension>
</extensions>
</trkpt>
<trkpt lat="51.9422230" lon="13.8974310">
<ele>-9.2770000</ele>
<time>2010-06-27T09:45:39Z</time>
<extensions>
<tp1:TrackPointExtension>
<tp1:hr>162</tp1:hr>
<tp1:cad>83</tp1:cad>
</tp1:TrackPointExtension>
</extensions>
</trkpt>
<trkpt lat="51.9422230" lon="13.8968040">
<ele>-9.6070000</ele>
<time>2010-06-27T09:45:46Z</time>
<extensions>
<tp1:TrackPointExtension>
<tp1:hr>162</tp1:hr>
<tp1:cad>84</tp1:cad>
</tp1:TrackPointExtension>
</extensions>
</trkpt>
<trkpt lat="51.9422170" lon="13.8956480">
<ele>-9.6170000</ele>
<time>2010-06-27T09:45:53Z</time>
<extensions>
<tp1:TrackPointExtension>
<tp1:hr>163</tp1:hr>
<tp1:cad>80</tp1:cad>
</tp1:TrackPointExtension>
</extensions>
</trkpt>
<trkpt lat="51.9422090" lon="13.8951370">
<ele>-10.0440000</ele>
<time>2010-06-27T09:45:57Z</time>
<extensions>
<tp1:TrackPointExtension>
<tp1:hr>163</tp1:hr>
<tp1:cad>0</tp1:cad>
</tp1:TrackPointExtension>
</extensions>
</trkpt>
<trkpt lat="51.9422050" lon="13.8948940">
<ele>-10.2450000</ele>
<time>2010-06-27T09:45:59Z</time>
<extensions>
<tp1:TrackPointExtension>
<tp1:hr>163</tp1:hr>
<tp1:cad>0</tp1:cad>
</tp1:TrackPointExtension>
</extensions>
</trkpt>
<trkpt lat="51.9421210" lon="13.8945020">
<ele>-10.7250000</ele>
<time>2010-06-27T09:46:04Z</time>
<extensions>
<tp1:TrackPointExtension>
<tp1:hr>163</tp1:hr>
<tp1:cad>0</tp1:cad>
</tp1:TrackPointExtension>
</extensions>
</trkpt>
<trkpt lat="51.9421040" lon="13.8944660">
<ele>-10.8990000</ele>
<time>2010-06-27T09:46:05Z</time>
<extensions>
<tp1:TrackPointExtension>
<tp1:hr>163</tp1:hr>
<tp1:cad>0</tp1:cad>
</tp1:TrackPointExtension>
</extensions>
</trkpt>
<trkpt lat="51.9421800" lon="13.8944110">
<ele>-11.4290000</ele>
<time>2010-06-27T09:46:09Z</time>
<extensions>
<tp1:TrackPointExtension>
<tp1:hr>162</tp1:hr>
<tp1:cad>0</tp1:cad>
</tp1:TrackPointExtension>
</extensions>
</trkpt>
<trkpt lat="51.9421450" lon="13.8945550">
<ele>-11.6730000</ele>
<time>2010-06-27T09:46:13Z</time>
<extensions>
<tp1:TrackPointExtension>
<tp1:hr>161</tp1:hr>
<tp1:cad>0</tp1:cad>
</tp1:TrackPointExtension>
</extensions>
</trkpt>
<trkpt lat="51.9421460" lon="13.8945580">
<ele>-11.5070000</ele>
<time>2010-06-27T09:46:14Z</time>
<extensions>
<tp1:TrackPointExtension>
<tp1:hr>160</tp1:hr>
<tp1:cad>0</tp1:cad>
</tp1:TrackPointExtension>
</extensions>
</trkpt>
</trkseg>
<trkseg>
<trkpt lat="51.9421460" lon="13.8945580">
<ele>-10.9720000</ele>
<time>2010-06-27T09:46:39Z</time>
<extensions>
<tp1:TrackPointExtension>
<tp1:hr>150</tp1:hr>
</tp1:TrackPointExtension>
</extensions>
</trkpt>
<trkpt lat="51.9421460" lon="13.8945580">
<ele>-11.0150000</ele>
<time>2010-06-27T09:46:40Z</time>
<extensions>
<tp1:TrackPointExtension>
<tp1:hr>150</tp1:hr>
</tp1:TrackPointExtension>
</extensions>
</trkpt>
<trkpt lat="51.9421460" lon="13.8945580">
<ele>-10.8820000</ele>
<time>2010-06-27T09:46:46Z</time>
<extensions>
<tp1:TrackPointExtension>
<tp1:hr>148</tp1:hr>
</tp1:TrackPointExtension>
</extensions>
</trkpt>
<trkpt lat="51.9421460" lon="13.8945580">
<ele>-11.0220000</ele>
<time>2010-06-27T09:46:51Z</time>
<extensions>
<tp1:TrackPointExtension>
<tp1:hr>146</tp1:hr>
</tp1:TrackPointExtension>
</extensions>
</trkpt>
</trkseg>
<trkseg>
<trkpt lat="51.9421460" lon="13.8945580">
<ele>-10.9540000</ele>
<time>2010-06-27T09:47:03Z</time>
<extensions>
<tp1:TrackPointExtension>
<tp1:hr>144</tp1:hr>
</tp1:TrackPointExtension>
</extensions>
</trkpt>
<trkpt lat="51.9421460" lon="13.8945580">
<ele>-11.0640000</ele>
<time>2010-06-27T09:47:08Z</time>
<extensions>
<tp1:TrackPointExtension>
<tp1:hr>143</tp1:hr>
</tp1:TrackPointExtension>
</extensions>
</trkpt>
<trkpt lat="51.9421460" lon="13.8945580">
<ele>-11.1360000</ele>
<time>2010-06-27T09:47:09Z</time>
<extensions>
<tp1:TrackPointExtension>
<tp1:hr>142</tp1:hr>
</tp1:TrackPointExtension>
</extensions>
</trkpt>
</trkseg>
<trkseg>
<trkpt lat="51.9423180" lon="13.8943590">
<ele>5.0940000</ele>
<time>2010-06-27T11:13:35Z</time>
<extensions>
<tp1:TrackPointExtension>
<tp1:hr>103</tp1:hr>
</tp1:TrackPointExtension>
</extensions>
</trkpt>
<trkpt lat="51.9423180" lon="13.8943590">
<ele>5.2120000</ele>
<time>2010-06-27T11:13:36Z</time>
<extensions>
<tp1:TrackPointExtension>
<tp1:hr>103</tp1:hr>
</tp1:TrackPointExtension>
</extensions>
</trkpt>
<trkpt lat="51.9422770" lon="13.8943740">
<ele>5.5740000</ele>
<time>2010-06-27T11:13:40Z</time>
<extensions>
<tp1:TrackPointExtension>
<tp1:hr>105</tp1:hr>
</tp1:TrackPointExtension>
</extensions>
</trkpt>
<trkpt lat="51.9422350" lon="13.8943900">
<ele>5.5580000</ele>
<time>2010-06-27T11:13:47Z</time>
<extensions>
<tp1:TrackPointExtension>
<tp1:hr>107</tp1:hr>
</tp1:TrackPointExtension>
</extensions>
</trkpt>
<trkpt lat="51.9422350" lon="13.8943900">
<ele>5.3300000</ele>
<time>2010-06-27T11:13:51Z</time>
<extensions>
<tp1:TrackPointExtension>
<tp1:hr>107</tp1:hr>
</tp1:TrackPointExtension>
</extensions>
</trkpt>
</trkseg>
<trkseg>
<trkpt lat="51.9420940" lon="13.8944440">
<ele>5.1920000</ele>
<time>2010-06-27T11:14:05Z</time>
<extensions>
<tp1:TrackPointExtension>
<tp1:hr>108</tp1:hr>
</tp1:TrackPointExtension>
</extensions>
</trkpt>
<trkpt lat="51.9419570" lon="13.8944010">
<ele>4.9620000</ele>
<time>2010-06-27T11:14:11Z</time>
<extensions>
<tp1:TrackPointExtension>
<tp1:hr>107</tp1:hr>
<tp1:cad>26</tp1:cad>
</tp1:TrackPointExtension>
</extensions>
</trkpt>
<trkpt lat="51.9418790" lon="13.8943790">
<ele>5.5500000</ele>
<time>2010-06-27T11:14:16Z</time>
<extensions>
<tp1:TrackPointExtension>
<tp1:hr>107</tp1:hr>
<tp1:cad>37</tp1:cad>
</tp1:TrackPointExtension>
</extensions>
</trkpt>
<trkpt lat="51.9418580" lon="13.8939500">
<ele>5.9230000</ele>
<time>2010-06-27T11:14:25Z</time>
<extensions>
<tp1:TrackPointExtension>
<tp1:hr>109</tp1:hr>
<tp1:cad>0</tp1:cad>
</tp1:TrackPointExtension>
</extensions>
</trkpt>
<trkpt lat="51.9418360" lon="13.8934140">
<ele>5.4830000</ele>
<time>2010-06-27T11:14:30Z</time>
<extensions>
<tp1:TrackPointExtension>
<tp1:hr>108</tp1:hr>
<tp1:cad>0</tp1:cad>
</tp1:TrackPointExtension>
</extensions>
</trkpt>
<trkpt lat="51.9418280" lon="13.8933730">
<ele>5.1730000</ele>
<time>2010-06-27T11:14:33Z</time>
<extensions>
<tp1:TrackPointExtension>
<tp1:hr>108</tp1:hr>
<tp1:cad>0</tp1:cad>
</tp1:TrackPointExtension>
</extensions>
</trkpt>
<trkpt lat="51.9418270" lon="13.8933670">
<ele>4.9890000</ele>
<time>2010-06-27T11:14:35Z</time>
<extensions>
<tp1:TrackPointExtension>
<tp1:hr>108</tp1:hr>
</tp1:TrackPointExtension>
</extensions>
</trkpt>
</trkseg>
<trkseg>
<trkpt lat="51.9417860" lon="13.8932110">
<ele>4.6030000</ele>
<time>2010-06-27T11:15:01Z</time>
<extensions>
<tp1:TrackPointExtension>
<tp1:hr>104</tp1:hr>
<tp1:cad>34</tp1:cad>
</tp1:TrackPointExtension>
</extensions>
</trkpt>
<trkpt lat="51.9416650" lon="13.8931130">
<ele>4.5350000</ele>
<time>2010-06-27T11:15:04Z</time>
<extensions>
<tp1:TrackPointExtension>
<tp1:hr>104</tp1:hr>
<tp1:cad>50</tp1:cad>
</tp1:TrackPointExtension>
</extensions>
</trkpt>
<trkpt lat="51.9416650" lon="13.8931130">
<ele>4.6280000</ele>
<time>2010-06-27T11:15:06Z</time>
<extensions>
<tp1:TrackPointExtension>
<tp1:hr>104</tp1:hr>
<tp1:cad>53</tp1:cad>
</tp1:TrackPointExtension>
</extensions>
</trkpt>
<trkpt lat="51.9412460" lon="13.8933550">
<ele>4.1940000</ele>
<time>2010-06-27T11:15:13Z</time>
<extensions>
<tp1:TrackPointExtension>
<tp1:hr>105</tp1:hr>
<tp1:cad>0</tp1:cad>
</tp1:TrackPointExtension>
</extensions>
</trkpt>
<trkpt lat="51.9408780" lon="13.8935670">
<ele>4.8360000</ele>
<time>2010-06-27T11:15:20Z</time>
<extensions>
<tp1:TrackPointExtension>
<tp1:hr>105</tp1:hr>
<tp1:cad>63</tp1:cad>
</tp1:TrackPointExtension>
</extensions>
</trkpt>
<trkpt lat="51.9405170" lon="13.8937730">
<ele>4.3090000</ele>
<time>2010-06-27T11:15:27Z</time>
<extensions>
<tp1:TrackPointExtension>
<tp1:hr>106</tp1:hr>
<tp1:cad>64</tp1:cad>
</tp1:TrackPointExtension>
</extensions>
</trkpt>
<trkpt lat="51.9402950" lon="13.8938760">
<ele>3.9630000</ele>
<time>2010-06-27T11:15:31Z</time>
<extensions>
<tp1:TrackPointExtension>
<tp1:hr>108</tp1:hr>
<tp1:cad>0</tp1:cad>
</tp1:TrackPointExtension>
</extensions>
</trkpt>
<trkpt lat="51.9399570" lon="13.8939740">
<ele>3.6680000</ele>
<time>2010-06-27T11:15:38Z</time>
<extensions>
<tp1:TrackPointExtension>
<tp1:hr>109</tp1:hr>
<tp1:cad>0</tp1:cad>
</tp1:TrackPointExtension>
</extensions>
</trkpt>
<trkpt lat="51.9397330" lon="13.8940440">
<ele>3.4270000</ele>
<time>2010-06-27T11:15:44Z</time>
<extensions>
<tp1:TrackPointExtension>
<tp1:hr>109</tp1:hr>
<tp1:cad>49</tp1:cad>
</tp1:TrackPointExtension>
</extensions>
</trkpt>
<trkpt lat="51.9395630" lon="13.8940860">
<ele>3.7330000</ele>
<time>2010-06-27T11:15:48Z</time>
<extensions>
<tp1:TrackPointExtension>
<tp1:hr>110</tp1:hr>
<tp1:cad>56</tp1:cad>
</tp1:TrackPointExtension>
</extensions>
</trkpt>
<trkpt lat="51.9394620" lon="13.8938300">
<ele>3.9550000</ele>
<time>2010-06-27T11:15:50Z</time>
<extensions>
<tp1:TrackPointExtension>
<tp1:hr>110</tp1:hr>
<tp1:cad>24</tp1:cad>
</tp1:TrackPointExtension>
</extensions>
</trkpt>
<trkpt lat="51.9394170" lon="13.8931880">
<ele>4.7350000</ele>
<time>2010-06-27T11:15:58Z</time>
<extensions>
<tp1:TrackPointExtension>
<tp1:hr>114</tp1:hr>
<tp1:cad>63</tp1:cad>
</tp1:TrackPointExtension>
</extensions>
</trkpt>
<trkpt lat="51.9393700" lon="13.8923760">
<ele>5.1340000</ele>
<time>2010-06-27T11:16:07Z</time>
<extensions>
<tp1:TrackPointExtension>
<tp1:hr>115</tp1:hr>
<tp1:cad>68</tp1:cad>
</tp1:TrackPointExtension>
</extensions>
</trkpt>
<trkpt lat="51.9393370" lon="13.8920200">
<ele>5.4490000</ele>
<time>2010-06-27T11:16:11Z</time>
<extensions>
<tp1:TrackPointExtension>
<tp1:hr>116</tp1:hr>
<tp1:cad>69</tp1:cad>
</tp1:TrackPointExtension>
</extensions>
</trkpt>
<trkpt lat="51.9392890" lon="13.8914080">
<ele>5.5460000</ele>
<time>2010-06-27T11:16:17Z</time>
<extensions>
<tp1:TrackPointExtension>
<tp1:hr>117</tp1:hr>
<tp1:cad>75</tp1:cad>
</tp1:TrackPointExtension>
</extensions>
</trkpt>
<trkpt lat="51.9392610" lon="13.8913040">
<ele>5.6800000</ele>
<time>2010-06-27T11:16:18Z</time>
<extensions>
<tp1:TrackPointExtension>
<tp1:hr>117</tp1:hr>
<tp1:cad>77</tp1:cad>
</tp1:TrackPointExtension>
</extensions>
</trkpt>
<trkpt lat="51.9391450" lon="13.8911520">
<ele>5.7550000</ele>
<time>2010-06-27T11:16:20Z</time>
<extensions>
<tp1:TrackPointExtension>
<tp1:hr>118</tp1:hr>
<tp1:cad>81</tp1:cad>
</tp1:TrackPointExtension>
</extensions>
</trkpt>
<trkpt lat="51.9389830" lon="13.8909460">
<ele>5.1890000</ele>
<time>2010-06-27T11:16:24Z</time>
<extensions>
<tp1:TrackPointExtension>
<tp1:hr>120</tp1:hr>
<tp1:cad>0</tp1:cad>
</tp1:TrackPointExtension>
</extensions>
</trkpt>
<trkpt lat="51.9388110" lon="13.8907530">
<ele>4.7690000</ele>
<time>2010-06-27T11:16:28Z</time>
<extensions>
<tp1:TrackPointExtension>
<tp1:hr>121</tp1:hr>
<tp1:cad>62</tp1:cad>
</tp1:TrackPointExtension>
</extensions>
</trkpt>
<trkpt lat="51.9388110" lon="13.8907530">
<ele>4.6880000</ele>
<time>2010-06-27T11:16:29Z</time>
<extensions>
<tp1:TrackPointExtension>
<tp1:hr>121</tp1:hr>
<tp1:cad>64</tp1:cad>
</tp1:TrackPointExtension>
</extensions>
</trkpt>
<trkpt lat="51.9383800" lon="13.8903440">
<ele>4.2750000</ele>
<time>2010-06-27T11:16:35Z</time>
<extensions>
<tp1:TrackPointExtension>
<tp1:hr>123</tp1:hr>
<tp1:cad>20</tp1:cad>
</tp1:TrackPointExtension>
</extensions>
</trkpt>
<trkpt lat="51.9379700" lon="13.8902170">
<ele>4.0390000</ele>
<time>2010-06-27T11:16:41Z</time>
<extensions>
<tp1:TrackPointExtension>
<tp1:hr>124</tp1:hr>
<tp1:cad>72</tp1:cad>
</tp1:TrackPointExtension>
</extensions>
</trkpt>
<trkpt lat="51.9375090" lon="13.8902920">
<ele>3.8340000</ele>
<time>2010-06-27T11:16:48Z</time>
<extensions>
<tp1:TrackPointExtension>
<tp1:hr>125</tp1:hr>
<tp1:cad>72</tp1:cad>
</tp1:TrackPointExtension>
</extensions>
</trkpt>
<trkpt lat="51.9370680" lon="13.8903980">
<ele>4.0520000</ele>
<time>2010-06-27T11:16:55Z</time>
<extensions>
<tp1:TrackPointExtension>
<tp1:hr>126</tp1:hr>
<tp1:cad>70</tp1:cad>
</tp1:TrackPointExtension>
</extensions>
</trkpt>
<trkpt lat="51.9367180" lon="13.8904890">
<ele>4.1120000</ele>
<time>2010-06-27T11:17:01Z</time>
<extensions>
<tp1:TrackPointExtension>
<tp1:hr>125</tp1:hr>
<tp1:cad>67</tp1:cad>
</tp1:TrackPointExtension>
</extensions>
</trkpt>
<trkpt lat="51.9364310" lon="13.8905640">
<ele>3.8270000</ele>
<time>2010-06-27T11:17:06Z</time>
<extensions>
<tp1:TrackPointExtension>
<tp1:hr>124</tp1:hr>
<tp1:cad>0</tp1:cad>
</tp1:TrackPointExtension>
</extensions>
</trkpt>
<trkpt lat="51.9361140" lon="13.8906470">
<ele>3.7540000</ele>
<time>2010-06-27T11:17:12Z</time>
<extensions>
<tp1:TrackPointExtension>
<tp1:hr>122</tp1:hr>
<tp1:cad>0</tp1:cad>
</tp1:TrackPointExtension>
</extensions>
</trkpt>
<trkpt lat="51.9358710" lon="13.8907100">
<ele>3.4300000</ele>
<time>2010-06-27T11:17:18Z</time>
<extensions>
<tp1:TrackPointExtension>
<tp1:hr>119</tp1:hr>
<tp1:cad>0</tp1:cad>
</tp1:TrackPointExtension>
</extensions>
</trkpt>
<trkpt lat="51.9355680" lon="13.8908070">
<ele>3.5710000</ele>
<time>2010-06-27T11:17:25Z</time>
<extensions>
<tp1:TrackPointExtension>
<tp1:hr>115</tp1:hr>
<tp1:cad>0</tp1:cad>
</tp1:TrackPointExtension>
</extensions>
</trkpt>
<trkpt lat="51.9353640" lon="13.8908550">
<ele>3.5540000</ele>
<time>2010-06-27T11:17:30Z</time>
<extensions>
<tp1:TrackPointExtension>
<tp1:hr>111</tp1:hr>
<tp1:cad>48</tp1:cad>
</tp1:TrackPointExtension>
</extensions>
</trkpt>
<trkpt lat="51.9352250" lon="13.8908860">
<ele>3.7330000</ele>
<time>2010-06-27T11:17:33Z</time>
<extensions>
<tp1:TrackPointExtension>
<tp1:hr>112</tp1:hr>
<tp1:cad>30</tp1:cad>
</tp1:TrackPointExtension>
</extensions>
</trkpt>
<trkpt lat="51.9348270" lon="13.8909770">
<ele>3.5910000</ele>
<time>2010-06-27T11:17:41Z</time>
<extensions>
<tp1:TrackPointExtension>
<tp1:hr>111</tp1:hr>
<tp1:cad>59</tp1:cad>
</tp1:TrackPointExtension>
</extensions>
</trkpt>
<trkpt lat="51.9345870" lon="13.8910310">
<ele>4.0030000</ele>
<time>2010-06-27T11:17:46Z</time>
<extensions>
<tp1:TrackPointExtension>
<tp1:hr>111</tp1:hr>
<tp1:cad>59</tp1:cad>
</tp1:TrackPointExtension>
</extensions>
</trkpt>
<trkpt lat="51.9344570" lon="13.8910660">
<ele>4.2310000</ele>
<time>2010-06-27T11:17:49Z</time>
<extensions>
<tp1:TrackPointExtension>
<tp1:hr>111</tp1:hr>
<tp1:cad>60</tp1:cad>
</tp1:TrackPointExtension>
</extensions>
</trkpt>
<trkpt lat="51.9340860" lon="13.8911680">
<ele>4.2280000</ele>
<time>2010-06-27T11:17:56Z</time>
<extensions>
<tp1:TrackPointExtension>
<tp1:hr>111</tp1:hr>
<tp1:cad>59</tp1:cad>
</tp1:TrackPointExtension>
</extensions>
</trkpt>
<trkpt lat="51.9337220" lon="13.8912730">
<ele>4.5490000</ele>
<time>2010-06-27T11:18:03Z</time>
<extensions>
<tp1:TrackPointExtension>
<tp1:hr>111</tp1:hr>
<tp1:cad>58</tp1:cad>
</tp1:TrackPointExtension>
</extensions>
</trkpt>
<trkpt lat="51.9333150" lon="13.8914270">
<ele>4.2870000</ele>
<time>2010-06-27T11:18:11Z</time>
<extensions>
<tp1:TrackPointExtension>
<tp1:hr>112</tp1:hr>
<tp1:cad>60</tp1:cad>
</tp1:TrackPointExtension>
</extensions>
</trkpt>
<trkpt lat="51.9330420" lon="13.8916200">
<ele>4.6290000</ele>
<time>2010-06-27T11:18:17Z</time>
<extensions>
<tp1:TrackPointExtension>
<tp1:hr>114</tp1:hr>
<tp1:cad>60</tp1:cad>
</tp1:TrackPointExtension>
</extensions>
</trkpt>
<trkpt lat="51.9327030" lon="13.8918550">
<ele>3.9100000</ele>
<time>2010-06-27T11:18:24Z</time>
<extensions>
<tp1:TrackPointExtension>
<tp1:hr>116</tp1:hr>
<tp1:cad>60</tp1:cad>
</tp1:TrackPointExtension>
</extensions>
</trkpt>
<trkpt lat="51.9322870" lon="13.8921290">
<ele>4.0210000</ele>
<time>2010-06-27T11:18:32Z</time>
<extensions>
<tp1:TrackPointExtension>
<tp1:hr>116</tp1:hr>
<tp1:cad>0</tp1:cad>
</tp1:TrackPointExtension>
</extensions>
</trkpt>
<trkpt lat="51.9319100" lon="13.8923770">
<ele>3.8830000</ele>
<time>2010-06-27T11:18:40Z</time>
<extensions>
<tp1:TrackPointExtension>
<tp1:hr>113</tp1:hr>
<tp1:cad>56</tp1:cad>
</tp1:TrackPointExtension>
</extensions>
</trkpt>
<trkpt lat="51.9316770" lon="13.8925310">
<ele>3.9700000</ele>
<time>2010-06-27T11:18:45Z</time>
<extensions>
<tp1:TrackPointExtension>
<tp1:hr>112</tp1:hr>
<tp1:cad>55</tp1:cad>
</tp1:TrackPointExtension>
</extensions>
</trkpt>
<trkpt lat="51.9313260" lon="13.8927620">
<ele>4.1740000</ele>
<time>2010-06-27T11:18:53Z</time>
<extensions>
<tp1:TrackPointExtension>
<tp1:hr>109</tp1:hr>
<tp1:cad>54</tp1:cad>
</tp1:TrackPointExtension>
</extensions>
</trkpt>
<trkpt lat="51.9310600" lon="13.8929380">
<ele>4.2820000</ele>
<time>2010-06-27T11:18:59Z</time>
<extensions>
<tp1:TrackPointExtension>
<tp1:hr>107</tp1:hr>
<tp1:cad>69</tp1:cad>
</tp1:TrackPointExtension>
</extensions>
</trkpt>
<trkpt lat="51.9305960" lon="13.8932320">
<ele>4.3400000</ele>
<time>2010-06-27T11:19:07Z</time>
<extensions>
<tp1:TrackPointExtension>
<tp1:hr>108</tp1:hr>
<tp1:cad>74</tp1:cad>
</tp1:TrackPointExtension>
</extensions>
</trkpt>
<trkpt lat="51.9302280" lon="13.8934700">
<ele>4.7290000</ele>
<time>2010-06-27T11:19:13Z</time>
<extensions>
<tp1:TrackPointExtension>
<tp1:hr>110</tp1:hr>
<tp1:cad>78</tp1:cad>
</tp1:TrackPointExtension>
</extensions>
</trkpt>
<trkpt lat="51.9297840" lon="13.8937640">
<ele>4.4010000</ele>
<time>2010-06-27T11:19:20Z</time>
<extensions>
<tp1:TrackPointExtension>
<tp1:hr>113</tp1:hr>
<tp1:cad>61</tp1:cad>
</tp1:TrackPointExtension>
</extensions>
</trkpt>
<trkpt lat="51.9294140" lon="13.8940210">
<ele>4.3790000</ele>
<time>2010-06-27T11:19:26Z</time>
<extensions>
<tp1:TrackPointExtension>
<tp1:hr>119</tp1:hr>
<tp1:cad>69</tp1:cad>
</tp1:TrackPointExtension>
</extensions>
</trkpt>
<trkpt lat="51.9290430" lon="13.8942780">
<ele>3.8400000</ele>
<time>2010-06-27T11:19:32Z</time>
<extensions>
<tp1:TrackPointExtension>
<tp1:hr>120</tp1:hr>
<tp1:cad>61</tp1:cad>
</tp1:TrackPointExtension>
</extensions>
</trkpt>
<trkpt lat="51.9286050" lon="13.8945810">
<ele>4.0700000</ele>
<time>2010-06-27T11:19:39Z</time>
<extensions>
<tp1:TrackPointExtension>
<tp1:hr>120</tp1:hr>
<tp1:cad>60</tp1:cad>
</tp1:TrackPointExtension>
</extensions>
</trkpt>
<trkpt lat="51.9282450" lon="13.8948300">
<ele>4.1520000</ele>
<time>2010-06-27T11:19:45Z</time>
<extensions>
<tp1:TrackPointExtension>
<tp1:hr>121</tp1:hr>
<tp1:cad>0</tp1:cad>
</tp1:TrackPointExtension>
</extensions>
</trkpt>
<trkpt lat="51.9278660" lon="13.8950950">
<ele>4.4930000</ele>
<time>2010-06-27T11:19:52Z</time>
<extensions>
<tp1:TrackPointExtension>
<tp1:hr>122</tp1:hr>
<tp1:cad>61</tp1:cad>
</tp1:TrackPointExtension>
</extensions>
</trkpt>
<trkpt lat="51.9277560" lon="13.8951720">
<ele>4.7970000</ele>
<time>2010-06-27T11:19:54Z</time>
<extensions>
<tp1:TrackPointExtension>
<tp1:hr>122</tp1:hr>
<tp1:cad>20</tp1:cad>
</tp1:TrackPointExtension>
</extensions>
</trkpt>
<trkpt lat="51.9273050" lon="13.8954860">
<ele>4.2980000</ele>
<time>2010-06-27T11:20:02Z</time>
<extensions>
<tp1:TrackPointExtension>
<tp1:hr>123</tp1:hr>
<tp1:cad>64</tp1:cad>
</tp1:TrackPointExtension>
</extensions>
</trkpt>
<trkpt lat="51.9268650" lon="13.8956860">
<ele>4.4860000</ele>
<time>2010-06-27T11:20:09Z</time>
<extensions>
<tp1:TrackPointExtension>
<tp1:hr>123</tp1:hr>
<tp1:cad>66</tp1:cad>
</tp1:TrackPointExtension>
</extensions>
</trkpt>
<trkpt lat="51.9263890" lon="13.8958020">
<ele>4.7150000</ele>
<time>2010-06-27T11:20:16Z</time>
<extensions>
<tp1:TrackPointExtension>
<tp1:hr>123</tp1:hr>
<tp1:cad>67</tp1:cad>
</tp1:TrackPointExtension>
</extensions>
</trkpt>
<trkpt lat="51.9259140" lon="13.8958160">
<ele>4.5950000</ele>
<time>2010-06-27T11:20:23Z</time>
<extensions>
<tp1:TrackPointExtension>
<tp1:hr>124</tp1:hr>
<tp1:cad>0</tp1:cad>
</tp1:TrackPointExtension>
</extensions>
</trkpt>
<trkpt lat="51.9254150" lon="13.8957820">
<ele>4.2230000</ele>
<time>2010-06-27T11:20:31Z</time>
<extensions>
<tp1:TrackPointExtension>
<tp1:hr>123</tp1:hr>
<tp1:cad>65</tp1:cad>
</tp1:TrackPointExtension>
</extensions>
</trkpt>
<trkpt lat="51.9248780" lon="13.8957380">
<ele>4.9370000</ele>
<time>2010-06-27T11:20:39Z</time>
<extensions>
<tp1:TrackPointExtension>
<tp1:hr>124</tp1:hr>
<tp1:cad>65</tp1:cad>
</tp1:TrackPointExtension>
</extensions>
</trkpt>
<trkpt lat="51.9243350" lon="13.8956910">
<ele>5.1290000</ele>
<time>2010-06-27T11:20:47Z</time>
<extensions>
<tp1:TrackPointExtension>
<tp1:hr>125</tp1:hr>
<tp1:cad>67</tp1:cad>
</tp1:TrackPointExtension>
</extensions>
</trkpt>
<trkpt lat="51.9236500" lon="13.8956350">
<ele>5.1310000</ele>
<time>2010-06-27T11:20:57Z</time>
<extensions>
<tp1:TrackPointExtension>
<tp1:hr>126</tp1:hr>
<tp1:cad>78</tp1:cad>
</tp1:TrackPointExtension>
</extensions>
</trkpt>
<trkpt lat="51.9227540" lon="13.8955640">
<ele>5.0260000</ele>
<time>2010-06-27T11:21:10Z</time>
<extensions>
<tp1:TrackPointExtension>
<tp1:hr>128</tp1:hr>
<tp1:cad>80</tp1:cad>
</tp1:TrackPointExtension>
</extensions>
</trkpt>
<trkpt lat="51.9220330" lon="13.8955020">
<ele>4.1160000</ele>
<time>2010-06-27T11:21:20Z</time>
<extensions>
<tp1:TrackPointExtension>
<tp1:hr>131</tp1:hr>
<tp1:cad>82</tp1:cad>
</tp1:TrackPointExtension>
</extensions>
</trkpt>
<trkpt lat="51.9212420" lon="13.8954340">
<ele>4.3040000</ele>
<time>2010-06-27T11:21:31Z</time>
<extensions>
<tp1:TrackPointExtension>
<tp1:hr>131</tp1:hr>
<tp1:cad>81</tp1:cad>
</tp1:TrackPointExtension>
</extensions>
</trkpt>
<trkpt lat="51.9203800" lon="13.8953600">
<ele>5.4260000</ele>
<time>2010-06-27T11:21:43Z</time>
<extensions>
<tp1:TrackPointExtension>
<tp1:hr>130</tp1:hr>
<tp1:cad>83</tp1:cad>
</tp1:TrackPointExtension>
</extensions>
</trkpt>
<trkpt lat="51.9198850" lon="13.8953840">
<ele>5.3770000</ele>
<time>2010-06-27T11:21:50Z</time>
<extensions>
<tp1:TrackPointExtension>
<tp1:hr>131</tp1:hr>
<tp1:cad>80</tp1:cad>
</tp1:TrackPointExtension>
</extensions>
</trkpt>
<trkpt lat="51.9198160" lon="13.8953970">
<ele>5.4460000</ele>
<time>2010-06-27T11:21:51Z</time>
<extensions>
<tp1:TrackPointExtension>
<tp1:hr>132</tp1:hr>
<tp1:cad>80</tp1:cad>
</tp1:TrackPointExtension>
</extensions>
</trkpt>
<trkpt lat="51.9194740" lon="13.8953260">
<ele>5.2700000</ele>
<time>2010-06-27T11:21:56Z</time>
<extensions>
<tp1:TrackPointExtension>
<tp1:hr>132</tp1:hr>
<tp1:cad>83</tp1:cad>
</tp1:TrackPointExtension>
</extensions>
</trkpt>
<trkpt lat="51.9190480" lon="13.8952520">
<ele>6.2290000</ele>
<time>2010-06-27T11:22:02Z</time>
<extensions>
<tp1:TrackPointExtension>
<tp1:hr>133</tp1:hr>
<tp1:cad>82</tp1:cad>
</tp1:TrackPointExtension>
</extensions>
</trkpt>
<trkpt lat="51.9182600" lon="13.8951820">
<ele>6.1370000</ele>
<time>2010-06-27T11:22:13Z</time>
<extensions>
<tp1:TrackPointExtension>
<tp1:hr>134</tp1:hr>
<tp1:cad>85</tp1:cad>
</tp1:TrackPointExtension>
</extensions>
</trkpt>
<trkpt lat="51.9174440" lon="13.8951090">
<ele>6.6930000</ele>
<time>2010-06-27T11:22:24Z</time>
<extensions>
<tp1:TrackPointExtension>
<tp1:hr>138</tp1:hr>
<tp1:cad>86</tp1:cad>
</tp1:TrackPointExtension>
</extensions>
</trkpt>
<trkpt lat="51.9166390" lon="13.8950410">
<ele>7.0130000</ele>
<time>2010-06-27T11:22:35Z</time>
<extensions>
<tp1:TrackPointExtension>
<tp1:hr>139</tp1:hr>
<tp1:cad>83</tp1:cad>
</tp1:TrackPointExtension>
</extensions>
</trkpt>
<trkpt lat="51.9159900" lon="13.8949860">
<ele>6.7090000</ele>
<time>2010-06-27T11:22:44Z</time>
<extensions>
<tp1:TrackPointExtension>
<tp1:hr>140</tp1:hr>
<tp1:cad>84</tp1:cad>
</tp1:TrackPointExtension>
</extensions>
</trkpt>
<trkpt lat="51.9150350" lon="13.8949050">
<ele>7.3460000</ele>
<time>2010-06-27T11:22:57Z</time>
<extensions>
<tp1:TrackPointExtension>
<tp1:hr>139</tp1:hr>
<tp1:cad>79</tp1:cad>
</tp1:TrackPointExtension>
</extensions>
</trkpt>
<trkpt lat="51.9141220" lon="13.8948270">
<ele>7.0440000</ele>
<time>2010-06-27T11:23:09Z</time>
<extensions>
<tp1:TrackPointExtension>
<tp1:hr>139</tp1:hr>
<tp1:cad>80</tp1:cad>
</tp1:TrackPointExtension>
</extensions>
</trkpt>
<trkpt lat="51.9133330" lon="13.8947600">
<ele>5.8200000</ele>
<time>2010-06-27T11:23:19Z</time>
<extensions>
<tp1:TrackPointExtension>
<tp1:hr>139</tp1:hr>
<tp1:cad>85</tp1:cad>
</tp1:TrackPointExtension>
</extensions>
</trkpt>
<trkpt lat="51.9123320" lon="13.8946750">
<ele>5.1390000</ele>
<time>2010-06-27T11:23:31Z</time>
<extensions>
<tp1:TrackPointExtension>
<tp1:hr>139</tp1:hr>
<tp1:cad>86</tp1:cad>
</tp1:TrackPointExtension>
</extensions>
</trkpt>
<trkpt lat="51.9115930" lon="13.8946130">
<ele>4.8720000</ele>
<time>2010-06-27T11:23:40Z</time>
<extensions>
<tp1:TrackPointExtension>
<tp1:hr>138</tp1:hr>
<tp1:cad>0</tp1:cad>
</tp1:TrackPointExtension>
</extensions>
</trkpt>
<trkpt lat="51.9109410" lon="13.8945580">
<ele>3.3530000</ele>
<time>2010-06-27T11:23:49Z</time>
<extensions>
<tp1:TrackPointExtension>
<tp1:hr>135</tp1:hr>
<tp1:cad>0</tp1:cad>
</tp1:TrackPointExtension>
</extensions>
</trkpt>
<trkpt lat="51.9105790" lon="13.8945270">
<ele>2.9240000</ele>
<time>2010-06-27T11:23:55Z</time>
<extensions>
<tp1:TrackPointExtension>
<tp1:hr>133</tp1:hr>
<tp1:cad>0</tp1:cad>
</tp1:TrackPointExtension>
</extensions>
</trkpt>
<trkpt lat="51.9103680" lon="13.8945090">
<ele>2.7910000</ele>
<time>2010-06-27T11:23:59Z</time>
<extensions>
<tp1:TrackPointExtension>
<tp1:hr>133</tp1:hr>
<tp1:cad>0</tp1:cad>
</tp1:TrackPointExtension>
</extensions>
</trkpt>
<trkpt lat="51.9102720" lon="13.8945010">
<ele>2.3230000</ele>
<time>2010-06-27T11:24:02Z</time>
<extensions>
<tp1:TrackPointExtension>
<tp1:hr>132</tp1:hr>
<tp1:cad>0</tp1:cad>
</tp1:TrackPointExtension>
</extensions>
</trkpt>
<trkpt lat="51.9102380" lon="13.8944980">
<ele>1.9800000</ele>
<time>2010-06-27T11:24:05Z</time>
<extensions>
<tp1:TrackPointExtension>
<tp1:hr>131</tp1:hr>
</tp1:TrackPointExtension>
</extensions>
</trkpt>
</trkseg>
<trkseg>
<trkpt lat="51.9102380" lon="13.8944980">
<ele>2.5000000</ele>
<time>2010-06-27T11:26:02Z</time>
<extensions>
<tp1:TrackPointExtension>
<tp1:hr>114</tp1:hr>
</tp1:TrackPointExtension>
</extensions>
</trkpt>
<trkpt lat="51.9102150" lon="13.8944960">
<ele>2.5240000</ele>
<time>2010-06-27T11:26:03Z</time>
<extensions>
<tp1:TrackPointExtension>
<tp1:hr>115</tp1:hr>
</tp1:TrackPointExtension>
</extensions>
</trkpt>
<trkpt lat="51.9100310" lon="13.8944800">
<ele>2.7490000</ele>
<time>2010-06-27T11:26:08Z</time>
<extensions>
<tp1:TrackPointExtension>
<tp1:hr>113</tp1:hr>
<tp1:cad>45</tp1:cad>
</tp1:TrackPointExtension>
</extensions>
</trkpt>
<trkpt lat="51.9099490" lon="13.8944730">
<ele>3.0730000</ele>
<time>2010-06-27T11:26:10Z</time>
<extensions>
<tp1:TrackPointExtension>
<tp1:hr>112</tp1:hr>
<tp1:cad>47</tp1:cad>
</tp1:TrackPointExtension>
</extensions>
</trkpt>
<trkpt lat="51.9095850" lon="13.8944420">
<ele>3.6010000</ele>
<time>2010-06-27T11:26:17Z</time>
<extensions>
<tp1:TrackPointExtension>
<tp1:hr>111</tp1:hr>
<tp1:cad>61</tp1:cad>
</tp1:TrackPointExtension>
</extensions>
</trkpt>
<trkpt lat="51.9093600" lon="13.8944230">
<ele>3.3840000</ele>
<time>2010-06-27T11:26:21Z</time>
<extensions>
<tp1:TrackPointExtension>
<tp1:hr>112</tp1:hr>
<tp1:cad>68</tp1:cad>
</tp1:TrackPointExtension>
</extensions>
</trkpt>
<trkpt lat="51.9092970" lon="13.8944180">
<ele>3.3420000</ele>
<time>2010-06-27T11:26:22Z</time>
<extensions>
<tp1:TrackPointExtension>
<tp1:hr>112</tp1:hr>
<tp1:cad>69</tp1:cad>
</tp1:TrackPointExtension>
</extensions>
</trkpt>
<trkpt lat="51.9087140" lon="13.8943600">
<ele>3.5620000</ele>
<time>2010-06-27T11:26:30Z</time>
<extensions>
<tp1:TrackPointExtension>
<tp1:hr>116</tp1:hr>
<tp1:cad>74</tp1:cad>
</tp1:TrackPointExtension>
</extensions>
</trkpt>
<trkpt lat="51.9081900" lon="13.8943120">
<ele>3.0910000</ele>
<time>2010-06-27T11:26:37Z</time>
<extensions>
<tp1:TrackPointExtension>
<tp1:hr>122</tp1:hr>
<tp1:cad>78</tp1:cad>
</tp1:TrackPointExtension>
</extensions>
</trkpt>
<trkpt lat="51.9075610" lon="13.8942540">
<ele>3.2490000</ele>
<time>2010-06-27T11:26:45Z</time>
<extensions>
<tp1:TrackPointExtension>
<tp1:hr>124</tp1:hr>
<tp1:cad>81</tp1:cad>
</tp1:TrackPointExtension>
</extensions>
</trkpt>
<trkpt lat="51.9069460" lon="13.8941970">
<ele>3.3200000</ele>
<time>2010-06-27T11:26:53Z</time>
<extensions>
<tp1:TrackPointExtension>
<tp1:hr>127</tp1:hr>
<tp1:cad>83</tp1:cad>
</tp1:TrackPointExtension>
</extensions>
</trkpt>
<trkpt lat="51.9063990" lon="13.8941470">
<ele>3.2510000</ele>
<time>2010-06-27T11:27:00Z</time>
<extensions>
<tp1:TrackPointExtension>
<tp1:hr>130</tp1:hr>
<tp1:cad>83</tp1:cad>
</tp1:TrackPointExtension>
</extensions>
</trkpt>
<trkpt lat="51.9057780" lon="13.8940890">
<ele>3.0730000</ele>
<time>2010-06-27T11:27:08Z</time>
<extensions>
<tp1:TrackPointExtension>
<tp1:hr>130</tp1:hr>
<tp1:cad>79</tp1:cad>
</tp1:TrackPointExtension>
</extensions>
</trkpt>
<trkpt lat="51.9053220" lon="13.8940480">
<ele>3.1030000</ele>
<time>2010-06-27T11:27:14Z</time>
<extensions>
<tp1:TrackPointExtension>
<tp1:hr>130</tp1:hr>
<tp1:cad>81</tp1:cad>
</tp1:TrackPointExtension>
</extensions>
</trkpt>
<trkpt lat="51.9048290" lon="13.8940020">
<ele>3.7370000</ele>
<time>2010-06-27T11:27:20Z</time>
<extensions>
<tp1:TrackPointExtension>
<tp1:hr>131</tp1:hr>
<tp1:cad>81</tp1:cad>
</tp1:TrackPointExtension>
</extensions>
</trkpt>
<trkpt lat="51.9042600" lon="13.8939500">
<ele>3.3180000</ele>
<time>2010-06-27T11:27:27Z</time>
<extensions>
<tp1:TrackPointExtension>
<tp1:hr>132</tp1:hr>
<tp1:cad>82</tp1:cad>
</tp1:TrackPointExtension>
</extensions>
</trkpt>
<trkpt lat="51.9037850" lon="13.8939060">
<ele>3.0040000</ele>
<time>2010-06-27T11:27:33Z</time>
<extensions>
<tp1:TrackPointExtension>
<tp1:hr>133</tp1:hr>
<tp1:cad>83</tp1:cad>
</tp1:TrackPointExtension>
</extensions>
</trkpt>
<trkpt lat="51.9033080" lon="13.8938620">
<ele>3.1030000</ele>
<time>2010-06-27T11:27:39Z</time>
<extensions>
<tp1:TrackPointExtension>
<tp1:hr>133</tp1:hr>
<tp1:cad>83</tp1:cad>
</tp1:TrackPointExtension>
</extensions>
</trkpt>
<trkpt lat="51.9026600" lon="13.8938020">
<ele>2.9290000</ele>
<time>2010-06-27T11:27:47Z</time>
<extensions>
<tp1:TrackPointExtension>
<tp1:hr>133</tp1:hr>
<tp1:cad>83</tp1:cad>
</tp1:TrackPointExtension>
</extensions>
</trkpt>
<trkpt lat="51.9022100" lon="13.8937610">
<ele>2.6700000</ele>
<time>2010-06-27T11:27:53Z</time>
<extensions>
<tp1:TrackPointExtension>
<tp1:hr>133</tp1:hr>
<tp1:cad>82</tp1:cad>
</tp1:TrackPointExtension>
</extensions>
</trkpt>
<trkpt lat="51.9017080" lon="13.8937150">
<ele>3.0210000</ele>
<time>2010-06-27T11:28:00Z</time>
<extensions>
<tp1:TrackPointExtension>
<tp1:hr>133</tp1:hr>
<tp1:cad>83</tp1:cad>
</tp1:TrackPointExtension>
</extensions>
</trkpt>
<trkpt lat="51.9011930" lon="13.8936670">
<ele>3.0140000</ele>
<time>2010-06-27T11:28:06Z</time>
<extensions>
<tp1:TrackPointExtension>
<tp1:hr>133</tp1:hr>
<tp1:cad>86</tp1:cad>
</tp1:TrackPointExtension>
</extensions>
</trkpt>
<trkpt lat="51.9007060" lon="13.8937410">
<ele>3.9890000</ele>
<time>2010-06-27T11:28:12Z</time>
<extensions>
<tp1:TrackPointExtension>
<tp1:hr>134</tp1:hr>
<tp1:cad>84</tp1:cad>
</tp1:TrackPointExtension>
</extensions>
</trkpt>
<trkpt lat="51.9003220" lon="13.8938600">
<ele>3.4420000</ele>
<time>2010-06-27T11:28:17Z</time>
<extensions>
<tp1:TrackPointExtension>
<tp1:hr>135</tp1:hr>
<tp1:cad>85</tp1:cad>
</tp1:TrackPointExtension>
</extensions>
</trkpt>
<trkpt lat="51.8999630" lon="13.8939710">
<ele>3.7330000</ele>
<time>2010-06-27T11:28:22Z</time>
<extensions>
<tp1:TrackPointExtension>
<tp1:hr>136</tp1:hr>
<tp1:cad>86</tp1:cad>
</tp1:TrackPointExtension>
</extensions>
</trkpt>
<trkpt lat="51.8993610" lon="13.8941560">
<ele>4.4800000</ele>
<time>2010-06-27T11:28:29Z</time>
<extensions>
<tp1:TrackPointExtension>
<tp1:hr>138</tp1:hr>
<tp1:cad>85</tp1:cad>
</tp1:TrackPointExtension>
</extensions>
</trkpt>
<trkpt lat="51.8990370" lon="13.8943580">
<ele>4.6160000</ele>
<time>2010-06-27T11:28:33Z</time>
<extensions>
<tp1:TrackPointExtension>
<tp1:hr>139</tp1:hr>
<tp1:cad>87</tp1:cad>
</tp1:TrackPointExtension>
</extensions>
</trkpt>
<trkpt lat="51.8985670" lon="13.8947140">
<ele>5.0560000</ele>
<time>2010-06-27T11:28:39Z</time>
<extensions>
<tp1:TrackPointExtension>
<tp1:hr>140</tp1:hr>
<tp1:cad>87</tp1:cad>
</tp1:TrackPointExtension>
</extensions>
</trkpt>
<trkpt lat="51.8981860" lon="13.8950030">
<ele>5.3930000</ele>
<time>2010-06-27T11:28:44Z</time>
<extensions>
<tp1:TrackPointExtension>
<tp1:hr>140</tp1:hr>
<tp1:cad>88</tp1:cad>
</tp1:TrackPointExtension>
</extensions>
</trkpt>
<trkpt lat="51.8976620" lon="13.8953990">
<ele>6.5990000</ele>
<time>2010-06-27T11:28:51Z</time>
<extensions>
<tp1:TrackPointExtension>
<tp1:hr>141</tp1:hr>
<tp1:cad>83</tp1:cad>
</tp1:TrackPointExtension>
</extensions>
</trkpt>
<trkpt lat="51.8972310" lon="13.8957250">
<ele>6.1290000</ele>
<time>2010-06-27T11:28:57Z</time>
<extensions>
<tp1:TrackPointExtension>
<tp1:hr>141</tp1:hr>
<tp1:cad>85</tp1:cad>
</tp1:TrackPointExtension>
</extensions>
</trkpt>
<trkpt lat="51.8969370" lon="13.8959480">
<ele>6.4450000</ele>
<time>2010-06-27T11:29:01Z</time>
<extensions>
<tp1:TrackPointExtension>
<tp1:hr>141</tp1:hr>
<tp1:cad>84</tp1:cad>
</tp1:TrackPointExtension>
</extensions>
</trkpt>
<trkpt lat="51.8964170" lon="13.8963420">
<ele>6.5090000</ele>
<time>2010-06-27T11:29:08Z</time>
<extensions>
<tp1:TrackPointExtension>
<tp1:hr>141</tp1:hr>
<tp1:cad>86</tp1:cad>
</tp1:TrackPointExtension>
</extensions>
</trkpt>
<trkpt lat="51.8960690" lon="13.8966050">
<ele>6.7270000</ele>
<time>2010-06-27T11:29:13Z</time>
<extensions>
<tp1:TrackPointExtension>
<tp1:hr>141</tp1:hr>
<tp1:cad>84</tp1:cad>
</tp1:TrackPointExtension>
</extensions>
</trkpt>
<trkpt lat="51.8955510" lon="13.8969970">
<ele>7.5370000</ele>
<time>2010-06-27T11:29:20Z</time>
<extensions>
<tp1:TrackPointExtension>
<tp1:hr>141</tp1:hr>
<tp1:cad>84</tp1:cad>
</tp1:TrackPointExtension>
</extensions>
</trkpt>
<trkpt lat="51.8952490" lon="13.8972250">
<ele>7.0860000</ele>
<time>2010-06-27T11:29:24Z</time>
<extensions>
<tp1:TrackPointExtension>
<tp1:hr>141</tp1:hr>
<tp1:cad>83</tp1:cad>
</tp1:TrackPointExtension>
</extensions>
</trkpt>
<trkpt lat="51.8946430" lon="13.8976840">
<ele>7.0550000</ele>
<time>2010-06-27T11:29:32Z</time>
<extensions>
<tp1:TrackPointExtension>
<tp1:hr>142</tp1:hr>
<tp1:cad>86</tp1:cad>
</tp1:TrackPointExtension>
</extensions>
</trkpt>
<trkpt lat="51.8942650" lon="13.8979700">
<ele>5.7770000</ele>
<time>2010-06-27T11:29:37Z</time>
<extensions>
<tp1:TrackPointExtension>
<tp1:hr>143</tp1:hr>
<tp1:cad>88</tp1:cad>
</tp1:TrackPointExtension>
</extensions>
</trkpt>
<trkpt lat="51.8939730" lon="13.8981920">
<ele>5.0690000</ele>
<time>2010-06-27T11:29:41Z</time>
<extensions>
<tp1:TrackPointExtension>
<tp1:hr>143</tp1:hr>
<tp1:cad>89</tp1:cad>
</tp1:TrackPointExtension>
</extensions>
</trkpt>
<trkpt lat="51.8935190" lon="13.8985350">
<ele>4.9100000</ele>
<time>2010-06-27T11:29:47Z</time>
<extensions>
<tp1:TrackPointExtension>
<tp1:hr>143</tp1:hr>
<tp1:cad>87</tp1:cad>
</tp1:TrackPointExtension>
</extensions>
</trkpt>
<trkpt lat="51.8930700" lon="13.8988750">
<ele>4.9950000</ele>
<time>2010-06-27T11:29:53Z</time>
<extensions>
<tp1:TrackPointExtension>
<tp1:hr>143</tp1:hr>
<tp1:cad>85</tp1:cad>
</tp1:TrackPointExtension>
</extensions>
</trkpt>
<trkpt lat="51.8929280" lon="13.8989820">
<ele>4.6490000</ele>
<time>2010-06-27T11:29:55Z</time>
<extensions>
<tp1:TrackPointExtension>
<tp1:hr>143</tp1:hr>
<tp1:cad>85</tp1:cad>
</tp1:TrackPointExtension>
</extensions>
</trkpt>
<trkpt lat="51.8924920" lon="13.8993120">
<ele>3.6580000</ele>
<time>2010-06-27T11:30:01Z</time>
<extensions>
<tp1:TrackPointExtension>
<tp1:hr>144</tp1:hr>
<tp1:cad>0</tp1:cad>
</tp1:TrackPointExtension>
</extensions>
</trkpt>
<trkpt lat="51.8920560" lon="13.8996430">
<ele>2.9520000</ele>
<time>2010-06-27T11:30:07Z</time>
<extensions>
<tp1:TrackPointExtension>
<tp1:hr>143</tp1:hr>
<tp1:cad>80</tp1:cad>
</tp1:TrackPointExtension>
</extensions>
</trkpt>
<trkpt lat="51.8919850" lon="13.8996960">
<ele>2.9620000</ele>
<time>2010-06-27T11:30:08Z</time>
<extensions>
<tp1:TrackPointExtension>
<tp1:hr>143</tp1:hr>
<tp1:cad>22</tp1:cad>
</tp1:TrackPointExtension>
</extensions>
</trkpt>
<trkpt lat="51.8915730" lon="13.9000080">
<ele>2.4330000</ele>
<time>2010-06-27T11:30:14Z</time>
<extensions>
<tp1:TrackPointExtension>
<tp1:hr>143</tp1:hr>
<tp1:cad>77</tp1:cad>
</tp1:TrackPointExtension>
</extensions>
</trkpt>
<trkpt lat="51.8911530" lon="13.9002370">
<ele>2.6890000</ele>
<time>2010-06-27T11:30:22Z</time>
<extensions>
<tp1:TrackPointExtension>
<tp1:hr>142</tp1:hr>
<tp1:cad>79</tp1:cad>
</tp1:TrackPointExtension>
</extensions>
</trkpt>
<trkpt lat="51.8902820" lon="13.9005090">
<ele>3.6940000</ele>
<time>2010-06-27T11:30:31Z</time>
<extensions>
<tp1:TrackPointExtension>
<tp1:hr>142</tp1:hr>
<tp1:cad>82</tp1:cad>
</tp1:TrackPointExtension>
</extensions>
</trkpt>
<trkpt lat="51.8898540" lon="13.9006430">
<ele>2.7520000</ele>
<time>2010-06-27T11:30:37Z</time>
<extensions>
<tp1:TrackPointExtension>
<tp1:hr>141</tp1:hr>
<tp1:cad>70</tp1:cad>
</tp1:TrackPointExtension>
</extensions>
</trkpt>
<trkpt lat="51.8895180" lon="13.9007470">
<ele>2.6820000</ele>
<time>2010-06-27T11:30:42Z</time>
<extensions>
<tp1:TrackPointExtension>
<tp1:hr>141</tp1:hr>
<tp1:cad>74</tp1:cad>
</tp1:TrackPointExtension>
</extensions>
</trkpt>
<trkpt lat="51.8889270" lon="13.9009290">
<ele>3.4170000</ele>
<time>2010-06-27T11:30:50Z</time>
<extensions>
<tp1:TrackPointExtension>
<tp1:hr>141</tp1:hr>
<tp1:cad>81</tp1:cad>
</tp1:TrackPointExtension>
</extensions>
</trkpt>
<trkpt lat="51.8882280" lon="13.9011390">
<ele>2.5680000</ele>
<time>2010-06-27T11:30:59Z</time>
<extensions>
<tp1:TrackPointExtension>
<tp1:hr>140</tp1:hr>
<tp1:cad>83</tp1:cad>
</tp1:TrackPointExtension>
</extensions>
</trkpt>
<trkpt lat="51.8877050" lon="13.9012960">
<ele>2.5170000</ele>
<time>2010-06-27T11:31:06Z</time>
<extensions>
<tp1:TrackPointExtension>
<tp1:hr>139</tp1:hr>
<tp1:cad>74</tp1:cad>
</tp1:TrackPointExtension>
</extensions>
</trkpt>
<trkpt lat="51.8871380" lon="13.9014800">
<ele>2.7490000</ele>
<time>2010-06-27T11:31:14Z</time>
<extensions>
<tp1:TrackPointExtension>
<tp1:hr>139</tp1:hr>
<tp1:cad>79</tp1:cad>
</tp1:TrackPointExtension>
</extensions>
</trkpt>
<trkpt lat="51.8865320" lon="13.9016570">
<ele>3.5680000</ele>
<time>2010-06-27T11:31:22Z</time>
<extensions>
<tp1:TrackPointExtension>
<tp1:hr>139</tp1:hr>
<tp1:cad>81</tp1:cad>
</tp1:TrackPointExtension>
</extensions>
</trkpt>
<trkpt lat="51.8860950" lon="13.9019130">
<ele>4.5970000</ele>
<time>2010-06-27T11:31:28Z</time>
<extensions>
<tp1:TrackPointExtension>
<tp1:hr>139</tp1:hr>
<tp1:cad>80</tp1:cad>
</tp1:TrackPointExtension>
</extensions>
</trkpt>
<trkpt lat="51.8859620" lon="13.9020310">
<ele>4.6090000</ele>
<time>2010-06-27T11:31:29Z</time>
<extensions>
<tp1:TrackPointExtension>
<tp1:hr>139</tp1:hr>
<tp1:cad>81</tp1:cad>
</tp1:TrackPointExtension>
</extensions>
</trkpt>
</trkseg>
<trkseg>
<trkpt lat="51.8852890" lon="13.9026430">
<ele>3.7470000</ele>
<time>2010-06-27T11:31:40Z</time>
<extensions>
<tp1:TrackPointExtension>
<tp1:hr>137</tp1:hr>
<tp1:cad>82</tp1:cad>
</tp1:TrackPointExtension>
</extensions>
</trkpt>
<trkpt lat="51.8848130" lon="13.9030840">
<ele>4.6020000</ele>
<time>2010-06-27T11:31:47Z</time>
<extensions>
<tp1:TrackPointExtension>
<tp1:hr>138</tp1:hr>
<tp1:cad>83</tp1:cad>
</tp1:TrackPointExtension>
</extensions>
</trkpt>
<trkpt lat="51.8841900" lon="13.9036570">
<ele>5.6250000</ele>
<time>2010-06-27T11:31:56Z</time>
<extensions>
<tp1:TrackPointExtension>
<tp1:hr>142</tp1:hr>
<tp1:cad>79</tp1:cad>
</tp1:TrackPointExtension>
</extensions>
</trkpt>
<trkpt lat="51.8837330" lon="13.9040850">
<ele>4.7870000</ele>
<time>2010-06-27T11:32:03Z</time>
<extensions>
<tp1:TrackPointExtension>
<tp1:hr>145</tp1:hr>
<tp1:cad>81</tp1:cad>
</tp1:TrackPointExtension>
</extensions>
</trkpt>
<trkpt lat="51.8833470" lon="13.9044490">
<ele>3.4240000</ele>
<time>2010-06-27T11:32:09Z</time>
<extensions>
<tp1:TrackPointExtension>
<tp1:hr>145</tp1:hr>
<tp1:cad>79</tp1:cad>
</tp1:TrackPointExtension>
</extensions>
</trkpt>
<trkpt lat="51.8829550" lon="13.9048040">
<ele>4.6690000</ele>
<time>2010-06-27T11:32:15Z</time>
<extensions>
<tp1:TrackPointExtension>
<tp1:hr>145</tp1:hr>
<tp1:cad>0</tp1:cad>
</tp1:TrackPointExtension>
</extensions>
</trkpt>
<trkpt lat="51.8827710" lon="13.9049710">
<ele>4.7300000</ele>
<time>2010-06-27T11:32:18Z</time>
<extensions>
<tp1:TrackPointExtension>
<tp1:hr>144</tp1:hr>
<tp1:cad>79</tp1:cad>
</tp1:TrackPointExtension>
</extensions>
</trkpt>
<trkpt lat="51.8822980" lon="13.9054080">
<ele>3.5010000</ele>
<time>2010-06-27T11:32:25Z</time>
<extensions>
<tp1:TrackPointExtension>
<tp1:hr>144</tp1:hr>
<tp1:cad>83</tp1:cad>
</tp1:TrackPointExtension>
</extensions>
</trkpt>
<trkpt lat="51.8817420" lon="13.9059220">
<ele>3.3010000</ele>
<time>2010-06-27T11:32:33Z</time>
<extensions>
<tp1:TrackPointExtension>
<tp1:hr>144</tp1:hr>
<tp1:cad>83</tp1:cad>
</tp1:TrackPointExtension>
</extensions>
</trkpt>
<trkpt lat="51.8816730" lon="13.9059860">
<ele>3.3980000</ele>
<time>2010-06-27T11:32:34Z</time>
<extensions>
<tp1:TrackPointExtension>
<tp1:hr>144</tp1:hr>
<tp1:cad>82</tp1:cad>
</tp1:TrackPointExtension>
</extensions>
</trkpt>
<trkpt lat="51.8815370" lon="13.9061110">
<ele>3.2670000</ele>
<time>2010-06-27T11:32:36Z</time>
<extensions>
<tp1:TrackPointExtension>
<tp1:hr>144</tp1:hr>
<tp1:cad>80</tp1:cad>
</tp1:TrackPointExtension>
</extensions>
</trkpt>
<trkpt lat="51.8812050" lon="13.9064180">
<ele>3.4270000</ele>
<time>2010-06-27T11:32:41Z</time>
<extensions>
<tp1:TrackPointExtension>
<tp1:hr>145</tp1:hr>
<tp1:cad>83</tp1:cad>
</tp1:TrackPointExtension>
</extensions>
</trkpt>
<trkpt lat="51.8807970" lon="13.9067950">
<ele>2.7770000</ele>
<time>2010-06-27T11:32:47Z</time>
<extensions>
<tp1:TrackPointExtension>
<tp1:hr>144</tp1:hr>
<tp1:cad>80</tp1:cad>
</tp1:TrackPointExtension>
</extensions>
</trkpt>
<trkpt lat="51.8801240" lon="13.9074170">
<ele>2.6280000</ele>
<time>2010-06-27T11:32:57Z</time>
<extensions>
<tp1:TrackPointExtension>
<tp1:hr>144</tp1:hr>
<tp1:cad>82</tp1:cad>
</tp1:TrackPointExtension>
</extensions>
</trkpt>
<trkpt lat="51.8795030" lon="13.9079910">
<ele>2.6110000</ele>
<time>2010-06-27T11:33:06Z</time>
<extensions>
<tp1:TrackPointExtension>
<tp1:hr>146</tp1:hr>
<tp1:cad>83</tp1:cad>
</tp1:TrackPointExtension>
</extensions>
</trkpt>
<trkpt lat="51.8790790" lon="13.9083820">
<ele>2.4510000</ele>
<time>2010-06-27T11:33:12Z</time>
<extensions>
<tp1:TrackPointExtension>
<tp1:hr>146</tp1:hr>
<tp1:cad>85</tp1:cad>
</tp1:TrackPointExtension>
</extensions>
</trkpt>
<trkpt lat="51.8781530" lon="13.9092360">
<ele>2.1300000</ele>
<time>2010-06-27T11:33:25Z</time>
<extensions>
<tp1:TrackPointExtension>
<tp1:hr>146</tp1:hr>
<tp1:cad>86</tp1:cad>
</tp1:TrackPointExtension>
</extensions>
</trkpt>
<trkpt lat="51.8775150" lon="13.9098240">
<ele>2.7730000</ele>
<time>2010-06-27T11:33:34Z</time>
<extensions>
<tp1:TrackPointExtension>
<tp1:hr>146</tp1:hr>
<tp1:cad>81</tp1:cad>
</tp1:TrackPointExtension>
</extensions>
</trkpt>
<trkpt lat="51.8770420" lon="13.9102610">
<ele>3.3380000</ele>
<time>2010-06-27T11:33:41Z</time>
<extensions>
<tp1:TrackPointExtension>
<tp1:hr>144</tp1:hr>
<tp1:cad>83</tp1:cad>
</tp1:TrackPointExtension>
</extensions>
</trkpt>
<trkpt lat="51.8763520" lon="13.9109000">
<ele>3.9900000</ele>
<time>2010-06-27T11:33:51Z</time>
<extensions>
<tp1:TrackPointExtension>
<tp1:hr>144</tp1:hr>
<tp1:cad>86</tp1:cad>
</tp1:TrackPointExtension>
</extensions>
</trkpt>
<trkpt lat="51.8757870" lon="13.9114180">
<ele>4.4560000</ele>
<time>2010-06-27T11:33:59Z</time>
<extensions>
<tp1:TrackPointExtension>
<tp1:hr>145</tp1:hr>
<tp1:cad>85</tp1:cad>
</tp1:TrackPointExtension>
</extensions>
</trkpt>
<trkpt lat="51.8750160" lon="13.9121240">
<ele>5.2850000</ele>
<time>2010-06-27T11:34:10Z</time>
<extensions>
<tp1:TrackPointExtension>
<tp1:hr>147</tp1:hr>
<tp1:cad>85</tp1:cad>
</tp1:TrackPointExtension>
</extensions>
</trkpt>
<trkpt lat="51.8743900" lon="13.9126960">
<ele>4.9390000</ele>
<time>2010-06-27T11:34:19Z</time>
<extensions>
<tp1:TrackPointExtension>
<tp1:hr>149</tp1:hr>
<tp1:cad>83</tp1:cad>
</tp1:TrackPointExtension>
</extensions>
</trkpt>
<trkpt lat="51.8736920" lon="13.9133360">
<ele>4.9280000</ele>
<time>2010-06-27T11:34:29Z</time>
<extensions>
<tp1:TrackPointExtension>
<tp1:hr>149</tp1:hr>
<tp1:cad>88</tp1:cad>
</tp1:TrackPointExtension>
</extensions>
</trkpt>
<trkpt lat="51.8730930" lon="13.9138850">
<ele>4.3930000</ele>
<time>2010-06-27T11:34:37Z</time>
<extensions>
<tp1:TrackPointExtension>
<tp1:hr>149</tp1:hr>
<tp1:cad>92</tp1:cad>
</tp1:TrackPointExtension>
</extensions>
</trkpt>
<trkpt lat="51.8725860" lon="13.9143490">
<ele>4.6760000</ele>
<time>2010-06-27T11:34:44Z</time>
<extensions>
<tp1:TrackPointExtension>
<tp1:hr>149</tp1:hr>
<tp1:cad>80</tp1:cad>
</tp1:TrackPointExtension>
</extensions>
</trkpt>
<trkpt lat="51.8720750" lon="13.9148170">
<ele>5.5500000</ele>
<time>2010-06-27T11:34:52Z</time>
<extensions>
<tp1:TrackPointExtension>
<tp1:hr>146</tp1:hr>
<tp1:cad>77</tp1:cad>
</tp1:TrackPointExtension>
</extensions>
</trkpt>
<trkpt lat="51.8715590" lon="13.9152900">
<ele>5.2740000</ele>
<time>2010-06-27T11:35:00Z</time>
<extensions>
<tp1:TrackPointExtension>
<tp1:hr>145</tp1:hr>
<tp1:cad>80</tp1:cad>
</tp1:TrackPointExtension>
</extensions>
</trkpt>
<trkpt lat="51.8712190" lon="13.9156010">
<ele>4.7600000</ele>
<time>2010-06-27T11:35:06Z</time>
<extensions>
<tp1:TrackPointExtension>
<tp1:hr>143</tp1:hr>
<tp1:cad>68</tp1:cad>
</tp1:TrackPointExtension>
</extensions>
</trkpt>
<trkpt lat="51.8706810" lon="13.9161010">
<ele>5.4760000</ele>
<time>2010-06-27T11:35:15Z</time>
<extensions>
<tp1:TrackPointExtension>
<tp1:hr>141</tp1:hr>
<tp1:cad>72</tp1:cad>
</tp1:TrackPointExtension>
</extensions>
</trkpt>
<trkpt lat="51.8706220" lon="13.9161550">
<ele>5.4990000</ele>
<time>2010-06-27T11:35:16Z</time>
<extensions>
<tp1:TrackPointExtension>
<tp1:hr>141</tp1:hr>
<tp1:cad>72</tp1:cad>
</tp1:TrackPointExtension>
</extensions>
</trkpt>
<trkpt lat="51.8702750" lon="13.9164650">
<ele>5.2600000</ele>
<time>2010-06-27T11:35:22Z</time>
<extensions>
<tp1:TrackPointExtension>
<tp1:hr>138</tp1:hr>
<tp1:cad>35</tp1:cad>
</tp1:TrackPointExtension>
</extensions>
</trkpt>
<trkpt lat="51.8698140" lon="13.9168780">
<ele>5.3720000</ele>
<time>2010-06-27T11:35:30Z</time>
<extensions>
<tp1:TrackPointExtension>
<tp1:hr>136</tp1:hr>
<tp1:cad>70</tp1:cad>
</tp1:TrackPointExtension>
</extensions>
</trkpt>
<trkpt lat="51.8693630" lon="13.9172800">
<ele>5.7820000</ele>
<time>2010-06-27T11:35:38Z</time>
<extensions>
<tp1:TrackPointExtension>
<tp1:hr>132</tp1:hr>
<tp1:cad>67</tp1:cad>
</tp1:TrackPointExtension>
</extensions>
</trkpt>
<trkpt lat="51.8690340" lon="13.9175740">
<ele>5.5470000</ele>
<time>2010-06-27T11:35:44Z</time>
<extensions>
<tp1:TrackPointExtension>
<tp1:hr>128</tp1:hr>
<tp1:cad>25</tp1:cad>
</tp1:TrackPointExtension>
</extensions>
</trkpt>
<trkpt lat="51.8685860" lon="13.9179810">
<ele>4.8750000</ele>
<time>2010-06-27T11:35:52Z</time>
<extensions>
<tp1:TrackPointExtension>
<tp1:hr>125</tp1:hr>
<tp1:cad>69</tp1:cad>
</tp1:TrackPointExtension>
</extensions>
</trkpt>
<trkpt lat="51.8680000" lon="13.9185150">
<ele>4.5590000</ele>
<time>2010-06-27T11:36:02Z</time>
<extensions>
<tp1:TrackPointExtension>
<tp1:hr>121</tp1:hr>
<tp1:cad>72</tp1:cad>
</tp1:TrackPointExtension>
</extensions>
</trkpt>
<trkpt lat="51.8676470" lon="13.9188460">
<ele>3.8440000</ele>
<time>2010-06-27T11:36:08Z</time>
<extensions>
<tp1:TrackPointExtension>
<tp1:hr>119</tp1:hr>
<tp1:cad>0</tp1:cad>
</tp1:TrackPointExtension>
</extensions>
</trkpt>
<trkpt lat="51.8673970" lon="13.9190810">
<ele>3.5170000</ele>
<time>2010-06-27T11:36:12Z</time>
<extensions>
<tp1:TrackPointExtension>
<tp1:hr>118</tp1:hr>
<tp1:cad>76</tp1:cad>
</tp1:TrackPointExtension>
</extensions>
</trkpt>
<trkpt lat="51.8671690" lon="13.9193410">
<ele>3.3600000</ele>
<time>2010-06-27T11:36:16Z</time>
<extensions>
<tp1:TrackPointExtension>
<tp1:hr>118</tp1:hr>
<tp1:cad>69</tp1:cad>
</tp1:TrackPointExtension>
</extensions>
</trkpt>
<trkpt lat="51.8670160" lon="13.9195160">
<ele>3.5450000</ele>
<time>2010-06-27T11:36:19Z</time>
<extensions>
<tp1:TrackPointExtension>
<tp1:hr>118</tp1:hr>
<tp1:cad>68</tp1:cad>
</tp1:TrackPointExtension>
</extensions>
</trkpt>
<trkpt lat="51.8666700" lon="13.9201180">
<ele>3.8850000</ele>
<time>2010-06-27T11:36:27Z</time>
<extensions>
<tp1:TrackPointExtension>
<tp1:hr>118</tp1:hr>
<tp1:cad>67</tp1:cad>
</tp1:TrackPointExtension>
</extensions>
</trkpt>
<trkpt lat="51.8663610" lon="13.9207530">
<ele>4.3520000</ele>
<time>2010-06-27T11:36:35Z</time>
<extensions>
<tp1:TrackPointExtension>
<tp1:hr>119</tp1:hr>
<tp1:cad>63</tp1:cad>
</tp1:TrackPointExtension>
</extensions>
</trkpt>
<trkpt lat="51.8661470" lon="13.9212210">
<ele>4.4960000</ele>
<time>2010-06-27T11:36:41Z</time>
<extensions>
<tp1:TrackPointExtension>
<tp1:hr>119</tp1:hr>
<tp1:cad>65</tp1:cad>
</tp1:TrackPointExtension>
</extensions>
</trkpt>
<trkpt lat="51.8659010" lon="13.9217900">
<ele>4.5480000</ele>
<time>2010-06-27T11:36:48Z</time>
<extensions>
<tp1:TrackPointExtension>
<tp1:hr>120</tp1:hr>
<tp1:cad>64</tp1:cad>
</tp1:TrackPointExtension>
</extensions>
</trkpt>
<trkpt lat="51.8656950" lon="13.9223980">
<ele>5.0870000</ele>
<time>2010-06-27T11:36:55Z</time>
<extensions>
<tp1:TrackPointExtension>
<tp1:hr>120</tp1:hr>
<tp1:cad>65</tp1:cad>
</tp1:TrackPointExtension>
</extensions>
</trkpt>
<trkpt lat="51.8655150" lon="13.9229280">
<ele>5.0810000</ele>
<time>2010-06-27T11:37:01Z</time>
<extensions>
<tp1:TrackPointExtension>
<tp1:hr>121</tp1:hr>
<tp1:cad>69</tp1:cad>
</tp1:TrackPointExtension>
</extensions>
</trkpt>
<trkpt lat="51.8654420" lon="13.9232060">
<ele>4.8220000</ele>
<time>2010-06-27T11:37:04Z</time>
<extensions>
<tp1:TrackPointExtension>
<tp1:hr>121</tp1:hr>
<tp1:cad>0</tp1:cad>
</tp1:TrackPointExtension>
</extensions>
</trkpt>
<trkpt lat="51.8653460" lon="13.9235720">
<ele>4.0520000</ele>
<time>2010-06-27T11:37:08Z</time>
<extensions>
<tp1:TrackPointExtension>
<tp1:hr>121</tp1:hr>
<tp1:cad>0</tp1:cad>
</tp1:TrackPointExtension>
</extensions>
</trkpt>
<trkpt lat="51.8651740" lon="13.9242300">
<ele>3.2590000</ele>
<time>2010-06-27T11:37:15Z</time>
<extensions>
<tp1:TrackPointExtension>
<tp1:hr>120</tp1:hr>
<tp1:cad>69</tp1:cad>
</tp1:TrackPointExtension>
</extensions>
</trkpt>
<trkpt lat="51.8650270" lon="13.9248220">
<ele>3.3220000</ele>
<time>2010-06-27T11:37:21Z</time>
<extensions>
<tp1:TrackPointExtension>
<tp1:hr>120</tp1:hr>
<tp1:cad>70</tp1:cad>
</tp1:TrackPointExtension>
</extensions>
</trkpt>
<trkpt lat="51.8649480" lon="13.9253440">
<ele>1.8640000</ele>
<time>2010-06-27T11:37:26Z</time>
<extensions>
<tp1:TrackPointExtension>
<tp1:hr>119</tp1:hr>
<tp1:cad>68</tp1:cad>
</tp1:TrackPointExtension>
</extensions>
</trkpt>
<trkpt lat="51.8649010" lon="13.9256490">
<ele>1.6290000</ele>
<time>2010-06-27T11:37:29Z</time>
<extensions>
<tp1:TrackPointExtension>
<tp1:hr>117</tp1:hr>
<tp1:cad>0</tp1:cad>
</tp1:TrackPointExtension>
</extensions>
</trkpt>
<trkpt lat="51.8647830" lon="13.9263760">
<ele>1.8060000</ele>
<time>2010-06-27T11:37:36Z</time>
<extensions>
<tp1:TrackPointExtension>
<tp1:hr>116</tp1:hr>
<tp1:cad>0</tp1:cad>
</tp1:TrackPointExtension>
</extensions>
</trkpt>
<trkpt lat="51.8647610" lon="13.9268080">
<ele>1.5850000</ele>
<time>2010-06-27T11:37:40Z</time>
<extensions>
<tp1:TrackPointExtension>
<tp1:hr>114</tp1:hr>
<tp1:cad>32</tp1:cad>
</tp1:TrackPointExtension>
</extensions>
</trkpt>
<trkpt lat="51.8647520" lon="13.9271330">
<ele>1.4060000</ele>
<time>2010-06-27T11:37:43Z</time>
<extensions>
<tp1:TrackPointExtension>
<tp1:hr>114</tp1:hr>
<tp1:cad>72</tp1:cad>
</tp1:TrackPointExtension>
</extensions>
</trkpt>
<trkpt lat="51.8647600" lon="13.9280540">
<ele>1.5790000</ele>
<time>2010-06-27T11:37:51Z</time>
<extensions>
<tp1:TrackPointExtension>
<tp1:hr>116</tp1:hr>
<tp1:cad>78</tp1:cad>
</tp1:TrackPointExtension>
</extensions>
</trkpt>
<trkpt lat="51.8647930" lon="13.9290500">
<ele>1.7650000</ele>
<time>2010-06-27T11:37:59Z</time>
<extensions>
<tp1:TrackPointExtension>
<tp1:hr>118</tp1:hr>
<tp1:cad>87</tp1:cad>
</tp1:TrackPointExtension>
</extensions>
</trkpt>
<trkpt lat="51.8648290" lon="13.9301340">
<ele>2.7110000</ele>
<time>2010-06-27T11:38:07Z</time>
<extensions>
<tp1:TrackPointExtension>
<tp1:hr>124</tp1:hr>
<tp1:cad>89</tp1:cad>
</tp1:TrackPointExtension>
</extensions>
</trkpt>
<trkpt lat="51.8648700" lon="13.9312370">
<ele>1.9790000</ele>
<time>2010-06-27T11:38:15Z</time>
<extensions>
<tp1:TrackPointExtension>
<tp1:hr>129</tp1:hr>
<tp1:cad>90</tp1:cad>
</tp1:TrackPointExtension>
</extensions>
</trkpt>
<trkpt lat="51.8649090" lon="13.9324790">
<ele>1.3190000</ele>
<time>2010-06-27T11:38:24Z</time>
<extensions>
<tp1:TrackPointExtension>
<tp1:hr>133</tp1:hr>
<tp1:cad>92</tp1:cad>
</tp1:TrackPointExtension>
</extensions>
</trkpt>
<trkpt lat="51.8649390" lon="13.9334630">
<ele>1.1170000</ele>
<time>2010-06-27T11:38:31Z</time>
<extensions>
<tp1:TrackPointExtension>
<tp1:hr>136</tp1:hr>
<tp1:cad>94</tp1:cad>
</tp1:TrackPointExtension>
</extensions>
</trkpt>
<trkpt lat="51.8649800" lon="13.9346110">
<ele>1.9690000</ele>
<time>2010-06-27T11:38:39Z</time>
<extensions>
<tp1:TrackPointExtension>
<tp1:hr>138</tp1:hr>
<tp1:cad>91</tp1:cad>
</tp1:TrackPointExtension>
</extensions>
</trkpt>
<trkpt lat="51.8650330" lon="13.9358780">
<ele>1.1180000</ele>
<time>2010-06-27T11:38:48Z</time>
<extensions>
<tp1:TrackPointExtension>
<tp1:hr>138</tp1:hr>
<tp1:cad>92</tp1:cad>
</tp1:TrackPointExtension>
</extensions>
</trkpt>
<trkpt lat="51.8650820" lon="13.9368220">
<ele>1.2040000</ele>
<time>2010-06-27T11:38:55Z</time>
<extensions>
<tp1:TrackPointExtension>
<tp1:hr>138</tp1:hr>
<tp1:cad>0</tp1:cad>
</tp1:TrackPointExtension>
</extensions>
</trkpt>
<trkpt lat="51.8651000" lon="13.9371680">
<ele>0.9400000</ele>
<time>2010-06-27T11:38:58Z</time>
<extensions>
<tp1:TrackPointExtension>
<tp1:hr>137</tp1:hr>
<tp1:cad>0</tp1:cad>
</tp1:TrackPointExtension>
</extensions>
</trkpt>
<trkpt lat="51.8649210" lon="13.9372200">
<ele>0.7430000</ele>
<time>2010-06-27T11:39:00Z</time>
<extensions>
<tp1:TrackPointExtension>
<tp1:hr>137</tp1:hr>
<tp1:cad>75</tp1:cad>
</tp1:TrackPointExtension>
</extensions>
</trkpt>
<trkpt lat="51.8648390" lon="13.9372160">
<ele>0.3110000</ele>
<time>2010-06-27T11:39:01Z</time>
<extensions>
<tp1:TrackPointExtension>
<tp1:hr>137</tp1:hr>
<tp1:cad>76</tp1:cad>
</tp1:TrackPointExtension>
</extensions>
</trkpt>
<trkpt lat="51.8641040" lon="13.9371560">
<ele>-0.0940000</ele>
<time>2010-06-27T11:39:10Z</time>
<extensions>
<tp1:TrackPointExtension>
<tp1:hr>135</tp1:hr>
<tp1:cad>86</tp1:cad>
</tp1:TrackPointExtension>
</extensions>
</trkpt>
<trkpt lat="51.8636950" lon="13.9371370">
<ele>-0.6200000</ele>
<time>2010-06-27T11:39:15Z</time>
<extensions>
<tp1:TrackPointExtension>
<tp1:hr>134</tp1:hr>
<tp1:cad>0</tp1:cad>
</tp1:TrackPointExtension>
</extensions>
</trkpt>
<trkpt lat="51.8634090" lon="13.9371230">
<ele>-0.6340000</ele>
<time>2010-06-27T11:39:19Z</time>
<extensions>
<tp1:TrackPointExtension>
<tp1:hr>133</tp1:hr>
<tp1:cad>0</tp1:cad>
</tp1:TrackPointExtension>
</extensions>
</trkpt>
<trkpt lat="51.8634090" lon="13.9374730">
<ele>-0.0920000</ele>
<time>2010-06-27T11:39:21Z</time>
<extensions>
<tp1:TrackPointExtension>
<tp1:hr>133</tp1:hr>
<tp1:cad>83</tp1:cad>
</tp1:TrackPointExtension>
</extensions>
</trkpt>
<trkpt lat="51.8633870" lon="13.9385540">
<ele>0.2830000</ele>
<time>2010-06-27T11:39:29Z</time>
<extensions>
<tp1:TrackPointExtension>
<tp1:hr>132</tp1:hr>
<tp1:cad>87</tp1:cad>
</tp1:TrackPointExtension>
</extensions>
</trkpt>
<trkpt lat="51.8633660" lon="13.9393450">
<ele>0.7870000</ele>
<time>2010-06-27T11:39:35Z</time>
<extensions>
<tp1:TrackPointExtension>
<tp1:hr>133</tp1:hr>
<tp1:cad>83</tp1:cad>
</tp1:TrackPointExtension>
</extensions>
</trkpt>
<trkpt lat="51.8633500" lon="13.9402050">
<ele>0.5170000</ele>
<time>2010-06-27T11:39:42Z</time>
<extensions>
<tp1:TrackPointExtension>
<tp1:hr>133</tp1:hr>
<tp1:cad>0</tp1:cad>
</tp1:TrackPointExtension>
</extensions>
</trkpt>
<trkpt lat="51.8633350" lon="13.9406550">
<ele>0.1620000</ele>
<time>2010-06-27T11:39:46Z</time>
<extensions>
<tp1:TrackPointExtension>
<tp1:hr>133</tp1:hr>
<tp1:cad>74</tp1:cad>
</tp1:TrackPointExtension>
</extensions>
</trkpt>
<trkpt lat="51.8633230" lon="13.9410200">
<ele>0.1510000</ele>
<time>2010-06-27T11:39:50Z</time>
<extensions>
<tp1:TrackPointExtension>
<tp1:hr>133</tp1:hr>
<tp1:cad>0</tp1:cad>
</tp1:TrackPointExtension>
</extensions>
</trkpt>
<trkpt lat="51.8633230" lon="13.9410610">
<ele>0.1460000</ele>
<time>2010-06-27T11:39:51Z</time>
<extensions>
<tp1:TrackPointExtension>
<tp1:hr>133</tp1:hr>
<tp1:cad>0</tp1:cad>
</tp1:TrackPointExtension>
</extensions>
</trkpt>
<trkpt lat="51.8633230" lon="13.9412800">
<ele>-0.0740000</ele>
<time>2010-06-27T11:39:56Z</time>
<extensions>
<tp1:TrackPointExtension>
<tp1:hr>133</tp1:hr>
<tp1:cad>39</tp1:cad>
</tp1:TrackPointExtension>
</extensions>
</trkpt>
<trkpt lat="51.8634240" lon="13.9413840">
<ele>0.3430000</ele>
<time>2010-06-27T11:40:00Z</time>
<extensions>
<tp1:TrackPointExtension>
<tp1:hr>132</tp1:hr>
<tp1:cad>68</tp1:cad>
</tp1:TrackPointExtension>
</extensions>
</trkpt>
<trkpt lat="51.8635170" lon="13.9413940">
<ele>0.7040000</ele>
<time>2010-06-27T11:40:02Z</time>
<extensions>
<tp1:TrackPointExtension>
<tp1:hr>132</tp1:hr>
<tp1:cad>81</tp1:cad>
</tp1:TrackPointExtension>
</extensions>
</trkpt>
<trkpt lat="51.8636620" lon="13.9414020">
<ele>1.3090000</ele>
<time>2010-06-27T11:40:04Z</time>
<extensions>
<tp1:TrackPointExtension>
<tp1:hr>132</tp1:hr>
<tp1:cad>90</tp1:cad>
</tp1:TrackPointExtension>
</extensions>
</trkpt>
<trkpt lat="51.8641210" lon="13.9414410">
<ele>2.2710000</ele>
<time>2010-06-27T11:40:09Z</time>
<extensions>
<tp1:TrackPointExtension>
<tp1:hr>133</tp1:hr>
<tp1:cad>98</tp1:cad>
</tp1:TrackPointExtension>
</extensions>
</trkpt>
<trkpt lat="51.8646750" lon="13.9414800">
<ele>0.1250000</ele>
<time>2010-06-27T11:40:15Z</time>
<extensions>
<tp1:TrackPointExtension>
<tp1:hr>135</tp1:hr>
<tp1:cad>0</tp1:cad>
</tp1:TrackPointExtension>
</extensions>
</trkpt>
<trkpt lat="51.8650630" lon="13.9415090">
<ele>0.7150000</ele>
<time>2010-06-27T11:40:20Z</time>
<extensions>
<tp1:TrackPointExtension>
<tp1:hr>137</tp1:hr>
<tp1:cad>0</tp1:cad>
</tp1:TrackPointExtension>
</extensions>
</trkpt>
<trkpt lat="51.8652080" lon="13.9415200">
<ele>0.7650000</ele>
<time>2010-06-27T11:40:23Z</time>
<extensions>
<tp1:TrackPointExtension>
<tp1:hr>138</tp1:hr>
<tp1:cad>65</tp1:cad>
</tp1:TrackPointExtension>
</extensions>
</trkpt>
<trkpt lat="51.8652330" lon="13.9415220">
<ele>0.6130000</ele>
<time>2010-06-27T11:40:24Z</time>
<extensions>
<tp1:TrackPointExtension>
<tp1:hr>139</tp1:hr>
<tp1:cad>65</tp1:cad>
</tp1:TrackPointExtension>
</extensions>
</trkpt>
<trkpt lat="51.8652690" lon="13.9424690">
<ele>1.5200000</ele>
<time>2010-06-27T11:40:30Z</time>
<extensions>
<tp1:TrackPointExtension>
<tp1:hr>143</tp1:hr>
<tp1:cad>97</tp1:cad>
</tp1:TrackPointExtension>
</extensions>
</trkpt>
<trkpt lat="51.8653220" lon="13.9438290">
<ele>2.2630000</ele>
<time>2010-06-27T11:40:39Z</time>
<extensions>
<tp1:TrackPointExtension>
<tp1:hr>146</tp1:hr>
<tp1:cad>98</tp1:cad>
</tp1:TrackPointExtension>
</extensions>
</trkpt>
<trkpt lat="51.8653790" lon="13.9453240">
<ele>2.0770000</ele>
<time>2010-06-27T11:40:49Z</time>
<extensions>
<tp1:TrackPointExtension>
<tp1:hr>149</tp1:hr>
<tp1:cad>99</tp1:cad>
</tp1:TrackPointExtension>
</extensions>
</trkpt>
<trkpt lat="51.8654090" lon="13.9460770">
<ele>2.4620000</ele>
<time>2010-06-27T11:40:54Z</time>
<extensions>
<tp1:TrackPointExtension>
<tp1:hr>150</tp1:hr>
<tp1:cad>100</tp1:cad>
</tp1:TrackPointExtension>
</extensions>
</trkpt>
<trkpt lat="51.8654680" lon="13.9472760">
<ele>2.0580000</ele>
<time>2010-06-27T11:41:02Z</time>
<extensions>
<tp1:TrackPointExtension>
<tp1:hr>152</tp1:hr>
<tp1:cad>96</tp1:cad>
</tp1:TrackPointExtension>
</extensions>
</trkpt>
<trkpt lat="51.8655130" lon="13.9484400">
<ele>1.3410000</ele>
<time>2010-06-27T11:41:10Z</time>
<extensions>
<tp1:TrackPointExtension>
<tp1:hr>153</tp1:hr>
<tp1:cad>94</tp1:cad>
</tp1:TrackPointExtension>
</extensions>
</trkpt>
<trkpt lat="51.8655520" lon="13.9494500">
<ele>1.5370000</ele>
<time>2010-06-27T11:41:17Z</time>
<extensions>
<tp1:TrackPointExtension>
<tp1:hr>154</tp1:hr>
<tp1:cad>94</tp1:cad>
</tp1:TrackPointExtension>
</extensions>
</trkpt>
<trkpt lat="51.8655840" lon="13.9503040">
<ele>1.9680000</ele>
<time>2010-06-27T11:41:23Z</time>
<extensions>
<tp1:TrackPointExtension>
<tp1:hr>154</tp1:hr>
<tp1:cad>92</tp1:cad>
</tp1:TrackPointExtension>
</extensions>
</trkpt>
<trkpt lat="51.8656270" lon="13.9515700">
<ele>1.5590000</ele>
<time>2010-06-27T11:41:32Z</time>
<extensions>
<tp1:TrackPointExtension>
<tp1:hr>154</tp1:hr>
<tp1:cad>93</tp1:cad>
</tp1:TrackPointExtension>
</extensions>
</trkpt>
<trkpt lat="51.8656480" lon="13.9526820">
<ele>1.9580000</ele>
<time>2010-06-27T11:41:40Z</time>
<extensions>
<tp1:TrackPointExtension>
<tp1:hr>154</tp1:hr>
<tp1:cad>89</tp1:cad>
</tp1:TrackPointExtension>
</extensions>
</trkpt>
<trkpt lat="51.8656620" lon="13.9532160">
<ele>1.5170000</ele>
<time>2010-06-27T11:41:45Z</time>
<extensions>
<tp1:TrackPointExtension>
<tp1:hr>153</tp1:hr>
<tp1:cad>0</tp1:cad>
</tp1:TrackPointExtension>
</extensions>
</trkpt>
<trkpt lat="51.8655800" lon="13.9536490">
<ele>1.7360000</ele>
<time>2010-06-27T11:41:48Z</time>
<extensions>
<tp1:TrackPointExtension>
<tp1:hr>153</tp1:hr>
<tp1:cad>0</tp1:cad>
</tp1:TrackPointExtension>
</extensions>
</trkpt>
<trkpt lat="51.8654780" lon="13.9539440">
<ele>1.2390000</ele>
<time>2010-06-27T11:41:52Z</time>
<extensions>
<tp1:TrackPointExtension>
<tp1:hr>152</tp1:hr>
<tp1:cad>75</tp1:cad>
</tp1:TrackPointExtension>
</extensions>
</trkpt>
<trkpt lat="51.8657830" lon="13.9541410">
<ele>1.4510000</ele>
<time>2010-06-27T11:41:55Z</time>
<extensions>
<tp1:TrackPointExtension>
<tp1:hr>152</tp1:hr>
<tp1:cad>78</tp1:cad>
</tp1:TrackPointExtension>
</extensions>
</trkpt>
<trkpt lat="51.8658460" lon="13.9541830">
<ele>1.6800000</ele>
<time>2010-06-27T11:41:56Z</time>
<extensions>
<tp1:TrackPointExtension>
<tp1:hr>152</tp1:hr>
<tp1:cad>77</tp1:cad>
</tp1:TrackPointExtension>
</extensions>
</trkpt>
<trkpt lat="51.8659970" lon="13.9542870">
<ele>1.9120000</ele>
<time>2010-06-27T11:41:58Z</time>
<extensions>
<tp1:TrackPointExtension>
<tp1:hr>152</tp1:hr>
<tp1:cad>77</tp1:cad>
</tp1:TrackPointExtension>
</extensions>
</trkpt>
<trkpt lat="51.8662580" lon="13.9545270">
<ele>1.6590000</ele>
<time>2010-06-27T11:42:02Z</time>
<extensions>
<tp1:TrackPointExtension>
<tp1:hr>151</tp1:hr>
<tp1:cad>78</tp1:cad>
</tp1:TrackPointExtension>
</extensions>
</trkpt>
<trkpt lat="51.8666170" lon="13.9551190">
<ele>1.7660000</ele>
<time>2010-06-27T11:42:09Z</time>
<extensions>
<tp1:TrackPointExtension>
<tp1:hr>150</tp1:hr>
<tp1:cad>75</tp1:cad>
</tp1:TrackPointExtension>
</extensions>
</trkpt>
<trkpt lat="51.8668160" lon="13.9553990">
<ele>1.2690000</ele>
<time>2010-06-27T11:42:13Z</time>
<extensions>
<tp1:TrackPointExtension>
<tp1:hr>149</tp1:hr>
<tp1:cad>75</tp1:cad>
</tp1:TrackPointExtension>
</extensions>
</trkpt>
<trkpt lat="51.8669440" lon="13.9554920">
<ele>1.4060000</ele>
<time>2010-06-27T11:42:15Z</time>
<extensions>
<tp1:TrackPointExtension>
<tp1:hr>149</tp1:hr>
<tp1:cad>75</tp1:cad>
</tp1:TrackPointExtension>
</extensions>
</trkpt>
<trkpt lat="51.8671210" lon="13.9556190">
<ele>1.2080000</ele>
<time>2010-06-27T11:42:19Z</time>
<extensions>
<tp1:TrackPointExtension>
<tp1:hr>147</tp1:hr>
<tp1:cad>76</tp1:cad>
</tp1:TrackPointExtension>
</extensions>
</trkpt>
<trkpt lat="51.8674120" lon="13.9565150">
<ele>1.0550000</ele>
<time>2010-06-27T11:42:26Z</time>
<extensions>
<tp1:TrackPointExtension>
<tp1:hr>146</tp1:hr>
<tp1:cad>81</tp1:cad>
</tp1:TrackPointExtension>
</extensions>
</trkpt>
<trkpt lat="51.8675630" lon="13.9569280">
<ele>1.1300000</ele>
<time>2010-06-27T11:42:30Z</time>
<extensions>
<tp1:TrackPointExtension>
<tp1:hr>144</tp1:hr>
<tp1:cad>82</tp1:cad>
</tp1:TrackPointExtension>
</extensions>
</trkpt>
<trkpt lat="51.8678290" lon="13.9573790">
<ele>0.4930000</ele>
<time>2010-06-27T11:42:38Z</time>
<extensions>
<tp1:TrackPointExtension>
<tp1:hr>143</tp1:hr>
<tp1:cad>84</tp1:cad>
</tp1:TrackPointExtension>
</extensions>
</trkpt>
<trkpt lat="51.8681520" lon="13.9584610">
<ele>0.2940000</ele>
<time>2010-06-27T11:42:45Z</time>
<extensions>
<tp1:TrackPointExtension>
<tp1:hr>143</tp1:hr>
<tp1:cad>86</tp1:cad>
</tp1:TrackPointExtension>
</extensions>
</trkpt>
<trkpt lat="51.8682620" lon="13.9591720">
<ele>0.2550000</ele>
<time>2010-06-27T11:42:51Z</time>
<extensions>
<tp1:TrackPointExtension>
<tp1:hr>141</tp1:hr>
<tp1:cad>87</tp1:cad>
</tp1:TrackPointExtension>
</extensions>
</trkpt>
<trkpt lat="51.8683810" lon="13.9601220">
<ele>0.9970000</ele>
<time>2010-06-27T11:42:59Z</time>
<extensions>
<tp1:TrackPointExtension>
<tp1:hr>139</tp1:hr>
<tp1:cad>80</tp1:cad>
</tp1:TrackPointExtension>
</extensions>
</trkpt>
<trkpt lat="51.8685040" lon="13.9609140">
<ele>1.0290000</ele>
<time>2010-06-27T11:43:06Z</time>
<extensions>
<tp1:TrackPointExtension>
<tp1:hr>138</tp1:hr>
<tp1:cad>87</tp1:cad>
</tp1:TrackPointExtension>
</extensions>
</trkpt>
<trkpt lat="51.8686530" lon="13.9617360">
<ele>0.2020000</ele>
<time>2010-06-27T11:43:13Z</time>
<extensions>
<tp1:TrackPointExtension>
<tp1:hr>137</tp1:hr>
<tp1:cad>0</tp1:cad>
</tp1:TrackPointExtension>
</extensions>
</trkpt>
<trkpt lat="51.8687420" lon="13.9621570">
<ele>0.1750000</ele>
<time>2010-06-27T11:43:17Z</time>
<extensions>
<tp1:TrackPointExtension>
<tp1:hr>136</tp1:hr>
<tp1:cad>0</tp1:cad>
</tp1:TrackPointExtension>
</extensions>
</trkpt>
<trkpt lat="51.8688320" lon="13.9626080">
<ele>0.0340000</ele>
<time>2010-06-27T11:43:22Z</time>
<extensions>
<tp1:TrackPointExtension>
<tp1:hr>132</tp1:hr>
<tp1:cad>0</tp1:cad>
</tp1:TrackPointExtension>
</extensions>
</trkpt>
<trkpt lat="51.8688830" lon="13.9627760">
<ele>0.0520000</ele>
<time>2010-06-27T11:43:25Z</time>
<extensions>
<tp1:TrackPointExtension>
<tp1:hr>130</tp1:hr>
<tp1:cad>0</tp1:cad>
</tp1:TrackPointExtension>
</extensions>
</trkpt>
<trkpt lat="51.8687500" lon="13.9627910">
<ele>0.0520000</ele>
<time>2010-06-27T11:43:26Z</time>
<extensions>
<tp1:TrackPointExtension>
<tp1:hr>129</tp1:hr>
<tp1:cad>0</tp1:cad>
</tp1:TrackPointExtension>
</extensions>
</trkpt>
<trkpt lat="51.8686640" lon="13.9628450">
<ele>0.2050000</ele>
<time>2010-06-27T11:43:28Z</time>
<extensions>
<tp1:TrackPointExtension>
<tp1:hr>128</tp1:hr>
<tp1:cad>0</tp1:cad>
</tp1:TrackPointExtension>
</extensions>
</trkpt>
<trkpt lat="51.8685520" lon="13.9629160">
<ele>-0.3730000</ele>
<time>2010-06-27T11:43:32Z</time>
<extensions>
<tp1:TrackPointExtension>
<tp1:hr>127</tp1:hr>
<tp1:cad>0</tp1:cad>
</tp1:TrackPointExtension>
</extensions>
</trkpt>
<trkpt lat="51.8685030" lon="13.9629480">
<ele>-0.3010000</ele>
<time>2010-06-27T11:43:37Z</time>
<extensions>
<tp1:TrackPointExtension>
<tp1:hr>125</tp1:hr>
<tp1:cad>0</tp1:cad>
</tp1:TrackPointExtension>
</extensions>
</trkpt>
<trkpt lat="51.8684670" lon="13.9629700">
<ele>-0.2910000</ele>
<time>2010-06-27T11:43:39Z</time>
<extensions>
<tp1:TrackPointExtension>
<tp1:hr>125</tp1:hr>
<tp1:cad>0</tp1:cad>
</tp1:TrackPointExtension>
</extensions>
</trkpt>
</trkseg>
</trk>
</gpx>
